<?xml version="1.0" encoding="UTF-8" standalone="no" ?>
<gpx xmlns="http://www.topografix.com/GPX/1/1" xmlns:xsi="http://www.w3.org/2001/XMLSchema-instance" xsi:schemaLocation="http://www.topografix.com/GPX/1/1 http://www.topografix.com/GPX/1/1/gpx.xsd" version="1.1" creator="VisuGPX - https://www.visugpx.com">
  <metadata>
    <name>Jura 2016 / Jour 2</name>
    <desc><![CDATA[Entre le Noir mont et le mont tendre]]></desc>
  </metadata>
  <trk>
    <name><![CDATA[Tracé 15 juil. 2016 11:36:04]]></name>
    <trkseg>
      <trkpt lat="46.5322" lon="6.18098">
        <ele>1471</ele>
        <time>2016-07-15T09:36:04Z</time>
      </trkpt>
      <trkpt lat="46.5322" lon="6.18094">
        <ele>1471</ele>
        <time>2016-07-15T09:36:16Z</time>
      </trkpt>
      <trkpt lat="46.5324" lon="6.18097">
        <ele>1470</ele>
        <time>2016-07-15T09:36:21Z</time>
      </trkpt>
      <trkpt lat="46.53217" lon="6.18114">
        <ele>1471</ele>
        <time>2016-07-15T09:36:25Z</time>
      </trkpt>
      <trkpt lat="46.53219" lon="6.18099">
        <ele>1471</ele>
        <time>2016-07-15T09:36:28Z</time>
      </trkpt>
      <trkpt lat="46.53227" lon="6.18097">
        <ele>1470</ele>
        <time>2016-07-15T09:38:32Z</time>
      </trkpt>
      <trkpt lat="46.53234" lon="6.18104">
        <ele>1470</ele>
        <time>2016-07-15T09:42:24Z</time>
      </trkpt>
      <trkpt lat="46.53242" lon="6.18106">
        <ele>1470</ele>
        <time>2016-07-15T09:42:31Z</time>
      </trkpt>
      <trkpt lat="46.53247" lon="6.18114">
        <ele>1470</ele>
        <time>2016-07-15T09:42:39Z</time>
      </trkpt>
      <trkpt lat="46.5325" lon="6.18123">
        <ele>1469</ele>
        <time>2016-07-15T09:42:43Z</time>
      </trkpt>
      <trkpt lat="46.53256" lon="6.18134">
        <ele>1470</ele>
        <time>2016-07-15T09:42:48Z</time>
      </trkpt>
      <trkpt lat="46.53261" lon="6.18145">
        <ele>1470</ele>
        <time>2016-07-15T09:42:53Z</time>
      </trkpt>
      <trkpt lat="46.53265" lon="6.18155">
        <ele>1470</ele>
        <time>2016-07-15T09:42:58Z</time>
      </trkpt>
      <trkpt lat="46.53268" lon="6.18166">
        <ele>1470</ele>
        <time>2016-07-15T09:44:02Z</time>
      </trkpt>
      <trkpt lat="46.5327" lon="6.18177">
        <ele>1472</ele>
        <time>2016-07-15T09:44:05Z</time>
      </trkpt>
      <trkpt lat="46.53272" lon="6.18188">
        <ele>1473</ele>
        <time>2016-07-15T09:44:10Z</time>
      </trkpt>
      <trkpt lat="46.53273" lon="6.182">
        <ele>1473</ele>
        <time>2016-07-15T09:44:15Z</time>
      </trkpt>
      <trkpt lat="46.53276" lon="6.1821">
        <ele>1474</ele>
        <time>2016-07-15T09:44:19Z</time>
      </trkpt>
      <trkpt lat="46.5328" lon="6.1822">
        <ele>1474</ele>
        <time>2016-07-15T09:44:25Z</time>
      </trkpt>
      <trkpt lat="46.53282" lon="6.18234">
        <ele>1474</ele>
        <time>2016-07-15T09:44:28Z</time>
      </trkpt>
      <trkpt lat="46.53285" lon="6.18256">
        <ele>1479</ele>
        <time>2016-07-15T09:44:33Z</time>
      </trkpt>
      <trkpt lat="46.53286" lon="6.18262">
        <ele>1479</ele>
        <time>2016-07-15T09:44:38Z</time>
      </trkpt>
      <trkpt lat="46.53287" lon="6.18274">
        <ele>1479</ele>
        <time>2016-07-15T09:44:42Z</time>
      </trkpt>
      <trkpt lat="46.53291" lon="6.18284">
        <ele>1480</ele>
        <time>2016-07-15T09:44:47Z</time>
      </trkpt>
      <trkpt lat="46.53294" lon="6.18295">
        <ele>1480</ele>
        <time>2016-07-15T09:44:52Z</time>
      </trkpt>
      <trkpt lat="46.53298" lon="6.18305">
        <ele>1481</ele>
        <time>2016-07-15T09:45:12Z</time>
      </trkpt>
      <trkpt lat="46.533" lon="6.18316">
        <ele>1481</ele>
        <time>2016-07-15T09:45:18Z</time>
      </trkpt>
      <trkpt lat="46.53297" lon="6.18327">
        <ele>1482</ele>
        <time>2016-07-15T09:45:23Z</time>
      </trkpt>
      <trkpt lat="46.53294" lon="6.18337">
        <ele>1486</ele>
        <time>2016-07-15T09:45:28Z</time>
      </trkpt>
      <trkpt lat="46.5329" lon="6.18349">
        <ele>1486</ele>
        <time>2016-07-15T09:45:37Z</time>
      </trkpt>
      <trkpt lat="46.5329" lon="6.18361">
        <ele>1486</ele>
        <time>2016-07-15T09:45:51Z</time>
      </trkpt>
      <trkpt lat="46.53291" lon="6.18372">
        <ele>1487</ele>
        <time>2016-07-15T09:46:10Z</time>
      </trkpt>
      <trkpt lat="46.5329" lon="6.18385">
        <ele>1487</ele>
        <time>2016-07-15T09:46:15Z</time>
      </trkpt>
      <trkpt lat="46.53288" lon="6.18397">
        <ele>1487</ele>
        <time>2016-07-15T09:46:21Z</time>
      </trkpt>
      <trkpt lat="46.53284" lon="6.18407">
        <ele>1488</ele>
        <time>2016-07-15T09:46:27Z</time>
      </trkpt>
      <trkpt lat="46.53283" lon="6.18419">
        <ele>1490</ele>
        <time>2016-07-15T09:46:33Z</time>
      </trkpt>
      <trkpt lat="46.53286" lon="6.18431">
        <ele>1490</ele>
        <time>2016-07-15T09:46:41Z</time>
      </trkpt>
      <trkpt lat="46.53288" lon="6.18442">
        <ele>1490</ele>
        <time>2016-07-15T09:46:48Z</time>
      </trkpt>
      <trkpt lat="46.53292" lon="6.18456">
        <ele>1490</ele>
        <time>2016-07-15T09:46:53Z</time>
      </trkpt>
      <trkpt lat="46.53293" lon="6.18469">
        <ele>1490</ele>
        <time>2016-07-15T09:46:57Z</time>
      </trkpt>
      <trkpt lat="46.53296" lon="6.18481">
        <ele>1490</ele>
        <time>2016-07-15T09:47:38Z</time>
      </trkpt>
      <trkpt lat="46.53306" lon="6.1849">
        <ele>1490</ele>
        <time>2016-07-15T09:47:43Z</time>
      </trkpt>
      <trkpt lat="46.5332" lon="6.18502">
        <ele>1490</ele>
        <time>2016-07-15T09:47:48Z</time>
      </trkpt>
      <trkpt lat="46.53335" lon="6.18513">
        <ele>1490</ele>
        <time>2016-07-15T09:47:53Z</time>
      </trkpt>
      <trkpt lat="46.53344" lon="6.18521">
        <ele>1489</ele>
        <time>2016-07-15T09:47:57Z</time>
      </trkpt>
      <trkpt lat="46.53353" lon="6.18532">
        <ele>1488</ele>
        <time>2016-07-15T09:48:02Z</time>
      </trkpt>
      <trkpt lat="46.53364" lon="6.18527">
        <ele>1488</ele>
        <time>2016-07-15T09:48:06Z</time>
      </trkpt>
      <trkpt lat="46.53373" lon="6.18532">
        <ele>1487</ele>
        <time>2016-07-15T09:48:10Z</time>
      </trkpt>
      <trkpt lat="46.5338" lon="6.18541">
        <ele>1487</ele>
        <time>2016-07-15T09:48:14Z</time>
      </trkpt>
      <trkpt lat="46.53395" lon="6.18548">
        <ele>1486</ele>
        <time>2016-07-15T09:48:18Z</time>
      </trkpt>
      <trkpt lat="46.53415" lon="6.18541">
        <ele>1486</ele>
        <time>2016-07-15T09:48:23Z</time>
      </trkpt>
      <trkpt lat="46.53423" lon="6.18549">
        <ele>1482</ele>
        <time>2016-07-15T09:48:27Z</time>
      </trkpt>
      <trkpt lat="46.5343" lon="6.18557">
        <ele>1482</ele>
        <time>2016-07-15T09:48:31Z</time>
      </trkpt>
      <trkpt lat="46.53435" lon="6.18566">
        <ele>1482</ele>
        <time>2016-07-15T09:48:39Z</time>
      </trkpt>
      <trkpt lat="46.53432" lon="6.18575">
        <ele>1483</ele>
        <time>2016-07-15T09:49:19Z</time>
      </trkpt>
      <trkpt lat="46.53434" lon="6.18586">
        <ele>1484</ele>
        <time>2016-07-15T09:49:28Z</time>
      </trkpt>
      <trkpt lat="46.53433" lon="6.18596">
        <ele>1484</ele>
        <time>2016-07-15T09:49:34Z</time>
      </trkpt>
      <trkpt lat="46.53431" lon="6.18608">
        <ele>1485</ele>
        <time>2016-07-15T09:49:40Z</time>
      </trkpt>
      <trkpt lat="46.53426" lon="6.18618">
        <ele>1485</ele>
        <time>2016-07-15T09:49:46Z</time>
      </trkpt>
      <trkpt lat="46.53425" lon="6.1863">
        <ele>1485</ele>
        <time>2016-07-15T09:49:55Z</time>
      </trkpt>
      <trkpt lat="46.53426" lon="6.18641">
        <ele>1486</ele>
        <time>2016-07-15T09:50:01Z</time>
      </trkpt>
      <trkpt lat="46.53433" lon="6.1865">
        <ele>1486</ele>
        <time>2016-07-15T09:50:07Z</time>
      </trkpt>
      <trkpt lat="46.5344" lon="6.1866">
        <ele>1486</ele>
        <time>2016-07-15T09:50:12Z</time>
      </trkpt>
      <trkpt lat="46.53444" lon="6.18669">
        <ele>1487</ele>
        <time>2016-07-15T09:50:16Z</time>
      </trkpt>
      <trkpt lat="46.53448" lon="6.18678">
        <ele>1486</ele>
        <time>2016-07-15T09:50:20Z</time>
      </trkpt>
      <trkpt lat="46.53448" lon="6.18696">
        <ele>1486</ele>
        <time>2016-07-15T09:50:25Z</time>
      </trkpt>
      <trkpt lat="46.53447" lon="6.18712">
        <ele>1486</ele>
        <time>2016-07-15T09:50:29Z</time>
      </trkpt>
      <trkpt lat="46.53442" lon="6.18721">
        <ele>1487</ele>
        <time>2016-07-15T09:50:33Z</time>
      </trkpt>
      <trkpt lat="46.53436" lon="6.1873">
        <ele>1487</ele>
        <time>2016-07-15T09:50:39Z</time>
      </trkpt>
      <trkpt lat="46.53432" lon="6.18741">
        <ele>1488</ele>
        <time>2016-07-15T09:50:44Z</time>
      </trkpt>
      <trkpt lat="46.53427" lon="6.18751">
        <ele>1488</ele>
        <time>2016-07-15T09:50:55Z</time>
      </trkpt>
      <trkpt lat="46.53422" lon="6.18761">
        <ele>1488</ele>
        <time>2016-07-15T09:51:11Z</time>
      </trkpt>
      <trkpt lat="46.5342" lon="6.18772">
        <ele>1487</ele>
        <time>2016-07-15T09:51:17Z</time>
      </trkpt>
      <trkpt lat="46.53423" lon="6.18784">
        <ele>1486</ele>
        <time>2016-07-15T09:51:24Z</time>
      </trkpt>
      <trkpt lat="46.53427" lon="6.18793">
        <ele>1486</ele>
        <time>2016-07-15T09:51:29Z</time>
      </trkpt>
      <trkpt lat="46.5343" lon="6.18799">
        <ele>1486</ele>
        <time>2016-07-15T09:52:51Z</time>
      </trkpt>
      <trkpt lat="46.53452" lon="6.18809">
        <ele>1485</ele>
        <time>2016-07-15T09:52:55Z</time>
      </trkpt>
      <trkpt lat="46.53461" lon="6.18814">
        <ele>1485</ele>
        <time>2016-07-15T09:52:59Z</time>
      </trkpt>
      <trkpt lat="46.53463" lon="6.18813">
        <ele>1485</ele>
        <time>2016-07-15T09:53:58Z</time>
      </trkpt>
      <trkpt lat="46.53485" lon="6.18805">
        <ele>1485</ele>
        <time>2016-07-15T09:54:03Z</time>
      </trkpt>
      <trkpt lat="46.53501" lon="6.18807">
        <ele>1481</ele>
        <time>2016-07-15T09:54:08Z</time>
      </trkpt>
      <trkpt lat="46.53518" lon="6.18822">
        <ele>1481</ele>
        <time>2016-07-15T09:54:13Z</time>
      </trkpt>
      <trkpt lat="46.53529" lon="6.18824">
        <ele>1480</ele>
        <time>2016-07-15T09:54:17Z</time>
      </trkpt>
      <trkpt lat="46.53541" lon="6.18829">
        <ele>1479</ele>
        <time>2016-07-15T09:54:22Z</time>
      </trkpt>
      <trkpt lat="46.53549" lon="6.18824">
        <ele>1478</ele>
        <time>2016-07-15T09:54:47Z</time>
      </trkpt>
      <trkpt lat="46.53572" lon="6.18834">
        <ele>1475</ele>
        <time>2016-07-15T09:54:52Z</time>
      </trkpt>
      <trkpt lat="46.53593" lon="6.1885">
        <ele>1470</ele>
        <time>2016-07-15T09:54:56Z</time>
      </trkpt>
      <trkpt lat="46.53617" lon="6.18871">
        <ele>1467</ele>
        <time>2016-07-15T09:55:01Z</time>
      </trkpt>
      <trkpt lat="46.53635" lon="6.18892">
        <ele>1465</ele>
        <time>2016-07-15T09:55:05Z</time>
      </trkpt>
      <trkpt lat="46.53658" lon="6.1891">
        <ele>1462</ele>
        <time>2016-07-15T09:55:09Z</time>
      </trkpt>
      <trkpt lat="46.53674" lon="6.18939">
        <ele>1460</ele>
        <time>2016-07-15T09:55:13Z</time>
      </trkpt>
      <trkpt lat="46.53682" lon="6.18953">
        <ele>1460</ele>
        <time>2016-07-15T09:55:18Z</time>
      </trkpt>
      <trkpt lat="46.53684" lon="6.18962">
        <ele>1460</ele>
        <time>2016-07-15T09:55:23Z</time>
      </trkpt>
      <trkpt lat="46.53687" lon="6.1898">
        <ele>1460</ele>
        <time>2016-07-15T09:55:27Z</time>
      </trkpt>
      <trkpt lat="46.5369" lon="6.18999">
        <ele>1460</ele>
        <time>2016-07-15T09:55:32Z</time>
      </trkpt>
      <trkpt lat="46.53697" lon="6.19014">
        <ele>1460</ele>
        <time>2016-07-15T09:55:36Z</time>
      </trkpt>
      <trkpt lat="46.53707" lon="6.19028">
        <ele>1461</ele>
        <time>2016-07-15T09:55:41Z</time>
      </trkpt>
      <trkpt lat="46.53711" lon="6.19044">
        <ele>1461</ele>
        <time>2016-07-15T09:55:46Z</time>
      </trkpt>
      <trkpt lat="46.53713" lon="6.19057">
        <ele>1461</ele>
        <time>2016-07-15T09:55:50Z</time>
      </trkpt>
      <trkpt lat="46.53716" lon="6.1907">
        <ele>1461</ele>
        <time>2016-07-15T09:55:54Z</time>
      </trkpt>
      <trkpt lat="46.53722" lon="6.19086">
        <ele>1461</ele>
        <time>2016-07-15T09:55:59Z</time>
      </trkpt>
      <trkpt lat="46.53725" lon="6.19098">
        <ele>1461</ele>
        <time>2016-07-15T09:56:03Z</time>
      </trkpt>
      <trkpt lat="46.53726" lon="6.19116">
        <ele>1461</ele>
        <time>2016-07-15T09:56:08Z</time>
      </trkpt>
      <trkpt lat="46.53726" lon="6.1913">
        <ele>1460</ele>
        <time>2016-07-15T09:56:12Z</time>
      </trkpt>
      <trkpt lat="46.53727" lon="6.19148">
        <ele>1461</ele>
        <time>2016-07-15T09:56:17Z</time>
      </trkpt>
      <trkpt lat="46.53729" lon="6.19163">
        <ele>1461</ele>
        <time>2016-07-15T09:56:21Z</time>
      </trkpt>
      <trkpt lat="46.53732" lon="6.19183">
        <ele>1460</ele>
        <time>2016-07-15T09:56:26Z</time>
      </trkpt>
      <trkpt lat="46.53734" lon="6.19202">
        <ele>1460</ele>
        <time>2016-07-15T09:56:31Z</time>
      </trkpt>
      <trkpt lat="46.53736" lon="6.19217">
        <ele>1460</ele>
        <time>2016-07-15T09:56:36Z</time>
      </trkpt>
      <trkpt lat="46.53738" lon="6.19227">
        <ele>1460</ele>
        <time>2016-07-15T09:56:41Z</time>
      </trkpt>
      <trkpt lat="46.53741" lon="6.19244">
        <ele>1461</ele>
        <time>2016-07-15T09:56:45Z</time>
      </trkpt>
      <trkpt lat="46.53741" lon="6.19259">
        <ele>1459</ele>
        <time>2016-07-15T09:56:50Z</time>
      </trkpt>
      <trkpt lat="46.53742" lon="6.19269">
        <ele>1458</ele>
        <time>2016-07-15T09:56:54Z</time>
      </trkpt>
      <trkpt lat="46.53752" lon="6.19272">
        <ele>1459</ele>
        <time>2016-07-15T09:56:59Z</time>
      </trkpt>
      <trkpt lat="46.53759" lon="6.19281">
        <ele>1458</ele>
        <time>2016-07-15T09:57:04Z</time>
      </trkpt>
      <trkpt lat="46.53762" lon="6.19291">
        <ele>1457</ele>
        <time>2016-07-15T09:57:09Z</time>
      </trkpt>
      <trkpt lat="46.53761" lon="6.19303">
        <ele>1457</ele>
        <time>2016-07-15T09:57:14Z</time>
      </trkpt>
      <trkpt lat="46.53756" lon="6.19313">
        <ele>1457</ele>
        <time>2016-07-15T09:57:19Z</time>
      </trkpt>
      <trkpt lat="46.53756" lon="6.19326">
        <ele>1457</ele>
        <time>2016-07-15T09:57:59Z</time>
      </trkpt>
      <trkpt lat="46.5376" lon="6.19335">
        <ele>1455</ele>
        <time>2016-07-15T09:58:04Z</time>
      </trkpt>
      <trkpt lat="46.53764" lon="6.19355">
        <ele>1453</ele>
        <time>2016-07-15T09:58:08Z</time>
      </trkpt>
      <trkpt lat="46.53769" lon="6.19372">
        <ele>1452</ele>
        <time>2016-07-15T09:58:12Z</time>
      </trkpt>
      <trkpt lat="46.5377" lon="6.19377">
        <ele>1452</ele>
        <time>2016-07-15T09:58:14Z</time>
      </trkpt>
      <trkpt lat="46.53776" lon="6.19387">
        <ele>1452</ele>
        <time>2016-07-15T09:58:19Z</time>
      </trkpt>
      <trkpt lat="46.53782" lon="6.19393">
        <ele>1451</ele>
        <time>2016-07-15T09:58:33Z</time>
      </trkpt>
      <trkpt lat="46.53791" lon="6.194">
        <ele>1451</ele>
        <time>2016-07-15T09:58:37Z</time>
      </trkpt>
      <trkpt lat="46.53805" lon="6.19421">
        <ele>1447</ele>
        <time>2016-07-15T09:58:42Z</time>
      </trkpt>
      <trkpt lat="46.53813" lon="6.19428">
        <ele>1447</ele>
        <time>2016-07-15T09:58:46Z</time>
      </trkpt>
      <trkpt lat="46.5383" lon="6.19431">
        <ele>1447</ele>
        <time>2016-07-15T09:58:51Z</time>
      </trkpt>
      <trkpt lat="46.53839" lon="6.1943">
        <ele>1445</ele>
        <time>2016-07-15T09:58:55Z</time>
      </trkpt>
      <trkpt lat="46.53847" lon="6.19428">
        <ele>1445</ele>
        <time>2016-07-15T09:59:00Z</time>
      </trkpt>
      <trkpt lat="46.53852" lon="6.19422">
        <ele>1445</ele>
        <time>2016-07-15T09:59:04Z</time>
      </trkpt>
      <trkpt lat="46.53856" lon="6.19409">
        <ele>1446</ele>
        <time>2016-07-15T09:59:09Z</time>
      </trkpt>
      <trkpt lat="46.53863" lon="6.19392">
        <ele>1446</ele>
        <time>2016-07-15T09:59:13Z</time>
      </trkpt>
      <trkpt lat="46.53871" lon="6.19386">
        <ele>1445</ele>
        <time>2016-07-15T09:59:17Z</time>
      </trkpt>
      <trkpt lat="46.53881" lon="6.19392">
        <ele>1445</ele>
        <time>2016-07-15T09:59:22Z</time>
      </trkpt>
      <trkpt lat="46.53895" lon="6.194">
        <ele>1444</ele>
        <time>2016-07-15T09:59:27Z</time>
      </trkpt>
      <trkpt lat="46.53908" lon="6.19412">
        <ele>1443</ele>
        <time>2016-07-15T09:59:31Z</time>
      </trkpt>
      <trkpt lat="46.53923" lon="6.19427">
        <ele>1441</ele>
        <time>2016-07-15T09:59:36Z</time>
      </trkpt>
      <trkpt lat="46.53936" lon="6.19451">
        <ele>1440</ele>
        <time>2016-07-15T09:59:41Z</time>
      </trkpt>
      <trkpt lat="46.5394" lon="6.19461">
        <ele>1440</ele>
        <time>2016-07-15T09:59:42Z</time>
      </trkpt>
      <trkpt lat="46.53959" lon="6.19495">
        <ele>1439</ele>
        <time>2016-07-15T09:59:47Z</time>
      </trkpt>
      <trkpt lat="46.5397" lon="6.19518">
        <ele>1437</ele>
        <time>2016-07-15T09:59:51Z</time>
      </trkpt>
      <trkpt lat="46.53976" lon="6.19548">
        <ele>1436</ele>
        <time>2016-07-15T09:59:55Z</time>
      </trkpt>
      <trkpt lat="46.53986" lon="6.19565">
        <ele>1434</ele>
        <time>2016-07-15T09:59:59Z</time>
      </trkpt>
      <trkpt lat="46.53995" lon="6.19596">
        <ele>1432</ele>
        <time>2016-07-15T10:00:04Z</time>
      </trkpt>
      <trkpt lat="46.54004" lon="6.19631">
        <ele>1428</ele>
        <time>2016-07-15T10:00:08Z</time>
      </trkpt>
      <trkpt lat="46.54014" lon="6.19679">
        <ele>1426</ele>
        <time>2016-07-15T10:00:12Z</time>
      </trkpt>
      <trkpt lat="46.54021" lon="6.19703">
        <ele>1425</ele>
        <time>2016-07-15T10:00:17Z</time>
      </trkpt>
      <trkpt lat="46.54024" lon="6.19743">
        <ele>1424</ele>
        <time>2016-07-15T10:00:22Z</time>
      </trkpt>
      <trkpt lat="46.54034" lon="6.19761">
        <ele>1421</ele>
        <time>2016-07-15T10:00:26Z</time>
      </trkpt>
      <trkpt lat="46.54036" lon="6.19786">
        <ele>1420</ele>
        <time>2016-07-15T10:00:30Z</time>
      </trkpt>
      <trkpt lat="46.54041" lon="6.19831">
        <ele>1419</ele>
        <time>2016-07-15T10:00:35Z</time>
      </trkpt>
      <trkpt lat="46.54053" lon="6.19862">
        <ele>1415</ele>
        <time>2016-07-15T10:00:39Z</time>
      </trkpt>
      <trkpt lat="46.54065" lon="6.19878">
        <ele>1415</ele>
        <time>2016-07-15T10:00:44Z</time>
      </trkpt>
      <trkpt lat="46.54072" lon="6.19881">
        <ele>1414</ele>
        <time>2016-07-15T10:01:30Z</time>
      </trkpt>
      <trkpt lat="46.54089" lon="6.19896">
        <ele>1411</ele>
        <time>2016-07-15T10:01:34Z</time>
      </trkpt>
      <trkpt lat="46.54111" lon="6.19911">
        <ele>1410</ele>
        <time>2016-07-15T10:01:38Z</time>
      </trkpt>
      <trkpt lat="46.54136" lon="6.19937">
        <ele>1406</ele>
        <time>2016-07-15T10:01:42Z</time>
      </trkpt>
      <trkpt lat="46.54164" lon="6.19965">
        <ele>1405</ele>
        <time>2016-07-15T10:01:46Z</time>
      </trkpt>
      <trkpt lat="46.54203" lon="6.19999">
        <ele>1400</ele>
        <time>2016-07-15T10:01:51Z</time>
      </trkpt>
      <trkpt lat="46.54224" lon="6.20035">
        <ele>1397</ele>
        <time>2016-07-15T10:01:55Z</time>
      </trkpt>
      <trkpt lat="46.54248" lon="6.2007">
        <ele>1395</ele>
        <time>2016-07-15T10:02:00Z</time>
      </trkpt>
      <trkpt lat="46.5427" lon="6.20102">
        <ele>1393</ele>
        <time>2016-07-15T10:02:05Z</time>
      </trkpt>
      <trkpt lat="46.5428" lon="6.20122">
        <ele>1393</ele>
        <time>2016-07-15T10:02:10Z</time>
      </trkpt>
      <trkpt lat="46.54299" lon="6.2014">
        <ele>1393</ele>
        <time>2016-07-15T10:02:15Z</time>
      </trkpt>
      <trkpt lat="46.54322" lon="6.20154">
        <ele>1392</ele>
        <time>2016-07-15T10:02:20Z</time>
      </trkpt>
      <trkpt lat="46.54338" lon="6.20161">
        <ele>1393</ele>
        <time>2016-07-15T10:02:23Z</time>
      </trkpt>
      <trkpt lat="46.54349" lon="6.20175">
        <ele>1392</ele>
        <time>2016-07-15T10:02:28Z</time>
      </trkpt>
      <trkpt lat="46.54363" lon="6.20189">
        <ele>1393</ele>
        <time>2016-07-15T10:02:32Z</time>
      </trkpt>
      <trkpt lat="46.54374" lon="6.20207">
        <ele>1393</ele>
        <time>2016-07-15T10:02:36Z</time>
      </trkpt>
      <trkpt lat="46.54381" lon="6.20228">
        <ele>1393</ele>
        <time>2016-07-15T10:02:41Z</time>
      </trkpt>
      <trkpt lat="46.54388" lon="6.20243">
        <ele>1392</ele>
        <time>2016-07-15T10:02:45Z</time>
      </trkpt>
      <trkpt lat="46.54396" lon="6.20258">
        <ele>1391</ele>
        <time>2016-07-15T10:02:49Z</time>
      </trkpt>
      <trkpt lat="46.54407" lon="6.20276">
        <ele>1390</ele>
        <time>2016-07-15T10:02:54Z</time>
      </trkpt>
      <trkpt lat="46.54414" lon="6.20295">
        <ele>1389</ele>
        <time>2016-07-15T10:02:58Z</time>
      </trkpt>
      <trkpt lat="46.54423" lon="6.20317">
        <ele>1389</ele>
        <time>2016-07-15T10:03:02Z</time>
      </trkpt>
      <trkpt lat="46.54426" lon="6.20335">
        <ele>1387</ele>
        <time>2016-07-15T10:03:06Z</time>
      </trkpt>
      <trkpt lat="46.54433" lon="6.20359">
        <ele>1387</ele>
        <time>2016-07-15T10:03:10Z</time>
      </trkpt>
      <trkpt lat="46.54452" lon="6.20387">
        <ele>1386</ele>
        <time>2016-07-15T10:03:14Z</time>
      </trkpt>
      <trkpt lat="46.54467" lon="6.20414">
        <ele>1386</ele>
        <time>2016-07-15T10:03:18Z</time>
      </trkpt>
      <trkpt lat="46.5448" lon="6.20434">
        <ele>1384</ele>
        <time>2016-07-15T10:03:22Z</time>
      </trkpt>
      <trkpt lat="46.54497" lon="6.20467">
        <ele>1383</ele>
        <time>2016-07-15T10:03:27Z</time>
      </trkpt>
      <trkpt lat="46.54516" lon="6.20491">
        <ele>1386</ele>
        <time>2016-07-15T10:03:32Z</time>
      </trkpt>
      <trkpt lat="46.5452" lon="6.20508">
        <ele>1384</ele>
        <time>2016-07-15T10:03:36Z</time>
      </trkpt>
      <trkpt lat="46.54524" lon="6.20527">
        <ele>1385</ele>
        <time>2016-07-15T10:03:40Z</time>
      </trkpt>
      <trkpt lat="46.54526" lon="6.20544">
        <ele>1384</ele>
        <time>2016-07-15T10:03:44Z</time>
      </trkpt>
      <trkpt lat="46.54532" lon="6.20554">
        <ele>1384</ele>
        <time>2016-07-15T10:03:54Z</time>
      </trkpt>
      <trkpt lat="46.54536" lon="6.20564">
        <ele>1384</ele>
        <time>2016-07-15T10:04:33Z</time>
      </trkpt>
      <trkpt lat="46.5454" lon="6.2058">
        <ele>1384</ele>
        <time>2016-07-15T10:04:37Z</time>
      </trkpt>
      <trkpt lat="46.54543" lon="6.20604">
        <ele>1381</ele>
        <time>2016-07-15T10:04:41Z</time>
      </trkpt>
      <trkpt lat="46.54557" lon="6.20645">
        <ele>1381</ele>
        <time>2016-07-15T10:04:46Z</time>
      </trkpt>
      <trkpt lat="46.54563" lon="6.20671">
        <ele>1378</ele>
        <time>2016-07-15T10:04:49Z</time>
      </trkpt>
      <trkpt lat="46.54562" lon="6.20699">
        <ele>1376</ele>
        <time>2016-07-15T10:04:54Z</time>
      </trkpt>
      <trkpt lat="46.54573" lon="6.20723">
        <ele>1375</ele>
        <time>2016-07-15T10:04:58Z</time>
      </trkpt>
      <trkpt lat="46.54579" lon="6.20755">
        <ele>1372</ele>
        <time>2016-07-15T10:05:02Z</time>
      </trkpt>
      <trkpt lat="46.54593" lon="6.20777">
        <ele>1371</ele>
        <time>2016-07-15T10:05:07Z</time>
      </trkpt>
      <trkpt lat="46.54605" lon="6.20787">
        <ele>1370</ele>
        <time>2016-07-15T10:05:11Z</time>
      </trkpt>
      <trkpt lat="46.54627" lon="6.20815">
        <ele>1368</ele>
        <time>2016-07-15T10:05:15Z</time>
      </trkpt>
      <trkpt lat="46.54648" lon="6.20826">
        <ele>1368</ele>
        <time>2016-07-15T10:05:20Z</time>
      </trkpt>
      <trkpt lat="46.54667" lon="6.20833">
        <ele>1366</ele>
        <time>2016-07-15T10:05:24Z</time>
      </trkpt>
      <trkpt lat="46.54676" lon="6.20855">
        <ele>1362</ele>
        <time>2016-07-15T10:05:28Z</time>
      </trkpt>
      <trkpt lat="46.54686" lon="6.20877">
        <ele>1360</ele>
        <time>2016-07-15T10:05:32Z</time>
      </trkpt>
      <trkpt lat="46.54698" lon="6.20904">
        <ele>1359</ele>
        <time>2016-07-15T10:05:37Z</time>
      </trkpt>
      <trkpt lat="46.54708" lon="6.20913">
        <ele>1358</ele>
        <time>2016-07-15T10:05:41Z</time>
      </trkpt>
      <trkpt lat="46.54708" lon="6.20915">
        <ele>1358</ele>
        <time>2016-07-15T10:06:21Z</time>
      </trkpt>
      <trkpt lat="46.54733" lon="6.20945">
        <ele>1352</ele>
        <time>2016-07-15T10:06:26Z</time>
      </trkpt>
      <trkpt lat="46.54754" lon="6.20968">
        <ele>1350</ele>
        <time>2016-07-15T10:06:28Z</time>
      </trkpt>
      <trkpt lat="46.54776" lon="6.20995">
        <ele>1349</ele>
        <time>2016-07-15T10:06:32Z</time>
      </trkpt>
      <trkpt lat="46.54797" lon="6.21011">
        <ele>1346</ele>
        <time>2016-07-15T10:06:37Z</time>
      </trkpt>
      <trkpt lat="46.5482" lon="6.21032">
        <ele>1345</ele>
        <time>2016-07-15T10:06:42Z</time>
      </trkpt>
      <trkpt lat="46.54835" lon="6.21041">
        <ele>1345</ele>
        <time>2016-07-15T10:06:46Z</time>
      </trkpt>
      <trkpt lat="46.54843" lon="6.21039">
        <ele>1345</ele>
        <time>2016-07-15T10:07:37Z</time>
      </trkpt>
      <trkpt lat="46.54847" lon="6.21037">
        <ele>1345</ele>
        <time>2016-07-15T10:07:40Z</time>
      </trkpt>
      <trkpt lat="46.5486" lon="6.21035">
        <ele>1345</ele>
        <time>2016-07-15T10:07:44Z</time>
      </trkpt>
      <trkpt lat="46.5487" lon="6.21038">
        <ele>1346</ele>
        <time>2016-07-15T10:07:48Z</time>
      </trkpt>
      <trkpt lat="46.54881" lon="6.21039">
        <ele>1346</ele>
        <time>2016-07-15T10:07:52Z</time>
      </trkpt>
      <trkpt lat="46.54893" lon="6.21035">
        <ele>1346</ele>
        <time>2016-07-15T10:07:56Z</time>
      </trkpt>
      <trkpt lat="46.54908" lon="6.21038">
        <ele>1346</ele>
        <time>2016-07-15T10:08:00Z</time>
      </trkpt>
      <trkpt lat="46.54921" lon="6.21044">
        <ele>1348</ele>
        <time>2016-07-15T10:08:03Z</time>
      </trkpt>
      <trkpt lat="46.54943" lon="6.21062">
        <ele>1348</ele>
        <time>2016-07-15T10:08:07Z</time>
      </trkpt>
      <trkpt lat="46.54953" lon="6.21075">
        <ele>1348</ele>
        <time>2016-07-15T10:08:12Z</time>
      </trkpt>
      <trkpt lat="46.54967" lon="6.21078">
        <ele>1349</ele>
        <time>2016-07-15T10:08:17Z</time>
      </trkpt>
      <trkpt lat="46.54976" lon="6.21077">
        <ele>1349</ele>
        <time>2016-07-15T10:08:20Z</time>
      </trkpt>
      <trkpt lat="46.54985" lon="6.21079">
        <ele>1349</ele>
        <time>2016-07-15T10:08:42Z</time>
      </trkpt>
      <trkpt lat="46.54992" lon="6.2108">
        <ele>1350</ele>
        <time>2016-07-15T10:09:03Z</time>
      </trkpt>
      <trkpt lat="46.55002" lon="6.21079">
        <ele>1351</ele>
        <time>2016-07-15T10:09:07Z</time>
      </trkpt>
      <trkpt lat="46.55016" lon="6.21079">
        <ele>1352</ele>
        <time>2016-07-15T10:09:11Z</time>
      </trkpt>
      <trkpt lat="46.55037" lon="6.21083">
        <ele>1353</ele>
        <time>2016-07-15T10:09:16Z</time>
      </trkpt>
      <trkpt lat="46.55045" lon="6.21084">
        <ele>1354</ele>
        <time>2016-07-15T10:09:20Z</time>
      </trkpt>
      <trkpt lat="46.55052" lon="6.21081">
        <ele>1354</ele>
        <time>2016-07-15T10:09:24Z</time>
      </trkpt>
      <trkpt lat="46.5506" lon="6.21076">
        <ele>1354</ele>
        <time>2016-07-15T10:09:28Z</time>
      </trkpt>
      <trkpt lat="46.55074" lon="6.21073">
        <ele>1355</ele>
        <time>2016-07-15T10:09:33Z</time>
      </trkpt>
      <trkpt lat="46.55085" lon="6.21074">
        <ele>1356</ele>
        <time>2016-07-15T10:09:38Z</time>
      </trkpt>
      <trkpt lat="46.55095" lon="6.21073">
        <ele>1357</ele>
        <time>2016-07-15T10:09:42Z</time>
      </trkpt>
      <trkpt lat="46.55104" lon="6.21072">
        <ele>1357</ele>
        <time>2016-07-15T10:09:46Z</time>
      </trkpt>
      <trkpt lat="46.55112" lon="6.2107">
        <ele>1357</ele>
        <time>2016-07-15T10:09:53Z</time>
      </trkpt>
      <trkpt lat="46.55119" lon="6.21073">
        <ele>1357</ele>
        <time>2016-07-15T10:09:58Z</time>
      </trkpt>
      <trkpt lat="46.55128" lon="6.21072">
        <ele>1357</ele>
        <time>2016-07-15T10:10:03Z</time>
      </trkpt>
      <trkpt lat="46.55139" lon="6.21076">
        <ele>1358</ele>
        <time>2016-07-15T10:10:08Z</time>
      </trkpt>
      <trkpt lat="46.55153" lon="6.21083">
        <ele>1358</ele>
        <time>2016-07-15T10:10:13Z</time>
      </trkpt>
      <trkpt lat="46.55163" lon="6.21085">
        <ele>1358</ele>
        <time>2016-07-15T10:10:17Z</time>
      </trkpt>
      <trkpt lat="46.55174" lon="6.21084">
        <ele>1358</ele>
        <time>2016-07-15T10:10:21Z</time>
      </trkpt>
      <trkpt lat="46.55218" lon="6.21083">
        <ele>1355</ele>
        <time>2016-07-15T10:10:28Z</time>
      </trkpt>
      <trkpt lat="46.55238" lon="6.21079">
        <ele>1355</ele>
        <time>2016-07-15T10:10:33Z</time>
      </trkpt>
      <trkpt lat="46.55246" lon="6.21074">
        <ele>1354</ele>
        <time>2016-07-15T10:10:43Z</time>
      </trkpt>
      <trkpt lat="46.55243" lon="6.21084">
        <ele>1355</ele>
        <time>2016-07-15T10:12:04Z</time>
      </trkpt>
      <trkpt lat="46.5524" lon="6.211">
        <ele>1355</ele>
        <time>2016-07-15T10:12:09Z</time>
      </trkpt>
      <trkpt lat="46.55233" lon="6.21111">
        <ele>1356</ele>
        <time>2016-07-15T10:12:14Z</time>
      </trkpt>
      <trkpt lat="46.55231" lon="6.2112">
        <ele>1356</ele>
        <time>2016-07-15T10:12:17Z</time>
      </trkpt>
      <trkpt lat="46.55229" lon="6.21131">
        <ele>1356</ele>
        <time>2016-07-15T10:12:21Z</time>
      </trkpt>
      <trkpt lat="46.55229" lon="6.21149">
        <ele>1357</ele>
        <time>2016-07-15T10:12:26Z</time>
      </trkpt>
      <trkpt lat="46.55232" lon="6.21167">
        <ele>1357</ele>
        <time>2016-07-15T10:12:30Z</time>
      </trkpt>
      <trkpt lat="46.55243" lon="6.21195">
        <ele>1358</ele>
        <time>2016-07-15T10:12:35Z</time>
      </trkpt>
      <trkpt lat="46.55246" lon="6.21208">
        <ele>1358</ele>
        <time>2016-07-15T10:12:39Z</time>
      </trkpt>
      <trkpt lat="46.55251" lon="6.21239">
        <ele>1360</ele>
        <time>2016-07-15T10:12:43Z</time>
      </trkpt>
      <trkpt lat="46.55248" lon="6.21263">
        <ele>1360</ele>
        <time>2016-07-15T10:12:48Z</time>
      </trkpt>
      <trkpt lat="46.55247" lon="6.21279">
        <ele>1359</ele>
        <time>2016-07-15T10:12:52Z</time>
      </trkpt>
      <trkpt lat="46.55249" lon="6.2129">
        <ele>1359</ele>
        <time>2016-07-15T10:12:56Z</time>
      </trkpt>
      <trkpt lat="46.55255" lon="6.21306">
        <ele>1363</ele>
        <time>2016-07-15T10:13:01Z</time>
      </trkpt>
      <trkpt lat="46.55253" lon="6.21318">
        <ele>1362</ele>
        <time>2016-07-15T10:13:15Z</time>
      </trkpt>
      <trkpt lat="46.55253" lon="6.21327">
        <ele>1362</ele>
        <time>2016-07-15T10:13:53Z</time>
      </trkpt>
      <trkpt lat="46.55262" lon="6.21342">
        <ele>1363</ele>
        <time>2016-07-15T10:13:58Z</time>
      </trkpt>
      <trkpt lat="46.55275" lon="6.21354">
        <ele>1364</ele>
        <time>2016-07-15T10:14:02Z</time>
      </trkpt>
      <trkpt lat="46.55279" lon="6.21367">
        <ele>1364</ele>
        <time>2016-07-15T10:14:06Z</time>
      </trkpt>
      <trkpt lat="46.55284" lon="6.21383">
        <ele>1364</ele>
        <time>2016-07-15T10:14:11Z</time>
      </trkpt>
      <trkpt lat="46.55288" lon="6.21395">
        <ele>1364</ele>
        <time>2016-07-15T10:14:15Z</time>
      </trkpt>
      <trkpt lat="46.55292" lon="6.21412">
        <ele>1365</ele>
        <time>2016-07-15T10:14:19Z</time>
      </trkpt>
      <trkpt lat="46.55299" lon="6.21433">
        <ele>1364</ele>
        <time>2016-07-15T10:14:24Z</time>
      </trkpt>
      <trkpt lat="46.55306" lon="6.21444">
        <ele>1364</ele>
        <time>2016-07-15T10:14:28Z</time>
      </trkpt>
      <trkpt lat="46.55316" lon="6.21458">
        <ele>1365</ele>
        <time>2016-07-15T10:14:33Z</time>
      </trkpt>
      <trkpt lat="46.55322" lon="6.21473">
        <ele>1365</ele>
        <time>2016-07-15T10:14:37Z</time>
      </trkpt>
      <trkpt lat="46.55327" lon="6.21484">
        <ele>1366</ele>
        <time>2016-07-15T10:14:41Z</time>
      </trkpt>
      <trkpt lat="46.55332" lon="6.21496">
        <ele>1367</ele>
        <time>2016-07-15T10:14:45Z</time>
      </trkpt>
      <trkpt lat="46.55341" lon="6.21506">
        <ele>1367</ele>
        <time>2016-07-15T10:14:49Z</time>
      </trkpt>
      <trkpt lat="46.5535" lon="6.21519">
        <ele>1366</ele>
        <time>2016-07-15T10:14:53Z</time>
      </trkpt>
      <trkpt lat="46.55366" lon="6.21534">
        <ele>1365</ele>
        <time>2016-07-15T10:14:58Z</time>
      </trkpt>
      <trkpt lat="46.55384" lon="6.2155">
        <ele>1365</ele>
        <time>2016-07-15T10:15:02Z</time>
      </trkpt>
      <trkpt lat="46.55399" lon="6.21569">
        <ele>1363</ele>
        <time>2016-07-15T10:15:07Z</time>
      </trkpt>
      <trkpt lat="46.5542" lon="6.21583">
        <ele>1361</ele>
        <time>2016-07-15T10:15:11Z</time>
      </trkpt>
      <trkpt lat="46.55439" lon="6.21591">
        <ele>1358</ele>
        <time>2016-07-15T10:15:16Z</time>
      </trkpt>
      <trkpt lat="46.55455" lon="6.21601">
        <ele>1357</ele>
        <time>2016-07-15T10:15:20Z</time>
      </trkpt>
      <trkpt lat="46.55485" lon="6.21613">
        <ele>1356</ele>
        <time>2016-07-15T10:15:25Z</time>
      </trkpt>
      <trkpt lat="46.55512" lon="6.21619">
        <ele>1355</ele>
        <time>2016-07-15T10:15:29Z</time>
      </trkpt>
      <trkpt lat="46.55523" lon="6.21636">
        <ele>1354</ele>
        <time>2016-07-15T10:15:33Z</time>
      </trkpt>
      <trkpt lat="46.55534" lon="6.21646">
        <ele>1354</ele>
        <time>2016-07-15T10:15:37Z</time>
      </trkpt>
      <trkpt lat="46.55547" lon="6.21659">
        <ele>1354</ele>
        <time>2016-07-15T10:15:41Z</time>
      </trkpt>
      <trkpt lat="46.55554" lon="6.21668">
        <ele>1352</ele>
        <time>2016-07-15T10:15:44Z</time>
      </trkpt>
      <trkpt lat="46.55559" lon="6.21676">
        <ele>1352</ele>
        <time>2016-07-15T10:15:49Z</time>
      </trkpt>
      <trkpt lat="46.5557" lon="6.21691">
        <ele>1352</ele>
        <time>2016-07-15T10:15:53Z</time>
      </trkpt>
      <trkpt lat="46.55586" lon="6.21692">
        <ele>1353</ele>
        <time>2016-07-15T10:15:57Z</time>
      </trkpt>
      <trkpt lat="46.55608" lon="6.21695">
        <ele>1353</ele>
        <time>2016-07-15T10:16:02Z</time>
      </trkpt>
      <trkpt lat="46.55623" lon="6.21712">
        <ele>1352</ele>
        <time>2016-07-15T10:16:07Z</time>
      </trkpt>
      <trkpt lat="46.55636" lon="6.2173">
        <ele>1352</ele>
        <time>2016-07-15T10:16:11Z</time>
      </trkpt>
      <trkpt lat="46.55655" lon="6.21738">
        <ele>1352</ele>
        <time>2016-07-15T10:16:16Z</time>
      </trkpt>
      <trkpt lat="46.55682" lon="6.21745">
        <ele>1351</ele>
        <time>2016-07-15T10:16:20Z</time>
      </trkpt>
      <trkpt lat="46.557" lon="6.21758">
        <ele>1348</ele>
        <time>2016-07-15T10:16:24Z</time>
      </trkpt>
      <trkpt lat="46.5572" lon="6.21781">
        <ele>1347</ele>
        <time>2016-07-15T10:16:29Z</time>
      </trkpt>
      <trkpt lat="46.55735" lon="6.21795">
        <ele>1346</ele>
        <time>2016-07-15T10:16:33Z</time>
      </trkpt>
      <trkpt lat="46.55747" lon="6.21824">
        <ele>1345</ele>
        <time>2016-07-15T10:16:38Z</time>
      </trkpt>
      <trkpt lat="46.55755" lon="6.21835">
        <ele>1344</ele>
        <time>2016-07-15T10:16:42Z</time>
      </trkpt>
      <trkpt lat="46.55766" lon="6.21847">
        <ele>1344</ele>
        <time>2016-07-15T10:16:47Z</time>
      </trkpt>
      <trkpt lat="46.55784" lon="6.21867">
        <ele>1344</ele>
        <time>2016-07-15T10:16:51Z</time>
      </trkpt>
      <trkpt lat="46.55804" lon="6.21877">
        <ele>1344</ele>
        <time>2016-07-15T10:16:56Z</time>
      </trkpt>
      <trkpt lat="46.55821" lon="6.21874">
        <ele>1344</ele>
        <time>2016-07-15T10:17:00Z</time>
      </trkpt>
      <trkpt lat="46.55829" lon="6.21872">
        <ele>1344</ele>
        <time>2016-07-15T10:17:04Z</time>
      </trkpt>
      <trkpt lat="46.55837" lon="6.21878">
        <ele>1345</ele>
        <time>2016-07-15T10:17:09Z</time>
      </trkpt>
      <trkpt lat="46.55832" lon="6.21884">
        <ele>1344</ele>
        <time>2016-07-15T10:17:12Z</time>
      </trkpt>
      <trkpt lat="46.55825" lon="6.21893">
        <ele>1344</ele>
        <time>2016-07-15T10:17:17Z</time>
      </trkpt>
      <trkpt lat="46.55824" lon="6.21904">
        <ele>1345</ele>
        <time>2016-07-15T10:17:22Z</time>
      </trkpt>
      <trkpt lat="46.55826" lon="6.21915">
        <ele>1345</ele>
        <time>2016-07-15T10:17:27Z</time>
      </trkpt>
      <trkpt lat="46.55828" lon="6.21933">
        <ele>1346</ele>
        <time>2016-07-15T10:17:32Z</time>
      </trkpt>
      <trkpt lat="46.55827" lon="6.21944">
        <ele>1345</ele>
        <time>2016-07-15T10:17:36Z</time>
      </trkpt>
      <trkpt lat="46.55828" lon="6.21961">
        <ele>1346</ele>
        <time>2016-07-15T10:17:41Z</time>
      </trkpt>
      <trkpt lat="46.55831" lon="6.2198">
        <ele>1346</ele>
        <time>2016-07-15T10:17:46Z</time>
      </trkpt>
      <trkpt lat="46.55832" lon="6.21992">
        <ele>1347</ele>
        <time>2016-07-15T10:17:56Z</time>
      </trkpt>
      <trkpt lat="46.55828" lon="6.22008">
        <ele>1347</ele>
        <time>2016-07-15T10:18:00Z</time>
      </trkpt>
      <trkpt lat="46.55821" lon="6.22029">
        <ele>1346</ele>
        <time>2016-07-15T10:18:04Z</time>
      </trkpt>
      <trkpt lat="46.55806" lon="6.22072">
        <ele>1346</ele>
        <time>2016-07-15T10:18:09Z</time>
      </trkpt>
      <trkpt lat="46.55792" lon="6.22103">
        <ele>1345</ele>
        <time>2016-07-15T10:18:14Z</time>
      </trkpt>
      <trkpt lat="46.55778" lon="6.22128">
        <ele>1344</ele>
        <time>2016-07-15T10:18:18Z</time>
      </trkpt>
      <trkpt lat="46.55767" lon="6.22138">
        <ele>1343</ele>
        <time>2016-07-15T10:18:22Z</time>
      </trkpt>
      <trkpt lat="46.55761" lon="6.2216">
        <ele>1340</ele>
        <time>2016-07-15T10:18:26Z</time>
      </trkpt>
      <trkpt lat="46.55762" lon="6.22178">
        <ele>1340</ele>
        <time>2016-07-15T10:18:31Z</time>
      </trkpt>
      <trkpt lat="46.55758" lon="6.2219">
        <ele>1341</ele>
        <time>2016-07-15T10:18:34Z</time>
      </trkpt>
      <trkpt lat="46.55753" lon="6.22218">
        <ele>1341</ele>
        <time>2016-07-15T10:18:38Z</time>
      </trkpt>
      <trkpt lat="46.5574" lon="6.22251">
        <ele>1334</ele>
        <time>2016-07-15T10:18:42Z</time>
      </trkpt>
      <trkpt lat="46.55732" lon="6.22275">
        <ele>1331</ele>
        <time>2016-07-15T10:18:46Z</time>
      </trkpt>
      <trkpt lat="46.55729" lon="6.22288">
        <ele>1330</ele>
        <time>2016-07-15T10:18:51Z</time>
      </trkpt>
      <trkpt lat="46.55727" lon="6.223">
        <ele>1330</ele>
        <time>2016-07-15T10:18:56Z</time>
      </trkpt>
      <trkpt lat="46.55727" lon="6.22312">
        <ele>1330</ele>
        <time>2016-07-15T10:19:49Z</time>
      </trkpt>
      <trkpt lat="46.55725" lon="6.22323">
        <ele>1330</ele>
        <time>2016-07-15T10:20:05Z</time>
      </trkpt>
      <trkpt lat="46.55722" lon="6.22344">
        <ele>1328</ele>
        <time>2016-07-15T10:20:10Z</time>
      </trkpt>
      <trkpt lat="46.55717" lon="6.22357">
        <ele>1327</ele>
        <time>2016-07-15T10:20:13Z</time>
      </trkpt>
      <trkpt lat="46.55712" lon="6.22369">
        <ele>1327</ele>
        <time>2016-07-15T10:20:17Z</time>
      </trkpt>
      <trkpt lat="46.55699" lon="6.22407">
        <ele>1325</ele>
        <time>2016-07-15T10:20:21Z</time>
      </trkpt>
      <trkpt lat="46.55682" lon="6.22457">
        <ele>1321</ele>
        <time>2016-07-15T10:20:26Z</time>
      </trkpt>
      <trkpt lat="46.55659" lon="6.22496">
        <ele>1311</ele>
        <time>2016-07-15T10:20:31Z</time>
      </trkpt>
      <trkpt lat="46.55629" lon="6.22544">
        <ele>1307</ele>
        <time>2016-07-15T10:20:35Z</time>
      </trkpt>
      <trkpt lat="46.55622" lon="6.22587">
        <ele>1307</ele>
        <time>2016-07-15T10:20:39Z</time>
      </trkpt>
      <trkpt lat="46.55605" lon="6.22633">
        <ele>1306</ele>
        <time>2016-07-15T10:20:44Z</time>
      </trkpt>
      <trkpt lat="46.55573" lon="6.22651">
        <ele>1301</ele>
        <time>2016-07-15T10:20:49Z</time>
      </trkpt>
      <trkpt lat="46.55547" lon="6.2266">
        <ele>1300</ele>
        <time>2016-07-15T10:20:54Z</time>
      </trkpt>
      <trkpt lat="46.55525" lon="6.22666">
        <ele>1299</ele>
        <time>2016-07-15T10:20:58Z</time>
      </trkpt>
      <trkpt lat="46.55506" lon="6.22669">
        <ele>1299</ele>
        <time>2016-07-15T10:21:02Z</time>
      </trkpt>
      <trkpt lat="46.55484" lon="6.22669">
        <ele>1299</ele>
        <time>2016-07-15T10:21:06Z</time>
      </trkpt>
      <trkpt lat="46.55458" lon="6.22665">
        <ele>1296</ele>
        <time>2016-07-15T10:21:11Z</time>
      </trkpt>
      <trkpt lat="46.55431" lon="6.22672">
        <ele>1298</ele>
        <time>2016-07-15T10:21:16Z</time>
      </trkpt>
      <trkpt lat="46.55407" lon="6.22683">
        <ele>1298</ele>
        <time>2016-07-15T10:21:21Z</time>
      </trkpt>
      <trkpt lat="46.55391" lon="6.22699">
        <ele>1298</ele>
        <time>2016-07-15T10:21:25Z</time>
      </trkpt>
      <trkpt lat="46.55379" lon="6.22722">
        <ele>1298</ele>
        <time>2016-07-15T10:21:30Z</time>
      </trkpt>
      <trkpt lat="46.55362" lon="6.22757">
        <ele>1301</ele>
        <time>2016-07-15T10:21:34Z</time>
      </trkpt>
      <trkpt lat="46.55347" lon="6.22785">
        <ele>1302</ele>
        <time>2016-07-15T10:21:39Z</time>
      </trkpt>
      <trkpt lat="46.5533" lon="6.22799">
        <ele>1302</ele>
        <time>2016-07-15T10:21:43Z</time>
      </trkpt>
      <trkpt lat="46.55311" lon="6.22804">
        <ele>1302</ele>
        <time>2016-07-15T10:21:47Z</time>
      </trkpt>
      <trkpt lat="46.55292" lon="6.22814">
        <ele>1302</ele>
        <time>2016-07-15T10:21:51Z</time>
      </trkpt>
      <trkpt lat="46.55281" lon="6.22837">
        <ele>1305</ele>
        <time>2016-07-15T10:21:55Z</time>
      </trkpt>
      <trkpt lat="46.55272" lon="6.22864">
        <ele>1305</ele>
        <time>2016-07-15T10:22:00Z</time>
      </trkpt>
      <trkpt lat="46.55271" lon="6.22876">
        <ele>1306</ele>
        <time>2016-07-15T10:24:26Z</time>
      </trkpt>
      <trkpt lat="46.55267" lon="6.22885">
        <ele>1306</ele>
        <time>2016-07-15T10:24:30Z</time>
      </trkpt>
      <trkpt lat="46.55258" lon="6.22903">
        <ele>1308</ele>
        <time>2016-07-15T10:24:35Z</time>
      </trkpt>
      <trkpt lat="46.55254" lon="6.22921">
        <ele>1310</ele>
        <time>2016-07-15T10:24:39Z</time>
      </trkpt>
      <trkpt lat="46.55259" lon="6.22943">
        <ele>1311</ele>
        <time>2016-07-15T10:24:44Z</time>
      </trkpt>
      <trkpt lat="46.55264" lon="6.22956">
        <ele>1312</ele>
        <time>2016-07-15T10:24:48Z</time>
      </trkpt>
      <trkpt lat="46.55266" lon="6.2297">
        <ele>1312</ele>
        <time>2016-07-15T10:24:52Z</time>
      </trkpt>
      <trkpt lat="46.55265" lon="6.22991">
        <ele>1314</ele>
        <time>2016-07-15T10:24:57Z</time>
      </trkpt>
      <trkpt lat="46.55265" lon="6.23007">
        <ele>1317</ele>
        <time>2016-07-15T10:25:01Z</time>
      </trkpt>
      <trkpt lat="46.55263" lon="6.23021">
        <ele>1317</ele>
        <time>2016-07-15T10:25:05Z</time>
      </trkpt>
      <trkpt lat="46.55264" lon="6.23041">
        <ele>1317</ele>
        <time>2016-07-15T10:25:10Z</time>
      </trkpt>
      <trkpt lat="46.55271" lon="6.23055">
        <ele>1318</ele>
        <time>2016-07-15T10:25:14Z</time>
      </trkpt>
      <trkpt lat="46.55279" lon="6.23072">
        <ele>1318</ele>
        <time>2016-07-15T10:25:19Z</time>
      </trkpt>
      <trkpt lat="46.55282" lon="6.23087">
        <ele>1321</ele>
        <time>2016-07-15T10:25:23Z</time>
      </trkpt>
      <trkpt lat="46.55288" lon="6.23106">
        <ele>1321</ele>
        <time>2016-07-15T10:25:28Z</time>
      </trkpt>
      <trkpt lat="46.55294" lon="6.23122">
        <ele>1321</ele>
        <time>2016-07-15T10:25:32Z</time>
      </trkpt>
      <trkpt lat="46.55297" lon="6.23138">
        <ele>1321</ele>
        <time>2016-07-15T10:25:36Z</time>
      </trkpt>
      <trkpt lat="46.55295" lon="6.2316">
        <ele>1322</ele>
        <time>2016-07-15T10:25:41Z</time>
      </trkpt>
      <trkpt lat="46.55293" lon="6.23176">
        <ele>1325</ele>
        <time>2016-07-15T10:25:46Z</time>
      </trkpt>
      <trkpt lat="46.55292" lon="6.23185">
        <ele>1325</ele>
        <time>2016-07-15T10:25:47Z</time>
      </trkpt>
      <trkpt lat="46.55287" lon="6.23209">
        <ele>1325</ele>
        <time>2016-07-15T10:25:53Z</time>
      </trkpt>
      <trkpt lat="46.5528" lon="6.23223">
        <ele>1326</ele>
        <time>2016-07-15T10:25:57Z</time>
      </trkpt>
      <trkpt lat="46.55272" lon="6.23234">
        <ele>1326</ele>
        <time>2016-07-15T10:26:01Z</time>
      </trkpt>
      <trkpt lat="46.55262" lon="6.23243">
        <ele>1327</ele>
        <time>2016-07-15T10:26:05Z</time>
      </trkpt>
      <trkpt lat="46.55253" lon="6.23258">
        <ele>1328</ele>
        <time>2016-07-15T10:26:10Z</time>
      </trkpt>
      <trkpt lat="46.55247" lon="6.23267">
        <ele>1329</ele>
        <time>2016-07-15T10:26:14Z</time>
      </trkpt>
      <trkpt lat="46.55243" lon="6.23277">
        <ele>1330</ele>
        <time>2016-07-15T10:26:19Z</time>
      </trkpt>
      <trkpt lat="46.55235" lon="6.23284">
        <ele>1330</ele>
        <time>2016-07-15T10:26:23Z</time>
      </trkpt>
      <trkpt lat="46.55225" lon="6.23294">
        <ele>1331</ele>
        <time>2016-07-15T10:26:28Z</time>
      </trkpt>
      <trkpt lat="46.55217" lon="6.23301">
        <ele>1331</ele>
        <time>2016-07-15T10:26:32Z</time>
      </trkpt>
      <trkpt lat="46.5521" lon="6.23309">
        <ele>1331</ele>
        <time>2016-07-15T10:26:36Z</time>
      </trkpt>
      <trkpt lat="46.55202" lon="6.23315">
        <ele>1331</ele>
        <time>2016-07-15T10:26:40Z</time>
      </trkpt>
      <trkpt lat="46.5519" lon="6.23322">
        <ele>1332</ele>
        <time>2016-07-15T10:26:45Z</time>
      </trkpt>
      <trkpt lat="46.55182" lon="6.23332">
        <ele>1332</ele>
        <time>2016-07-15T10:26:49Z</time>
      </trkpt>
      <trkpt lat="46.55176" lon="6.23349">
        <ele>1333</ele>
        <time>2016-07-15T10:26:54Z</time>
      </trkpt>
      <trkpt lat="46.55174" lon="6.23361">
        <ele>1333</ele>
        <time>2016-07-15T10:26:58Z</time>
      </trkpt>
      <trkpt lat="46.55173" lon="6.23374">
        <ele>1333</ele>
        <time>2016-07-15T10:27:25Z</time>
      </trkpt>
      <trkpt lat="46.55171" lon="6.23386">
        <ele>1333</ele>
        <time>2016-07-15T10:27:35Z</time>
      </trkpt>
      <trkpt lat="46.55174" lon="6.23397">
        <ele>1333</ele>
        <time>2016-07-15T10:27:42Z</time>
      </trkpt>
      <trkpt lat="46.55179" lon="6.23407">
        <ele>1333</ele>
        <time>2016-07-15T10:27:47Z</time>
      </trkpt>
      <trkpt lat="46.55177" lon="6.23395">
        <ele>1333</ele>
        <time>2016-07-15T10:27:58Z</time>
      </trkpt>
      <trkpt lat="46.55179" lon="6.23406">
        <ele>1333</ele>
        <time>2016-07-15T10:28:08Z</time>
      </trkpt>
      <trkpt lat="46.55183" lon="6.23418">
        <ele>1333</ele>
        <time>2016-07-15T10:28:12Z</time>
      </trkpt>
      <trkpt lat="46.55188" lon="6.23429">
        <ele>1333</ele>
        <time>2016-07-15T10:28:16Z</time>
      </trkpt>
      <trkpt lat="46.55196" lon="6.23444">
        <ele>1333</ele>
        <time>2016-07-15T10:28:20Z</time>
      </trkpt>
      <trkpt lat="46.55197" lon="6.23454">
        <ele>1333</ele>
        <time>2016-07-15T10:28:26Z</time>
      </trkpt>
      <trkpt lat="46.55197" lon="6.23462">
        <ele>1333</ele>
        <time>2016-07-15T10:29:04Z</time>
      </trkpt>
      <trkpt lat="46.55199" lon="6.23472">
        <ele>1333</ele>
        <time>2016-07-15T10:29:14Z</time>
      </trkpt>
      <trkpt lat="46.55199" lon="6.23491">
        <ele>1333</ele>
        <time>2016-07-15T10:29:18Z</time>
      </trkpt>
      <trkpt lat="46.55199" lon="6.23506">
        <ele>1332</ele>
        <time>2016-07-15T10:29:20Z</time>
      </trkpt>
      <trkpt lat="46.552" lon="6.23535">
        <ele>1331</ele>
        <time>2016-07-15T10:29:25Z</time>
      </trkpt>
      <trkpt lat="46.55201" lon="6.23554">
        <ele>1331</ele>
        <time>2016-07-15T10:29:30Z</time>
      </trkpt>
      <trkpt lat="46.55201" lon="6.23567">
        <ele>1331</ele>
        <time>2016-07-15T10:29:35Z</time>
      </trkpt>
      <trkpt lat="46.55206" lon="6.23594">
        <ele>1328</ele>
        <time>2016-07-15T10:29:39Z</time>
      </trkpt>
      <trkpt lat="46.55216" lon="6.23611">
        <ele>1328</ele>
        <time>2016-07-15T10:29:43Z</time>
      </trkpt>
      <trkpt lat="46.55229" lon="6.23631">
        <ele>1328</ele>
        <time>2016-07-15T10:29:48Z</time>
      </trkpt>
      <trkpt lat="46.55238" lon="6.23643">
        <ele>1328</ele>
        <time>2016-07-15T10:29:52Z</time>
      </trkpt>
      <trkpt lat="46.55245" lon="6.23651">
        <ele>1328</ele>
        <time>2016-07-15T10:30:00Z</time>
      </trkpt>
      <trkpt lat="46.55248" lon="6.23662">
        <ele>1329</ele>
        <time>2016-07-15T10:30:04Z</time>
      </trkpt>
      <trkpt lat="46.55254" lon="6.23677">
        <ele>1330</ele>
        <time>2016-07-15T10:30:09Z</time>
      </trkpt>
      <trkpt lat="46.55258" lon="6.23696">
        <ele>1331</ele>
        <time>2016-07-15T10:30:14Z</time>
      </trkpt>
      <trkpt lat="46.55255" lon="6.23707">
        <ele>1332</ele>
        <time>2016-07-15T10:30:18Z</time>
      </trkpt>
      <trkpt lat="46.55249" lon="6.23721">
        <ele>1327</ele>
        <time>2016-07-15T10:30:23Z</time>
      </trkpt>
      <trkpt lat="46.55247" lon="6.23752">
        <ele>1328</ele>
        <time>2016-07-15T10:30:28Z</time>
      </trkpt>
      <trkpt lat="46.55254" lon="6.23789">
        <ele>1331</ele>
        <time>2016-07-15T10:30:32Z</time>
      </trkpt>
      <trkpt lat="46.55263" lon="6.23834">
        <ele>1328</ele>
        <time>2016-07-15T10:30:37Z</time>
      </trkpt>
      <trkpt lat="46.55249" lon="6.23869">
        <ele>1326</ele>
        <time>2016-07-15T10:30:41Z</time>
      </trkpt>
      <trkpt lat="46.55209" lon="6.23883">
        <ele>1326</ele>
        <time>2016-07-15T10:30:46Z</time>
      </trkpt>
      <trkpt lat="46.55192" lon="6.2388">
        <ele>1326</ele>
        <time>2016-07-15T10:30:50Z</time>
      </trkpt>
      <trkpt lat="46.55163" lon="6.23848">
        <ele>1327</ele>
        <time>2016-07-15T10:30:54Z</time>
      </trkpt>
      <trkpt lat="46.55143" lon="6.23824">
        <ele>1324</ele>
        <time>2016-07-15T10:30:59Z</time>
      </trkpt>
      <trkpt lat="46.55131" lon="6.23811">
        <ele>1324</ele>
        <time>2016-07-15T10:31:02Z</time>
      </trkpt>
      <trkpt lat="46.55112" lon="6.2379">
        <ele>1324</ele>
        <time>2016-07-15T10:31:07Z</time>
      </trkpt>
      <trkpt lat="46.55097" lon="6.2378">
        <ele>1324</ele>
        <time>2016-07-15T10:31:11Z</time>
      </trkpt>
      <trkpt lat="46.5509" lon="6.23776">
        <ele>1323</ele>
        <time>2016-07-15T10:31:16Z</time>
      </trkpt>
      <trkpt lat="46.55067" lon="6.23776">
        <ele>1327</ele>
        <time>2016-07-15T10:31:20Z</time>
      </trkpt>
      <trkpt lat="46.55062" lon="6.23792">
        <ele>1329</ele>
        <time>2016-07-15T10:31:24Z</time>
      </trkpt>
      <trkpt lat="46.55067" lon="6.23807">
        <ele>1329</ele>
        <time>2016-07-15T10:31:27Z</time>
      </trkpt>
      <trkpt lat="46.55077" lon="6.23829">
        <ele>1329</ele>
        <time>2016-07-15T10:31:32Z</time>
      </trkpt>
      <trkpt lat="46.55083" lon="6.23841">
        <ele>1332</ele>
        <time>2016-07-15T10:31:34Z</time>
      </trkpt>
      <trkpt lat="46.55088" lon="6.23852">
        <ele>1331</ele>
        <time>2016-07-15T10:31:39Z</time>
      </trkpt>
      <trkpt lat="46.55095" lon="6.23868">
        <ele>1332</ele>
        <time>2016-07-15T10:31:43Z</time>
      </trkpt>
      <trkpt lat="46.55102" lon="6.23885">
        <ele>1333</ele>
        <time>2016-07-15T10:31:48Z</time>
      </trkpt>
      <trkpt lat="46.55109" lon="6.23902">
        <ele>1334</ele>
        <time>2016-07-15T10:31:52Z</time>
      </trkpt>
      <trkpt lat="46.55116" lon="6.23923">
        <ele>1341</ele>
        <time>2016-07-15T10:31:57Z</time>
      </trkpt>
      <trkpt lat="46.55123" lon="6.23937">
        <ele>1341</ele>
        <time>2016-07-15T10:32:01Z</time>
      </trkpt>
      <trkpt lat="46.55129" lon="6.2395">
        <ele>1341</ele>
        <time>2016-07-15T10:32:05Z</time>
      </trkpt>
      <trkpt lat="46.55135" lon="6.23963">
        <ele>1341</ele>
        <time>2016-07-15T10:32:09Z</time>
      </trkpt>
      <trkpt lat="46.55142" lon="6.23977">
        <ele>1341</ele>
        <time>2016-07-15T10:32:12Z</time>
      </trkpt>
      <trkpt lat="46.5515" lon="6.23996">
        <ele>1340</ele>
        <time>2016-07-15T10:32:17Z</time>
      </trkpt>
      <trkpt lat="46.55157" lon="6.2401">
        <ele>1344</ele>
        <time>2016-07-15T10:32:22Z</time>
      </trkpt>
      <trkpt lat="46.55165" lon="6.24022">
        <ele>1347</ele>
        <time>2016-07-15T10:32:26Z</time>
      </trkpt>
      <trkpt lat="46.55173" lon="6.24035">
        <ele>1340</ele>
        <time>2016-07-15T10:32:30Z</time>
      </trkpt>
      <trkpt lat="46.55182" lon="6.24046">
        <ele>1341</ele>
        <time>2016-07-15T10:32:34Z</time>
      </trkpt>
      <trkpt lat="46.55191" lon="6.24057">
        <ele>1342</ele>
        <time>2016-07-15T10:32:38Z</time>
      </trkpt>
      <trkpt lat="46.55202" lon="6.24071">
        <ele>1342</ele>
        <time>2016-07-15T10:32:43Z</time>
      </trkpt>
      <trkpt lat="46.55211" lon="6.24083">
        <ele>1341</ele>
        <time>2016-07-15T10:32:47Z</time>
      </trkpt>
      <trkpt lat="46.55219" lon="6.24095">
        <ele>1346</ele>
        <time>2016-07-15T10:32:51Z</time>
      </trkpt>
      <trkpt lat="46.55228" lon="6.24107">
        <ele>1346</ele>
        <time>2016-07-15T10:32:55Z</time>
      </trkpt>
      <trkpt lat="46.55237" lon="6.24119">
        <ele>1346</ele>
        <time>2016-07-15T10:32:59Z</time>
      </trkpt>
      <trkpt lat="46.55248" lon="6.24133">
        <ele>1346</ele>
        <time>2016-07-15T10:33:04Z</time>
      </trkpt>
      <trkpt lat="46.55257" lon="6.24145">
        <ele>1341</ele>
        <time>2016-07-15T10:33:08Z</time>
      </trkpt>
      <trkpt lat="46.55269" lon="6.24158">
        <ele>1342</ele>
        <time>2016-07-15T10:33:13Z</time>
      </trkpt>
      <trkpt lat="46.55279" lon="6.24166">
        <ele>1341</ele>
        <time>2016-07-15T10:33:17Z</time>
      </trkpt>
      <trkpt lat="46.5529" lon="6.24172">
        <ele>1347</ele>
        <time>2016-07-15T10:33:21Z</time>
      </trkpt>
      <trkpt lat="46.55303" lon="6.24181">
        <ele>1347</ele>
        <time>2016-07-15T10:33:26Z</time>
      </trkpt>
      <trkpt lat="46.55314" lon="6.24188">
        <ele>1347</ele>
        <time>2016-07-15T10:33:30Z</time>
      </trkpt>
      <trkpt lat="46.55328" lon="6.24199">
        <ele>1347</ele>
        <time>2016-07-15T10:33:35Z</time>
      </trkpt>
      <trkpt lat="46.5534" lon="6.24214">
        <ele>1342</ele>
        <time>2016-07-15T10:33:40Z</time>
      </trkpt>
      <trkpt lat="46.5535" lon="6.24228">
        <ele>1342</ele>
        <time>2016-07-15T10:33:44Z</time>
      </trkpt>
      <trkpt lat="46.55361" lon="6.24245">
        <ele>1342</ele>
        <time>2016-07-15T10:33:48Z</time>
      </trkpt>
      <trkpt lat="46.55373" lon="6.24268">
        <ele>1344</ele>
        <time>2016-07-15T10:33:53Z</time>
      </trkpt>
      <trkpt lat="46.55381" lon="6.24287">
        <ele>1344</ele>
        <time>2016-07-15T10:33:57Z</time>
      </trkpt>
      <trkpt lat="46.5539" lon="6.24311">
        <ele>1343</ele>
        <time>2016-07-15T10:34:02Z</time>
      </trkpt>
      <trkpt lat="46.55397" lon="6.24329">
        <ele>1342</ele>
        <time>2016-07-15T10:34:06Z</time>
      </trkpt>
      <trkpt lat="46.55405" lon="6.2435">
        <ele>1345</ele>
        <time>2016-07-15T10:34:11Z</time>
      </trkpt>
      <trkpt lat="46.55413" lon="6.24367">
        <ele>1347</ele>
        <time>2016-07-15T10:34:16Z</time>
      </trkpt>
      <trkpt lat="46.55421" lon="6.24378">
        <ele>1341</ele>
        <time>2016-07-15T10:34:20Z</time>
      </trkpt>
      <trkpt lat="46.55427" lon="6.24388">
        <ele>1342</ele>
        <time>2016-07-15T10:34:48Z</time>
      </trkpt>
      <trkpt lat="46.55432" lon="6.24396">
        <ele>1342</ele>
        <time>2016-07-15T10:35:13Z</time>
      </trkpt>
      <trkpt lat="46.55441" lon="6.24407">
        <ele>1342</ele>
        <time>2016-07-15T10:35:18Z</time>
      </trkpt>
      <trkpt lat="46.55454" lon="6.24419">
        <ele>1347</ele>
        <time>2016-07-15T10:35:22Z</time>
      </trkpt>
      <trkpt lat="46.55468" lon="6.24425">
        <ele>1347</ele>
        <time>2016-07-15T10:35:27Z</time>
      </trkpt>
      <trkpt lat="46.55485" lon="6.24431">
        <ele>1345</ele>
        <time>2016-07-15T10:35:32Z</time>
      </trkpt>
      <trkpt lat="46.55499" lon="6.24435">
        <ele>1345</ele>
        <time>2016-07-15T10:35:36Z</time>
      </trkpt>
      <trkpt lat="46.55514" lon="6.2444">
        <ele>1343</ele>
        <time>2016-07-15T10:35:40Z</time>
      </trkpt>
      <trkpt lat="46.55531" lon="6.24449">
        <ele>1343</ele>
        <time>2016-07-15T10:35:45Z</time>
      </trkpt>
      <trkpt lat="46.55546" lon="6.24457">
        <ele>1343</ele>
        <time>2016-07-15T10:35:49Z</time>
      </trkpt>
      <trkpt lat="46.55564" lon="6.24469">
        <ele>1343</ele>
        <time>2016-07-15T10:35:54Z</time>
      </trkpt>
      <trkpt lat="46.55582" lon="6.24481">
        <ele>1343</ele>
        <time>2016-07-15T10:35:59Z</time>
      </trkpt>
      <trkpt lat="46.55595" lon="6.24492">
        <ele>1341</ele>
        <time>2016-07-15T10:36:03Z</time>
      </trkpt>
      <trkpt lat="46.5561" lon="6.24509">
        <ele>1344</ele>
        <time>2016-07-15T10:36:08Z</time>
      </trkpt>
      <trkpt lat="46.55623" lon="6.24523">
        <ele>1344</ele>
        <time>2016-07-15T10:36:12Z</time>
      </trkpt>
      <trkpt lat="46.55635" lon="6.24537">
        <ele>1345</ele>
        <time>2016-07-15T10:36:16Z</time>
      </trkpt>
      <trkpt lat="46.55647" lon="6.24552">
        <ele>1345</ele>
        <time>2016-07-15T10:36:20Z</time>
      </trkpt>
      <trkpt lat="46.55664" lon="6.2457">
        <ele>1345</ele>
        <time>2016-07-15T10:36:25Z</time>
      </trkpt>
      <trkpt lat="46.55681" lon="6.24585">
        <ele>1346</ele>
        <time>2016-07-15T10:36:29Z</time>
      </trkpt>
      <trkpt lat="46.55696" lon="6.24595">
        <ele>1347</ele>
        <time>2016-07-15T10:36:34Z</time>
      </trkpt>
      <trkpt lat="46.55712" lon="6.24605">
        <ele>1348</ele>
        <time>2016-07-15T10:36:38Z</time>
      </trkpt>
      <trkpt lat="46.55728" lon="6.24615">
        <ele>1347</ele>
        <time>2016-07-15T10:36:42Z</time>
      </trkpt>
      <trkpt lat="46.55744" lon="6.24624">
        <ele>1348</ele>
        <time>2016-07-15T10:36:46Z</time>
      </trkpt>
      <trkpt lat="46.55759" lon="6.24634">
        <ele>1346</ele>
        <time>2016-07-15T10:36:50Z</time>
      </trkpt>
      <trkpt lat="46.55774" lon="6.24645">
        <ele>1346</ele>
        <time>2016-07-15T10:36:54Z</time>
      </trkpt>
      <trkpt lat="46.55789" lon="6.24655">
        <ele>1346</ele>
        <time>2016-07-15T10:36:58Z</time>
      </trkpt>
      <trkpt lat="46.55808" lon="6.24666">
        <ele>1346</ele>
        <time>2016-07-15T10:37:03Z</time>
      </trkpt>
      <trkpt lat="46.55827" lon="6.24678">
        <ele>1349</ele>
        <time>2016-07-15T10:37:08Z</time>
      </trkpt>
      <trkpt lat="46.55842" lon="6.24689">
        <ele>1347</ele>
        <time>2016-07-15T10:37:12Z</time>
      </trkpt>
      <trkpt lat="46.55858" lon="6.24698">
        <ele>1347</ele>
        <time>2016-07-15T10:37:16Z</time>
      </trkpt>
      <trkpt lat="46.55879" lon="6.24716">
        <ele>1347</ele>
        <time>2016-07-15T10:37:21Z</time>
      </trkpt>
      <trkpt lat="46.55902" lon="6.24736">
        <ele>1345</ele>
        <time>2016-07-15T10:37:26Z</time>
      </trkpt>
      <trkpt lat="46.55924" lon="6.2476">
        <ele>1342</ele>
        <time>2016-07-15T10:37:31Z</time>
      </trkpt>
      <trkpt lat="46.55938" lon="6.24779">
        <ele>1341</ele>
        <time>2016-07-15T10:37:35Z</time>
      </trkpt>
      <trkpt lat="46.55953" lon="6.248">
        <ele>1341</ele>
        <time>2016-07-15T10:37:40Z</time>
      </trkpt>
      <trkpt lat="46.55965" lon="6.24816">
        <ele>1341</ele>
        <time>2016-07-15T10:37:45Z</time>
      </trkpt>
      <trkpt lat="46.55971" lon="6.24827">
        <ele>1340</ele>
        <time>2016-07-15T10:37:49Z</time>
      </trkpt>
      <trkpt lat="46.55973" lon="6.24838">
        <ele>1341</ele>
        <time>2016-07-15T10:38:09Z</time>
      </trkpt>
      <trkpt lat="46.55966" lon="6.24846">
        <ele>1341</ele>
        <time>2016-07-15T10:38:18Z</time>
      </trkpt>
      <trkpt lat="46.55958" lon="6.24853">
        <ele>1342</ele>
        <time>2016-07-15T10:38:27Z</time>
      </trkpt>
      <trkpt lat="46.55957" lon="6.24865">
        <ele>1342</ele>
        <time>2016-07-15T10:38:31Z</time>
      </trkpt>
      <trkpt lat="46.55952" lon="6.24879">
        <ele>1343</ele>
        <time>2016-07-15T10:38:36Z</time>
      </trkpt>
      <trkpt lat="46.55947" lon="6.24895">
        <ele>1344</ele>
        <time>2016-07-15T10:38:41Z</time>
      </trkpt>
      <trkpt lat="46.55945" lon="6.24904">
        <ele>1345</ele>
        <time>2016-07-15T10:38:44Z</time>
      </trkpt>
      <trkpt lat="46.55943" lon="6.24918">
        <ele>1347</ele>
        <time>2016-07-15T10:38:48Z</time>
      </trkpt>
      <trkpt lat="46.55942" lon="6.24925">
        <ele>1347</ele>
        <time>2016-07-15T10:38:49Z</time>
      </trkpt>
      <trkpt lat="46.55939" lon="6.24938">
        <ele>1347</ele>
        <time>2016-07-15T10:38:54Z</time>
      </trkpt>
      <trkpt lat="46.55937" lon="6.24954">
        <ele>1347</ele>
        <time>2016-07-15T10:38:59Z</time>
      </trkpt>
      <trkpt lat="46.55935" lon="6.24965">
        <ele>1348</ele>
        <time>2016-07-15T10:39:03Z</time>
      </trkpt>
      <trkpt lat="46.55933" lon="6.24979">
        <ele>1349</ele>
        <time>2016-07-15T10:39:08Z</time>
      </trkpt>
      <trkpt lat="46.55931" lon="6.2499">
        <ele>1350</ele>
        <time>2016-07-15T10:39:12Z</time>
      </trkpt>
      <trkpt lat="46.55929" lon="6.25002">
        <ele>1352</ele>
        <time>2016-07-15T10:39:16Z</time>
      </trkpt>
      <trkpt lat="46.55926" lon="6.25014">
        <ele>1352</ele>
        <time>2016-07-15T10:39:21Z</time>
      </trkpt>
      <trkpt lat="46.55922" lon="6.25029">
        <ele>1351</ele>
        <time>2016-07-15T10:39:25Z</time>
      </trkpt>
      <trkpt lat="46.5592" lon="6.2504">
        <ele>1351</ele>
        <time>2016-07-15T10:39:29Z</time>
      </trkpt>
      <trkpt lat="46.55918" lon="6.25051">
        <ele>1351</ele>
        <time>2016-07-15T10:39:33Z</time>
      </trkpt>
      <trkpt lat="46.55915" lon="6.25066">
        <ele>1357</ele>
        <time>2016-07-15T10:39:38Z</time>
      </trkpt>
      <trkpt lat="46.55913" lon="6.25081">
        <ele>1356</ele>
        <time>2016-07-15T10:39:43Z</time>
      </trkpt>
      <trkpt lat="46.55912" lon="6.25097">
        <ele>1357</ele>
        <time>2016-07-15T10:39:48Z</time>
      </trkpt>
      <trkpt lat="46.55909" lon="6.25109">
        <ele>1358</ele>
        <time>2016-07-15T10:39:52Z</time>
      </trkpt>
      <trkpt lat="46.55906" lon="6.25122">
        <ele>1358</ele>
        <time>2016-07-15T10:39:56Z</time>
      </trkpt>
      <trkpt lat="46.55904" lon="6.25139">
        <ele>1359</ele>
        <time>2016-07-15T10:40:01Z</time>
      </trkpt>
      <trkpt lat="46.55901" lon="6.25156">
        <ele>1359</ele>
        <time>2016-07-15T10:40:06Z</time>
      </trkpt>
      <trkpt lat="46.55898" lon="6.25173">
        <ele>1361</ele>
        <time>2016-07-15T10:40:11Z</time>
      </trkpt>
      <trkpt lat="46.55897" lon="6.25187">
        <ele>1362</ele>
        <time>2016-07-15T10:40:15Z</time>
      </trkpt>
      <trkpt lat="46.55897" lon="6.25199">
        <ele>1363</ele>
        <time>2016-07-15T10:40:20Z</time>
      </trkpt>
      <trkpt lat="46.55897" lon="6.25211">
        <ele>1363</ele>
        <time>2016-07-15T10:40:25Z</time>
      </trkpt>
      <trkpt lat="46.55896" lon="6.25224">
        <ele>1364</ele>
        <time>2016-07-15T10:40:30Z</time>
      </trkpt>
      <trkpt lat="46.55897" lon="6.25237">
        <ele>1364</ele>
        <time>2016-07-15T10:40:35Z</time>
      </trkpt>
      <trkpt lat="46.55898" lon="6.25249">
        <ele>1364</ele>
        <time>2016-07-15T10:40:39Z</time>
      </trkpt>
      <trkpt lat="46.55899" lon="6.2526">
        <ele>1369</ele>
        <time>2016-07-15T10:40:43Z</time>
      </trkpt>
      <trkpt lat="46.55901" lon="6.25272">
        <ele>1370</ele>
        <time>2016-07-15T10:40:49Z</time>
      </trkpt>
      <trkpt lat="46.55904" lon="6.25283">
        <ele>1371</ele>
        <time>2016-07-15T10:40:53Z</time>
      </trkpt>
      <trkpt lat="46.5591" lon="6.25299">
        <ele>1372</ele>
        <time>2016-07-15T10:40:58Z</time>
      </trkpt>
      <trkpt lat="46.55913" lon="6.25308">
        <ele>1373</ele>
        <time>2016-07-15T10:41:01Z</time>
      </trkpt>
      <trkpt lat="46.55918" lon="6.25321">
        <ele>1370</ele>
        <time>2016-07-15T10:41:05Z</time>
      </trkpt>
      <trkpt lat="46.55923" lon="6.25334">
        <ele>1373</ele>
        <time>2016-07-15T10:41:09Z</time>
      </trkpt>
      <trkpt lat="46.55929" lon="6.25349">
        <ele>1374</ele>
        <time>2016-07-15T10:41:14Z</time>
      </trkpt>
      <trkpt lat="46.55935" lon="6.25366">
        <ele>1375</ele>
        <time>2016-07-15T10:41:19Z</time>
      </trkpt>
      <trkpt lat="46.5594" lon="6.2538">
        <ele>1377</ele>
        <time>2016-07-15T10:41:23Z</time>
      </trkpt>
      <trkpt lat="46.55946" lon="6.25398">
        <ele>1378</ele>
        <time>2016-07-15T10:41:28Z</time>
      </trkpt>
      <trkpt lat="46.55951" lon="6.25411">
        <ele>1378</ele>
        <time>2016-07-15T10:41:32Z</time>
      </trkpt>
      <trkpt lat="46.55956" lon="6.25425">
        <ele>1387</ele>
        <time>2016-07-15T10:41:36Z</time>
      </trkpt>
      <trkpt lat="46.55962" lon="6.25438">
        <ele>1387</ele>
        <time>2016-07-15T10:41:40Z</time>
      </trkpt>
      <trkpt lat="46.55972" lon="6.25453">
        <ele>1388</ele>
        <time>2016-07-15T10:41:45Z</time>
      </trkpt>
      <trkpt lat="46.5598" lon="6.25464">
        <ele>1388</ele>
        <time>2016-07-15T10:41:49Z</time>
      </trkpt>
      <trkpt lat="46.55988" lon="6.25473">
        <ele>1388</ele>
        <time>2016-07-15T10:41:53Z</time>
      </trkpt>
      <trkpt lat="46.55997" lon="6.25487">
        <ele>1387</ele>
        <time>2016-07-15T10:41:58Z</time>
      </trkpt>
      <trkpt lat="46.56" lon="6.25502">
        <ele>1386</ele>
        <time>2016-07-15T10:42:02Z</time>
      </trkpt>
      <trkpt lat="46.56001" lon="6.25518">
        <ele>1385</ele>
        <time>2016-07-15T10:42:06Z</time>
      </trkpt>
      <trkpt lat="46.56003" lon="6.2553">
        <ele>1386</ele>
        <time>2016-07-15T10:42:13Z</time>
      </trkpt>
      <trkpt lat="46.56009" lon="6.25536">
        <ele>1386</ele>
        <time>2016-07-15T10:42:38Z</time>
      </trkpt>
      <trkpt lat="46.56014" lon="6.25549">
        <ele>1387</ele>
        <time>2016-07-15T10:42:43Z</time>
      </trkpt>
      <trkpt lat="46.56017" lon="6.2556">
        <ele>1388</ele>
        <time>2016-07-15T10:42:47Z</time>
      </trkpt>
      <trkpt lat="46.5602" lon="6.25573">
        <ele>1390</ele>
        <time>2016-07-15T10:42:51Z</time>
      </trkpt>
      <trkpt lat="46.56022" lon="6.25583">
        <ele>1390</ele>
        <time>2016-07-15T10:42:55Z</time>
      </trkpt>
      <trkpt lat="46.56027" lon="6.25598">
        <ele>1397</ele>
        <time>2016-07-15T10:42:59Z</time>
      </trkpt>
      <trkpt lat="46.5603" lon="6.25612">
        <ele>1398</ele>
        <time>2016-07-15T10:43:03Z</time>
      </trkpt>
      <trkpt lat="46.56033" lon="6.25625">
        <ele>1398</ele>
        <time>2016-07-15T10:43:07Z</time>
      </trkpt>
      <trkpt lat="46.56039" lon="6.25635">
        <ele>1398</ele>
        <time>2016-07-15T10:43:12Z</time>
      </trkpt>
      <trkpt lat="46.56046" lon="6.25645">
        <ele>1398</ele>
        <time>2016-07-15T10:43:15Z</time>
      </trkpt>
      <trkpt lat="46.56052" lon="6.25657">
        <ele>1397</ele>
        <time>2016-07-15T10:43:19Z</time>
      </trkpt>
      <trkpt lat="46.5606" lon="6.2567">
        <ele>1405</ele>
        <time>2016-07-15T10:43:24Z</time>
      </trkpt>
      <trkpt lat="46.56068" lon="6.25683">
        <ele>1405</ele>
        <time>2016-07-15T10:43:29Z</time>
      </trkpt>
      <trkpt lat="46.56072" lon="6.25688">
        <ele>1406</ele>
        <time>2016-07-15T10:43:31Z</time>
      </trkpt>
      <trkpt lat="46.56079" lon="6.25697">
        <ele>1407</ele>
        <time>2016-07-15T10:43:35Z</time>
      </trkpt>
      <trkpt lat="46.56087" lon="6.25706">
        <ele>1394</ele>
        <time>2016-07-15T10:43:39Z</time>
      </trkpt>
      <trkpt lat="46.56097" lon="6.2572">
        <ele>1396</ele>
        <time>2016-07-15T10:43:44Z</time>
      </trkpt>
      <trkpt lat="46.56104" lon="6.25732">
        <ele>1398</ele>
        <time>2016-07-15T10:43:48Z</time>
      </trkpt>
      <trkpt lat="46.56109" lon="6.25741">
        <ele>1398</ele>
        <time>2016-07-15T10:43:51Z</time>
      </trkpt>
      <trkpt lat="46.56117" lon="6.25755">
        <ele>1409</ele>
        <time>2016-07-15T10:43:56Z</time>
      </trkpt>
      <trkpt lat="46.56126" lon="6.2577">
        <ele>1409</ele>
        <time>2016-07-15T10:44:01Z</time>
      </trkpt>
      <trkpt lat="46.5613" lon="6.25779">
        <ele>1409</ele>
        <time>2016-07-15T10:44:06Z</time>
      </trkpt>
      <trkpt lat="46.56138" lon="6.25799">
        <ele>1410</ele>
        <time>2016-07-15T10:44:10Z</time>
      </trkpt>
      <trkpt lat="46.56142" lon="6.25816">
        <ele>1412</ele>
        <time>2016-07-15T10:44:14Z</time>
      </trkpt>
      <trkpt lat="46.56148" lon="6.25828">
        <ele>1411</ele>
        <time>2016-07-15T10:44:18Z</time>
      </trkpt>
      <trkpt lat="46.56155" lon="6.25839">
        <ele>1419</ele>
        <time>2016-07-15T10:44:22Z</time>
      </trkpt>
      <trkpt lat="46.56163" lon="6.25855">
        <ele>1422</ele>
        <time>2016-07-15T10:44:27Z</time>
      </trkpt>
      <trkpt lat="46.56171" lon="6.25868">
        <ele>1409</ele>
        <time>2016-07-15T10:44:31Z</time>
      </trkpt>
      <trkpt lat="46.56178" lon="6.25881">
        <ele>1410</ele>
        <time>2016-07-15T10:44:35Z</time>
      </trkpt>
      <trkpt lat="46.56185" lon="6.25897">
        <ele>1413</ele>
        <time>2016-07-15T10:44:40Z</time>
      </trkpt>
      <trkpt lat="46.5619" lon="6.25908">
        <ele>1413</ele>
        <time>2016-07-15T10:44:43Z</time>
      </trkpt>
      <trkpt lat="46.56198" lon="6.25927">
        <ele>1422</ele>
        <time>2016-07-15T10:44:48Z</time>
      </trkpt>
      <trkpt lat="46.56203" lon="6.25936">
        <ele>1421</ele>
        <time>2016-07-15T10:44:53Z</time>
      </trkpt>
      <trkpt lat="46.5621" lon="6.25949">
        <ele>1421</ele>
        <time>2016-07-15T10:44:57Z</time>
      </trkpt>
      <trkpt lat="46.56216" lon="6.25961">
        <ele>1421</ele>
        <time>2016-07-15T10:45:01Z</time>
      </trkpt>
      <trkpt lat="46.56219" lon="6.25968">
        <ele>1421</ele>
        <time>2016-07-15T10:45:03Z</time>
      </trkpt>
      <trkpt lat="46.56224" lon="6.2598">
        <ele>1421</ele>
        <time>2016-07-15T10:45:08Z</time>
      </trkpt>
      <trkpt lat="46.56231" lon="6.26004">
        <ele>1427</ele>
        <time>2016-07-15T10:45:12Z</time>
      </trkpt>
      <trkpt lat="46.56237" lon="6.26024">
        <ele>1429</ele>
        <time>2016-07-15T10:45:17Z</time>
      </trkpt>
      <trkpt lat="46.56243" lon="6.2604">
        <ele>1432</ele>
        <time>2016-07-15T10:45:21Z</time>
      </trkpt>
      <trkpt lat="46.56247" lon="6.26051">
        <ele>1432</ele>
        <time>2016-07-15T10:45:25Z</time>
      </trkpt>
      <trkpt lat="46.56254" lon="6.26066">
        <ele>1415</ele>
        <time>2016-07-15T10:45:29Z</time>
      </trkpt>
      <trkpt lat="46.56257" lon="6.26083">
        <ele>1423</ele>
        <time>2016-07-15T10:45:33Z</time>
      </trkpt>
      <trkpt lat="46.56261" lon="6.26105">
        <ele>1418</ele>
        <time>2016-07-15T10:45:38Z</time>
      </trkpt>
      <trkpt lat="46.56264" lon="6.26125">
        <ele>1417</ele>
        <time>2016-07-15T10:45:43Z</time>
      </trkpt>
      <trkpt lat="46.56267" lon="6.26141">
        <ele>1418</ele>
        <time>2016-07-15T10:45:47Z</time>
      </trkpt>
      <trkpt lat="46.56269" lon="6.26156">
        <ele>1420</ele>
        <time>2016-07-15T10:45:51Z</time>
      </trkpt>
      <trkpt lat="46.56273" lon="6.26173">
        <ele>1423</ele>
        <time>2016-07-15T10:45:55Z</time>
      </trkpt>
      <trkpt lat="46.5628" lon="6.26194">
        <ele>1420</ele>
        <time>2016-07-15T10:46:00Z</time>
      </trkpt>
      <trkpt lat="46.56285" lon="6.26216">
        <ele>1420</ele>
        <time>2016-07-15T10:46:05Z</time>
      </trkpt>
      <trkpt lat="46.56286" lon="6.26235">
        <ele>1421</ele>
        <time>2016-07-15T10:46:09Z</time>
      </trkpt>
      <trkpt lat="46.56289" lon="6.26262">
        <ele>1427</ele>
        <time>2016-07-15T10:46:14Z</time>
      </trkpt>
      <trkpt lat="46.56294" lon="6.26282">
        <ele>1427</ele>
        <time>2016-07-15T10:46:18Z</time>
      </trkpt>
      <trkpt lat="46.56298" lon="6.26302">
        <ele>1428</ele>
        <time>2016-07-15T10:46:22Z</time>
      </trkpt>
      <trkpt lat="46.56303" lon="6.2632">
        <ele>1427</ele>
        <time>2016-07-15T10:46:26Z</time>
      </trkpt>
      <trkpt lat="46.56306" lon="6.26337">
        <ele>1435</ele>
        <time>2016-07-15T10:46:30Z</time>
      </trkpt>
      <trkpt lat="46.56308" lon="6.26353">
        <ele>1436</ele>
        <time>2016-07-15T10:46:34Z</time>
      </trkpt>
      <trkpt lat="46.56311" lon="6.26356">
        <ele>1436</ele>
        <time>2016-07-15T10:48:23Z</time>
      </trkpt>
      <trkpt lat="46.56316" lon="6.26375">
        <ele>1438</ele>
        <time>2016-07-15T10:48:26Z</time>
      </trkpt>
      <trkpt lat="46.56327" lon="6.26403">
        <ele>1439</ele>
        <time>2016-07-15T10:48:30Z</time>
      </trkpt>
      <trkpt lat="46.56339" lon="6.26425">
        <ele>1436</ele>
        <time>2016-07-15T10:48:34Z</time>
      </trkpt>
      <trkpt lat="46.56359" lon="6.2644">
        <ele>1434</ele>
        <time>2016-07-15T10:48:38Z</time>
      </trkpt>
      <trkpt lat="46.56384" lon="6.2646">
        <ele>1432</ele>
        <time>2016-07-15T10:48:43Z</time>
      </trkpt>
      <trkpt lat="46.56409" lon="6.26482">
        <ele>1432</ele>
        <time>2016-07-15T10:48:48Z</time>
      </trkpt>
      <trkpt lat="46.56429" lon="6.26499">
        <ele>1424</ele>
        <time>2016-07-15T10:48:52Z</time>
      </trkpt>
      <trkpt lat="46.56449" lon="6.26517">
        <ele>1430</ele>
        <time>2016-07-15T10:48:56Z</time>
      </trkpt>
      <trkpt lat="46.56467" lon="6.26534">
        <ele>1430</ele>
        <time>2016-07-15T10:49:00Z</time>
      </trkpt>
      <trkpt lat="46.56484" lon="6.26555">
        <ele>1431</ele>
        <time>2016-07-15T10:49:05Z</time>
      </trkpt>
      <trkpt lat="46.56497" lon="6.26573">
        <ele>1432</ele>
        <time>2016-07-15T10:49:09Z</time>
      </trkpt>
      <trkpt lat="46.56511" lon="6.26593">
        <ele>1433</ele>
        <time>2016-07-15T10:49:14Z</time>
      </trkpt>
      <trkpt lat="46.56522" lon="6.26608">
        <ele>1434</ele>
        <time>2016-07-15T10:49:18Z</time>
      </trkpt>
      <trkpt lat="46.56533" lon="6.26621">
        <ele>1435</ele>
        <time>2016-07-15T10:49:22Z</time>
      </trkpt>
      <trkpt lat="46.56546" lon="6.2663">
        <ele>1435</ele>
        <time>2016-07-15T10:49:26Z</time>
      </trkpt>
      <trkpt lat="46.56558" lon="6.2664">
        <ele>1435</ele>
        <time>2016-07-15T10:49:30Z</time>
      </trkpt>
      <trkpt lat="46.56568" lon="6.26648">
        <ele>1435</ele>
        <time>2016-07-15T10:49:33Z</time>
      </trkpt>
      <trkpt lat="46.56587" lon="6.26663">
        <ele>1433</ele>
        <time>2016-07-15T10:49:39Z</time>
      </trkpt>
      <trkpt lat="46.56602" lon="6.26677">
        <ele>1437</ele>
        <time>2016-07-15T10:49:44Z</time>
      </trkpt>
      <trkpt lat="46.56615" lon="6.26694">
        <ele>1438</ele>
        <time>2016-07-15T10:49:49Z</time>
      </trkpt>
      <trkpt lat="46.56622" lon="6.26705">
        <ele>1439</ele>
        <time>2016-07-15T10:49:53Z</time>
      </trkpt>
      <trkpt lat="46.56628" lon="6.26715">
        <ele>1440</ele>
        <time>2016-07-15T10:49:58Z</time>
      </trkpt>
      <trkpt lat="46.56635" lon="6.26722">
        <ele>1440</ele>
        <time>2016-07-15T10:50:02Z</time>
      </trkpt>
      <trkpt lat="46.56642" lon="6.2673">
        <ele>1441</ele>
        <time>2016-07-15T10:50:06Z</time>
      </trkpt>
      <trkpt lat="46.5665" lon="6.2674">
        <ele>1441</ele>
        <time>2016-07-15T10:50:11Z</time>
      </trkpt>
      <trkpt lat="46.56657" lon="6.2675">
        <ele>1442</ele>
        <time>2016-07-15T10:50:15Z</time>
      </trkpt>
      <trkpt lat="46.56669" lon="6.26761">
        <ele>1445</ele>
        <time>2016-07-15T10:50:20Z</time>
      </trkpt>
      <trkpt lat="46.56678" lon="6.26769">
        <ele>1447</ele>
        <time>2016-07-15T10:50:24Z</time>
      </trkpt>
      <trkpt lat="46.56689" lon="6.26777">
        <ele>1448</ele>
        <time>2016-07-15T10:50:28Z</time>
      </trkpt>
      <trkpt lat="46.56699" lon="6.26784">
        <ele>1449</ele>
        <time>2016-07-15T10:50:32Z</time>
      </trkpt>
      <trkpt lat="46.5671" lon="6.2679">
        <ele>1449</ele>
        <time>2016-07-15T10:50:36Z</time>
      </trkpt>
      <trkpt lat="46.56717" lon="6.26793">
        <ele>1449</ele>
        <time>2016-07-15T10:50:40Z</time>
      </trkpt>
      <trkpt lat="46.56725" lon="6.26798">
        <ele>1449</ele>
        <time>2016-07-15T10:50:45Z</time>
      </trkpt>
      <trkpt lat="46.56731" lon="6.26801">
        <ele>1450</ele>
        <time>2016-07-15T10:50:49Z</time>
      </trkpt>
      <trkpt lat="46.5674" lon="6.26806">
        <ele>1450</ele>
        <time>2016-07-15T10:50:54Z</time>
      </trkpt>
      <trkpt lat="46.56748" lon="6.26811">
        <ele>1451</ele>
        <time>2016-07-15T10:50:59Z</time>
      </trkpt>
      <trkpt lat="46.56756" lon="6.26816">
        <ele>1449</ele>
        <time>2016-07-15T10:51:04Z</time>
      </trkpt>
      <trkpt lat="46.56763" lon="6.2682">
        <ele>1449</ele>
        <time>2016-07-15T10:51:09Z</time>
      </trkpt>
      <trkpt lat="46.56771" lon="6.26825">
        <ele>1448</ele>
        <time>2016-07-15T10:51:14Z</time>
      </trkpt>
      <trkpt lat="46.5678" lon="6.26833">
        <ele>1447</ele>
        <time>2016-07-15T10:51:19Z</time>
      </trkpt>
      <trkpt lat="46.56785" lon="6.2684">
        <ele>1459</ele>
        <time>2016-07-15T10:51:23Z</time>
      </trkpt>
      <trkpt lat="46.56792" lon="6.26848">
        <ele>1460</ele>
        <time>2016-07-15T10:51:28Z</time>
      </trkpt>
      <trkpt lat="46.56799" lon="6.26852">
        <ele>1460</ele>
        <time>2016-07-15T10:51:32Z</time>
      </trkpt>
      <trkpt lat="46.56808" lon="6.2686">
        <ele>1460</ele>
        <time>2016-07-15T10:51:37Z</time>
      </trkpt>
      <trkpt lat="46.56816" lon="6.26866">
        <ele>1460</ele>
        <time>2016-07-15T10:51:41Z</time>
      </trkpt>
      <trkpt lat="46.56823" lon="6.26872">
        <ele>1461</ele>
        <time>2016-07-15T10:51:46Z</time>
      </trkpt>
      <trkpt lat="46.5683" lon="6.26876">
        <ele>1461</ele>
        <time>2016-07-15T10:51:50Z</time>
      </trkpt>
      <trkpt lat="46.56839" lon="6.26882">
        <ele>1457</ele>
        <time>2016-07-15T10:51:55Z</time>
      </trkpt>
      <trkpt lat="46.56849" lon="6.26887">
        <ele>1457</ele>
        <time>2016-07-15T10:51:59Z</time>
      </trkpt>
      <trkpt lat="46.56859" lon="6.26889">
        <ele>1457</ele>
        <time>2016-07-15T10:52:03Z</time>
      </trkpt>
      <trkpt lat="46.56871" lon="6.26891">
        <ele>1456</ele>
        <time>2016-07-15T10:52:08Z</time>
      </trkpt>
      <trkpt lat="46.56883" lon="6.26895">
        <ele>1455</ele>
        <time>2016-07-15T10:52:13Z</time>
      </trkpt>
      <trkpt lat="46.56894" lon="6.26902">
        <ele>1455</ele>
        <time>2016-07-15T10:52:18Z</time>
      </trkpt>
      <trkpt lat="46.56902" lon="6.26912">
        <ele>1455</ele>
        <time>2016-07-15T10:52:22Z</time>
      </trkpt>
      <trkpt lat="46.56904" lon="6.26915">
        <ele>1455</ele>
        <time>2016-07-15T10:52:23Z</time>
      </trkpt>
      <trkpt lat="46.56905" lon="6.26932">
        <ele>1465</ele>
        <time>2016-07-15T10:52:28Z</time>
      </trkpt>
      <trkpt lat="46.56897" lon="6.26944">
        <ele>1469</ele>
        <time>2016-07-15T10:52:33Z</time>
      </trkpt>
      <trkpt lat="46.56888" lon="6.26945">
        <ele>1470</ele>
        <time>2016-07-15T10:52:37Z</time>
      </trkpt>
      <trkpt lat="46.56879" lon="6.26942">
        <ele>1470</ele>
        <time>2016-07-15T10:52:40Z</time>
      </trkpt>
      <trkpt lat="46.56871" lon="6.26938">
        <ele>1471</ele>
        <time>2016-07-15T10:52:45Z</time>
      </trkpt>
      <trkpt lat="46.56861" lon="6.26934">
        <ele>1471</ele>
        <time>2016-07-15T10:52:50Z</time>
      </trkpt>
      <trkpt lat="46.56852" lon="6.26932">
        <ele>1471</ele>
        <time>2016-07-15T10:52:54Z</time>
      </trkpt>
      <trkpt lat="46.56845" lon="6.26928">
        <ele>1471</ele>
        <time>2016-07-15T10:52:59Z</time>
      </trkpt>
      <trkpt lat="46.56834" lon="6.26928">
        <ele>1471</ele>
        <time>2016-07-15T10:53:03Z</time>
      </trkpt>
      <trkpt lat="46.56822" lon="6.26927">
        <ele>1475</ele>
        <time>2016-07-15T10:53:07Z</time>
      </trkpt>
      <trkpt lat="46.56814" lon="6.26926">
        <ele>1476</ele>
        <time>2016-07-15T10:53:12Z</time>
      </trkpt>
      <trkpt lat="46.56805" lon="6.26924">
        <ele>1477</ele>
        <time>2016-07-15T10:53:17Z</time>
      </trkpt>
      <trkpt lat="46.56797" lon="6.26924">
        <ele>1478</ele>
        <time>2016-07-15T10:53:21Z</time>
      </trkpt>
      <trkpt lat="46.56786" lon="6.26922">
        <ele>1479</ele>
        <time>2016-07-15T10:53:25Z</time>
      </trkpt>
      <trkpt lat="46.56777" lon="6.26922">
        <ele>1479</ele>
        <time>2016-07-15T10:53:29Z</time>
      </trkpt>
      <trkpt lat="46.56765" lon="6.2692">
        <ele>1478</ele>
        <time>2016-07-15T10:53:34Z</time>
      </trkpt>
      <trkpt lat="46.56755" lon="6.26917">
        <ele>1477</ele>
        <time>2016-07-15T10:53:38Z</time>
      </trkpt>
      <trkpt lat="46.56744" lon="6.26916">
        <ele>1474</ele>
        <time>2016-07-15T10:53:43Z</time>
      </trkpt>
      <trkpt lat="46.56735" lon="6.26915">
        <ele>1472</ele>
        <time>2016-07-15T10:53:47Z</time>
      </trkpt>
      <trkpt lat="46.56728" lon="6.26914">
        <ele>1471</ele>
        <time>2016-07-15T10:53:49Z</time>
      </trkpt>
      <trkpt lat="46.56714" lon="6.26915">
        <ele>1471</ele>
        <time>2016-07-15T10:53:56Z</time>
      </trkpt>
      <trkpt lat="46.56703" lon="6.2692">
        <ele>1481</ele>
        <time>2016-07-15T10:54:01Z</time>
      </trkpt>
      <trkpt lat="46.5669" lon="6.26922">
        <ele>1481</ele>
        <time>2016-07-15T10:54:06Z</time>
      </trkpt>
      <trkpt lat="46.5668" lon="6.26924">
        <ele>1480</ele>
        <time>2016-07-15T10:54:10Z</time>
      </trkpt>
      <trkpt lat="46.5667" lon="6.26923">
        <ele>1478</ele>
        <time>2016-07-15T10:54:14Z</time>
      </trkpt>
      <trkpt lat="46.56657" lon="6.26924">
        <ele>1479</ele>
        <time>2016-07-15T10:54:19Z</time>
      </trkpt>
      <trkpt lat="46.56647" lon="6.26928">
        <ele>1480</ele>
        <time>2016-07-15T10:54:23Z</time>
      </trkpt>
      <trkpt lat="46.56638" lon="6.26935">
        <ele>1482</ele>
        <time>2016-07-15T10:54:27Z</time>
      </trkpt>
      <trkpt lat="46.5663" lon="6.26944">
        <ele>1482</ele>
        <time>2016-07-15T10:54:31Z</time>
      </trkpt>
      <trkpt lat="46.56619" lon="6.26955">
        <ele>1483</ele>
        <time>2016-07-15T10:54:36Z</time>
      </trkpt>
      <trkpt lat="46.56605" lon="6.26963">
        <ele>1484</ele>
        <time>2016-07-15T10:54:41Z</time>
      </trkpt>
      <trkpt lat="46.56594" lon="6.26966">
        <ele>1484</ele>
        <time>2016-07-15T10:54:45Z</time>
      </trkpt>
      <trkpt lat="46.56582" lon="6.26965">
        <ele>1483</ele>
        <time>2016-07-15T10:54:49Z</time>
      </trkpt>
      <trkpt lat="46.56571" lon="6.26964">
        <ele>1483</ele>
        <time>2016-07-15T10:54:53Z</time>
      </trkpt>
      <trkpt lat="46.5656" lon="6.2696">
        <ele>1483</ele>
        <time>2016-07-15T10:54:57Z</time>
      </trkpt>
      <trkpt lat="46.56548" lon="6.26956">
        <ele>1483</ele>
        <time>2016-07-15T10:55:01Z</time>
      </trkpt>
      <trkpt lat="46.56533" lon="6.26952">
        <ele>1482</ele>
        <time>2016-07-15T10:55:06Z</time>
      </trkpt>
      <trkpt lat="46.56523" lon="6.26952">
        <ele>1482</ele>
        <time>2016-07-15T10:55:10Z</time>
      </trkpt>
      <trkpt lat="46.56512" lon="6.26952">
        <ele>1482</ele>
        <time>2016-07-15T10:55:14Z</time>
      </trkpt>
      <trkpt lat="46.56498" lon="6.26956">
        <ele>1483</ele>
        <time>2016-07-15T10:55:19Z</time>
      </trkpt>
      <trkpt lat="46.56491" lon="6.26959">
        <ele>1483</ele>
        <time>2016-07-15T10:55:23Z</time>
      </trkpt>
      <trkpt lat="46.56483" lon="6.26962">
        <ele>1483</ele>
        <time>2016-07-15T10:55:27Z</time>
      </trkpt>
      <trkpt lat="46.56473" lon="6.2696">
        <ele>1483</ele>
        <time>2016-07-15T10:55:32Z</time>
      </trkpt>
      <trkpt lat="46.56465" lon="6.26966">
        <ele>1483</ele>
        <time>2016-07-15T10:55:45Z</time>
      </trkpt>
      <trkpt lat="46.56458" lon="6.26969">
        <ele>1484</ele>
        <time>2016-07-15T10:55:53Z</time>
      </trkpt>
      <trkpt lat="46.5645" lon="6.26975">
        <ele>1484</ele>
        <time>2016-07-15T10:56:00Z</time>
      </trkpt>
      <trkpt lat="46.56443" lon="6.26982">
        <ele>1484</ele>
        <time>2016-07-15T10:56:05Z</time>
      </trkpt>
      <trkpt lat="46.56435" lon="6.26995">
        <ele>1484</ele>
        <time>2016-07-15T10:56:10Z</time>
      </trkpt>
      <trkpt lat="46.56427" lon="6.27008">
        <ele>1487</ele>
        <time>2016-07-15T10:56:15Z</time>
      </trkpt>
      <trkpt lat="46.5642" lon="6.27018">
        <ele>1487</ele>
        <time>2016-07-15T10:56:20Z</time>
      </trkpt>
      <trkpt lat="46.56411" lon="6.27028">
        <ele>1490</ele>
        <time>2016-07-15T10:56:24Z</time>
      </trkpt>
      <trkpt lat="46.56401" lon="6.27036">
        <ele>1491</ele>
        <time>2016-07-15T10:56:29Z</time>
      </trkpt>
      <trkpt lat="46.56397" lon="6.2704">
        <ele>1491</ele>
        <time>2016-07-15T10:56:34Z</time>
      </trkpt>
      <trkpt lat="46.56385" lon="6.27051">
        <ele>1492</ele>
        <time>2016-07-15T10:56:37Z</time>
      </trkpt>
      <trkpt lat="46.56381" lon="6.27061">
        <ele>1492</ele>
        <time>2016-07-15T10:56:41Z</time>
      </trkpt>
      <trkpt lat="46.5638" lon="6.27073">
        <ele>1493</ele>
        <time>2016-07-15T10:56:45Z</time>
      </trkpt>
      <trkpt lat="46.56381" lon="6.27085">
        <ele>1496</ele>
        <time>2016-07-15T10:56:49Z</time>
      </trkpt>
      <trkpt lat="46.5638" lon="6.27096">
        <ele>1496</ele>
        <time>2016-07-15T10:56:53Z</time>
      </trkpt>
      <trkpt lat="46.56377" lon="6.27108">
        <ele>1497</ele>
        <time>2016-07-15T10:56:57Z</time>
      </trkpt>
      <trkpt lat="46.56386" lon="6.27106">
        <ele>1496</ele>
        <time>2016-07-15T11:17:59Z</time>
      </trkpt>
      <trkpt lat="46.56392" lon="6.27114">
        <ele>1496</ele>
        <time>2016-07-15T11:27:52Z</time>
      </trkpt>
      <trkpt lat="46.56391" lon="6.27126">
        <ele>1497</ele>
        <time>2016-07-15T11:27:57Z</time>
      </trkpt>
      <trkpt lat="46.56386" lon="6.27136">
        <ele>1497</ele>
        <time>2016-07-15T11:28:02Z</time>
      </trkpt>
      <trkpt lat="46.56382" lon="6.27146">
        <ele>1498</ele>
        <time>2016-07-15T11:28:08Z</time>
      </trkpt>
      <trkpt lat="46.56379" lon="6.27159">
        <ele>1498</ele>
        <time>2016-07-15T11:28:13Z</time>
      </trkpt>
      <trkpt lat="46.56371" lon="6.27164">
        <ele>1498</ele>
        <time>2016-07-15T11:28:35Z</time>
      </trkpt>
      <trkpt lat="46.56369" lon="6.27177">
        <ele>1499</ele>
        <time>2016-07-15T11:29:13Z</time>
      </trkpt>
      <trkpt lat="46.56366" lon="6.27196">
        <ele>1499</ele>
        <time>2016-07-15T11:29:18Z</time>
      </trkpt>
      <trkpt lat="46.56367" lon="6.27213">
        <ele>1499</ele>
        <time>2016-07-15T11:29:22Z</time>
      </trkpt>
      <trkpt lat="46.56368" lon="6.27231">
        <ele>1499</ele>
        <time>2016-07-15T11:29:26Z</time>
      </trkpt>
      <trkpt lat="46.56368" lon="6.27257">
        <ele>1499</ele>
        <time>2016-07-15T11:29:30Z</time>
      </trkpt>
      <trkpt lat="46.5637" lon="6.27294">
        <ele>1499</ele>
        <time>2016-07-15T11:29:34Z</time>
      </trkpt>
      <trkpt lat="46.56367" lon="6.27334">
        <ele>1496</ele>
        <time>2016-07-15T11:29:38Z</time>
      </trkpt>
      <trkpt lat="46.56364" lon="6.2738">
        <ele>1495</ele>
        <time>2016-07-15T11:29:43Z</time>
      </trkpt>
      <trkpt lat="46.56342" lon="6.2742">
        <ele>1488</ele>
        <time>2016-07-15T11:29:48Z</time>
      </trkpt>
      <trkpt lat="46.56338" lon="6.27453">
        <ele>1487</ele>
        <time>2016-07-15T11:29:52Z</time>
      </trkpt>
      <trkpt lat="46.56356" lon="6.27483">
        <ele>1485</ele>
        <time>2016-07-15T11:29:56Z</time>
      </trkpt>
      <trkpt lat="46.5638" lon="6.27518">
        <ele>1482</ele>
        <time>2016-07-15T11:30:01Z</time>
      </trkpt>
      <trkpt lat="46.56394" lon="6.27553">
        <ele>1482</ele>
        <time>2016-07-15T11:30:05Z</time>
      </trkpt>
      <trkpt lat="46.56404" lon="6.276">
        <ele>1480</ele>
        <time>2016-07-15T11:30:10Z</time>
      </trkpt>
      <trkpt lat="46.56416" lon="6.27632">
        <ele>1479</ele>
        <time>2016-07-15T11:30:14Z</time>
      </trkpt>
      <trkpt lat="46.56411" lon="6.27671">
        <ele>1479</ele>
        <time>2016-07-15T11:30:18Z</time>
      </trkpt>
      <trkpt lat="46.56386" lon="6.27687">
        <ele>1476</ele>
        <time>2016-07-15T11:30:23Z</time>
      </trkpt>
      <trkpt lat="46.56373" lon="6.27715">
        <ele>1475</ele>
        <time>2016-07-15T11:30:27Z</time>
      </trkpt>
      <trkpt lat="46.56362" lon="6.27741">
        <ele>1473</ele>
        <time>2016-07-15T11:30:31Z</time>
      </trkpt>
      <trkpt lat="46.56335" lon="6.27739">
        <ele>1472</ele>
        <time>2016-07-15T11:30:36Z</time>
      </trkpt>
      <trkpt lat="46.56302" lon="6.27757">
        <ele>1469</ele>
        <time>2016-07-15T11:30:40Z</time>
      </trkpt>
      <trkpt lat="46.56273" lon="6.27757">
        <ele>1468</ele>
        <time>2016-07-15T11:30:45Z</time>
      </trkpt>
      <trkpt lat="46.56251" lon="6.27743">
        <ele>1467</ele>
        <time>2016-07-15T11:30:49Z</time>
      </trkpt>
      <trkpt lat="46.56238" lon="6.27741">
        <ele>1467</ele>
        <time>2016-07-15T11:30:53Z</time>
      </trkpt>
      <trkpt lat="46.56224" lon="6.27755">
        <ele>1467</ele>
        <time>2016-07-15T11:30:57Z</time>
      </trkpt>
      <trkpt lat="46.56204" lon="6.27777">
        <ele>1467</ele>
        <time>2016-07-15T11:31:01Z</time>
      </trkpt>
      <trkpt lat="46.56188" lon="6.27804">
        <ele>1467</ele>
        <time>2016-07-15T11:31:05Z</time>
      </trkpt>
      <trkpt lat="46.56185" lon="6.2784">
        <ele>1466</ele>
        <time>2016-07-15T11:31:10Z</time>
      </trkpt>
      <trkpt lat="46.56175" lon="6.2784">
        <ele>1466</ele>
        <time>2016-07-15T11:31:15Z</time>
      </trkpt>
      <trkpt lat="46.56171" lon="6.27829">
        <ele>1466</ele>
        <time>2016-07-15T11:31:31Z</time>
      </trkpt>
      <trkpt lat="46.56168" lon="6.2781">
        <ele>1467</ele>
        <time>2016-07-15T11:31:35Z</time>
      </trkpt>
      <trkpt lat="46.56169" lon="6.27788">
        <ele>1467</ele>
        <time>2016-07-15T11:31:40Z</time>
      </trkpt>
      <trkpt lat="46.56171" lon="6.27771">
        <ele>1468</ele>
        <time>2016-07-15T11:31:44Z</time>
      </trkpt>
      <trkpt lat="46.56173" lon="6.27755">
        <ele>1468</ele>
        <time>2016-07-15T11:31:49Z</time>
      </trkpt>
      <trkpt lat="46.56167" lon="6.27749">
        <ele>1468</ele>
        <time>2016-07-15T11:31:55Z</time>
      </trkpt>
      <trkpt lat="46.5616" lon="6.27747">
        <ele>1469</ele>
        <time>2016-07-15T11:31:59Z</time>
      </trkpt>
      <trkpt lat="46.56158" lon="6.27757">
        <ele>1469</ele>
        <time>2016-07-15T11:32:04Z</time>
      </trkpt>
      <trkpt lat="46.56146" lon="6.27764">
        <ele>1470</ele>
        <time>2016-07-15T11:32:09Z</time>
      </trkpt>
      <trkpt lat="46.56138" lon="6.27768">
        <ele>1471</ele>
        <time>2016-07-15T11:32:14Z</time>
      </trkpt>
      <trkpt lat="46.56131" lon="6.27772">
        <ele>1471</ele>
        <time>2016-07-15T11:32:19Z</time>
      </trkpt>
      <trkpt lat="46.56123" lon="6.27781">
        <ele>1472</ele>
        <time>2016-07-15T11:32:23Z</time>
      </trkpt>
      <trkpt lat="46.56122" lon="6.2777">
        <ele>1472</ele>
        <time>2016-07-15T11:32:29Z</time>
      </trkpt>
      <trkpt lat="46.56118" lon="6.27761">
        <ele>1473</ele>
        <time>2016-07-15T11:32:33Z</time>
      </trkpt>
      <trkpt lat="46.56113" lon="6.27757">
        <ele>1473</ele>
        <time>2016-07-15T11:32:40Z</time>
      </trkpt>
      <trkpt lat="46.56102" lon="6.27746">
        <ele>1476</ele>
        <time>2016-07-15T11:32:45Z</time>
      </trkpt>
      <trkpt lat="46.56095" lon="6.27741">
        <ele>1476</ele>
        <time>2016-07-15T11:32:49Z</time>
      </trkpt>
      <trkpt lat="46.56087" lon="6.27739">
        <ele>1477</ele>
        <time>2016-07-15T11:32:54Z</time>
      </trkpt>
      <trkpt lat="46.56078" lon="6.27737">
        <ele>1484</ele>
        <time>2016-07-15T11:33:21Z</time>
      </trkpt>
      <trkpt lat="46.56072" lon="6.2773">
        <ele>1485</ele>
        <time>2016-07-15T11:33:30Z</time>
      </trkpt>
      <trkpt lat="46.56064" lon="6.27724">
        <ele>1487</ele>
        <time>2016-07-15T11:33:36Z</time>
      </trkpt>
      <trkpt lat="46.56058" lon="6.27718">
        <ele>1488</ele>
        <time>2016-07-15T11:33:40Z</time>
      </trkpt>
      <trkpt lat="46.56052" lon="6.27711">
        <ele>1489</ele>
        <time>2016-07-15T11:33:45Z</time>
      </trkpt>
      <trkpt lat="46.56055" lon="6.27699">
        <ele>1489</ele>
        <time>2016-07-15T11:33:51Z</time>
      </trkpt>
      <trkpt lat="46.5605" lon="6.27689">
        <ele>1489</ele>
        <time>2016-07-15T11:33:59Z</time>
      </trkpt>
      <trkpt lat="46.56042" lon="6.27683">
        <ele>1491</ele>
        <time>2016-07-15T11:34:15Z</time>
      </trkpt>
      <trkpt lat="46.56044" lon="6.27668">
        <ele>1491</ele>
        <time>2016-07-15T11:34:20Z</time>
      </trkpt>
      <trkpt lat="46.56046" lon="6.27655">
        <ele>1490</ele>
        <time>2016-07-15T11:34:26Z</time>
      </trkpt>
      <trkpt lat="46.56041" lon="6.27646">
        <ele>1491</ele>
        <time>2016-07-15T11:34:31Z</time>
      </trkpt>
      <trkpt lat="46.56035" lon="6.27637">
        <ele>1492</ele>
        <time>2016-07-15T11:34:36Z</time>
      </trkpt>
      <trkpt lat="46.56033" lon="6.27628">
        <ele>1492</ele>
        <time>2016-07-15T11:34:42Z</time>
      </trkpt>
      <trkpt lat="46.5603" lon="6.27615">
        <ele>1492</ele>
        <time>2016-07-15T11:34:46Z</time>
      </trkpt>
      <trkpt lat="46.56027" lon="6.27603">
        <ele>1492</ele>
        <time>2016-07-15T11:34:51Z</time>
      </trkpt>
      <trkpt lat="46.56023" lon="6.27594">
        <ele>1493</ele>
        <time>2016-07-15T11:34:55Z</time>
      </trkpt>
      <trkpt lat="46.56017" lon="6.27587">
        <ele>1494</ele>
        <time>2016-07-15T11:34:59Z</time>
      </trkpt>
      <trkpt lat="46.5601" lon="6.27584">
        <ele>1496</ele>
        <time>2016-07-15T11:35:04Z</time>
      </trkpt>
      <trkpt lat="46.56003" lon="6.27577">
        <ele>1496</ele>
        <time>2016-07-15T11:35:08Z</time>
      </trkpt>
      <trkpt lat="46.55994" lon="6.27572">
        <ele>1500</ele>
        <time>2016-07-15T11:35:13Z</time>
      </trkpt>
      <trkpt lat="46.55983" lon="6.27571">
        <ele>1502</ele>
        <time>2016-07-15T11:35:18Z</time>
      </trkpt>
      <trkpt lat="46.55973" lon="6.27574">
        <ele>1503</ele>
        <time>2016-07-15T11:35:22Z</time>
      </trkpt>
      <trkpt lat="46.55967" lon="6.27575">
        <ele>1503</ele>
        <time>2016-07-15T11:35:25Z</time>
      </trkpt>
      <trkpt lat="46.5596" lon="6.2757">
        <ele>1504</ele>
        <time>2016-07-15T11:35:30Z</time>
      </trkpt>
      <trkpt lat="46.55953" lon="6.27572">
        <ele>1505</ele>
        <time>2016-07-15T11:35:34Z</time>
      </trkpt>
      <trkpt lat="46.55945" lon="6.27571">
        <ele>1506</ele>
        <time>2016-07-15T11:35:38Z</time>
      </trkpt>
      <trkpt lat="46.55937" lon="6.27572">
        <ele>1507</ele>
        <time>2016-07-15T11:35:45Z</time>
      </trkpt>
      <trkpt lat="46.55929" lon="6.27568">
        <ele>1508</ele>
        <time>2016-07-15T11:35:50Z</time>
      </trkpt>
      <trkpt lat="46.55926" lon="6.27571">
        <ele>1509</ele>
        <time>2016-07-15T11:36:25Z</time>
      </trkpt>
      <trkpt lat="46.55911" lon="6.27579">
        <ele>1512</ele>
        <time>2016-07-15T11:36:29Z</time>
      </trkpt>
      <trkpt lat="46.55899" lon="6.2758">
        <ele>1513</ele>
        <time>2016-07-15T11:36:33Z</time>
      </trkpt>
      <trkpt lat="46.55884" lon="6.27576">
        <ele>1513</ele>
        <time>2016-07-15T11:36:38Z</time>
      </trkpt>
      <trkpt lat="46.55876" lon="6.27576">
        <ele>1513</ele>
        <time>2016-07-15T11:36:42Z</time>
      </trkpt>
      <trkpt lat="46.55868" lon="6.27575">
        <ele>1513</ele>
        <time>2016-07-15T11:36:46Z</time>
      </trkpt>
      <trkpt lat="46.55859" lon="6.27575">
        <ele>1513</ele>
        <time>2016-07-15T11:36:50Z</time>
      </trkpt>
      <trkpt lat="46.55851" lon="6.2758">
        <ele>1513</ele>
        <time>2016-07-15T11:36:54Z</time>
      </trkpt>
      <trkpt lat="46.55837" lon="6.27585">
        <ele>1513</ele>
        <time>2016-07-15T11:36:59Z</time>
      </trkpt>
      <trkpt lat="46.55831" lon="6.27585">
        <ele>1512</ele>
        <time>2016-07-15T11:37:28Z</time>
      </trkpt>
      <trkpt lat="46.55827" lon="6.27586">
        <ele>1511</ele>
        <time>2016-07-15T11:37:29Z</time>
      </trkpt>
      <trkpt lat="46.55817" lon="6.2758">
        <ele>1511</ele>
        <time>2016-07-15T11:37:34Z</time>
      </trkpt>
      <trkpt lat="46.55813" lon="6.27562">
        <ele>1511</ele>
        <time>2016-07-15T11:37:39Z</time>
      </trkpt>
      <trkpt lat="46.55813" lon="6.27544">
        <ele>1511</ele>
        <time>2016-07-15T11:37:43Z</time>
      </trkpt>
      <trkpt lat="46.55808" lon="6.27533">
        <ele>1511</ele>
        <time>2016-07-15T11:37:47Z</time>
      </trkpt>
      <trkpt lat="46.55803" lon="6.27523">
        <ele>1512</ele>
        <time>2016-07-15T11:37:55Z</time>
      </trkpt>
      <trkpt lat="46.55805" lon="6.27512">
        <ele>1512</ele>
        <time>2016-07-15T11:38:00Z</time>
      </trkpt>
      <trkpt lat="46.55804" lon="6.27501">
        <ele>1513</ele>
        <time>2016-07-15T11:38:05Z</time>
      </trkpt>
      <trkpt lat="46.55806" lon="6.2749">
        <ele>1516</ele>
        <time>2016-07-15T11:38:10Z</time>
      </trkpt>
      <trkpt lat="46.55801" lon="6.27479">
        <ele>1516</ele>
        <time>2016-07-15T11:38:22Z</time>
      </trkpt>
      <trkpt lat="46.55804" lon="6.2749">
        <ele>1516</ele>
        <time>2016-07-15T11:39:11Z</time>
      </trkpt>
      <trkpt lat="46.55802" lon="6.27502">
        <ele>1512</ele>
        <time>2016-07-15T11:39:21Z</time>
      </trkpt>
      <trkpt lat="46.55799" lon="6.27514">
        <ele>1512</ele>
        <time>2016-07-15T11:39:34Z</time>
      </trkpt>
      <trkpt lat="46.55805" lon="6.27506">
        <ele>1513</ele>
        <time>2016-07-15T11:45:23Z</time>
      </trkpt>
      <trkpt lat="46.55813" lon="6.27489">
        <ele>1516</ele>
        <time>2016-07-15T11:45:27Z</time>
      </trkpt>
      <trkpt lat="46.55815" lon="6.27464">
        <ele>1516</ele>
        <time>2016-07-15T11:45:32Z</time>
      </trkpt>
      <trkpt lat="46.55817" lon="6.2745">
        <ele>1517</ele>
        <time>2016-07-15T11:45:36Z</time>
      </trkpt>
      <trkpt lat="46.55819" lon="6.27438">
        <ele>1518</ele>
        <time>2016-07-15T11:45:41Z</time>
      </trkpt>
      <trkpt lat="46.5582" lon="6.27427">
        <ele>1518</ele>
        <time>2016-07-15T11:45:46Z</time>
      </trkpt>
      <trkpt lat="46.55829" lon="6.27431">
        <ele>1519</ele>
        <time>2016-07-15T11:46:41Z</time>
      </trkpt>
      <trkpt lat="46.55836" lon="6.27431">
        <ele>1519</ele>
        <time>2016-07-15T11:46:45Z</time>
      </trkpt>
      <trkpt lat="46.55847" lon="6.27429">
        <ele>1518</ele>
        <time>2016-07-15T11:46:49Z</time>
      </trkpt>
      <trkpt lat="46.55854" lon="6.27418">
        <ele>1518</ele>
        <time>2016-07-15T11:46:54Z</time>
      </trkpt>
      <trkpt lat="46.55853" lon="6.27404">
        <ele>1520</ele>
        <time>2016-07-15T11:46:58Z</time>
      </trkpt>
      <trkpt lat="46.55859" lon="6.27395">
        <ele>1519</ele>
        <time>2016-07-15T11:47:02Z</time>
      </trkpt>
      <trkpt lat="46.55869" lon="6.27374">
        <ele>1520</ele>
        <time>2016-07-15T11:47:07Z</time>
      </trkpt>
      <trkpt lat="46.55877" lon="6.27365">
        <ele>1520</ele>
        <time>2016-07-15T11:47:11Z</time>
      </trkpt>
      <trkpt lat="46.55885" lon="6.27369">
        <ele>1519</ele>
        <time>2016-07-15T11:47:15Z</time>
      </trkpt>
      <trkpt lat="46.55889" lon="6.2737">
        <ele>1519</ele>
        <time>2016-07-15T11:47:19Z</time>
      </trkpt>
      <trkpt lat="46.55902" lon="6.27363">
        <ele>1519</ele>
        <time>2016-07-15T11:47:23Z</time>
      </trkpt>
      <trkpt lat="46.55907" lon="6.27355">
        <ele>1520</ele>
        <time>2016-07-15T11:47:28Z</time>
      </trkpt>
      <trkpt lat="46.55912" lon="6.27344">
        <ele>1520</ele>
        <time>2016-07-15T11:47:32Z</time>
      </trkpt>
      <trkpt lat="46.55916" lon="6.27329">
        <ele>1521</ele>
        <time>2016-07-15T11:47:37Z</time>
      </trkpt>
      <trkpt lat="46.55921" lon="6.27314">
        <ele>1519</ele>
        <time>2016-07-15T11:47:42Z</time>
      </trkpt>
      <trkpt lat="46.55933" lon="6.27316">
        <ele>1519</ele>
        <time>2016-07-15T11:47:47Z</time>
      </trkpt>
      <trkpt lat="46.55942" lon="6.27316">
        <ele>1518</ele>
        <time>2016-07-15T11:47:51Z</time>
      </trkpt>
      <trkpt lat="46.5595" lon="6.27313">
        <ele>1518</ele>
        <time>2016-07-15T11:47:57Z</time>
      </trkpt>
      <trkpt lat="46.55962" lon="6.27311">
        <ele>1517</ele>
        <time>2016-07-15T11:48:02Z</time>
      </trkpt>
      <trkpt lat="46.55974" lon="6.27311">
        <ele>1517</ele>
        <time>2016-07-15T11:48:06Z</time>
      </trkpt>
      <trkpt lat="46.55996" lon="6.27323">
        <ele>1515</ele>
        <time>2016-07-15T11:48:11Z</time>
      </trkpt>
      <trkpt lat="46.56025" lon="6.27316">
        <ele>1508</ele>
        <time>2016-07-15T11:48:16Z</time>
      </trkpt>
      <trkpt lat="46.56027" lon="6.27307">
        <ele>1508</ele>
        <time>2016-07-15T11:48:17Z</time>
      </trkpt>
      <trkpt lat="46.5603" lon="6.27299">
        <ele>1508</ele>
        <time>2016-07-15T11:48:21Z</time>
      </trkpt>
      <trkpt lat="46.56048" lon="6.27241">
        <ele>1510</ele>
        <time>2016-07-15T11:48:26Z</time>
      </trkpt>
      <trkpt lat="46.56068" lon="6.27209">
        <ele>1510</ele>
        <time>2016-07-15T11:48:31Z</time>
      </trkpt>
      <trkpt lat="46.56077" lon="6.2721">
        <ele>1510</ele>
        <time>2016-07-15T11:48:35Z</time>
      </trkpt>
      <trkpt lat="46.56086" lon="6.2721">
        <ele>1510</ele>
        <time>2016-07-15T11:48:42Z</time>
      </trkpt>
      <trkpt lat="46.5608" lon="6.27211">
        <ele>1510</ele>
        <time>2016-07-15T11:49:08Z</time>
      </trkpt>
      <trkpt lat="46.56066" lon="6.27202">
        <ele>1510</ele>
        <time>2016-07-15T11:49:13Z</time>
      </trkpt>
      <trkpt lat="46.56062" lon="6.27195">
        <ele>1510</ele>
        <time>2016-07-15T11:49:16Z</time>
      </trkpt>
      <trkpt lat="46.56051" lon="6.27177">
        <ele>1510</ele>
        <time>2016-07-15T11:49:20Z</time>
      </trkpt>
      <trkpt lat="46.56043" lon="6.27171">
        <ele>1510</ele>
        <time>2016-07-15T11:49:25Z</time>
      </trkpt>
      <trkpt lat="46.56034" lon="6.27167">
        <ele>1510</ele>
        <time>2016-07-15T11:49:30Z</time>
      </trkpt>
      <trkpt lat="46.56025" lon="6.27163">
        <ele>1510</ele>
        <time>2016-07-15T11:49:34Z</time>
      </trkpt>
      <trkpt lat="46.56016" lon="6.2715">
        <ele>1510</ele>
        <time>2016-07-15T11:49:38Z</time>
      </trkpt>
      <trkpt lat="46.56012" lon="6.27137">
        <ele>1510</ele>
        <time>2016-07-15T11:49:42Z</time>
      </trkpt>
      <trkpt lat="46.56005" lon="6.27116">
        <ele>1509</ele>
        <time>2016-07-15T11:49:47Z</time>
      </trkpt>
      <trkpt lat="46.55998" lon="6.27103">
        <ele>1506</ele>
        <time>2016-07-15T11:49:52Z</time>
      </trkpt>
      <trkpt lat="46.5599" lon="6.27106">
        <ele>1507</ele>
        <time>2016-07-15T11:49:56Z</time>
      </trkpt>
      <trkpt lat="46.55983" lon="6.27112">
        <ele>1507</ele>
        <time>2016-07-15T11:49:59Z</time>
      </trkpt>
      <trkpt lat="46.55972" lon="6.27113">
        <ele>1507</ele>
        <time>2016-07-15T11:50:04Z</time>
      </trkpt>
      <trkpt lat="46.55965" lon="6.27112">
        <ele>1507</ele>
        <time>2016-07-15T11:50:36Z</time>
      </trkpt>
      <trkpt lat="46.55955" lon="6.27111">
        <ele>1507</ele>
        <time>2016-07-15T11:50:40Z</time>
      </trkpt>
      <trkpt lat="46.55943" lon="6.27108">
        <ele>1507</ele>
        <time>2016-07-15T11:50:44Z</time>
      </trkpt>
      <trkpt lat="46.55934" lon="6.27096">
        <ele>1507</ele>
        <time>2016-07-15T11:50:48Z</time>
      </trkpt>
      <trkpt lat="46.55921" lon="6.27084">
        <ele>1506</ele>
        <time>2016-07-15T11:50:53Z</time>
      </trkpt>
      <trkpt lat="46.55911" lon="6.27069">
        <ele>1504</ele>
        <time>2016-07-15T11:50:58Z</time>
      </trkpt>
      <trkpt lat="46.55908" lon="6.27059">
        <ele>1504</ele>
        <time>2016-07-15T11:51:02Z</time>
      </trkpt>
      <trkpt lat="46.55899" lon="6.27034">
        <ele>1503</ele>
        <time>2016-07-15T11:51:06Z</time>
      </trkpt>
      <trkpt lat="46.55894" lon="6.27015">
        <ele>1502</ele>
        <time>2016-07-15T11:51:09Z</time>
      </trkpt>
      <trkpt lat="46.55888" lon="6.26995">
        <ele>1499</ele>
        <time>2016-07-15T11:51:13Z</time>
      </trkpt>
      <trkpt lat="46.55882" lon="6.2698">
        <ele>1499</ele>
        <time>2016-07-15T11:51:17Z</time>
      </trkpt>
      <trkpt lat="46.55873" lon="6.26959">
        <ele>1498</ele>
        <time>2016-07-15T11:51:22Z</time>
      </trkpt>
      <trkpt lat="46.55865" lon="6.26953">
        <ele>1497</ele>
        <time>2016-07-15T11:51:25Z</time>
      </trkpt>
      <trkpt lat="46.5586" lon="6.26933">
        <ele>1496</ele>
        <time>2016-07-15T11:51:29Z</time>
      </trkpt>
      <trkpt lat="46.55857" lon="6.2692">
        <ele>1495</ele>
        <time>2016-07-15T11:51:33Z</time>
      </trkpt>
      <trkpt lat="46.55854" lon="6.26909">
        <ele>1494</ele>
        <time>2016-07-15T11:51:37Z</time>
      </trkpt>
      <trkpt lat="46.55845" lon="6.26882">
        <ele>1494</ele>
        <time>2016-07-15T11:51:41Z</time>
      </trkpt>
      <trkpt lat="46.55839" lon="6.26867">
        <ele>1493</ele>
        <time>2016-07-15T11:51:44Z</time>
      </trkpt>
      <trkpt lat="46.55838" lon="6.26841">
        <ele>1489</ele>
        <time>2016-07-15T11:51:49Z</time>
      </trkpt>
      <trkpt lat="46.55834" lon="6.2682">
        <ele>1490</ele>
        <time>2016-07-15T11:51:54Z</time>
      </trkpt>
      <trkpt lat="46.55828" lon="6.26801">
        <ele>1483</ele>
        <time>2016-07-15T11:51:58Z</time>
      </trkpt>
      <trkpt lat="46.55825" lon="6.26784">
        <ele>1483</ele>
        <time>2016-07-15T11:52:02Z</time>
      </trkpt>
      <trkpt lat="46.5582" lon="6.26776">
        <ele>1483</ele>
        <time>2016-07-15T11:52:22Z</time>
      </trkpt>
      <trkpt lat="46.55818" lon="6.26769">
        <ele>1483</ele>
        <time>2016-07-15T11:52:26Z</time>
      </trkpt>
      <trkpt lat="46.5581" lon="6.26754">
        <ele>1483</ele>
        <time>2016-07-15T11:52:31Z</time>
      </trkpt>
      <trkpt lat="46.558" lon="6.26736">
        <ele>1480</ele>
        <time>2016-07-15T11:52:36Z</time>
      </trkpt>
      <trkpt lat="46.55791" lon="6.2672">
        <ele>1478</ele>
        <time>2016-07-15T11:52:41Z</time>
      </trkpt>
      <trkpt lat="46.55787" lon="6.26708">
        <ele>1477</ele>
        <time>2016-07-15T11:52:45Z</time>
      </trkpt>
      <trkpt lat="46.55776" lon="6.26695">
        <ele>1476</ele>
        <time>2016-07-15T11:52:50Z</time>
      </trkpt>
      <trkpt lat="46.55761" lon="6.26677">
        <ele>1472</ele>
        <time>2016-07-15T11:52:55Z</time>
      </trkpt>
      <trkpt lat="46.55752" lon="6.26658">
        <ele>1469</ele>
        <time>2016-07-15T11:52:59Z</time>
      </trkpt>
      <trkpt lat="46.55744" lon="6.26648">
        <ele>1465</ele>
        <time>2016-07-15T11:53:02Z</time>
      </trkpt>
      <trkpt lat="46.5573" lon="6.26636">
        <ele>1464</ele>
        <time>2016-07-15T11:53:07Z</time>
      </trkpt>
      <trkpt lat="46.55722" lon="6.26625">
        <ele>1464</ele>
        <time>2016-07-15T11:53:10Z</time>
      </trkpt>
      <trkpt lat="46.55713" lon="6.26612">
        <ele>1464</ele>
        <time>2016-07-15T11:53:14Z</time>
      </trkpt>
      <trkpt lat="46.55704" lon="6.26604">
        <ele>1463</ele>
        <time>2016-07-15T11:53:18Z</time>
      </trkpt>
      <trkpt lat="46.55709" lon="6.26594">
        <ele>1463</ele>
        <time>2016-07-15T11:56:33Z</time>
      </trkpt>
      <trkpt lat="46.55703" lon="6.26604">
        <ele>1463</ele>
        <time>2016-07-15T12:01:42Z</time>
      </trkpt>
      <trkpt lat="46.55699" lon="6.26597">
        <ele>1463</ele>
        <time>2016-07-15T12:12:50Z</time>
      </trkpt>
      <trkpt lat="46.55693" lon="6.26584">
        <ele>1462</ele>
        <time>2016-07-15T12:12:55Z</time>
      </trkpt>
      <trkpt lat="46.55686" lon="6.26573">
        <ele>1461</ele>
        <time>2016-07-15T12:12:59Z</time>
      </trkpt>
      <trkpt lat="46.55677" lon="6.26564">
        <ele>1461</ele>
        <time>2016-07-15T12:13:03Z</time>
      </trkpt>
      <trkpt lat="46.55665" lon="6.26555">
        <ele>1458</ele>
        <time>2016-07-15T12:13:08Z</time>
      </trkpt>
      <trkpt lat="46.55651" lon="6.2655">
        <ele>1457</ele>
        <time>2016-07-15T12:13:13Z</time>
      </trkpt>
      <trkpt lat="46.5564" lon="6.26546">
        <ele>1457</ele>
        <time>2016-07-15T12:13:17Z</time>
      </trkpt>
      <trkpt lat="46.55628" lon="6.26541">
        <ele>1457</ele>
        <time>2016-07-15T12:13:21Z</time>
      </trkpt>
      <trkpt lat="46.55616" lon="6.26536">
        <ele>1457</ele>
        <time>2016-07-15T12:13:25Z</time>
      </trkpt>
      <trkpt lat="46.55604" lon="6.26532">
        <ele>1457</ele>
        <time>2016-07-15T12:13:29Z</time>
      </trkpt>
      <trkpt lat="46.55589" lon="6.26528">
        <ele>1456</ele>
        <time>2016-07-15T12:13:34Z</time>
      </trkpt>
      <trkpt lat="46.55581" lon="6.26529">
        <ele>1457</ele>
        <time>2016-07-15T12:13:37Z</time>
      </trkpt>
      <trkpt lat="46.55571" lon="6.26526">
        <ele>1457</ele>
        <time>2016-07-15T12:13:40Z</time>
      </trkpt>
      <trkpt lat="46.55557" lon="6.2652">
        <ele>1458</ele>
        <time>2016-07-15T12:13:44Z</time>
      </trkpt>
      <trkpt lat="46.55545" lon="6.26518">
        <ele>1458</ele>
        <time>2016-07-15T12:13:48Z</time>
      </trkpt>
      <trkpt lat="46.55534" lon="6.26515">
        <ele>1458</ele>
        <time>2016-07-15T12:13:52Z</time>
      </trkpt>
      <trkpt lat="46.55521" lon="6.26512">
        <ele>1458</ele>
        <time>2016-07-15T12:13:57Z</time>
      </trkpt>
      <trkpt lat="46.55504" lon="6.26508">
        <ele>1458</ele>
        <time>2016-07-15T12:14:01Z</time>
      </trkpt>
      <trkpt lat="46.55496" lon="6.26491">
        <ele>1459</ele>
        <time>2016-07-15T12:14:05Z</time>
      </trkpt>
      <trkpt lat="46.55489" lon="6.26468">
        <ele>1459</ele>
        <time>2016-07-15T12:14:10Z</time>
      </trkpt>
      <trkpt lat="46.55481" lon="6.26448">
        <ele>1459</ele>
        <time>2016-07-15T12:14:15Z</time>
      </trkpt>
      <trkpt lat="46.5548" lon="6.26429">
        <ele>1459</ele>
        <time>2016-07-15T12:14:19Z</time>
      </trkpt>
      <trkpt lat="46.55485" lon="6.26411">
        <ele>1458</ele>
        <time>2016-07-15T12:14:23Z</time>
      </trkpt>
      <trkpt lat="46.55487" lon="6.26393">
        <ele>1458</ele>
        <time>2016-07-15T12:14:27Z</time>
      </trkpt>
      <trkpt lat="46.55482" lon="6.26376">
        <ele>1459</ele>
        <time>2016-07-15T12:14:31Z</time>
      </trkpt>
      <trkpt lat="46.55473" lon="6.26357">
        <ele>1460</ele>
        <time>2016-07-15T12:14:36Z</time>
      </trkpt>
      <trkpt lat="46.55476" lon="6.26345">
        <ele>1460</ele>
        <time>2016-07-15T12:14:40Z</time>
      </trkpt>
      <trkpt lat="46.55482" lon="6.26336">
        <ele>1460</ele>
        <time>2016-07-15T12:14:45Z</time>
      </trkpt>
      <trkpt lat="46.55488" lon="6.26329">
        <ele>1462</ele>
        <time>2016-07-15T12:14:49Z</time>
      </trkpt>
      <trkpt lat="46.55492" lon="6.26319">
        <ele>1463</ele>
        <time>2016-07-15T12:14:54Z</time>
      </trkpt>
      <trkpt lat="46.55496" lon="6.26308">
        <ele>1463</ele>
        <time>2016-07-15T12:15:00Z</time>
      </trkpt>
      <trkpt lat="46.55488" lon="6.26301">
        <ele>1463</ele>
        <time>2016-07-15T12:15:06Z</time>
      </trkpt>
      <trkpt lat="46.55482" lon="6.26293">
        <ele>1464</ele>
        <time>2016-07-15T12:15:12Z</time>
      </trkpt>
      <trkpt lat="46.55478" lon="6.26282">
        <ele>1464</ele>
        <time>2016-07-15T12:15:21Z</time>
      </trkpt>
      <trkpt lat="46.55474" lon="6.26272">
        <ele>1465</ele>
        <time>2016-07-15T12:15:26Z</time>
      </trkpt>
      <trkpt lat="46.55471" lon="6.26261">
        <ele>1465</ele>
        <time>2016-07-15T12:15:31Z</time>
      </trkpt>
      <trkpt lat="46.55468" lon="6.26249">
        <ele>1469</ele>
        <time>2016-07-15T12:15:39Z</time>
      </trkpt>
      <trkpt lat="46.55466" lon="6.26236">
        <ele>1468</ele>
        <time>2016-07-15T12:15:46Z</time>
      </trkpt>
      <trkpt lat="46.55462" lon="6.26226">
        <ele>1468</ele>
        <time>2016-07-15T12:15:52Z</time>
      </trkpt>
      <trkpt lat="46.5546" lon="6.26215">
        <ele>1468</ele>
        <time>2016-07-15T12:15:59Z</time>
      </trkpt>
      <trkpt lat="46.55465" lon="6.26205">
        <ele>1469</ele>
        <time>2016-07-15T12:16:08Z</time>
      </trkpt>
      <trkpt lat="46.55465" lon="6.26192">
        <ele>1469</ele>
        <time>2016-07-15T12:16:17Z</time>
      </trkpt>
      <trkpt lat="46.55468" lon="6.2618">
        <ele>1470</ele>
        <time>2016-07-15T12:16:23Z</time>
      </trkpt>
      <trkpt lat="46.55474" lon="6.26176">
        <ele>1471</ele>
        <time>2016-07-15T12:16:27Z</time>
      </trkpt>
      <trkpt lat="46.55485" lon="6.26173">
        <ele>1472</ele>
        <time>2016-07-15T12:16:31Z</time>
      </trkpt>
      <trkpt lat="46.55493" lon="6.26173">
        <ele>1474</ele>
        <time>2016-07-15T12:16:36Z</time>
      </trkpt>
      <trkpt lat="46.555" lon="6.26177">
        <ele>1475</ele>
        <time>2016-07-15T12:16:41Z</time>
      </trkpt>
      <trkpt lat="46.55508" lon="6.2618">
        <ele>1475</ele>
        <time>2016-07-15T12:16:43Z</time>
      </trkpt>
      <trkpt lat="46.55516" lon="6.26183">
        <ele>1475</ele>
        <time>2016-07-15T12:16:47Z</time>
      </trkpt>
      <trkpt lat="46.55531" lon="6.26185">
        <ele>1475</ele>
        <time>2016-07-15T12:16:52Z</time>
      </trkpt>
      <trkpt lat="46.55547" lon="6.26179">
        <ele>1475</ele>
        <time>2016-07-15T12:16:56Z</time>
      </trkpt>
      <trkpt lat="46.55555" lon="6.26162">
        <ele>1476</ele>
        <time>2016-07-15T12:17:00Z</time>
      </trkpt>
      <trkpt lat="46.55562" lon="6.26145">
        <ele>1476</ele>
        <time>2016-07-15T12:17:05Z</time>
      </trkpt>
      <trkpt lat="46.55569" lon="6.2613">
        <ele>1477</ele>
        <time>2016-07-15T12:17:10Z</time>
      </trkpt>
      <trkpt lat="46.55576" lon="6.26124">
        <ele>1477</ele>
        <time>2016-07-15T12:17:14Z</time>
      </trkpt>
      <trkpt lat="46.55587" lon="6.26121">
        <ele>1479</ele>
        <time>2016-07-15T12:17:19Z</time>
      </trkpt>
      <trkpt lat="46.55597" lon="6.26119">
        <ele>1479</ele>
        <time>2016-07-15T12:17:22Z</time>
      </trkpt>
      <trkpt lat="46.55604" lon="6.26121">
        <ele>1479</ele>
        <time>2016-07-15T12:17:25Z</time>
      </trkpt>
      <trkpt lat="46.55616" lon="6.26123">
        <ele>1479</ele>
        <time>2016-07-15T12:17:30Z</time>
      </trkpt>
      <trkpt lat="46.55624" lon="6.2612">
        <ele>1479</ele>
        <time>2016-07-15T12:17:35Z</time>
      </trkpt>
      <trkpt lat="46.55632" lon="6.26118">
        <ele>1479</ele>
        <time>2016-07-15T12:17:40Z</time>
      </trkpt>
      <trkpt lat="46.55639" lon="6.26114">
        <ele>1479</ele>
        <time>2016-07-15T12:17:44Z</time>
      </trkpt>
      <trkpt lat="46.55648" lon="6.26106">
        <ele>1480</ele>
        <time>2016-07-15T12:17:48Z</time>
      </trkpt>
      <trkpt lat="46.55653" lon="6.26095">
        <ele>1481</ele>
        <time>2016-07-15T12:17:53Z</time>
      </trkpt>
      <trkpt lat="46.55656" lon="6.26084">
        <ele>1482</ele>
        <time>2016-07-15T12:17:58Z</time>
      </trkpt>
      <trkpt lat="46.55658" lon="6.26065">
        <ele>1482</ele>
        <time>2016-07-15T12:18:02Z</time>
      </trkpt>
      <trkpt lat="46.55653" lon="6.26048">
        <ele>1482</ele>
        <time>2016-07-15T12:18:06Z</time>
      </trkpt>
      <trkpt lat="46.55645" lon="6.26038">
        <ele>1482</ele>
        <time>2016-07-15T12:18:11Z</time>
      </trkpt>
      <trkpt lat="46.55638" lon="6.26029">
        <ele>1482</ele>
        <time>2016-07-15T12:18:15Z</time>
      </trkpt>
      <trkpt lat="46.55636" lon="6.26015">
        <ele>1482</ele>
        <time>2016-07-15T12:18:19Z</time>
      </trkpt>
      <trkpt lat="46.55639" lon="6.25991">
        <ele>1481</ele>
        <time>2016-07-15T12:18:24Z</time>
      </trkpt>
      <trkpt lat="46.55645" lon="6.2597">
        <ele>1481</ele>
        <time>2016-07-15T12:18:29Z</time>
      </trkpt>
      <trkpt lat="46.55655" lon="6.25959">
        <ele>1481</ele>
        <time>2016-07-15T12:18:33Z</time>
      </trkpt>
      <trkpt lat="46.55669" lon="6.25954">
        <ele>1482</ele>
        <time>2016-07-15T12:18:38Z</time>
      </trkpt>
      <trkpt lat="46.55679" lon="6.25944">
        <ele>1482</ele>
        <time>2016-07-15T12:18:43Z</time>
      </trkpt>
      <trkpt lat="46.55682" lon="6.25934">
        <ele>1482</ele>
        <time>2016-07-15T12:18:47Z</time>
      </trkpt>
      <trkpt lat="46.55688" lon="6.2592">
        <ele>1482</ele>
        <time>2016-07-15T12:18:52Z</time>
      </trkpt>
      <trkpt lat="46.55689" lon="6.25902">
        <ele>1481</ele>
        <time>2016-07-15T12:18:56Z</time>
      </trkpt>
      <trkpt lat="46.55693" lon="6.25912">
        <ele>1481</ele>
        <time>2016-07-15T12:19:17Z</time>
      </trkpt>
      <trkpt lat="46.557" lon="6.25918">
        <ele>1482</ele>
        <time>2016-07-15T12:19:21Z</time>
      </trkpt>
      <trkpt lat="46.55709" lon="6.25927">
        <ele>1482</ele>
        <time>2016-07-15T12:19:26Z</time>
      </trkpt>
      <trkpt lat="46.55724" lon="6.25928">
        <ele>1482</ele>
        <time>2016-07-15T12:19:30Z</time>
      </trkpt>
      <trkpt lat="46.55741" lon="6.25929">
        <ele>1482</ele>
        <time>2016-07-15T12:19:35Z</time>
      </trkpt>
      <trkpt lat="46.55755" lon="6.25937">
        <ele>1479</ele>
        <time>2016-07-15T12:19:39Z</time>
      </trkpt>
      <trkpt lat="46.5578" lon="6.25946">
        <ele>1478</ele>
        <time>2016-07-15T12:19:43Z</time>
      </trkpt>
      <trkpt lat="46.5581" lon="6.25955">
        <ele>1476</ele>
        <time>2016-07-15T12:19:47Z</time>
      </trkpt>
      <trkpt lat="46.55838" lon="6.25954">
        <ele>1470</ele>
        <time>2016-07-15T12:19:51Z</time>
      </trkpt>
      <trkpt lat="46.55878" lon="6.25957">
        <ele>1468</ele>
        <time>2016-07-15T12:19:56Z</time>
      </trkpt>
      <trkpt lat="46.55903" lon="6.25975">
        <ele>1466</ele>
        <time>2016-07-15T12:20:00Z</time>
      </trkpt>
      <trkpt lat="46.55925" lon="6.25976">
        <ele>1463</ele>
        <time>2016-07-15T12:20:04Z</time>
      </trkpt>
      <trkpt lat="46.55931" lon="6.25968">
        <ele>1463</ele>
        <time>2016-07-15T12:20:16Z</time>
      </trkpt>
      <trkpt lat="46.5593" lon="6.25949">
        <ele>1463</ele>
        <time>2016-07-15T12:20:21Z</time>
      </trkpt>
      <trkpt lat="46.55934" lon="6.25939">
        <ele>1463</ele>
        <time>2016-07-15T12:20:33Z</time>
      </trkpt>
      <trkpt lat="46.55936" lon="6.25927">
        <ele>1463</ele>
        <time>2016-07-15T12:21:59Z</time>
      </trkpt>
      <trkpt lat="46.55942" lon="6.25917">
        <ele>1463</ele>
        <time>2016-07-15T12:22:06Z</time>
      </trkpt>
      <trkpt lat="46.5594" lon="6.25901">
        <ele>1462</ele>
        <time>2016-07-15T12:22:11Z</time>
      </trkpt>
      <trkpt lat="46.55939" lon="6.25886">
        <ele>1462</ele>
        <time>2016-07-15T12:22:16Z</time>
      </trkpt>
      <trkpt lat="46.5593" lon="6.25882">
        <ele>1462</ele>
        <time>2016-07-15T12:22:20Z</time>
      </trkpt>
      <trkpt lat="46.55923" lon="6.2588">
        <ele>1462</ele>
        <time>2016-07-15T12:22:23Z</time>
      </trkpt>
      <trkpt lat="46.5592" lon="6.25872">
        <ele>1462</ele>
        <time>2016-07-15T12:22:57Z</time>
      </trkpt>
      <trkpt lat="46.55911" lon="6.25864">
        <ele>1467</ele>
        <time>2016-07-15T12:23:01Z</time>
      </trkpt>
      <trkpt lat="46.55903" lon="6.25857">
        <ele>1467</ele>
        <time>2016-07-15T12:23:27Z</time>
      </trkpt>
      <trkpt lat="46.55899" lon="6.25851">
        <ele>1467</ele>
        <time>2016-07-15T12:23:31Z</time>
      </trkpt>
      <trkpt lat="46.55891" lon="6.25842">
        <ele>1468</ele>
        <time>2016-07-15T12:23:36Z</time>
      </trkpt>
      <trkpt lat="46.55885" lon="6.25834">
        <ele>1468</ele>
        <time>2016-07-15T12:23:41Z</time>
      </trkpt>
      <trkpt lat="46.55877" lon="6.25834">
        <ele>1469</ele>
        <time>2016-07-15T12:24:23Z</time>
      </trkpt>
      <trkpt lat="46.5587" lon="6.25828">
        <ele>1470</ele>
        <time>2016-07-15T12:24:32Z</time>
      </trkpt>
      <trkpt lat="46.55864" lon="6.2582">
        <ele>1470</ele>
        <time>2016-07-15T12:24:51Z</time>
      </trkpt>
      <trkpt lat="46.55857" lon="6.25815">
        <ele>1471</ele>
        <time>2016-07-15T12:24:56Z</time>
      </trkpt>
      <trkpt lat="46.55851" lon="6.25806">
        <ele>1471</ele>
        <time>2016-07-15T12:25:00Z</time>
      </trkpt>
      <trkpt lat="46.55844" lon="6.25799">
        <ele>1471</ele>
        <time>2016-07-15T12:25:04Z</time>
      </trkpt>
      <trkpt lat="46.55835" lon="6.25793">
        <ele>1472</ele>
        <time>2016-07-15T12:25:09Z</time>
      </trkpt>
      <trkpt lat="46.55829" lon="6.25784">
        <ele>1478</ele>
        <time>2016-07-15T12:25:14Z</time>
      </trkpt>
      <trkpt lat="46.55821" lon="6.25778">
        <ele>1478</ele>
        <time>2016-07-15T12:25:19Z</time>
      </trkpt>
      <trkpt lat="46.55817" lon="6.2577">
        <ele>1478</ele>
        <time>2016-07-15T12:25:25Z</time>
      </trkpt>
      <trkpt lat="46.55812" lon="6.25759">
        <ele>1478</ele>
        <time>2016-07-15T12:25:29Z</time>
      </trkpt>
      <trkpt lat="46.55806" lon="6.25752">
        <ele>1479</ele>
        <time>2016-07-15T12:25:33Z</time>
      </trkpt>
      <trkpt lat="46.55799" lon="6.2574">
        <ele>1477</ele>
        <time>2016-07-15T12:25:38Z</time>
      </trkpt>
      <trkpt lat="46.55792" lon="6.25731">
        <ele>1477</ele>
        <time>2016-07-15T12:25:42Z</time>
      </trkpt>
      <trkpt lat="46.55785" lon="6.25726">
        <ele>1477</ele>
        <time>2016-07-15T12:25:45Z</time>
      </trkpt>
      <trkpt lat="46.5578" lon="6.25721">
        <ele>1477</ele>
        <time>2016-07-15T12:25:49Z</time>
      </trkpt>
      <trkpt lat="46.55767" lon="6.2571">
        <ele>1477</ele>
        <time>2016-07-15T12:25:53Z</time>
      </trkpt>
      <trkpt lat="46.55745" lon="6.2568">
        <ele>1476</ele>
        <time>2016-07-15T12:25:58Z</time>
      </trkpt>
      <trkpt lat="46.55738" lon="6.25665">
        <ele>1475</ele>
        <time>2016-07-15T12:26:02Z</time>
      </trkpt>
      <trkpt lat="46.55725" lon="6.25654">
        <ele>1472</ele>
        <time>2016-07-15T12:26:07Z</time>
      </trkpt>
      <trkpt lat="46.55718" lon="6.25644">
        <ele>1471</ele>
        <time>2016-07-15T12:26:10Z</time>
      </trkpt>
      <trkpt lat="46.55701" lon="6.25615">
        <ele>1469</ele>
        <time>2016-07-15T12:26:15Z</time>
      </trkpt>
      <trkpt lat="46.55688" lon="6.25595">
        <ele>1467</ele>
        <time>2016-07-15T12:26:20Z</time>
      </trkpt>
      <trkpt lat="46.55676" lon="6.25586">
        <ele>1466</ele>
        <time>2016-07-15T12:26:24Z</time>
      </trkpt>
      <trkpt lat="46.5566" lon="6.25575">
        <ele>1464</ele>
        <time>2016-07-15T12:26:29Z</time>
      </trkpt>
      <trkpt lat="46.55656" lon="6.25564">
        <ele>1463</ele>
        <time>2016-07-15T12:26:34Z</time>
      </trkpt>
      <trkpt lat="46.55649" lon="6.25556">
        <ele>1463</ele>
        <time>2016-07-15T12:26:50Z</time>
      </trkpt>
      <trkpt lat="46.55643" lon="6.25548">
        <ele>1463</ele>
        <time>2016-07-15T12:26:54Z</time>
      </trkpt>
      <trkpt lat="46.55637" lon="6.25539">
        <ele>1463</ele>
        <time>2016-07-15T12:27:01Z</time>
      </trkpt>
      <trkpt lat="46.5563" lon="6.25531">
        <ele>1463</ele>
        <time>2016-07-15T12:27:09Z</time>
      </trkpt>
      <trkpt lat="46.55622" lon="6.25526">
        <ele>1463</ele>
        <time>2016-07-15T12:28:32Z</time>
      </trkpt>
      <trkpt lat="46.55611" lon="6.25509">
        <ele>1463</ele>
        <time>2016-07-15T12:28:36Z</time>
      </trkpt>
      <trkpt lat="46.55599" lon="6.2549">
        <ele>1463</ele>
        <time>2016-07-15T12:28:41Z</time>
      </trkpt>
      <trkpt lat="46.5559" lon="6.25476">
        <ele>1463</ele>
        <time>2016-07-15T12:28:45Z</time>
      </trkpt>
      <trkpt lat="46.55579" lon="6.25463">
        <ele>1461</ele>
        <time>2016-07-15T12:28:50Z</time>
      </trkpt>
      <trkpt lat="46.55567" lon="6.25449">
        <ele>1461</ele>
        <time>2016-07-15T12:28:54Z</time>
      </trkpt>
      <trkpt lat="46.55554" lon="6.25434">
        <ele>1461</ele>
        <time>2016-07-15T12:28:59Z</time>
      </trkpt>
      <trkpt lat="46.55547" lon="6.25424">
        <ele>1461</ele>
        <time>2016-07-15T12:29:02Z</time>
      </trkpt>
      <trkpt lat="46.55536" lon="6.2541">
        <ele>1458</ele>
        <time>2016-07-15T12:29:06Z</time>
      </trkpt>
      <trkpt lat="46.55516" lon="6.25386">
        <ele>1457</ele>
        <time>2016-07-15T12:29:11Z</time>
      </trkpt>
      <trkpt lat="46.55498" lon="6.25362">
        <ele>1453</ele>
        <time>2016-07-15T12:29:15Z</time>
      </trkpt>
      <trkpt lat="46.55479" lon="6.25329">
        <ele>1451</ele>
        <time>2016-07-15T12:29:20Z</time>
      </trkpt>
      <trkpt lat="46.55467" lon="6.2532">
        <ele>1450</ele>
        <time>2016-07-15T12:29:23Z</time>
      </trkpt>
      <trkpt lat="46.55453" lon="6.25307">
        <ele>1449</ele>
        <time>2016-07-15T12:29:28Z</time>
      </trkpt>
      <trkpt lat="46.55439" lon="6.25296">
        <ele>1449</ele>
        <time>2016-07-15T12:29:33Z</time>
      </trkpt>
      <trkpt lat="46.5543" lon="6.25284">
        <ele>1449</ele>
        <time>2016-07-15T12:29:38Z</time>
      </trkpt>
      <trkpt lat="46.55416" lon="6.25274">
        <ele>1450</ele>
        <time>2016-07-15T12:29:43Z</time>
      </trkpt>
      <trkpt lat="46.55409" lon="6.25265">
        <ele>1450</ele>
        <time>2016-07-15T12:29:47Z</time>
      </trkpt>
      <trkpt lat="46.55403" lon="6.25251">
        <ele>1450</ele>
        <time>2016-07-15T12:29:52Z</time>
      </trkpt>
      <trkpt lat="46.55398" lon="6.2524">
        <ele>1451</ele>
        <time>2016-07-15T12:29:57Z</time>
      </trkpt>
      <trkpt lat="46.55394" lon="6.25235">
        <ele>1452</ele>
        <time>2016-07-15T12:30:00Z</time>
      </trkpt>
      <trkpt lat="46.55391" lon="6.25227">
        <ele>1452</ele>
        <time>2016-07-15T12:30:03Z</time>
      </trkpt>
      <trkpt lat="46.55387" lon="6.25215">
        <ele>1452</ele>
        <time>2016-07-15T12:30:08Z</time>
      </trkpt>
      <trkpt lat="46.5538" lon="6.25207">
        <ele>1452</ele>
        <time>2016-07-15T12:30:13Z</time>
      </trkpt>
      <trkpt lat="46.5537" lon="6.25199">
        <ele>1452</ele>
        <time>2016-07-15T12:30:17Z</time>
      </trkpt>
      <trkpt lat="46.55355" lon="6.25192">
        <ele>1453</ele>
        <time>2016-07-15T12:30:22Z</time>
      </trkpt>
      <trkpt lat="46.55346" lon="6.2519">
        <ele>1453</ele>
        <time>2016-07-15T12:30:26Z</time>
      </trkpt>
      <trkpt lat="46.55337" lon="6.25176">
        <ele>1454</ele>
        <time>2016-07-15T12:30:30Z</time>
      </trkpt>
      <trkpt lat="46.55325" lon="6.25138">
        <ele>1452</ele>
        <time>2016-07-15T12:30:34Z</time>
      </trkpt>
      <trkpt lat="46.55312" lon="6.25114">
        <ele>1452</ele>
        <time>2016-07-15T12:30:37Z</time>
      </trkpt>
      <trkpt lat="46.55297" lon="6.25091">
        <ele>1451</ele>
        <time>2016-07-15T12:30:41Z</time>
      </trkpt>
      <trkpt lat="46.55278" lon="6.25066">
        <ele>1450</ele>
        <time>2016-07-15T12:30:45Z</time>
      </trkpt>
      <trkpt lat="46.55269" lon="6.25044">
        <ele>1449</ele>
        <time>2016-07-15T12:30:49Z</time>
      </trkpt>
      <trkpt lat="46.55261" lon="6.2504">
        <ele>1449</ele>
        <time>2016-07-15T12:30:57Z</time>
      </trkpt>
      <trkpt lat="46.55252" lon="6.25041">
        <ele>1449</ele>
        <time>2016-07-15T12:31:02Z</time>
      </trkpt>
      <trkpt lat="46.55251" lon="6.25054">
        <ele>1449</ele>
        <time>2016-07-15T12:31:07Z</time>
      </trkpt>
      <trkpt lat="46.55249" lon="6.25063">
        <ele>1448</ele>
        <time>2016-07-15T12:31:09Z</time>
      </trkpt>
      <trkpt lat="46.55246" lon="6.25085">
        <ele>1447</ele>
        <time>2016-07-15T12:31:13Z</time>
      </trkpt>
      <trkpt lat="46.55245" lon="6.2512">
        <ele>1445</ele>
        <time>2016-07-15T12:31:18Z</time>
      </trkpt>
      <trkpt lat="46.55243" lon="6.25144">
        <ele>1444</ele>
        <time>2016-07-15T12:31:23Z</time>
      </trkpt>
      <trkpt lat="46.55234" lon="6.25141">
        <ele>1444</ele>
        <time>2016-07-15T12:31:30Z</time>
      </trkpt>
      <trkpt lat="46.5523" lon="6.25136">
        <ele>1444</ele>
        <time>2016-07-15T12:31:35Z</time>
      </trkpt>
      <trkpt lat="46.55216" lon="6.25118">
        <ele>1444</ele>
        <time>2016-07-15T12:31:39Z</time>
      </trkpt>
      <trkpt lat="46.55202" lon="6.25097">
        <ele>1444</ele>
        <time>2016-07-15T12:31:44Z</time>
      </trkpt>
      <trkpt lat="46.55191" lon="6.25087">
        <ele>1444</ele>
        <time>2016-07-15T12:31:48Z</time>
      </trkpt>
      <trkpt lat="46.55176" lon="6.25085">
        <ele>1444</ele>
        <time>2016-07-15T12:31:53Z</time>
      </trkpt>
      <trkpt lat="46.55164" lon="6.25079">
        <ele>1445</ele>
        <time>2016-07-15T12:31:57Z</time>
      </trkpt>
      <trkpt lat="46.55158" lon="6.25064">
        <ele>1448</ele>
        <time>2016-07-15T12:32:01Z</time>
      </trkpt>
      <trkpt lat="46.55149" lon="6.25046">
        <ele>1451</ele>
        <time>2016-07-15T12:32:06Z</time>
      </trkpt>
      <trkpt lat="46.5514" lon="6.25037">
        <ele>1451</ele>
        <time>2016-07-15T12:32:10Z</time>
      </trkpt>
      <trkpt lat="46.55132" lon="6.25029">
        <ele>1452</ele>
        <time>2016-07-15T12:32:14Z</time>
      </trkpt>
      <trkpt lat="46.55119" lon="6.25023">
        <ele>1453</ele>
        <time>2016-07-15T12:32:19Z</time>
      </trkpt>
      <trkpt lat="46.55108" lon="6.25011">
        <ele>1454</ele>
        <time>2016-07-15T12:32:23Z</time>
      </trkpt>
      <trkpt lat="46.55099" lon="6.25004">
        <ele>1455</ele>
        <time>2016-07-15T12:32:28Z</time>
      </trkpt>
      <trkpt lat="46.55089" lon="6.24999">
        <ele>1459</ele>
        <time>2016-07-15T12:32:33Z</time>
      </trkpt>
      <trkpt lat="46.55081" lon="6.24992">
        <ele>1460</ele>
        <time>2016-07-15T12:32:38Z</time>
      </trkpt>
      <trkpt lat="46.55075" lon="6.24989">
        <ele>1461</ele>
        <time>2016-07-15T12:32:42Z</time>
      </trkpt>
      <trkpt lat="46.55066" lon="6.24992">
        <ele>1461</ele>
        <time>2016-07-15T12:32:48Z</time>
      </trkpt>
      <trkpt lat="46.55059" lon="6.24987">
        <ele>1462</ele>
        <time>2016-07-15T12:32:52Z</time>
      </trkpt>
      <trkpt lat="46.55049" lon="6.2498">
        <ele>1462</ele>
        <time>2016-07-15T12:32:57Z</time>
      </trkpt>
      <trkpt lat="46.55043" lon="6.24974">
        <ele>1463</ele>
        <time>2016-07-15T12:33:02Z</time>
      </trkpt>
      <trkpt lat="46.55035" lon="6.24966">
        <ele>1463</ele>
        <time>2016-07-15T12:33:07Z</time>
      </trkpt>
      <trkpt lat="46.55026" lon="6.24957">
        <ele>1463</ele>
        <time>2016-07-15T12:33:11Z</time>
      </trkpt>
      <trkpt lat="46.5502" lon="6.24949">
        <ele>1464</ele>
        <time>2016-07-15T12:33:15Z</time>
      </trkpt>
      <trkpt lat="46.55012" lon="6.24934">
        <ele>1464</ele>
        <time>2016-07-15T12:33:20Z</time>
      </trkpt>
      <trkpt lat="46.55001" lon="6.24922">
        <ele>1465</ele>
        <time>2016-07-15T12:33:24Z</time>
      </trkpt>
      <trkpt lat="46.54991" lon="6.24913">
        <ele>1465</ele>
        <time>2016-07-15T12:33:28Z</time>
      </trkpt>
      <trkpt lat="46.54982" lon="6.24901">
        <ele>1466</ele>
        <time>2016-07-15T12:33:32Z</time>
      </trkpt>
      <trkpt lat="46.54974" lon="6.2489">
        <ele>1466</ele>
        <time>2016-07-15T12:33:36Z</time>
      </trkpt>
      <trkpt lat="46.54964" lon="6.24885">
        <ele>1466</ele>
        <time>2016-07-15T12:33:40Z</time>
      </trkpt>
      <trkpt lat="46.54952" lon="6.24883">
        <ele>1465</ele>
        <time>2016-07-15T12:33:45Z</time>
      </trkpt>
      <trkpt lat="46.54946" lon="6.24872">
        <ele>1465</ele>
        <time>2016-07-15T12:33:49Z</time>
      </trkpt>
      <trkpt lat="46.54946" lon="6.24855">
        <ele>1466</ele>
        <time>2016-07-15T12:33:54Z</time>
      </trkpt>
      <trkpt lat="46.54944" lon="6.24845">
        <ele>1466</ele>
        <time>2016-07-15T12:33:58Z</time>
      </trkpt>
      <trkpt lat="46.54936" lon="6.24837">
        <ele>1465</ele>
        <time>2016-07-15T12:34:03Z</time>
      </trkpt>
      <trkpt lat="46.54928" lon="6.24831">
        <ele>1466</ele>
        <time>2016-07-15T12:34:07Z</time>
      </trkpt>
      <trkpt lat="46.5492" lon="6.24813">
        <ele>1467</ele>
        <time>2016-07-15T12:34:12Z</time>
      </trkpt>
      <trkpt lat="46.54919" lon="6.24793">
        <ele>1467</ele>
        <time>2016-07-15T12:34:16Z</time>
      </trkpt>
      <trkpt lat="46.54915" lon="6.2475">
        <ele>1465</ele>
        <time>2016-07-15T12:34:21Z</time>
      </trkpt>
      <trkpt lat="46.54903" lon="6.24699">
        <ele>1461</ele>
        <time>2016-07-15T12:34:26Z</time>
      </trkpt>
      <trkpt lat="46.54888" lon="6.24672">
        <ele>1460</ele>
        <time>2016-07-15T12:34:30Z</time>
      </trkpt>
      <trkpt lat="46.54878" lon="6.24654">
        <ele>1457</ele>
        <time>2016-07-15T12:34:35Z</time>
      </trkpt>
      <trkpt lat="46.54874" lon="6.24648">
        <ele>1457</ele>
        <time>2016-07-15T12:34:39Z</time>
      </trkpt>
      <trkpt lat="46.54867" lon="6.24633">
        <ele>1457</ele>
        <time>2016-07-15T12:34:44Z</time>
      </trkpt>
      <trkpt lat="46.54864" lon="6.24621">
        <ele>1456</ele>
        <time>2016-07-15T12:36:08Z</time>
      </trkpt>
      <trkpt lat="46.54847" lon="6.24617">
        <ele>1456</ele>
        <time>2016-07-15T12:36:12Z</time>
      </trkpt>
      <trkpt lat="46.54834" lon="6.2461">
        <ele>1456</ele>
        <time>2016-07-15T12:36:16Z</time>
      </trkpt>
      <trkpt lat="46.54823" lon="6.24604">
        <ele>1454</ele>
        <time>2016-07-15T12:36:21Z</time>
      </trkpt>
      <trkpt lat="46.5481" lon="6.24598">
        <ele>1454</ele>
        <time>2016-07-15T12:36:25Z</time>
      </trkpt>
      <trkpt lat="46.54797" lon="6.2459">
        <ele>1454</ele>
        <time>2016-07-15T12:36:29Z</time>
      </trkpt>
      <trkpt lat="46.54788" lon="6.24587">
        <ele>1454</ele>
        <time>2016-07-15T12:36:34Z</time>
      </trkpt>
      <trkpt lat="46.5478" lon="6.24584">
        <ele>1453</ele>
        <time>2016-07-15T12:36:38Z</time>
      </trkpt>
      <trkpt lat="46.54771" lon="6.24575">
        <ele>1452</ele>
        <time>2016-07-15T12:36:43Z</time>
      </trkpt>
      <trkpt lat="46.54763" lon="6.24556">
        <ele>1452</ele>
        <time>2016-07-15T12:36:47Z</time>
      </trkpt>
      <trkpt lat="46.54758" lon="6.2452">
        <ele>1450</ele>
        <time>2016-07-15T12:36:51Z</time>
      </trkpt>
      <trkpt lat="46.54741" lon="6.24473">
        <ele>1444</ele>
        <time>2016-07-15T12:36:56Z</time>
      </trkpt>
      <trkpt lat="46.54741" lon="6.24463">
        <ele>1444</ele>
        <time>2016-07-15T12:36:57Z</time>
      </trkpt>
      <trkpt lat="46.54751" lon="6.24439">
        <ele>1450</ele>
        <time>2016-07-15T12:37:01Z</time>
      </trkpt>
      <trkpt lat="46.54751" lon="6.24422">
        <ele>1449</ele>
        <time>2016-07-15T12:37:06Z</time>
      </trkpt>
      <trkpt lat="46.54733" lon="6.24415">
        <ele>1445</ele>
        <time>2016-07-15T12:37:11Z</time>
      </trkpt>
      <trkpt lat="46.54727" lon="6.24396">
        <ele>1443</ele>
        <time>2016-07-15T12:37:16Z</time>
      </trkpt>
      <trkpt lat="46.54713" lon="6.24379">
        <ele>1442</ele>
        <time>2016-07-15T12:37:20Z</time>
      </trkpt>
      <trkpt lat="46.547" lon="6.24361">
        <ele>1441</ele>
        <time>2016-07-15T12:37:23Z</time>
      </trkpt>
      <trkpt lat="46.54687" lon="6.24341">
        <ele>1439</ele>
        <time>2016-07-15T12:37:28Z</time>
      </trkpt>
      <trkpt lat="46.54667" lon="6.24337">
        <ele>1436</ele>
        <time>2016-07-15T12:37:32Z</time>
      </trkpt>
      <trkpt lat="46.54658" lon="6.2434">
        <ele>1434</ele>
        <time>2016-07-15T12:37:37Z</time>
      </trkpt>
      <trkpt lat="46.54645" lon="6.24346">
        <ele>1433</ele>
        <time>2016-07-15T12:37:41Z</time>
      </trkpt>
      <trkpt lat="46.54629" lon="6.24347">
        <ele>1432</ele>
        <time>2016-07-15T12:37:46Z</time>
      </trkpt>
      <trkpt lat="46.54617" lon="6.24357">
        <ele>1431</ele>
        <time>2016-07-15T12:37:51Z</time>
      </trkpt>
      <trkpt lat="46.5461" lon="6.24388">
        <ele>1431</ele>
        <time>2016-07-15T12:37:55Z</time>
      </trkpt>
      <trkpt lat="46.54585" lon="6.24404">
        <ele>1429</ele>
        <time>2016-07-15T12:37:59Z</time>
      </trkpt>
      <trkpt lat="46.54552" lon="6.24388">
        <ele>1425</ele>
        <time>2016-07-15T12:38:04Z</time>
      </trkpt>
      <trkpt lat="46.54535" lon="6.24389">
        <ele>1424</ele>
        <time>2016-07-15T12:38:08Z</time>
      </trkpt>
      <trkpt lat="46.54512" lon="6.24393">
        <ele>1422</ele>
        <time>2016-07-15T12:38:12Z</time>
      </trkpt>
      <trkpt lat="46.54493" lon="6.24382">
        <ele>1419</ele>
        <time>2016-07-15T12:38:17Z</time>
      </trkpt>
      <trkpt lat="46.54486" lon="6.24381">
        <ele>1419</ele>
        <time>2016-07-15T12:38:21Z</time>
      </trkpt>
      <trkpt lat="46.54478" lon="6.24375">
        <ele>1419</ele>
        <time>2016-07-15T12:38:25Z</time>
      </trkpt>
      <trkpt lat="46.54473" lon="6.24377">
        <ele>1419</ele>
        <time>2016-07-15T12:39:09Z</time>
      </trkpt>
      <trkpt lat="46.54459" lon="6.24391">
        <ele>1418</ele>
        <time>2016-07-15T12:39:12Z</time>
      </trkpt>
      <trkpt lat="46.54433" lon="6.2442">
        <ele>1412</ele>
        <time>2016-07-15T12:39:17Z</time>
      </trkpt>
      <trkpt lat="46.54425" lon="6.24447">
        <ele>1412</ele>
        <time>2016-07-15T12:39:22Z</time>
      </trkpt>
      <trkpt lat="46.54405" lon="6.24471">
        <ele>1402</ele>
        <time>2016-07-15T12:39:26Z</time>
      </trkpt>
      <trkpt lat="46.54377" lon="6.24476">
        <ele>1399</ele>
        <time>2016-07-15T12:39:31Z</time>
      </trkpt>
      <trkpt lat="46.54365" lon="6.24495">
        <ele>1396</ele>
        <time>2016-07-15T12:39:36Z</time>
      </trkpt>
      <trkpt lat="46.54369" lon="6.24522">
        <ele>1390</ele>
        <time>2016-07-15T12:39:40Z</time>
      </trkpt>
      <trkpt lat="46.54379" lon="6.24556">
        <ele>1388</ele>
        <time>2016-07-15T12:39:44Z</time>
      </trkpt>
      <trkpt lat="46.54393" lon="6.2458">
        <ele>1389</ele>
        <time>2016-07-15T12:39:48Z</time>
      </trkpt>
      <trkpt lat="46.54405" lon="6.24604">
        <ele>1384</ele>
        <time>2016-07-15T12:39:51Z</time>
      </trkpt>
      <trkpt lat="46.54422" lon="6.24641">
        <ele>1392</ele>
        <time>2016-07-15T12:39:56Z</time>
      </trkpt>
      <trkpt lat="46.54424" lon="6.24672">
        <ele>1385</ele>
        <time>2016-07-15T12:40:00Z</time>
      </trkpt>
      <trkpt lat="46.54419" lon="6.24705">
        <ele>1388</ele>
        <time>2016-07-15T12:40:05Z</time>
      </trkpt>
      <trkpt lat="46.5439" lon="6.24708">
        <ele>1375</ele>
        <time>2016-07-15T12:40:10Z</time>
      </trkpt>
      <trkpt lat="46.54374" lon="6.24704">
        <ele>1374</ele>
        <time>2016-07-15T12:40:14Z</time>
      </trkpt>
      <trkpt lat="46.5436" lon="6.24713">
        <ele>1373</ele>
        <time>2016-07-15T12:40:19Z</time>
      </trkpt>
      <trkpt lat="46.54357" lon="6.24737">
        <ele>1371</ele>
        <time>2016-07-15T12:40:24Z</time>
      </trkpt>
      <trkpt lat="46.54353" lon="6.24785">
        <ele>1369</ele>
        <time>2016-07-15T12:40:28Z</time>
      </trkpt>
      <trkpt lat="46.54346" lon="6.24778">
        <ele>1368</ele>
        <time>2016-07-15T12:40:33Z</time>
      </trkpt>
      <trkpt lat="46.54341" lon="6.24762">
        <ele>1367</ele>
        <time>2016-07-15T12:40:37Z</time>
      </trkpt>
      <trkpt lat="46.54333" lon="6.24736">
        <ele>1364</ele>
        <time>2016-07-15T12:40:42Z</time>
      </trkpt>
      <trkpt lat="46.54322" lon="6.24724">
        <ele>1363</ele>
        <time>2016-07-15T12:40:46Z</time>
      </trkpt>
      <trkpt lat="46.54309" lon="6.24708">
        <ele>1363</ele>
        <time>2016-07-15T12:40:50Z</time>
      </trkpt>
      <trkpt lat="46.54285" lon="6.24676">
        <ele>1362</ele>
        <time>2016-07-15T12:40:55Z</time>
      </trkpt>
      <trkpt lat="46.54272" lon="6.24658">
        <ele>1363</ele>
        <time>2016-07-15T12:40:58Z</time>
      </trkpt>
      <trkpt lat="46.54258" lon="6.24628">
        <ele>1363</ele>
        <time>2016-07-15T12:41:02Z</time>
      </trkpt>
      <trkpt lat="46.54245" lon="6.246">
        <ele>1357</ele>
        <time>2016-07-15T12:41:06Z</time>
      </trkpt>
      <trkpt lat="46.5423" lon="6.24564">
        <ele>1358</ele>
        <time>2016-07-15T12:41:10Z</time>
      </trkpt>
      <trkpt lat="46.54206" lon="6.24523">
        <ele>1357</ele>
        <time>2016-07-15T12:41:15Z</time>
      </trkpt>
      <trkpt lat="46.54181" lon="6.24498">
        <ele>1358</ele>
        <time>2016-07-15T12:41:19Z</time>
      </trkpt>
      <trkpt lat="46.54151" lon="6.24463">
        <ele>1354</ele>
        <time>2016-07-15T12:41:24Z</time>
      </trkpt>
      <trkpt lat="46.54115" lon="6.2443">
        <ele>1353</ele>
        <time>2016-07-15T12:41:29Z</time>
      </trkpt>
      <trkpt lat="46.54094" lon="6.24412">
        <ele>1354</ele>
        <time>2016-07-15T12:41:32Z</time>
      </trkpt>
      <trkpt lat="46.54069" lon="6.2437">
        <ele>1348</ele>
        <time>2016-07-15T12:41:37Z</time>
      </trkpt>
      <trkpt lat="46.54055" lon="6.24318">
        <ele>1347</ele>
        <time>2016-07-15T12:41:42Z</time>
      </trkpt>
      <trkpt lat="46.54045" lon="6.24273">
        <ele>1347</ele>
        <time>2016-07-15T12:41:46Z</time>
      </trkpt>
      <trkpt lat="46.5403" lon="6.24215">
        <ele>1350</ele>
        <time>2016-07-15T12:41:51Z</time>
      </trkpt>
      <trkpt lat="46.54004" lon="6.24182">
        <ele>1347</ele>
        <time>2016-07-15T12:41:55Z</time>
      </trkpt>
      <trkpt lat="46.53967" lon="6.24156">
        <ele>1340</ele>
        <time>2016-07-15T12:42:00Z</time>
      </trkpt>
      <trkpt lat="46.53938" lon="6.24127">
        <ele>1338</ele>
        <time>2016-07-15T12:42:04Z</time>
      </trkpt>
      <trkpt lat="46.53907" lon="6.24089">
        <ele>1329</ele>
        <time>2016-07-15T12:42:09Z</time>
      </trkpt>
      <trkpt lat="46.53897" lon="6.24072">
        <ele>1330</ele>
        <time>2016-07-15T12:42:13Z</time>
      </trkpt>
      <trkpt lat="46.53883" lon="6.24053">
        <ele>1329</ele>
        <time>2016-07-15T12:42:18Z</time>
      </trkpt>
      <trkpt lat="46.5387" lon="6.24032">
        <ele>1328</ele>
        <time>2016-07-15T12:42:22Z</time>
      </trkpt>
      <trkpt lat="46.53864" lon="6.24015">
        <ele>1327</ele>
        <time>2016-07-15T12:42:25Z</time>
      </trkpt>
      <trkpt lat="46.53859" lon="6.23993">
        <ele>1332</ele>
        <time>2016-07-15T12:42:29Z</time>
      </trkpt>
      <trkpt lat="46.53857" lon="6.23979">
        <ele>1333</ele>
        <time>2016-07-15T12:42:33Z</time>
      </trkpt>
      <trkpt lat="46.53857" lon="6.2399">
        <ele>1331</ele>
        <time>2016-07-15T12:43:06Z</time>
      </trkpt>
      <trkpt lat="46.53859" lon="6.24002">
        <ele>1327</ele>
        <time>2016-07-15T12:43:10Z</time>
      </trkpt>
      <trkpt lat="46.53863" lon="6.24023">
        <ele>1327</ele>
        <time>2016-07-15T12:43:15Z</time>
      </trkpt>
      <trkpt lat="46.53878" lon="6.24042">
        <ele>1329</ele>
        <time>2016-07-15T12:43:20Z</time>
      </trkpt>
      <trkpt lat="46.53887" lon="6.24052">
        <ele>1329</ele>
        <time>2016-07-15T12:43:24Z</time>
      </trkpt>
      <trkpt lat="46.53892" lon="6.24061">
        <ele>1329</ele>
        <time>2016-07-15T12:43:29Z</time>
      </trkpt>
      <trkpt lat="46.53892" lon="6.24073">
        <ele>1329</ele>
        <time>2016-07-15T12:43:36Z</time>
      </trkpt>
      <trkpt lat="46.53884" lon="6.24072">
        <ele>1328</ele>
        <time>2016-07-15T12:44:01Z</time>
      </trkpt>
      <trkpt lat="46.53876" lon="6.24065">
        <ele>1327</ele>
        <time>2016-07-15T12:44:04Z</time>
      </trkpt>
      <trkpt lat="46.53854" lon="6.24047">
        <ele>1326</ele>
        <time>2016-07-15T12:44:08Z</time>
      </trkpt>
      <trkpt lat="46.53832" lon="6.24028">
        <ele>1316</ele>
        <time>2016-07-15T12:44:12Z</time>
      </trkpt>
      <trkpt lat="46.53804" lon="6.23997">
        <ele>1317</ele>
        <time>2016-07-15T12:44:17Z</time>
      </trkpt>
      <trkpt lat="46.53779" lon="6.23989">
        <ele>1314</ele>
        <time>2016-07-15T12:44:21Z</time>
      </trkpt>
      <trkpt lat="46.53757" lon="6.24">
        <ele>1309</ele>
        <time>2016-07-15T12:44:24Z</time>
      </trkpt>
      <trkpt lat="46.53738" lon="6.23983">
        <ele>1306</ele>
        <time>2016-07-15T12:44:29Z</time>
      </trkpt>
      <trkpt lat="46.53724" lon="6.23938">
        <ele>1306</ele>
        <time>2016-07-15T12:44:34Z</time>
      </trkpt>
      <trkpt lat="46.53708" lon="6.23898">
        <ele>1306</ele>
        <time>2016-07-15T12:44:38Z</time>
      </trkpt>
      <trkpt lat="46.5368" lon="6.23867">
        <ele>1304</ele>
        <time>2016-07-15T12:44:42Z</time>
      </trkpt>
      <trkpt lat="46.53653" lon="6.23842">
        <ele>1298</ele>
        <time>2016-07-15T12:44:46Z</time>
      </trkpt>
      <trkpt lat="46.53629" lon="6.23814">
        <ele>1298</ele>
        <time>2016-07-15T12:44:50Z</time>
      </trkpt>
      <trkpt lat="46.53608" lon="6.23796">
        <ele>1298</ele>
        <time>2016-07-15T12:44:54Z</time>
      </trkpt>
      <trkpt lat="46.53594" lon="6.23781">
        <ele>1297</ele>
        <time>2016-07-15T12:44:58Z</time>
      </trkpt>
      <trkpt lat="46.5358" lon="6.23763">
        <ele>1296</ele>
        <time>2016-07-15T12:45:03Z</time>
      </trkpt>
      <trkpt lat="46.53572" lon="6.2375">
        <ele>1296</ele>
        <time>2016-07-15T12:45:07Z</time>
      </trkpt>
      <trkpt lat="46.53564" lon="6.23741">
        <ele>1298</ele>
        <time>2016-07-15T12:45:11Z</time>
      </trkpt>
      <trkpt lat="46.53554" lon="6.23733">
        <ele>1299</ele>
        <time>2016-07-15T12:45:15Z</time>
      </trkpt>
      <trkpt lat="46.53547" lon="6.23729">
        <ele>1300</ele>
        <time>2016-07-15T12:45:18Z</time>
      </trkpt>
      <trkpt lat="46.53538" lon="6.23724">
        <ele>1300</ele>
        <time>2016-07-15T12:45:23Z</time>
      </trkpt>
      <trkpt lat="46.53532" lon="6.23719">
        <ele>1301</ele>
        <time>2016-07-15T12:45:26Z</time>
      </trkpt>
      <trkpt lat="46.53518" lon="6.23713">
        <ele>1301</ele>
        <time>2016-07-15T12:45:31Z</time>
      </trkpt>
      <trkpt lat="46.53505" lon="6.23703">
        <ele>1301</ele>
        <time>2016-07-15T12:45:36Z</time>
      </trkpt>
      <trkpt lat="46.53495" lon="6.23697">
        <ele>1301</ele>
        <time>2016-07-15T12:45:40Z</time>
      </trkpt>
      <trkpt lat="46.53487" lon="6.23694">
        <ele>1301</ele>
        <time>2016-07-15T12:45:43Z</time>
      </trkpt>
      <trkpt lat="46.53476" lon="6.23686">
        <ele>1301</ele>
        <time>2016-07-15T12:45:47Z</time>
      </trkpt>
      <trkpt lat="46.53465" lon="6.23678">
        <ele>1300</ele>
        <time>2016-07-15T12:45:51Z</time>
      </trkpt>
      <trkpt lat="46.53449" lon="6.2367">
        <ele>1300</ele>
        <time>2016-07-15T12:45:56Z</time>
      </trkpt>
      <trkpt lat="46.53432" lon="6.23663">
        <ele>1300</ele>
        <time>2016-07-15T12:46:01Z</time>
      </trkpt>
      <trkpt lat="46.53416" lon="6.23656">
        <ele>1298</ele>
        <time>2016-07-15T12:46:05Z</time>
      </trkpt>
      <trkpt lat="46.53405" lon="6.2365">
        <ele>1299</ele>
        <time>2016-07-15T12:46:10Z</time>
      </trkpt>
      <trkpt lat="46.53395" lon="6.23645">
        <ele>1299</ele>
        <time>2016-07-15T12:46:14Z</time>
      </trkpt>
      <trkpt lat="46.53386" lon="6.23639">
        <ele>1300</ele>
        <time>2016-07-15T12:46:18Z</time>
      </trkpt>
      <trkpt lat="46.53373" lon="6.23629">
        <ele>1300</ele>
        <time>2016-07-15T12:46:23Z</time>
      </trkpt>
      <trkpt lat="46.53363" lon="6.23617">
        <ele>1300</ele>
        <time>2016-07-15T12:46:27Z</time>
      </trkpt>
      <trkpt lat="46.53351" lon="6.23604">
        <ele>1300</ele>
        <time>2016-07-15T12:46:32Z</time>
      </trkpt>
      <trkpt lat="46.53337" lon="6.2359">
        <ele>1300</ele>
        <time>2016-07-15T12:46:37Z</time>
      </trkpt>
      <trkpt lat="46.53329" lon="6.23584">
        <ele>1301</ele>
        <time>2016-07-15T12:46:41Z</time>
      </trkpt>
      <trkpt lat="46.53322" lon="6.23578">
        <ele>1303</ele>
        <time>2016-07-15T12:46:48Z</time>
      </trkpt>
      <trkpt lat="46.53309" lon="6.2357">
        <ele>1304</ele>
        <time>2016-07-15T12:46:52Z</time>
      </trkpt>
      <trkpt lat="46.53299" lon="6.23566">
        <ele>1305</ele>
        <time>2016-07-15T12:46:56Z</time>
      </trkpt>
      <trkpt lat="46.53293" lon="6.23566">
        <ele>1305</ele>
        <time>2016-07-15T12:47:00Z</time>
      </trkpt>
      <trkpt lat="46.53286" lon="6.23563">
        <ele>1306</ele>
        <time>2016-07-15T12:47:05Z</time>
      </trkpt>
      <trkpt lat="46.5328" lon="6.23554">
        <ele>1306</ele>
        <time>2016-07-15T12:47:10Z</time>
      </trkpt>
      <trkpt lat="46.53276" lon="6.23544">
        <ele>1306</ele>
        <time>2016-07-15T12:47:17Z</time>
      </trkpt>
      <trkpt lat="46.53269" lon="6.23537">
        <ele>1306</ele>
        <time>2016-07-15T12:47:22Z</time>
      </trkpt>
      <trkpt lat="46.53267" lon="6.23533">
        <ele>1306</ele>
        <time>2016-07-15T12:47:23Z</time>
      </trkpt>
      <trkpt lat="46.53259" lon="6.23526">
        <ele>1306</ele>
        <time>2016-07-15T12:47:30Z</time>
      </trkpt>
      <trkpt lat="46.53248" lon="6.23516">
        <ele>1307</ele>
        <time>2016-07-15T12:47:34Z</time>
      </trkpt>
      <trkpt lat="46.5324" lon="6.23511">
        <ele>1307</ele>
        <time>2016-07-15T12:47:38Z</time>
      </trkpt>
      <trkpt lat="46.53233" lon="6.23507">
        <ele>1307</ele>
        <time>2016-07-15T12:47:42Z</time>
      </trkpt>
      <trkpt lat="46.53225" lon="6.235">
        <ele>1310</ele>
        <time>2016-07-15T12:47:47Z</time>
      </trkpt>
      <trkpt lat="46.53216" lon="6.23497">
        <ele>1310</ele>
        <time>2016-07-15T12:47:51Z</time>
      </trkpt>
      <trkpt lat="46.53208" lon="6.23494">
        <ele>1311</ele>
        <time>2016-07-15T12:47:56Z</time>
      </trkpt>
      <trkpt lat="46.53198" lon="6.23491">
        <ele>1311</ele>
        <time>2016-07-15T12:48:00Z</time>
      </trkpt>
      <trkpt lat="46.53189" lon="6.23486">
        <ele>1311</ele>
        <time>2016-07-15T12:48:04Z</time>
      </trkpt>
      <trkpt lat="46.53179" lon="6.23479">
        <ele>1311</ele>
        <time>2016-07-15T12:48:08Z</time>
      </trkpt>
      <trkpt lat="46.5317" lon="6.23471">
        <ele>1311</ele>
        <time>2016-07-15T12:48:13Z</time>
      </trkpt>
      <trkpt lat="46.53161" lon="6.23465">
        <ele>1313</ele>
        <time>2016-07-15T12:48:17Z</time>
      </trkpt>
      <trkpt lat="46.5315" lon="6.23455">
        <ele>1313</ele>
        <time>2016-07-15T12:48:22Z</time>
      </trkpt>
      <trkpt lat="46.53141" lon="6.23442">
        <ele>1313</ele>
        <time>2016-07-15T12:48:27Z</time>
      </trkpt>
      <trkpt lat="46.53135" lon="6.23434">
        <ele>1314</ele>
        <time>2016-07-15T12:48:31Z</time>
      </trkpt>
      <trkpt lat="46.53127" lon="6.23423">
        <ele>1314</ele>
        <time>2016-07-15T12:48:35Z</time>
      </trkpt>
      <trkpt lat="46.5312" lon="6.23413">
        <ele>1315</ele>
        <time>2016-07-15T12:48:39Z</time>
      </trkpt>
      <trkpt lat="46.53111" lon="6.23402">
        <ele>1315</ele>
        <time>2016-07-15T12:48:44Z</time>
      </trkpt>
      <trkpt lat="46.53102" lon="6.23393">
        <ele>1315</ele>
        <time>2016-07-15T12:48:49Z</time>
      </trkpt>
      <trkpt lat="46.53096" lon="6.23384">
        <ele>1315</ele>
        <time>2016-07-15T12:48:54Z</time>
      </trkpt>
      <trkpt lat="46.5309" lon="6.23375">
        <ele>1315</ele>
        <time>2016-07-15T12:48:58Z</time>
      </trkpt>
      <trkpt lat="46.53085" lon="6.23367">
        <ele>1314</ele>
        <time>2016-07-15T12:49:01Z</time>
      </trkpt>
      <trkpt lat="46.53075" lon="6.23356">
        <ele>1313</ele>
        <time>2016-07-15T12:49:05Z</time>
      </trkpt>
      <trkpt lat="46.53069" lon="6.23347">
        <ele>1313</ele>
        <time>2016-07-15T12:49:09Z</time>
      </trkpt>
      <trkpt lat="46.53064" lon="6.23335">
        <ele>1313</ele>
        <time>2016-07-15T12:49:13Z</time>
      </trkpt>
      <trkpt lat="46.53057" lon="6.23313">
        <ele>1317</ele>
        <time>2016-07-15T12:49:18Z</time>
      </trkpt>
      <trkpt lat="46.53052" lon="6.23304">
        <ele>1317</ele>
        <time>2016-07-15T12:49:26Z</time>
      </trkpt>
      <trkpt lat="46.53044" lon="6.23303">
        <ele>1318</ele>
        <time>2016-07-15T12:49:44Z</time>
      </trkpt>
      <trkpt lat="46.53036" lon="6.23305">
        <ele>1317</ele>
        <time>2016-07-15T12:49:50Z</time>
      </trkpt>
      <trkpt lat="46.53028" lon="6.23304">
        <ele>1318</ele>
        <time>2016-07-15T12:49:55Z</time>
      </trkpt>
      <trkpt lat="46.5302" lon="6.23299">
        <ele>1318</ele>
        <time>2016-07-15T12:49:59Z</time>
      </trkpt>
      <trkpt lat="46.5301" lon="6.2329">
        <ele>1318</ele>
        <time>2016-07-15T12:50:04Z</time>
      </trkpt>
      <trkpt lat="46.53003" lon="6.23283">
        <ele>1319</ele>
        <time>2016-07-15T12:50:09Z</time>
      </trkpt>
      <trkpt lat="46.52997" lon="6.23275">
        <ele>1321</ele>
        <time>2016-07-15T12:50:14Z</time>
      </trkpt>
      <trkpt lat="46.52994" lon="6.23264">
        <ele>1321</ele>
        <time>2016-07-15T12:50:18Z</time>
      </trkpt>
      <trkpt lat="46.52989" lon="6.23251">
        <ele>1321</ele>
        <time>2016-07-15T12:50:23Z</time>
      </trkpt>
      <trkpt lat="46.52983" lon="6.23242">
        <ele>1327</ele>
        <time>2016-07-15T12:50:28Z</time>
      </trkpt>
      <trkpt lat="46.52976" lon="6.23235">
        <ele>1328</ele>
        <time>2016-07-15T12:50:58Z</time>
      </trkpt>
      <trkpt lat="46.5297" lon="6.23228">
        <ele>1329</ele>
        <time>2016-07-15T12:51:05Z</time>
      </trkpt>
      <trkpt lat="46.52963" lon="6.23219">
        <ele>1330</ele>
        <time>2016-07-15T12:51:13Z</time>
      </trkpt>
      <trkpt lat="46.52954" lon="6.23216">
        <ele>1331</ele>
        <time>2016-07-15T12:51:20Z</time>
      </trkpt>
      <trkpt lat="46.52947" lon="6.23211">
        <ele>1331</ele>
        <time>2016-07-15T12:51:28Z</time>
      </trkpt>
      <trkpt lat="46.5294" lon="6.23203">
        <ele>1332</ele>
        <time>2016-07-15T12:51:37Z</time>
      </trkpt>
      <trkpt lat="46.52931" lon="6.23199">
        <ele>1332</ele>
        <time>2016-07-15T12:51:49Z</time>
      </trkpt>
      <trkpt lat="46.52931" lon="6.23186">
        <ele>1333</ele>
        <time>2016-07-15T12:52:01Z</time>
      </trkpt>
      <trkpt lat="46.52931" lon="6.23174">
        <ele>1334</ele>
        <time>2016-07-15T12:52:07Z</time>
      </trkpt>
      <trkpt lat="46.52924" lon="6.23166">
        <ele>1338</ele>
        <time>2016-07-15T12:52:16Z</time>
      </trkpt>
      <trkpt lat="46.52918" lon="6.23163">
        <ele>1337</ele>
        <time>2016-07-15T12:52:19Z</time>
      </trkpt>
      <trkpt lat="46.52912" lon="6.23154">
        <ele>1338</ele>
        <time>2016-07-15T12:52:23Z</time>
      </trkpt>
      <trkpt lat="46.52908" lon="6.23146">
        <ele>1340</ele>
        <time>2016-07-15T12:52:27Z</time>
      </trkpt>
      <trkpt lat="46.529" lon="6.23128">
        <ele>1342</ele>
        <time>2016-07-15T12:52:32Z</time>
      </trkpt>
      <trkpt lat="46.52894" lon="6.23116">
        <ele>1344</ele>
        <time>2016-07-15T12:52:36Z</time>
      </trkpt>
      <trkpt lat="46.52883" lon="6.23107">
        <ele>1344</ele>
        <time>2016-07-15T12:52:41Z</time>
      </trkpt>
      <trkpt lat="46.52875" lon="6.23104">
        <ele>1344</ele>
        <time>2016-07-15T12:52:45Z</time>
      </trkpt>
      <trkpt lat="46.52868" lon="6.23102">
        <ele>1344</ele>
        <time>2016-07-15T12:52:50Z</time>
      </trkpt>
      <trkpt lat="46.5286" lon="6.23101">
        <ele>1344</ele>
        <time>2016-07-15T12:52:55Z</time>
      </trkpt>
      <trkpt lat="46.52851" lon="6.23102">
        <ele>1345</ele>
        <time>2016-07-15T12:53:03Z</time>
      </trkpt>
      <trkpt lat="46.52844" lon="6.23104">
        <ele>1345</ele>
        <time>2016-07-15T12:53:08Z</time>
      </trkpt>
      <trkpt lat="46.52835" lon="6.23103">
        <ele>1345</ele>
        <time>2016-07-15T12:53:12Z</time>
      </trkpt>
      <trkpt lat="46.52826" lon="6.23099">
        <ele>1346</ele>
        <time>2016-07-15T12:53:16Z</time>
      </trkpt>
      <trkpt lat="46.52817" lon="6.23094">
        <ele>1346</ele>
        <time>2016-07-15T12:53:21Z</time>
      </trkpt>
      <trkpt lat="46.52809" lon="6.2309">
        <ele>1346</ele>
        <time>2016-07-15T12:53:30Z</time>
      </trkpt>
      <trkpt lat="46.528" lon="6.23087">
        <ele>1347</ele>
        <time>2016-07-15T12:53:34Z</time>
      </trkpt>
      <trkpt lat="46.52794" lon="6.23078">
        <ele>1356</ele>
        <time>2016-07-15T12:53:39Z</time>
      </trkpt>
      <trkpt lat="46.52787" lon="6.23073">
        <ele>1356</ele>
        <time>2016-07-15T12:53:44Z</time>
      </trkpt>
      <trkpt lat="46.52777" lon="6.23068">
        <ele>1356</ele>
        <time>2016-07-15T12:53:49Z</time>
      </trkpt>
      <trkpt lat="46.52762" lon="6.23062">
        <ele>1356</ele>
        <time>2016-07-15T12:53:54Z</time>
      </trkpt>
      <trkpt lat="46.52755" lon="6.23056">
        <ele>1357</ele>
        <time>2016-07-15T12:53:57Z</time>
      </trkpt>
      <trkpt lat="46.52747" lon="6.23049">
        <ele>1357</ele>
        <time>2016-07-15T12:54:02Z</time>
      </trkpt>
      <trkpt lat="46.52737" lon="6.23045">
        <ele>1358</ele>
        <time>2016-07-15T12:54:06Z</time>
      </trkpt>
      <trkpt lat="46.52725" lon="6.23041">
        <ele>1358</ele>
        <time>2016-07-15T12:54:11Z</time>
      </trkpt>
      <trkpt lat="46.52716" lon="6.23038">
        <ele>1358</ele>
        <time>2016-07-15T12:54:15Z</time>
      </trkpt>
      <trkpt lat="46.52709" lon="6.23031">
        <ele>1358</ele>
        <time>2016-07-15T12:54:19Z</time>
      </trkpt>
      <trkpt lat="46.52697" lon="6.23022">
        <ele>1359</ele>
        <time>2016-07-15T12:54:24Z</time>
      </trkpt>
      <trkpt lat="46.52688" lon="6.23016">
        <ele>1359</ele>
        <time>2016-07-15T12:54:28Z</time>
      </trkpt>
      <trkpt lat="46.52678" lon="6.23007">
        <ele>1359</ele>
        <time>2016-07-15T12:54:32Z</time>
      </trkpt>
      <trkpt lat="46.52668" lon="6.22998">
        <ele>1360</ele>
        <time>2016-07-15T12:54:37Z</time>
      </trkpt>
      <trkpt lat="46.5266" lon="6.22991">
        <ele>1361</ele>
        <time>2016-07-15T12:54:41Z</time>
      </trkpt>
      <trkpt lat="46.52652" lon="6.22986">
        <ele>1363</ele>
        <time>2016-07-15T12:54:45Z</time>
      </trkpt>
      <trkpt lat="46.52645" lon="6.22978">
        <ele>1364</ele>
        <time>2016-07-15T12:54:50Z</time>
      </trkpt>
      <trkpt lat="46.52638" lon="6.22967">
        <ele>1365</ele>
        <time>2016-07-15T12:54:54Z</time>
      </trkpt>
      <trkpt lat="46.52631" lon="6.22956">
        <ele>1365</ele>
        <time>2016-07-15T12:54:58Z</time>
      </trkpt>
      <trkpt lat="46.52626" lon="6.22947">
        <ele>1366</ele>
        <time>2016-07-15T12:55:03Z</time>
      </trkpt>
      <trkpt lat="46.52619" lon="6.22938">
        <ele>1366</ele>
        <time>2016-07-15T12:55:08Z</time>
      </trkpt>
      <trkpt lat="46.52611" lon="6.22934">
        <ele>1366</ele>
        <time>2016-07-15T12:55:14Z</time>
      </trkpt>
      <trkpt lat="46.52602" lon="6.2293">
        <ele>1366</ele>
        <time>2016-07-15T12:55:20Z</time>
      </trkpt>
      <trkpt lat="46.52595" lon="6.22928">
        <ele>1366</ele>
        <time>2016-07-15T12:55:24Z</time>
      </trkpt>
      <trkpt lat="46.52586" lon="6.22925">
        <ele>1367</ele>
        <time>2016-07-15T12:55:29Z</time>
      </trkpt>
      <trkpt lat="46.52579" lon="6.2292">
        <ele>1367</ele>
        <time>2016-07-15T12:55:34Z</time>
      </trkpt>
      <trkpt lat="46.52569" lon="6.22914">
        <ele>1369</ele>
        <time>2016-07-15T12:55:38Z</time>
      </trkpt>
      <trkpt lat="46.52561" lon="6.22902">
        <ele>1370</ele>
        <time>2016-07-15T12:55:43Z</time>
      </trkpt>
      <trkpt lat="46.52553" lon="6.22895">
        <ele>1371</ele>
        <time>2016-07-15T12:55:47Z</time>
      </trkpt>
      <trkpt lat="46.52547" lon="6.22888">
        <ele>1372</ele>
        <time>2016-07-15T12:55:51Z</time>
      </trkpt>
      <trkpt lat="46.52538" lon="6.22884">
        <ele>1372</ele>
        <time>2016-07-15T12:55:56Z</time>
      </trkpt>
      <trkpt lat="46.52529" lon="6.22883">
        <ele>1372</ele>
        <time>2016-07-15T12:56:02Z</time>
      </trkpt>
      <trkpt lat="46.52521" lon="6.22877">
        <ele>1372</ele>
        <time>2016-07-15T12:56:06Z</time>
      </trkpt>
      <trkpt lat="46.52503" lon="6.22871">
        <ele>1373</ele>
        <time>2016-07-15T12:56:11Z</time>
      </trkpt>
      <trkpt lat="46.52492" lon="6.2287">
        <ele>1374</ele>
        <time>2016-07-15T12:56:16Z</time>
      </trkpt>
      <trkpt lat="46.52485" lon="6.22863">
        <ele>1375</ele>
        <time>2016-07-15T12:56:23Z</time>
      </trkpt>
      <trkpt lat="46.52477" lon="6.22863">
        <ele>1375</ele>
        <time>2016-07-15T12:56:27Z</time>
      </trkpt>
      <trkpt lat="46.52466" lon="6.22859">
        <ele>1375</ele>
        <time>2016-07-15T12:56:31Z</time>
      </trkpt>
      <trkpt lat="46.52459" lon="6.22856">
        <ele>1375</ele>
        <time>2016-07-15T12:56:35Z</time>
      </trkpt>
      <trkpt lat="46.52451" lon="6.2285">
        <ele>1376</ele>
        <time>2016-07-15T12:56:47Z</time>
      </trkpt>
      <trkpt lat="46.52443" lon="6.22847">
        <ele>1376</ele>
        <time>2016-07-15T12:56:56Z</time>
      </trkpt>
      <trkpt lat="46.52435" lon="6.22845">
        <ele>1376</ele>
        <time>2016-07-15T12:57:15Z</time>
      </trkpt>
      <trkpt lat="46.52423" lon="6.22846">
        <ele>1377</ele>
        <time>2016-07-15T12:57:19Z</time>
      </trkpt>
      <trkpt lat="46.5241" lon="6.22846">
        <ele>1379</ele>
        <time>2016-07-15T12:57:23Z</time>
      </trkpt>
      <trkpt lat="46.52401" lon="6.22847">
        <ele>1379</ele>
        <time>2016-07-15T12:57:30Z</time>
      </trkpt>
      <trkpt lat="46.52394" lon="6.22846">
        <ele>1380</ele>
        <time>2016-07-15T12:57:35Z</time>
      </trkpt>
      <trkpt lat="46.52386" lon="6.22846">
        <ele>1380</ele>
        <time>2016-07-15T12:57:40Z</time>
      </trkpt>
      <trkpt lat="46.52377" lon="6.22845">
        <ele>1381</ele>
        <time>2016-07-15T12:57:46Z</time>
      </trkpt>
      <trkpt lat="46.52366" lon="6.22847">
        <ele>1381</ele>
        <time>2016-07-15T12:57:51Z</time>
      </trkpt>
      <trkpt lat="46.52359" lon="6.22853">
        <ele>1382</ele>
        <time>2016-07-15T12:57:56Z</time>
      </trkpt>
      <trkpt lat="46.52352" lon="6.22854">
        <ele>1382</ele>
        <time>2016-07-15T12:58:00Z</time>
      </trkpt>
      <trkpt lat="46.52343" lon="6.22851">
        <ele>1383</ele>
        <time>2016-07-15T12:58:05Z</time>
      </trkpt>
      <trkpt lat="46.52336" lon="6.2285">
        <ele>1384</ele>
        <time>2016-07-15T12:58:10Z</time>
      </trkpt>
      <trkpt lat="46.52327" lon="6.22849">
        <ele>1386</ele>
        <time>2016-07-15T12:58:15Z</time>
      </trkpt>
      <trkpt lat="46.5232" lon="6.22851">
        <ele>1386</ele>
        <time>2016-07-15T12:58:19Z</time>
      </trkpt>
      <trkpt lat="46.52311" lon="6.22851">
        <ele>1385</ele>
        <time>2016-07-15T12:58:24Z</time>
      </trkpt>
      <trkpt lat="46.52302" lon="6.22845">
        <ele>1386</ele>
        <time>2016-07-15T12:58:28Z</time>
      </trkpt>
      <trkpt lat="46.52292" lon="6.22846">
        <ele>1386</ele>
        <time>2016-07-15T12:58:33Z</time>
      </trkpt>
      <trkpt lat="46.52286" lon="6.22849">
        <ele>1386</ele>
        <time>2016-07-15T12:58:37Z</time>
      </trkpt>
      <trkpt lat="46.52278" lon="6.22851">
        <ele>1386</ele>
        <time>2016-07-15T12:58:43Z</time>
      </trkpt>
      <trkpt lat="46.52271" lon="6.22848">
        <ele>1386</ele>
        <time>2016-07-15T12:58:47Z</time>
      </trkpt>
      <trkpt lat="46.52269" lon="6.22837">
        <ele>1387</ele>
        <time>2016-07-15T12:58:52Z</time>
      </trkpt>
      <trkpt lat="46.52278" lon="6.22835">
        <ele>1387</ele>
        <time>2016-07-15T13:00:38Z</time>
      </trkpt>
      <trkpt lat="46.52281" lon="6.22828">
        <ele>1391</ele>
        <time>2016-07-15T13:07:16Z</time>
      </trkpt>
      <trkpt lat="46.52285" lon="6.22817">
        <ele>1391</ele>
        <time>2016-07-15T13:07:21Z</time>
      </trkpt>
      <trkpt lat="46.5229" lon="6.22808">
        <ele>1391</ele>
        <time>2016-07-15T13:07:26Z</time>
      </trkpt>
      <trkpt lat="46.52297" lon="6.22797">
        <ele>1391</ele>
        <time>2016-07-15T13:07:31Z</time>
      </trkpt>
      <trkpt lat="46.52302" lon="6.22785">
        <ele>1392</ele>
        <time>2016-07-15T13:07:36Z</time>
      </trkpt>
      <trkpt lat="46.52303" lon="6.22771">
        <ele>1392</ele>
        <time>2016-07-15T13:07:41Z</time>
      </trkpt>
      <trkpt lat="46.523" lon="6.22758">
        <ele>1393</ele>
        <time>2016-07-15T13:07:46Z</time>
      </trkpt>
      <trkpt lat="46.52296" lon="6.22749">
        <ele>1396</ele>
        <time>2016-07-15T13:07:50Z</time>
      </trkpt>
      <trkpt lat="46.5229" lon="6.22739">
        <ele>1397</ele>
        <time>2016-07-15T13:07:55Z</time>
      </trkpt>
      <trkpt lat="46.5228" lon="6.22733">
        <ele>1397</ele>
        <time>2016-07-15T13:08:00Z</time>
      </trkpt>
      <trkpt lat="46.52273" lon="6.22728">
        <ele>1397</ele>
        <time>2016-07-15T13:08:04Z</time>
      </trkpt>
      <trkpt lat="46.52263" lon="6.2272">
        <ele>1397</ele>
        <time>2016-07-15T13:08:09Z</time>
      </trkpt>
      <trkpt lat="46.52254" lon="6.22713">
        <ele>1397</ele>
        <time>2016-07-15T13:08:13Z</time>
      </trkpt>
      <trkpt lat="46.52244" lon="6.22705">
        <ele>1397</ele>
        <time>2016-07-15T13:08:18Z</time>
      </trkpt>
      <trkpt lat="46.52234" lon="6.22697">
        <ele>1397</ele>
        <time>2016-07-15T13:08:23Z</time>
      </trkpt>
      <trkpt lat="46.52226" lon="6.2269">
        <ele>1397</ele>
        <time>2016-07-15T13:08:27Z</time>
      </trkpt>
      <trkpt lat="46.52217" lon="6.22682">
        <ele>1397</ele>
        <time>2016-07-15T13:08:31Z</time>
      </trkpt>
      <trkpt lat="46.52211" lon="6.22673">
        <ele>1397</ele>
        <time>2016-07-15T13:08:35Z</time>
      </trkpt>
      <trkpt lat="46.52206" lon="6.22656">
        <ele>1401</ele>
        <time>2016-07-15T13:08:40Z</time>
      </trkpt>
      <trkpt lat="46.52202" lon="6.22643">
        <ele>1402</ele>
        <time>2016-07-15T13:08:44Z</time>
      </trkpt>
      <trkpt lat="46.52199" lon="6.22626">
        <ele>1403</ele>
        <time>2016-07-15T13:08:49Z</time>
      </trkpt>
      <trkpt lat="46.52196" lon="6.2261">
        <ele>1404</ele>
        <time>2016-07-15T13:08:54Z</time>
      </trkpt>
      <trkpt lat="46.52199" lon="6.22594">
        <ele>1404</ele>
        <time>2016-07-15T13:08:59Z</time>
      </trkpt>
      <trkpt lat="46.52202" lon="6.22584">
        <ele>1405</ele>
        <time>2016-07-15T13:09:04Z</time>
      </trkpt>
      <trkpt lat="46.52213" lon="6.22566">
        <ele>1415</ele>
        <time>2016-07-15T13:09:09Z</time>
      </trkpt>
      <trkpt lat="46.52222" lon="6.2256">
        <ele>1416</ele>
        <time>2016-07-15T13:09:13Z</time>
      </trkpt>
      <trkpt lat="46.5223" lon="6.22559">
        <ele>1416</ele>
        <time>2016-07-15T13:09:21Z</time>
      </trkpt>
      <trkpt lat="46.52239" lon="6.22561">
        <ele>1416</ele>
        <time>2016-07-15T13:09:25Z</time>
      </trkpt>
      <trkpt lat="46.52247" lon="6.22565">
        <ele>1416</ele>
        <time>2016-07-15T13:09:33Z</time>
      </trkpt>
      <trkpt lat="46.52257" lon="6.22569">
        <ele>1420</ele>
        <time>2016-07-15T13:09:37Z</time>
      </trkpt>
      <trkpt lat="46.52264" lon="6.22574">
        <ele>1420</ele>
        <time>2016-07-15T13:09:43Z</time>
      </trkpt>
      <trkpt lat="46.52273" lon="6.22575">
        <ele>1421</ele>
        <time>2016-07-15T13:09:47Z</time>
      </trkpt>
      <trkpt lat="46.52282" lon="6.2258">
        <ele>1423</ele>
        <time>2016-07-15T13:09:52Z</time>
      </trkpt>
      <trkpt lat="46.5229" lon="6.22584">
        <ele>1412</ele>
        <time>2016-07-15T13:09:56Z</time>
      </trkpt>
      <trkpt lat="46.52299" lon="6.22587">
        <ele>1412</ele>
        <time>2016-07-15T13:10:01Z</time>
      </trkpt>
      <trkpt lat="46.52307" lon="6.22589">
        <ele>1413</ele>
        <time>2016-07-15T13:10:05Z</time>
      </trkpt>
      <trkpt lat="46.52317" lon="6.22582">
        <ele>1424</ele>
        <time>2016-07-15T13:10:10Z</time>
      </trkpt>
      <trkpt lat="46.52324" lon="6.22575">
        <ele>1424</ele>
        <time>2016-07-15T13:10:14Z</time>
      </trkpt>
      <trkpt lat="46.52333" lon="6.22568">
        <ele>1425</ele>
        <time>2016-07-15T13:10:19Z</time>
      </trkpt>
      <trkpt lat="46.52341" lon="6.22564">
        <ele>1430</ele>
        <time>2016-07-15T13:10:23Z</time>
      </trkpt>
      <trkpt lat="46.52349" lon="6.22563">
        <ele>1431</ele>
        <time>2016-07-15T13:10:27Z</time>
      </trkpt>
      <trkpt lat="46.52357" lon="6.22563">
        <ele>1432</ele>
        <time>2016-07-15T13:10:32Z</time>
      </trkpt>
      <trkpt lat="46.52366" lon="6.22562">
        <ele>1433</ele>
        <time>2016-07-15T13:10:37Z</time>
      </trkpt>
      <trkpt lat="46.52374" lon="6.22563">
        <ele>1433</ele>
        <time>2016-07-15T13:10:42Z</time>
      </trkpt>
      <trkpt lat="46.52382" lon="6.22567">
        <ele>1433</ele>
        <time>2016-07-15T13:10:47Z</time>
      </trkpt>
      <trkpt lat="46.52391" lon="6.22564">
        <ele>1434</ele>
        <time>2016-07-15T13:10:52Z</time>
      </trkpt>
      <trkpt lat="46.52398" lon="6.22566">
        <ele>1433</ele>
        <time>2016-07-15T13:10:55Z</time>
      </trkpt>
      <trkpt lat="46.52405" lon="6.2257">
        <ele>1433</ele>
        <time>2016-07-15T13:10:58Z</time>
      </trkpt>
      <trkpt lat="46.52416" lon="6.22573">
        <ele>1431</ele>
        <time>2016-07-15T13:11:03Z</time>
      </trkpt>
      <trkpt lat="46.52421" lon="6.22576">
        <ele>1433</ele>
        <time>2016-07-15T13:11:06Z</time>
      </trkpt>
      <trkpt lat="46.5243" lon="6.2258">
        <ele>1434</ele>
        <time>2016-07-15T13:11:11Z</time>
      </trkpt>
      <trkpt lat="46.52439" lon="6.22579">
        <ele>1436</ele>
        <time>2016-07-15T13:11:15Z</time>
      </trkpt>
      <trkpt lat="46.52445" lon="6.22578">
        <ele>1437</ele>
        <time>2016-07-15T13:11:20Z</time>
      </trkpt>
      <trkpt lat="46.52456" lon="6.22577">
        <ele>1438</ele>
        <time>2016-07-15T13:11:25Z</time>
      </trkpt>
      <trkpt lat="46.52462" lon="6.22576">
        <ele>1439</ele>
        <time>2016-07-15T13:11:28Z</time>
      </trkpt>
      <trkpt lat="46.52471" lon="6.22571">
        <ele>1439</ele>
        <time>2016-07-15T13:11:33Z</time>
      </trkpt>
      <trkpt lat="46.52479" lon="6.22565">
        <ele>1439</ele>
        <time>2016-07-15T13:11:38Z</time>
      </trkpt>
      <trkpt lat="46.52486" lon="6.22558">
        <ele>1440</ele>
        <time>2016-07-15T13:11:43Z</time>
      </trkpt>
      <trkpt lat="46.52493" lon="6.2255">
        <ele>1441</ele>
        <time>2016-07-15T13:11:47Z</time>
      </trkpt>
      <trkpt lat="46.52501" lon="6.2254">
        <ele>1442</ele>
        <time>2016-07-15T13:11:52Z</time>
      </trkpt>
      <trkpt lat="46.52507" lon="6.22529">
        <ele>1443</ele>
        <time>2016-07-15T13:11:57Z</time>
      </trkpt>
      <trkpt lat="46.52509" lon="6.22519">
        <ele>1444</ele>
        <time>2016-07-15T13:12:02Z</time>
      </trkpt>
      <trkpt lat="46.52505" lon="6.22508">
        <ele>1446</ele>
        <time>2016-07-15T13:12:07Z</time>
      </trkpt>
      <trkpt lat="46.52501" lon="6.22497">
        <ele>1448</ele>
        <time>2016-07-15T13:12:13Z</time>
      </trkpt>
      <trkpt lat="46.52496" lon="6.2249">
        <ele>1450</ele>
        <time>2016-07-15T13:12:17Z</time>
      </trkpt>
      <trkpt lat="46.52495" lon="6.22487">
        <ele>1450</ele>
        <time>2016-07-15T13:12:21Z</time>
      </trkpt>
      <trkpt lat="46.52485" lon="6.22468">
        <ele>1452</ele>
        <time>2016-07-15T13:12:26Z</time>
      </trkpt>
      <trkpt lat="46.52479" lon="6.22456">
        <ele>1452</ele>
        <time>2016-07-15T13:12:31Z</time>
      </trkpt>
      <trkpt lat="46.52478" lon="6.22444">
        <ele>1453</ele>
        <time>2016-07-15T13:12:36Z</time>
      </trkpt>
      <trkpt lat="46.52476" lon="6.22433">
        <ele>1453</ele>
        <time>2016-07-15T13:12:42Z</time>
      </trkpt>
      <trkpt lat="46.52474" lon="6.22422">
        <ele>1453</ele>
        <time>2016-07-15T13:12:46Z</time>
      </trkpt>
      <trkpt lat="46.52472" lon="6.22412">
        <ele>1457</ele>
        <time>2016-07-15T13:12:50Z</time>
      </trkpt>
      <trkpt lat="46.52465" lon="6.22405">
        <ele>1458</ele>
        <time>2016-07-15T13:12:54Z</time>
      </trkpt>
      <trkpt lat="46.52458" lon="6.22395">
        <ele>1458</ele>
        <time>2016-07-15T13:12:59Z</time>
      </trkpt>
      <trkpt lat="46.52453" lon="6.22377">
        <ele>1459</ele>
        <time>2016-07-15T13:13:04Z</time>
      </trkpt>
      <trkpt lat="46.52455" lon="6.22359">
        <ele>1460</ele>
        <time>2016-07-15T13:13:09Z</time>
      </trkpt>
      <trkpt lat="46.52458" lon="6.22349">
        <ele>1460</ele>
        <time>2016-07-15T13:13:13Z</time>
      </trkpt>
      <trkpt lat="46.52461" lon="6.22336">
        <ele>1460</ele>
        <time>2016-07-15T13:13:18Z</time>
      </trkpt>
      <trkpt lat="46.52469" lon="6.22341">
        <ele>1459</ele>
        <time>2016-07-15T13:15:30Z</time>
      </trkpt>
      <trkpt lat="46.52462" lon="6.22338">
        <ele>1460</ele>
        <time>2016-07-15T13:16:58Z</time>
      </trkpt>
      <trkpt lat="46.52464" lon="6.22327">
        <ele>1464</ele>
        <time>2016-07-15T13:17:36Z</time>
      </trkpt>
      <trkpt lat="46.5247" lon="6.22311">
        <ele>1464</ele>
        <time>2016-07-15T13:17:41Z</time>
      </trkpt>
      <trkpt lat="46.52477" lon="6.223">
        <ele>1464</ele>
        <time>2016-07-15T13:17:45Z</time>
      </trkpt>
      <trkpt lat="46.52489" lon="6.22289">
        <ele>1464</ele>
        <time>2016-07-15T13:17:50Z</time>
      </trkpt>
      <trkpt lat="46.52502" lon="6.2228">
        <ele>1458</ele>
        <time>2016-07-15T13:17:55Z</time>
      </trkpt>
      <trkpt lat="46.52514" lon="6.22269">
        <ele>1459</ele>
        <time>2016-07-15T13:18:00Z</time>
      </trkpt>
      <trkpt lat="46.52526" lon="6.22252">
        <ele>1458</ele>
        <time>2016-07-15T13:18:04Z</time>
      </trkpt>
      <trkpt lat="46.52534" lon="6.22239">
        <ele>1460</ele>
        <time>2016-07-15T13:18:08Z</time>
      </trkpt>
      <trkpt lat="46.52541" lon="6.22221">
        <ele>1460</ele>
        <time>2016-07-15T13:18:12Z</time>
      </trkpt>
      <trkpt lat="46.52548" lon="6.22193">
        <ele>1460</ele>
        <time>2016-07-15T13:18:16Z</time>
      </trkpt>
      <trkpt lat="46.5255" lon="6.22172">
        <ele>1459</ele>
        <time>2016-07-15T13:18:20Z</time>
      </trkpt>
      <trkpt lat="46.52557" lon="6.22154">
        <ele>1461</ele>
        <time>2016-07-15T13:18:25Z</time>
      </trkpt>
      <trkpt lat="46.52565" lon="6.2214">
        <ele>1460</ele>
        <time>2016-07-15T13:18:29Z</time>
      </trkpt>
      <trkpt lat="46.52573" lon="6.22119">
        <ele>1461</ele>
        <time>2016-07-15T13:18:34Z</time>
      </trkpt>
      <trkpt lat="46.52586" lon="6.22093">
        <ele>1455</ele>
        <time>2016-07-15T13:18:39Z</time>
      </trkpt>
      <trkpt lat="46.52591" lon="6.2206">
        <ele>1454</ele>
        <time>2016-07-15T13:18:44Z</time>
      </trkpt>
      <trkpt lat="46.52592" lon="6.2203">
        <ele>1454</ele>
        <time>2016-07-15T13:18:49Z</time>
      </trkpt>
      <trkpt lat="46.52583" lon="6.22014">
        <ele>1461</ele>
        <time>2016-07-15T13:18:53Z</time>
      </trkpt>
      <trkpt lat="46.52577" lon="6.21995">
        <ele>1460</ele>
        <time>2016-07-15T13:18:57Z</time>
      </trkpt>
      <trkpt lat="46.52567" lon="6.21986">
        <ele>1460</ele>
        <time>2016-07-15T13:19:02Z</time>
      </trkpt>
      <trkpt lat="46.52555" lon="6.21974">
        <ele>1461</ele>
        <time>2016-07-15T13:19:06Z</time>
      </trkpt>
      <trkpt lat="46.52539" lon="6.21956">
        <ele>1461</ele>
        <time>2016-07-15T13:19:10Z</time>
      </trkpt>
      <trkpt lat="46.52526" lon="6.21937">
        <ele>1461</ele>
        <time>2016-07-15T13:19:15Z</time>
      </trkpt>
      <trkpt lat="46.52518" lon="6.21941">
        <ele>1461</ele>
        <time>2016-07-15T13:19:25Z</time>
      </trkpt>
      <trkpt lat="46.52512" lon="6.21948">
        <ele>1461</ele>
        <time>2016-07-15T13:19:32Z</time>
      </trkpt>
      <trkpt lat="46.52508" lon="6.21957">
        <ele>1462</ele>
        <time>2016-07-15T13:20:10Z</time>
      </trkpt>
      <trkpt lat="46.52505" lon="6.21969">
        <ele>1463</ele>
        <time>2016-07-15T13:20:15Z</time>
      </trkpt>
      <trkpt lat="46.52509" lon="6.2198">
        <ele>1464</ele>
        <time>2016-07-15T13:20:59Z</time>
      </trkpt>
      <trkpt lat="46.52501" lon="6.22006">
        <ele>1467</ele>
        <time>2016-07-15T13:21:04Z</time>
      </trkpt>
      <trkpt lat="46.52497" lon="6.22019">
        <ele>1472</ele>
        <time>2016-07-15T13:21:07Z</time>
      </trkpt>
      <trkpt lat="46.52492" lon="6.22032">
        <ele>1473</ele>
        <time>2016-07-15T13:21:12Z</time>
      </trkpt>
      <trkpt lat="46.52485" lon="6.22041">
        <ele>1474</ele>
        <time>2016-07-15T13:21:18Z</time>
      </trkpt>
      <trkpt lat="46.52479" lon="6.22047">
        <ele>1474</ele>
        <time>2016-07-15T13:21:24Z</time>
      </trkpt>
      <trkpt lat="46.52474" lon="6.22055">
        <ele>1475</ele>
        <time>2016-07-15T13:21:29Z</time>
      </trkpt>
      <trkpt lat="46.52471" lon="6.22067">
        <ele>1475</ele>
        <time>2016-07-15T13:21:34Z</time>
      </trkpt>
      <trkpt lat="46.52465" lon="6.22077">
        <ele>1476</ele>
        <time>2016-07-15T13:22:10Z</time>
      </trkpt>
      <trkpt lat="46.5246" lon="6.22083">
        <ele>1476</ele>
        <time>2016-07-15T13:22:16Z</time>
      </trkpt>
      <trkpt lat="46.52456" lon="6.22097">
        <ele>1478</ele>
        <time>2016-07-15T13:22:21Z</time>
      </trkpt>
      <trkpt lat="46.52455" lon="6.22108">
        <ele>1479</ele>
        <time>2016-07-15T13:22:26Z</time>
      </trkpt>
      <trkpt lat="46.52447" lon="6.22117">
        <ele>1479</ele>
        <time>2016-07-15T13:22:31Z</time>
      </trkpt>
      <trkpt lat="46.52437" lon="6.22128">
        <ele>1480</ele>
        <time>2016-07-15T13:22:35Z</time>
      </trkpt>
      <trkpt lat="46.52429" lon="6.22128">
        <ele>1480</ele>
        <time>2016-07-15T13:22:49Z</time>
      </trkpt>
      <trkpt lat="46.52424" lon="6.22136">
        <ele>1481</ele>
        <time>2016-07-15T13:22:57Z</time>
      </trkpt>
      <trkpt lat="46.5242" lon="6.22146">
        <ele>1482</ele>
        <time>2016-07-15T13:23:03Z</time>
      </trkpt>
      <trkpt lat="46.52418" lon="6.22159">
        <ele>1483</ele>
        <time>2016-07-15T13:23:08Z</time>
      </trkpt>
      <trkpt lat="46.52413" lon="6.22168">
        <ele>1485</ele>
        <time>2016-07-15T13:23:28Z</time>
      </trkpt>
      <trkpt lat="46.52408" lon="6.22178">
        <ele>1484</ele>
        <time>2016-07-15T13:23:33Z</time>
      </trkpt>
      <trkpt lat="46.52402" lon="6.22191">
        <ele>1483</ele>
        <time>2016-07-15T13:23:37Z</time>
      </trkpt>
      <trkpt lat="46.52396" lon="6.22199">
        <ele>1482</ele>
        <time>2016-07-15T13:23:43Z</time>
      </trkpt>
      <trkpt lat="46.52388" lon="6.22197">
        <ele>1482</ele>
        <time>2016-07-15T13:23:48Z</time>
      </trkpt>
      <trkpt lat="46.5238" lon="6.22197">
        <ele>1482</ele>
        <time>2016-07-15T13:23:53Z</time>
      </trkpt>
      <trkpt lat="46.52373" lon="6.22196">
        <ele>1482</ele>
        <time>2016-07-15T13:23:58Z</time>
      </trkpt>
      <trkpt lat="46.52365" lon="6.22195">
        <ele>1483</ele>
        <time>2016-07-15T13:24:03Z</time>
      </trkpt>
      <trkpt lat="46.52357" lon="6.22199">
        <ele>1483</ele>
        <time>2016-07-15T13:24:10Z</time>
      </trkpt>
      <trkpt lat="46.5235" lon="6.22193">
        <ele>1483</ele>
        <time>2016-07-15T13:24:16Z</time>
      </trkpt>
      <trkpt lat="46.52341" lon="6.22193">
        <ele>1484</ele>
        <time>2016-07-15T13:24:22Z</time>
      </trkpt>
      <trkpt lat="46.52333" lon="6.22195">
        <ele>1481</ele>
        <time>2016-07-15T13:24:28Z</time>
      </trkpt>
      <trkpt lat="46.5234" lon="6.22188">
        <ele>1484</ele>
        <time>2016-07-15T13:25:22Z</time>
      </trkpt>
      <trkpt lat="46.52342" lon="6.22175">
        <ele>1486</ele>
        <time>2016-07-15T13:25:38Z</time>
      </trkpt>
      <trkpt lat="46.52341" lon="6.22185">
        <ele>1484</ele>
        <time>2016-07-15T13:28:28Z</time>
      </trkpt>
      <trkpt lat="46.52333" lon="6.22195">
        <ele>1481</ele>
        <time>2016-07-15T13:28:32Z</time>
      </trkpt>
      <trkpt lat="46.52336" lon="6.22185">
        <ele>1485</ele>
        <time>2016-07-15T13:34:46Z</time>
      </trkpt>
      <trkpt lat="46.52337" lon="6.22174">
        <ele>1486</ele>
        <time>2016-07-15T13:34:51Z</time>
      </trkpt>
      <trkpt lat="46.52336" lon="6.22161">
        <ele>1488</ele>
        <time>2016-07-15T13:34:56Z</time>
      </trkpt>
      <trkpt lat="46.52332" lon="6.22151">
        <ele>1486</ele>
        <time>2016-07-15T13:35:00Z</time>
      </trkpt>
      <trkpt lat="46.52325" lon="6.22143">
        <ele>1486</ele>
        <time>2016-07-15T13:35:05Z</time>
      </trkpt>
      <trkpt lat="46.52317" lon="6.2214">
        <ele>1485</ele>
        <time>2016-07-15T13:35:09Z</time>
      </trkpt>
      <trkpt lat="46.52312" lon="6.22136">
        <ele>1485</ele>
        <time>2016-07-15T13:35:20Z</time>
      </trkpt>
      <trkpt lat="46.52305" lon="6.22129">
        <ele>1485</ele>
        <time>2016-07-15T13:35:28Z</time>
      </trkpt>
      <trkpt lat="46.52296" lon="6.22127">
        <ele>1484</ele>
        <time>2016-07-15T13:35:39Z</time>
      </trkpt>
      <trkpt lat="46.52291" lon="6.22126">
        <ele>1484</ele>
        <time>2016-07-15T13:36:02Z</time>
      </trkpt>
      <trkpt lat="46.52274" lon="6.22123">
        <ele>1483</ele>
        <time>2016-07-15T13:36:06Z</time>
      </trkpt>
      <trkpt lat="46.52258" lon="6.22102">
        <ele>1482</ele>
        <time>2016-07-15T13:36:11Z</time>
      </trkpt>
      <trkpt lat="46.52256" lon="6.221">
        <ele>1482</ele>
        <time>2016-07-15T13:37:02Z</time>
      </trkpt>
      <trkpt lat="46.52244" lon="6.22084">
        <ele>1479</ele>
        <time>2016-07-15T13:37:07Z</time>
      </trkpt>
      <trkpt lat="46.5224" lon="6.22078">
        <ele>1480</ele>
        <time>2016-07-15T13:37:11Z</time>
      </trkpt>
      <trkpt lat="46.52226" lon="6.22063">
        <ele>1480</ele>
        <time>2016-07-15T13:37:15Z</time>
      </trkpt>
      <trkpt lat="46.52216" lon="6.2205">
        <ele>1480</ele>
        <time>2016-07-15T13:37:20Z</time>
      </trkpt>
      <trkpt lat="46.52208" lon="6.2204">
        <ele>1480</ele>
        <time>2016-07-15T13:37:23Z</time>
      </trkpt>
      <trkpt lat="46.52201" lon="6.22035">
        <ele>1480</ele>
        <time>2016-07-15T13:37:40Z</time>
      </trkpt>
      <trkpt lat="46.52193" lon="6.2203">
        <ele>1480</ele>
        <time>2016-07-15T13:37:45Z</time>
      </trkpt>
      <trkpt lat="46.52186" lon="6.22023">
        <ele>1480</ele>
        <time>2016-07-15T13:37:50Z</time>
      </trkpt>
      <trkpt lat="46.5218" lon="6.22022">
        <ele>1480</ele>
        <time>2016-07-15T13:37:56Z</time>
      </trkpt>
      <trkpt lat="46.52172" lon="6.22017">
        <ele>1480</ele>
        <time>2016-07-15T13:38:04Z</time>
      </trkpt>
      <trkpt lat="46.52165" lon="6.2201">
        <ele>1479</ele>
        <time>2016-07-15T13:38:16Z</time>
      </trkpt>
      <trkpt lat="46.52154" lon="6.21999">
        <ele>1481</ele>
        <time>2016-07-15T13:38:19Z</time>
      </trkpt>
      <trkpt lat="46.52146" lon="6.21994">
        <ele>1481</ele>
        <time>2016-07-15T13:38:29Z</time>
      </trkpt>
      <trkpt lat="46.52138" lon="6.21997">
        <ele>1481</ele>
        <time>2016-07-15T13:38:54Z</time>
      </trkpt>
      <trkpt lat="46.52134" lon="6.22004">
        <ele>1478</ele>
        <time>2016-07-15T13:39:00Z</time>
      </trkpt>
      <trkpt lat="46.52129" lon="6.22013">
        <ele>1478</ele>
        <time>2016-07-15T13:39:04Z</time>
      </trkpt>
      <trkpt lat="46.52117" lon="6.22013">
        <ele>1478</ele>
        <time>2016-07-15T13:39:09Z</time>
      </trkpt>
      <trkpt lat="46.5211" lon="6.22005">
        <ele>1478</ele>
        <time>2016-07-15T13:39:14Z</time>
      </trkpt>
      <trkpt lat="46.52104" lon="6.21998">
        <ele>1481</ele>
        <time>2016-07-15T13:39:20Z</time>
      </trkpt>
      <trkpt lat="46.52097" lon="6.21995">
        <ele>1481</ele>
        <time>2016-07-15T13:39:24Z</time>
      </trkpt>
      <trkpt lat="46.52088" lon="6.2199">
        <ele>1481</ele>
        <time>2016-07-15T13:39:29Z</time>
      </trkpt>
      <trkpt lat="46.52077" lon="6.21985">
        <ele>1481</ele>
        <time>2016-07-15T13:39:33Z</time>
      </trkpt>
      <trkpt lat="46.52068" lon="6.2198">
        <ele>1482</ele>
        <time>2016-07-15T13:39:38Z</time>
      </trkpt>
      <trkpt lat="46.52062" lon="6.2197">
        <ele>1482</ele>
        <time>2016-07-15T13:39:53Z</time>
      </trkpt>
      <trkpt lat="46.52055" lon="6.21965">
        <ele>1482</ele>
        <time>2016-07-15T13:40:48Z</time>
      </trkpt>
      <trkpt lat="46.52048" lon="6.21957">
        <ele>1482</ele>
        <time>2016-07-15T13:40:55Z</time>
      </trkpt>
      <trkpt lat="46.52042" lon="6.21947">
        <ele>1482</ele>
        <time>2016-07-15T13:41:03Z</time>
      </trkpt>
      <trkpt lat="46.52039" lon="6.21936">
        <ele>1482</ele>
        <time>2016-07-15T13:41:11Z</time>
      </trkpt>
      <trkpt lat="46.52038" lon="6.21926">
        <ele>1483</ele>
        <time>2016-07-15T13:41:17Z</time>
      </trkpt>
      <trkpt lat="46.52037" lon="6.21914">
        <ele>1483</ele>
        <time>2016-07-15T13:41:23Z</time>
      </trkpt>
      <trkpt lat="46.5203" lon="6.21906">
        <ele>1483</ele>
        <time>2016-07-15T13:44:10Z</time>
      </trkpt>
      <trkpt lat="46.52023" lon="6.21903">
        <ele>1483</ele>
        <time>2016-07-15T13:44:39Z</time>
      </trkpt>
      <trkpt lat="46.52017" lon="6.21896">
        <ele>1483</ele>
        <time>2016-07-15T13:44:43Z</time>
      </trkpt>
      <trkpt lat="46.52005" lon="6.21876">
        <ele>1482</ele>
        <time>2016-07-15T13:44:48Z</time>
      </trkpt>
      <trkpt lat="46.51995" lon="6.21836">
        <ele>1479</ele>
        <time>2016-07-15T13:44:52Z</time>
      </trkpt>
      <trkpt lat="46.52003" lon="6.21815">
        <ele>1478</ele>
        <time>2016-07-15T13:44:57Z</time>
      </trkpt>
      <trkpt lat="46.52002" lon="6.21787">
        <ele>1476</ele>
        <time>2016-07-15T13:45:01Z</time>
      </trkpt>
      <trkpt lat="46.51993" lon="6.21748">
        <ele>1469</ele>
        <time>2016-07-15T13:45:05Z</time>
      </trkpt>
      <trkpt lat="46.5198" lon="6.21712">
        <ele>1465</ele>
        <time>2016-07-15T13:45:09Z</time>
      </trkpt>
      <trkpt lat="46.51964" lon="6.21684">
        <ele>1463</ele>
        <time>2016-07-15T13:45:14Z</time>
      </trkpt>
      <trkpt lat="46.51949" lon="6.21653">
        <ele>1457</ele>
        <time>2016-07-15T13:45:18Z</time>
      </trkpt>
      <trkpt lat="46.51927" lon="6.21615">
        <ele>1455</ele>
        <time>2016-07-15T13:45:23Z</time>
      </trkpt>
      <trkpt lat="46.51907" lon="6.21574">
        <ele>1448</ele>
        <time>2016-07-15T13:45:27Z</time>
      </trkpt>
      <trkpt lat="46.51889" lon="6.21527">
        <ele>1444</ele>
        <time>2016-07-15T13:45:32Z</time>
      </trkpt>
      <trkpt lat="46.51864" lon="6.21498">
        <ele>1440</ele>
        <time>2016-07-15T13:45:36Z</time>
      </trkpt>
      <trkpt lat="46.51851" lon="6.21476">
        <ele>1440</ele>
        <time>2016-07-15T13:45:40Z</time>
      </trkpt>
      <trkpt lat="46.51842" lon="6.2147">
        <ele>1439</ele>
        <time>2016-07-15T13:45:45Z</time>
      </trkpt>
      <trkpt lat="46.51834" lon="6.21472">
        <ele>1439</ele>
        <time>2016-07-15T13:45:51Z</time>
      </trkpt>
      <trkpt lat="46.51827" lon="6.21464">
        <ele>1435</ele>
        <time>2016-07-15T13:45:55Z</time>
      </trkpt>
      <trkpt lat="46.51822" lon="6.21454">
        <ele>1434</ele>
        <time>2016-07-15T13:46:00Z</time>
      </trkpt>
      <trkpt lat="46.51814" lon="6.2144">
        <ele>1434</ele>
        <time>2016-07-15T13:46:05Z</time>
      </trkpt>
      <trkpt lat="46.51807" lon="6.21426">
        <ele>1434</ele>
        <time>2016-07-15T13:46:09Z</time>
      </trkpt>
      <trkpt lat="46.51795" lon="6.21417">
        <ele>1433</ele>
        <time>2016-07-15T13:46:14Z</time>
      </trkpt>
      <trkpt lat="46.51782" lon="6.21411">
        <ele>1433</ele>
        <time>2016-07-15T13:46:18Z</time>
      </trkpt>
      <trkpt lat="46.51765" lon="6.21401">
        <ele>1432</ele>
        <time>2016-07-15T13:46:23Z</time>
      </trkpt>
      <trkpt lat="46.51744" lon="6.21388">
        <ele>1432</ele>
        <time>2016-07-15T13:46:28Z</time>
      </trkpt>
      <trkpt lat="46.51728" lon="6.21381">
        <ele>1432</ele>
        <time>2016-07-15T13:46:32Z</time>
      </trkpt>
      <trkpt lat="46.51714" lon="6.21372">
        <ele>1433</ele>
        <time>2016-07-15T13:46:36Z</time>
      </trkpt>
      <trkpt lat="46.51697" lon="6.21368">
        <ele>1433</ele>
        <time>2016-07-15T13:46:40Z</time>
      </trkpt>
      <trkpt lat="46.51685" lon="6.21364">
        <ele>1434</ele>
        <time>2016-07-15T13:46:44Z</time>
      </trkpt>
      <trkpt lat="46.5167" lon="6.21358">
        <ele>1434</ele>
        <time>2016-07-15T13:46:49Z</time>
      </trkpt>
      <trkpt lat="46.51653" lon="6.21352">
        <ele>1435</ele>
        <time>2016-07-15T13:46:53Z</time>
      </trkpt>
      <trkpt lat="46.51636" lon="6.21345">
        <ele>1434</ele>
        <time>2016-07-15T13:46:58Z</time>
      </trkpt>
      <trkpt lat="46.51619" lon="6.21336">
        <ele>1434</ele>
        <time>2016-07-15T13:47:03Z</time>
      </trkpt>
      <trkpt lat="46.51611" lon="6.21332">
        <ele>1436</ele>
        <time>2016-07-15T13:47:07Z</time>
      </trkpt>
      <trkpt lat="46.51609" lon="6.21327">
        <ele>1436</ele>
        <time>2016-07-15T13:47:23Z</time>
      </trkpt>
      <trkpt lat="46.51602" lon="6.21322">
        <ele>1436</ele>
        <time>2016-07-15T13:47:31Z</time>
      </trkpt>
      <trkpt lat="46.51587" lon="6.21313">
        <ele>1436</ele>
        <time>2016-07-15T13:47:36Z</time>
      </trkpt>
      <trkpt lat="46.51573" lon="6.21308">
        <ele>1434</ele>
        <time>2016-07-15T13:47:41Z</time>
      </trkpt>
      <trkpt lat="46.51561" lon="6.21303">
        <ele>1433</ele>
        <time>2016-07-15T13:47:46Z</time>
      </trkpt>
      <trkpt lat="46.5155" lon="6.21297">
        <ele>1433</ele>
        <time>2016-07-15T13:47:51Z</time>
      </trkpt>
      <trkpt lat="46.51543" lon="6.2129">
        <ele>1433</ele>
        <time>2016-07-15T13:47:55Z</time>
      </trkpt>
      <trkpt lat="46.51534" lon="6.21275">
        <ele>1433</ele>
        <time>2016-07-15T13:47:59Z</time>
      </trkpt>
      <trkpt lat="46.5151" lon="6.21234">
        <ele>1431</ele>
        <time>2016-07-15T13:48:04Z</time>
      </trkpt>
      <trkpt lat="46.515" lon="6.21215">
        <ele>1425</ele>
        <time>2016-07-15T13:48:08Z</time>
      </trkpt>
      <trkpt lat="46.51468" lon="6.21164">
        <ele>1423</ele>
        <time>2016-07-15T13:48:12Z</time>
      </trkpt>
      <trkpt lat="46.51448" lon="6.2114">
        <ele>1422</ele>
        <time>2016-07-15T13:48:15Z</time>
      </trkpt>
      <trkpt lat="46.51423" lon="6.21115">
        <ele>1422</ele>
        <time>2016-07-15T13:48:19Z</time>
      </trkpt>
      <trkpt lat="46.51405" lon="6.21106">
        <ele>1417</ele>
        <time>2016-07-15T13:48:22Z</time>
      </trkpt>
      <trkpt lat="46.51389" lon="6.21103">
        <ele>1415</ele>
        <time>2016-07-15T13:48:27Z</time>
      </trkpt>
      <trkpt lat="46.51379" lon="6.21099">
        <ele>1415</ele>
        <time>2016-07-15T13:48:31Z</time>
      </trkpt>
      <trkpt lat="46.51369" lon="6.21092">
        <ele>1414</ele>
        <time>2016-07-15T13:48:35Z</time>
      </trkpt>
      <trkpt lat="46.51359" lon="6.21087">
        <ele>1414</ele>
        <time>2016-07-15T13:48:39Z</time>
      </trkpt>
      <trkpt lat="46.5135" lon="6.21083">
        <ele>1415</ele>
        <time>2016-07-15T13:48:43Z</time>
      </trkpt>
      <trkpt lat="46.51337" lon="6.21068">
        <ele>1415</ele>
        <time>2016-07-15T13:48:48Z</time>
      </trkpt>
      <trkpt lat="46.51313" lon="6.21038">
        <ele>1410</ele>
        <time>2016-07-15T13:48:53Z</time>
      </trkpt>
      <trkpt lat="46.51295" lon="6.21017">
        <ele>1409</ele>
        <time>2016-07-15T13:48:57Z</time>
      </trkpt>
      <trkpt lat="46.51282" lon="6.21004">
        <ele>1408</ele>
        <time>2016-07-15T13:49:01Z</time>
      </trkpt>
      <trkpt lat="46.51274" lon="6.20988">
        <ele>1409</ele>
        <time>2016-07-15T13:49:05Z</time>
      </trkpt>
      <trkpt lat="46.5126" lon="6.20977">
        <ele>1409</ele>
        <time>2016-07-15T13:49:09Z</time>
      </trkpt>
      <trkpt lat="46.51245" lon="6.20969">
        <ele>1406</ele>
        <time>2016-07-15T13:49:13Z</time>
      </trkpt>
      <trkpt lat="46.51232" lon="6.20965">
        <ele>1407</ele>
        <time>2016-07-15T13:49:18Z</time>
      </trkpt>
      <trkpt lat="46.51225" lon="6.20962">
        <ele>1407</ele>
        <time>2016-07-15T13:49:23Z</time>
      </trkpt>
      <trkpt lat="46.51214" lon="6.20962">
        <ele>1407</ele>
        <time>2016-07-15T13:49:27Z</time>
      </trkpt>
      <trkpt lat="46.51207" lon="6.20965">
        <ele>1406</ele>
        <time>2016-07-15T13:49:33Z</time>
      </trkpt>
      <trkpt lat="46.51197" lon="6.20965">
        <ele>1406</ele>
        <time>2016-07-15T13:49:37Z</time>
      </trkpt>
      <trkpt lat="46.51189" lon="6.20965">
        <ele>1406</ele>
        <time>2016-07-15T13:49:42Z</time>
      </trkpt>
      <trkpt lat="46.51183" lon="6.20958">
        <ele>1407</ele>
        <time>2016-07-15T13:49:50Z</time>
      </trkpt>
      <trkpt lat="46.51174" lon="6.20956">
        <ele>1407</ele>
        <time>2016-07-15T13:49:54Z</time>
      </trkpt>
      <trkpt lat="46.51167" lon="6.2095">
        <ele>1407</ele>
        <time>2016-07-15T13:49:58Z</time>
      </trkpt>
      <trkpt lat="46.51161" lon="6.2094">
        <ele>1405</ele>
        <time>2016-07-15T13:50:03Z</time>
      </trkpt>
      <trkpt lat="46.51155" lon="6.20932">
        <ele>1406</ele>
        <time>2016-07-15T13:50:09Z</time>
      </trkpt>
      <trkpt lat="46.5115" lon="6.20923">
        <ele>1406</ele>
        <time>2016-07-15T13:50:14Z</time>
      </trkpt>
      <trkpt lat="46.51143" lon="6.20919">
        <ele>1405</ele>
        <time>2016-07-15T13:50:20Z</time>
      </trkpt>
      <trkpt lat="46.51135" lon="6.20913">
        <ele>1410</ele>
        <time>2016-07-15T13:50:24Z</time>
      </trkpt>
      <trkpt lat="46.51128" lon="6.20909">
        <ele>1410</ele>
        <time>2016-07-15T13:50:29Z</time>
      </trkpt>
      <trkpt lat="46.51121" lon="6.209">
        <ele>1410</ele>
        <time>2016-07-15T13:50:34Z</time>
      </trkpt>
      <trkpt lat="46.51122" lon="6.20889">
        <ele>1410</ele>
        <time>2016-07-15T13:50:39Z</time>
      </trkpt>
      <trkpt lat="46.51119" lon="6.20877">
        <ele>1410</ele>
        <time>2016-07-15T13:50:47Z</time>
      </trkpt>
      <trkpt lat="46.51116" lon="6.20865">
        <ele>1411</ele>
        <time>2016-07-15T13:51:04Z</time>
      </trkpt>
      <trkpt lat="46.51114" lon="6.20858">
        <ele>1411</ele>
        <time>2016-07-15T13:52:37Z</time>
      </trkpt>
      <trkpt lat="46.5112" lon="6.2084">
        <ele>1412</ele>
        <time>2016-07-15T13:52:40Z</time>
      </trkpt>
      <trkpt lat="46.51116" lon="6.2082">
        <ele>1411</ele>
        <time>2016-07-15T13:52:45Z</time>
      </trkpt>
      <trkpt lat="46.51111" lon="6.20806">
        <ele>1411</ele>
        <time>2016-07-15T13:52:50Z</time>
      </trkpt>
      <trkpt lat="46.51109" lon="6.20793">
        <ele>1410</ele>
        <time>2016-07-15T13:52:54Z</time>
      </trkpt>
      <trkpt lat="46.51104" lon="6.20779">
        <ele>1410</ele>
        <time>2016-07-15T13:52:58Z</time>
      </trkpt>
      <trkpt lat="46.51097" lon="6.20757">
        <ele>1409</ele>
        <time>2016-07-15T13:53:02Z</time>
      </trkpt>
      <trkpt lat="46.51084" lon="6.20731">
        <ele>1405</ele>
        <time>2016-07-15T13:53:07Z</time>
      </trkpt>
      <trkpt lat="46.51079" lon="6.20713">
        <ele>1403</ele>
        <time>2016-07-15T13:53:11Z</time>
      </trkpt>
      <trkpt lat="46.51078" lon="6.20701">
        <ele>1402</ele>
        <time>2016-07-15T13:53:15Z</time>
      </trkpt>
      <trkpt lat="46.51073" lon="6.2067">
        <ele>1401</ele>
        <time>2016-07-15T13:53:19Z</time>
      </trkpt>
      <trkpt lat="46.51061" lon="6.2064">
        <ele>1396</ele>
        <time>2016-07-15T13:53:24Z</time>
      </trkpt>
      <trkpt lat="46.51053" lon="6.20613">
        <ele>1395</ele>
        <time>2016-07-15T13:53:28Z</time>
      </trkpt>
      <trkpt lat="46.51045" lon="6.20601">
        <ele>1395</ele>
        <time>2016-07-15T13:53:32Z</time>
      </trkpt>
      <trkpt lat="46.51053" lon="6.20589">
        <ele>1394</ele>
        <time>2016-07-15T13:53:36Z</time>
      </trkpt>
      <trkpt lat="46.51055" lon="6.20577">
        <ele>1390</ele>
        <time>2016-07-15T13:53:41Z</time>
      </trkpt>
      <trkpt lat="46.51039" lon="6.20532">
        <ele>1389</ele>
        <time>2016-07-15T13:53:45Z</time>
      </trkpt>
      <trkpt lat="46.51035" lon="6.20509">
        <ele>1389</ele>
        <time>2016-07-15T13:53:49Z</time>
      </trkpt>
      <trkpt lat="46.51022" lon="6.20506">
        <ele>1390</ele>
        <time>2016-07-15T13:53:53Z</time>
      </trkpt>
      <trkpt lat="46.51009" lon="6.20504">
        <ele>1390</ele>
        <time>2016-07-15T13:53:58Z</time>
      </trkpt>
      <trkpt lat="46.51001" lon="6.20495">
        <ele>1390</ele>
        <time>2016-07-15T13:54:02Z</time>
      </trkpt>
      <trkpt lat="46.50992" lon="6.20485">
        <ele>1390</ele>
        <time>2016-07-15T13:54:07Z</time>
      </trkpt>
      <trkpt lat="46.50984" lon="6.20475">
        <ele>1390</ele>
        <time>2016-07-15T13:54:11Z</time>
      </trkpt>
      <trkpt lat="46.50972" lon="6.20463">
        <ele>1390</ele>
        <time>2016-07-15T13:54:16Z</time>
      </trkpt>
      <trkpt lat="46.50963" lon="6.20458">
        <ele>1390</ele>
        <time>2016-07-15T13:54:19Z</time>
      </trkpt>
      <trkpt lat="46.50953" lon="6.20461">
        <ele>1390</ele>
        <time>2016-07-15T13:54:23Z</time>
      </trkpt>
      <trkpt lat="46.50939" lon="6.20463">
        <ele>1390</ele>
        <time>2016-07-15T13:54:28Z</time>
      </trkpt>
      <trkpt lat="46.50927" lon="6.20463">
        <ele>1390</ele>
        <time>2016-07-15T13:54:33Z</time>
      </trkpt>
      <trkpt lat="46.50919" lon="6.20462">
        <ele>1390</ele>
        <time>2016-07-15T13:54:35Z</time>
      </trkpt>
      <trkpt lat="46.50907" lon="6.20464">
        <ele>1389</ele>
        <time>2016-07-15T13:54:39Z</time>
      </trkpt>
      <trkpt lat="46.50895" lon="6.20466">
        <ele>1389</ele>
        <time>2016-07-15T13:54:43Z</time>
      </trkpt>
      <trkpt lat="46.50877" lon="6.20466">
        <ele>1389</ele>
        <time>2016-07-15T13:54:48Z</time>
      </trkpt>
      <trkpt lat="46.50865" lon="6.20468">
        <ele>1389</ele>
        <time>2016-07-15T13:54:52Z</time>
      </trkpt>
      <trkpt lat="46.50852" lon="6.20468">
        <ele>1389</ele>
        <time>2016-07-15T13:54:56Z</time>
      </trkpt>
      <trkpt lat="46.50836" lon="6.20459">
        <ele>1389</ele>
        <time>2016-07-15T13:54:59Z</time>
      </trkpt>
      <trkpt lat="46.50811" lon="6.20444">
        <ele>1387</ele>
        <time>2016-07-15T13:55:04Z</time>
      </trkpt>
      <trkpt lat="46.5079" lon="6.20436">
        <ele>1386</ele>
        <time>2016-07-15T13:55:08Z</time>
      </trkpt>
      <trkpt lat="46.50762" lon="6.20438">
        <ele>1385</ele>
        <time>2016-07-15T13:55:12Z</time>
      </trkpt>
      <trkpt lat="46.50731" lon="6.20425">
        <ele>1382</ele>
        <time>2016-07-15T13:55:17Z</time>
      </trkpt>
      <trkpt lat="46.50715" lon="6.20413">
        <ele>1381</ele>
        <time>2016-07-15T13:55:21Z</time>
      </trkpt>
      <trkpt lat="46.50691" lon="6.20394">
        <ele>1381</ele>
        <time>2016-07-15T13:55:26Z</time>
      </trkpt>
      <trkpt lat="46.50678" lon="6.20366">
        <ele>1381</ele>
        <time>2016-07-15T13:55:30Z</time>
      </trkpt>
      <trkpt lat="46.50663" lon="6.20338">
        <ele>1380</ele>
        <time>2016-07-15T13:55:34Z</time>
      </trkpt>
      <trkpt lat="46.50649" lon="6.20308">
        <ele>1377</ele>
        <time>2016-07-15T13:55:39Z</time>
      </trkpt>
      <trkpt lat="46.50641" lon="6.20298">
        <ele>1377</ele>
        <time>2016-07-15T13:55:43Z</time>
      </trkpt>
      <trkpt lat="46.50639" lon="6.20286">
        <ele>1376</ele>
        <time>2016-07-15T13:55:55Z</time>
      </trkpt>
      <trkpt lat="46.50631" lon="6.20281">
        <ele>1376</ele>
        <time>2016-07-15T13:57:04Z</time>
      </trkpt>
      <trkpt lat="46.50624" lon="6.20274">
        <ele>1376</ele>
        <time>2016-07-15T13:57:11Z</time>
      </trkpt>
      <trkpt lat="46.5061" lon="6.20276">
        <ele>1375</ele>
        <time>2016-07-15T13:57:16Z</time>
      </trkpt>
      <trkpt lat="46.50594" lon="6.20277">
        <ele>1374</ele>
        <time>2016-07-15T13:57:21Z</time>
      </trkpt>
      <trkpt lat="46.5058" lon="6.20278">
        <ele>1373</ele>
        <time>2016-07-15T13:57:25Z</time>
      </trkpt>
      <trkpt lat="46.50568" lon="6.20279">
        <ele>1374</ele>
        <time>2016-07-15T13:57:30Z</time>
      </trkpt>
      <trkpt lat="46.50555" lon="6.20281">
        <ele>1374</ele>
        <time>2016-07-15T13:57:35Z</time>
      </trkpt>
      <trkpt lat="46.50542" lon="6.20285">
        <ele>1374</ele>
        <time>2016-07-15T13:57:40Z</time>
      </trkpt>
      <trkpt lat="46.50531" lon="6.20287">
        <ele>1374</ele>
        <time>2016-07-15T13:57:44Z</time>
      </trkpt>
      <trkpt lat="46.50516" lon="6.20292">
        <ele>1375</ele>
        <time>2016-07-15T13:57:49Z</time>
      </trkpt>
      <trkpt lat="46.505" lon="6.20295">
        <ele>1375</ele>
        <time>2016-07-15T13:57:54Z</time>
      </trkpt>
      <trkpt lat="46.50486" lon="6.20299">
        <ele>1375</ele>
        <time>2016-07-15T13:57:58Z</time>
      </trkpt>
      <trkpt lat="46.50471" lon="6.20302">
        <ele>1374</ele>
        <time>2016-07-15T13:58:03Z</time>
      </trkpt>
      <trkpt lat="46.50451" lon="6.20308">
        <ele>1374</ele>
        <time>2016-07-15T13:58:07Z</time>
      </trkpt>
      <trkpt lat="46.50436" lon="6.2031">
        <ele>1374</ele>
        <time>2016-07-15T13:58:11Z</time>
      </trkpt>
      <trkpt lat="46.50421" lon="6.20307">
        <ele>1374</ele>
        <time>2016-07-15T13:58:15Z</time>
      </trkpt>
      <trkpt lat="46.50404" lon="6.20299">
        <ele>1373</ele>
        <time>2016-07-15T13:58:20Z</time>
      </trkpt>
      <trkpt lat="46.50388" lon="6.20288">
        <ele>1374</ele>
        <time>2016-07-15T13:58:25Z</time>
      </trkpt>
      <trkpt lat="46.50375" lon="6.20278">
        <ele>1374</ele>
        <time>2016-07-15T13:58:29Z</time>
      </trkpt>
      <trkpt lat="46.50363" lon="6.20267">
        <ele>1375</ele>
        <time>2016-07-15T13:58:33Z</time>
      </trkpt>
      <trkpt lat="46.5035" lon="6.20248">
        <ele>1377</ele>
        <time>2016-07-15T13:58:38Z</time>
      </trkpt>
      <trkpt lat="46.50339" lon="6.20234">
        <ele>1377</ele>
        <time>2016-07-15T13:58:42Z</time>
      </trkpt>
      <trkpt lat="46.50327" lon="6.20221">
        <ele>1383</ele>
        <time>2016-07-15T13:58:46Z</time>
      </trkpt>
      <trkpt lat="46.50319" lon="6.20216">
        <ele>1384</ele>
        <time>2016-07-15T13:58:49Z</time>
      </trkpt>
      <trkpt lat="46.50306" lon="6.20212">
        <ele>1385</ele>
        <time>2016-07-15T13:58:53Z</time>
      </trkpt>
      <trkpt lat="46.50295" lon="6.20214">
        <ele>1386</ele>
        <time>2016-07-15T13:58:58Z</time>
      </trkpt>
      <trkpt lat="46.50286" lon="6.2022">
        <ele>1387</ele>
        <time>2016-07-15T13:59:02Z</time>
      </trkpt>
      <trkpt lat="46.5028" lon="6.20227">
        <ele>1387</ele>
        <time>2016-07-15T13:59:06Z</time>
      </trkpt>
      <trkpt lat="46.50278" lon="6.20229">
        <ele>1387</ele>
        <time>2016-07-15T13:59:09Z</time>
      </trkpt>
      <trkpt lat="46.50266" lon="6.20237">
        <ele>1388</ele>
        <time>2016-07-15T13:59:12Z</time>
      </trkpt>
      <trkpt lat="46.50257" lon="6.20244">
        <ele>1389</ele>
        <time>2016-07-15T13:59:16Z</time>
      </trkpt>
      <trkpt lat="46.50244" lon="6.20253">
        <ele>1389</ele>
        <time>2016-07-15T13:59:21Z</time>
      </trkpt>
      <trkpt lat="46.5023" lon="6.20266">
        <ele>1388</ele>
        <time>2016-07-15T13:59:26Z</time>
      </trkpt>
      <trkpt lat="46.50218" lon="6.20284">
        <ele>1387</ele>
        <time>2016-07-15T13:59:30Z</time>
      </trkpt>
      <trkpt lat="46.50195" lon="6.20289">
        <ele>1387</ele>
        <time>2016-07-15T13:59:34Z</time>
      </trkpt>
      <trkpt lat="46.50172" lon="6.2029">
        <ele>1388</ele>
        <time>2016-07-15T13:59:38Z</time>
      </trkpt>
      <trkpt lat="46.50154" lon="6.20289">
        <ele>1389</ele>
        <time>2016-07-15T13:59:43Z</time>
      </trkpt>
      <trkpt lat="46.50145" lon="6.20295">
        <ele>1388</ele>
        <time>2016-07-15T13:59:48Z</time>
      </trkpt>
      <trkpt lat="46.50133" lon="6.20306">
        <ele>1387</ele>
        <time>2016-07-15T13:59:52Z</time>
      </trkpt>
      <trkpt lat="46.5012" lon="6.20332">
        <ele>1386</ele>
        <time>2016-07-15T13:59:57Z</time>
      </trkpt>
      <trkpt lat="46.50099" lon="6.20316">
        <ele>1386</ele>
        <time>2016-07-15T14:00:01Z</time>
      </trkpt>
      <trkpt lat="46.50082" lon="6.20291">
        <ele>1389</ele>
        <time>2016-07-15T14:00:06Z</time>
      </trkpt>
      <trkpt lat="46.50074" lon="6.20272">
        <ele>1389</ele>
        <time>2016-07-15T14:00:10Z</time>
      </trkpt>
      <trkpt lat="46.50065" lon="6.20254">
        <ele>1389</ele>
        <time>2016-07-15T14:00:14Z</time>
      </trkpt>
      <trkpt lat="46.5005" lon="6.20236">
        <ele>1392</ele>
        <time>2016-07-15T14:00:19Z</time>
      </trkpt>
      <trkpt lat="46.50039" lon="6.20225">
        <ele>1392</ele>
        <time>2016-07-15T14:00:23Z</time>
      </trkpt>
      <trkpt lat="46.50023" lon="6.20212">
        <ele>1392</ele>
        <time>2016-07-15T14:00:28Z</time>
      </trkpt>
      <trkpt lat="46.50007" lon="6.202">
        <ele>1392</ele>
        <time>2016-07-15T14:00:33Z</time>
      </trkpt>
      <trkpt lat="46.49993" lon="6.20191">
        <ele>1392</ele>
        <time>2016-07-15T14:00:38Z</time>
      </trkpt>
      <trkpt lat="46.49984" lon="6.20183">
        <ele>1392</ele>
        <time>2016-07-15T14:00:42Z</time>
      </trkpt>
      <trkpt lat="46.49977" lon="6.20178">
        <ele>1392</ele>
        <time>2016-07-15T14:01:11Z</time>
      </trkpt>
      <trkpt lat="46.49969" lon="6.20174">
        <ele>1392</ele>
        <time>2016-07-15T14:01:16Z</time>
      </trkpt>
      <trkpt lat="46.49963" lon="6.20165">
        <ele>1391</ele>
        <time>2016-07-15T14:02:10Z</time>
      </trkpt>
      <trkpt lat="46.49952" lon="6.20154">
        <ele>1392</ele>
        <time>2016-07-15T14:02:14Z</time>
      </trkpt>
      <trkpt lat="46.49933" lon="6.20131">
        <ele>1391</ele>
        <time>2016-07-15T14:02:18Z</time>
      </trkpt>
      <trkpt lat="46.49921" lon="6.20112">
        <ele>1390</ele>
        <time>2016-07-15T14:02:22Z</time>
      </trkpt>
      <trkpt lat="46.49912" lon="6.20102">
        <ele>1386</ele>
        <time>2016-07-15T14:02:23Z</time>
      </trkpt>
      <trkpt lat="46.49895" lon="6.20083">
        <ele>1386</ele>
        <time>2016-07-15T14:02:28Z</time>
      </trkpt>
      <trkpt lat="46.49865" lon="6.20048">
        <ele>1382</ele>
        <time>2016-07-15T14:02:33Z</time>
      </trkpt>
      <trkpt lat="46.49848" lon="6.20025">
        <ele>1380</ele>
        <time>2016-07-15T14:02:37Z</time>
      </trkpt>
      <trkpt lat="46.49831" lon="6.20009">
        <ele>1375</ele>
        <time>2016-07-15T14:02:41Z</time>
      </trkpt>
      <trkpt lat="46.49799" lon="6.19983">
        <ele>1372</ele>
        <time>2016-07-15T14:02:46Z</time>
      </trkpt>
      <trkpt lat="46.49777" lon="6.19968">
        <ele>1371</ele>
        <time>2016-07-15T14:02:50Z</time>
      </trkpt>
      <trkpt lat="46.49751" lon="6.19952">
        <ele>1369</ele>
        <time>2016-07-15T14:02:55Z</time>
      </trkpt>
      <trkpt lat="46.49727" lon="6.19954">
        <ele>1366</ele>
        <time>2016-07-15T14:03:00Z</time>
      </trkpt>
      <trkpt lat="46.49719" lon="6.19941">
        <ele>1366</ele>
        <time>2016-07-15T14:03:04Z</time>
      </trkpt>
      <trkpt lat="46.497" lon="6.19938">
        <ele>1365</ele>
        <time>2016-07-15T14:03:09Z</time>
      </trkpt>
      <trkpt lat="46.49689" lon="6.19927">
        <ele>1365</ele>
        <time>2016-07-15T14:03:13Z</time>
      </trkpt>
      <trkpt lat="46.49673" lon="6.19923">
        <ele>1365</ele>
        <time>2016-07-15T14:03:18Z</time>
      </trkpt>
      <trkpt lat="46.49666" lon="6.19921">
        <ele>1364</ele>
        <time>2016-07-15T14:03:22Z</time>
      </trkpt>
      <trkpt lat="46.49656" lon="6.1992">
        <ele>1364</ele>
        <time>2016-07-15T14:03:26Z</time>
      </trkpt>
      <trkpt lat="46.49648" lon="6.19915">
        <ele>1364</ele>
        <time>2016-07-15T14:03:29Z</time>
      </trkpt>
      <trkpt lat="46.49637" lon="6.19905">
        <ele>1363</ele>
        <time>2016-07-15T14:03:33Z</time>
      </trkpt>
      <trkpt lat="46.49626" lon="6.19898">
        <ele>1363</ele>
        <time>2016-07-15T14:03:37Z</time>
      </trkpt>
      <trkpt lat="46.49613" lon="6.19889">
        <ele>1363</ele>
        <time>2016-07-15T14:03:42Z</time>
      </trkpt>
      <trkpt lat="46.49597" lon="6.19875">
        <ele>1362</ele>
        <time>2016-07-15T14:03:47Z</time>
      </trkpt>
      <trkpt lat="46.49584" lon="6.19869">
        <ele>1362</ele>
        <time>2016-07-15T14:03:51Z</time>
      </trkpt>
      <trkpt lat="46.49571" lon="6.19864">
        <ele>1360</ele>
        <time>2016-07-15T14:03:55Z</time>
      </trkpt>
      <trkpt lat="46.49554" lon="6.19855">
        <ele>1360</ele>
        <time>2016-07-15T14:04:00Z</time>
      </trkpt>
      <trkpt lat="46.49545" lon="6.19843">
        <ele>1360</ele>
        <time>2016-07-15T14:04:04Z</time>
      </trkpt>
      <trkpt lat="46.49533" lon="6.19829">
        <ele>1362</ele>
        <time>2016-07-15T14:04:08Z</time>
      </trkpt>
      <trkpt lat="46.49521" lon="6.19816">
        <ele>1362</ele>
        <time>2016-07-15T14:04:12Z</time>
      </trkpt>
      <trkpt lat="46.49508" lon="6.198">
        <ele>1362</ele>
        <time>2016-07-15T14:04:17Z</time>
      </trkpt>
      <trkpt lat="46.49495" lon="6.19788">
        <ele>1360</ele>
        <time>2016-07-15T14:04:22Z</time>
      </trkpt>
      <trkpt lat="46.49485" lon="6.19783">
        <ele>1359</ele>
        <time>2016-07-15T14:04:25Z</time>
      </trkpt>
      <trkpt lat="46.49468" lon="6.19782">
        <ele>1359</ele>
        <time>2016-07-15T14:04:29Z</time>
      </trkpt>
      <trkpt lat="46.49454" lon="6.19775">
        <ele>1358</ele>
        <time>2016-07-15T14:04:34Z</time>
      </trkpt>
      <trkpt lat="46.49437" lon="6.19766">
        <ele>1357</ele>
        <time>2016-07-15T14:04:38Z</time>
      </trkpt>
      <trkpt lat="46.49424" lon="6.19756">
        <ele>1355</ele>
        <time>2016-07-15T14:04:42Z</time>
      </trkpt>
      <trkpt lat="46.49414" lon="6.19752">
        <ele>1354</ele>
        <time>2016-07-15T14:04:46Z</time>
      </trkpt>
      <trkpt lat="46.49406" lon="6.1975">
        <ele>1354</ele>
        <time>2016-07-15T14:04:51Z</time>
      </trkpt>
      <trkpt lat="46.49401" lon="6.19756">
        <ele>1352</ele>
        <time>2016-07-15T14:05:33Z</time>
      </trkpt>
      <trkpt lat="46.49395" lon="6.19766">
        <ele>1352</ele>
        <time>2016-07-15T14:05:40Z</time>
      </trkpt>
      <trkpt lat="46.49389" lon="6.19763">
        <ele>1352</ele>
        <time>2016-07-15T14:05:46Z</time>
      </trkpt>
      <trkpt lat="46.49384" lon="6.19762">
        <ele>1352</ele>
        <time>2016-07-15T14:05:49Z</time>
      </trkpt>
      <trkpt lat="46.4936" lon="6.19755">
        <ele>1352</ele>
        <time>2016-07-15T14:05:54Z</time>
      </trkpt>
      <trkpt lat="46.49348" lon="6.19758">
        <ele>1352</ele>
        <time>2016-07-15T14:05:56Z</time>
      </trkpt>
      <trkpt lat="46.49335" lon="6.19762">
        <ele>1352</ele>
        <time>2016-07-15T14:06:04Z</time>
      </trkpt>
      <trkpt lat="46.49332" lon="6.19764">
        <ele>1348</ele>
        <time>2016-07-15T14:06:25Z</time>
      </trkpt>
      <trkpt lat="46.4929" lon="6.198">
        <ele>1339</ele>
        <time>2016-07-15T14:06:30Z</time>
      </trkpt>
      <trkpt lat="46.49286" lon="6.19809">
        <ele>1338</ele>
        <time>2016-07-15T14:08:02Z</time>
      </trkpt>
      <trkpt lat="46.49281" lon="6.19815">
        <ele>1337</ele>
        <time>2016-07-15T14:08:06Z</time>
      </trkpt>
      <trkpt lat="46.49259" lon="6.19822">
        <ele>1331</ele>
        <time>2016-07-15T14:08:10Z</time>
      </trkpt>
      <trkpt lat="46.49248" lon="6.19824">
        <ele>1322</ele>
        <time>2016-07-15T14:08:15Z</time>
      </trkpt>
      <trkpt lat="46.49212" lon="6.19819">
        <ele>1315</ele>
        <time>2016-07-15T14:08:20Z</time>
      </trkpt>
      <trkpt lat="46.49206" lon="6.19811">
        <ele>1314</ele>
        <time>2016-07-15T14:10:51Z</time>
      </trkpt>
      <trkpt lat="46.49191" lon="6.19799">
        <ele>1312</ele>
        <time>2016-07-15T14:10:55Z</time>
      </trkpt>
      <trkpt lat="46.49169" lon="6.19771">
        <ele>1311</ele>
        <time>2016-07-15T14:10:59Z</time>
      </trkpt>
      <trkpt lat="46.49152" lon="6.19749">
        <ele>1299</ele>
        <time>2016-07-15T14:11:04Z</time>
      </trkpt>
      <trkpt lat="46.49147" lon="6.19731">
        <ele>1295</ele>
        <time>2016-07-15T14:11:08Z</time>
      </trkpt>
      <trkpt lat="46.49142" lon="6.19717">
        <ele>1293</ele>
        <time>2016-07-15T14:11:12Z</time>
      </trkpt>
      <trkpt lat="46.49136" lon="6.19708">
        <ele>1291</ele>
        <time>2016-07-15T14:11:16Z</time>
      </trkpt>
      <trkpt lat="46.49133" lon="6.197">
        <ele>1291</ele>
        <time>2016-07-15T14:11:19Z</time>
      </trkpt>
      <trkpt lat="46.49129" lon="6.19689">
        <ele>1290</ele>
        <time>2016-07-15T14:11:25Z</time>
      </trkpt>
      <trkpt lat="46.49117" lon="6.19662">
        <ele>1287</ele>
        <time>2016-07-15T14:11:29Z</time>
      </trkpt>
      <trkpt lat="46.49111" lon="6.19643">
        <ele>1286</ele>
        <time>2016-07-15T14:11:33Z</time>
      </trkpt>
      <trkpt lat="46.49109" lon="6.19631">
        <ele>1286</ele>
        <time>2016-07-15T14:11:37Z</time>
      </trkpt>
      <trkpt lat="46.4911" lon="6.1962">
        <ele>1286</ele>
        <time>2016-07-15T14:11:42Z</time>
      </trkpt>
      <trkpt lat="46.49109" lon="6.19603">
        <ele>1285</ele>
        <time>2016-07-15T14:11:46Z</time>
      </trkpt>
      <trkpt lat="46.49108" lon="6.19586">
        <ele>1284</ele>
        <time>2016-07-15T14:11:51Z</time>
      </trkpt>
      <trkpt lat="46.49109" lon="6.19597">
        <ele>1285</ele>
        <time>2016-07-15T14:13:56Z</time>
      </trkpt>
      <trkpt lat="46.49117" lon="6.19604">
        <ele>1287</ele>
        <time>2016-07-15T14:14:01Z</time>
      </trkpt>
      <trkpt lat="46.49117" lon="6.19591">
        <ele>1287</ele>
        <time>2016-07-15T14:14:37Z</time>
      </trkpt>
      <trkpt lat="46.49114" lon="6.19579">
        <ele>1285</ele>
        <time>2016-07-15T14:16:11Z</time>
      </trkpt>
      <trkpt lat="46.49118" lon="6.19564">
        <ele>1286</ele>
        <time>2016-07-15T14:16:15Z</time>
      </trkpt>
      <trkpt lat="46.49121" lon="6.19534">
        <ele>1286</ele>
        <time>2016-07-15T14:16:19Z</time>
      </trkpt>
      <trkpt lat="46.49115" lon="6.19502">
        <ele>1284</ele>
        <time>2016-07-15T14:16:23Z</time>
      </trkpt>
      <trkpt lat="46.491" lon="6.19489">
        <ele>1278</ele>
        <time>2016-07-15T14:16:27Z</time>
      </trkpt>
      <trkpt lat="46.49083" lon="6.19458">
        <ele>1262</ele>
        <time>2016-07-15T14:16:31Z</time>
      </trkpt>
      <trkpt lat="46.49071" lon="6.1944">
        <ele>1261</ele>
        <time>2016-07-15T14:16:36Z</time>
      </trkpt>
      <trkpt lat="46.49068" lon="6.19437">
        <ele>1261</ele>
        <time>2016-07-15T14:17:19Z</time>
      </trkpt>
      <trkpt lat="46.49045" lon="6.19396">
        <ele>1249</ele>
        <time>2016-07-15T14:17:23Z</time>
      </trkpt>
      <trkpt lat="46.49041" lon="6.19385">
        <ele>1247</ele>
        <time>2016-07-15T14:17:48Z</time>
      </trkpt>
      <trkpt lat="46.49042" lon="6.19373">
        <ele>1247</ele>
        <time>2016-07-15T14:17:52Z</time>
      </trkpt>
      <trkpt lat="46.4904" lon="6.19361">
        <ele>1245</ele>
        <time>2016-07-15T14:17:56Z</time>
      </trkpt>
      <trkpt lat="46.49039" lon="6.19338">
        <ele>1244</ele>
        <time>2016-07-15T14:18:00Z</time>
      </trkpt>
      <trkpt lat="46.49038" lon="6.19322">
        <ele>1236</ele>
        <time>2016-07-15T14:18:04Z</time>
      </trkpt>
      <trkpt lat="46.49045" lon="6.19314">
        <ele>1238</ele>
        <time>2016-07-15T14:18:11Z</time>
      </trkpt>
      <trkpt lat="46.49046" lon="6.19298">
        <ele>1237</ele>
        <time>2016-07-15T14:18:16Z</time>
      </trkpt>
      <trkpt lat="46.49052" lon="6.19291">
        <ele>1237</ele>
        <time>2016-07-15T14:18:20Z</time>
      </trkpt>
      <trkpt lat="46.49061" lon="6.19287">
        <ele>1238</ele>
        <time>2016-07-15T14:18:25Z</time>
      </trkpt>
      <trkpt lat="46.49056" lon="6.19277">
        <ele>1237</ele>
        <time>2016-07-15T14:18:41Z</time>
      </trkpt>
      <trkpt lat="46.4905" lon="6.19275">
        <ele>1236</ele>
        <time>2016-07-15T14:19:09Z</time>
      </trkpt>
      <trkpt lat="46.49021" lon="6.19273">
        <ele>1231</ele>
        <time>2016-07-15T14:19:14Z</time>
      </trkpt>
      <trkpt lat="46.48989" lon="6.19268">
        <ele>1216</ele>
        <time>2016-07-15T14:19:18Z</time>
      </trkpt>
      <trkpt lat="46.48969" lon="6.19258">
        <ele>1214</ele>
        <time>2016-07-15T14:19:23Z</time>
      </trkpt>
      <trkpt lat="46.48955" lon="6.19257">
        <ele>1213</ele>
        <time>2016-07-15T14:19:27Z</time>
      </trkpt>
      <trkpt lat="46.48938" lon="6.1926">
        <ele>1211</ele>
        <time>2016-07-15T14:19:32Z</time>
      </trkpt>
      <trkpt lat="46.48943" lon="6.1925">
        <ele>1211</ele>
        <time>2016-07-15T14:19:52Z</time>
      </trkpt>
      <trkpt lat="46.48951" lon="6.19244">
        <ele>1210</ele>
        <time>2016-07-15T14:19:57Z</time>
      </trkpt>
      <trkpt lat="46.48959" lon="6.19241">
        <ele>1211</ele>
        <time>2016-07-15T14:20:01Z</time>
      </trkpt>
      <trkpt lat="46.48967" lon="6.19235">
        <ele>1212</ele>
        <time>2016-07-15T14:20:06Z</time>
      </trkpt>
      <trkpt lat="46.48976" lon="6.19228">
        <ele>1213</ele>
        <time>2016-07-15T14:20:10Z</time>
      </trkpt>
      <trkpt lat="46.48986" lon="6.19227">
        <ele>1214</ele>
        <time>2016-07-15T14:20:15Z</time>
      </trkpt>
      <trkpt lat="46.48995" lon="6.19223">
        <ele>1214</ele>
        <time>2016-07-15T14:20:19Z</time>
      </trkpt>
      <trkpt lat="46.49005" lon="6.19218">
        <ele>1224</ele>
        <time>2016-07-15T14:20:24Z</time>
      </trkpt>
      <trkpt lat="46.49021" lon="6.19216">
        <ele>1225</ele>
        <time>2016-07-15T14:20:29Z</time>
      </trkpt>
      <trkpt lat="46.49031" lon="6.19214">
        <ele>1226</ele>
        <time>2016-07-15T14:20:33Z</time>
      </trkpt>
      <trkpt lat="46.49044" lon="6.19216">
        <ele>1227</ele>
        <time>2016-07-15T14:20:38Z</time>
      </trkpt>
      <trkpt lat="46.49058" lon="6.19217">
        <ele>1229</ele>
        <time>2016-07-15T14:20:43Z</time>
      </trkpt>
      <trkpt lat="46.49067" lon="6.19215">
        <ele>1230</ele>
        <time>2016-07-15T14:20:46Z</time>
      </trkpt>
      <trkpt lat="46.49075" lon="6.19206">
        <ele>1230</ele>
        <time>2016-07-15T14:20:50Z</time>
      </trkpt>
      <trkpt lat="46.49083" lon="6.19195">
        <ele>1230</ele>
        <time>2016-07-15T14:20:54Z</time>
      </trkpt>
      <trkpt lat="46.4909" lon="6.19182">
        <ele>1238</ele>
        <time>2016-07-15T14:20:58Z</time>
      </trkpt>
      <trkpt lat="46.49096" lon="6.19171">
        <ele>1237</ele>
        <time>2016-07-15T14:21:02Z</time>
      </trkpt>
      <trkpt lat="46.49096" lon="6.19156">
        <ele>1233</ele>
        <time>2016-07-15T14:21:06Z</time>
      </trkpt>
      <trkpt lat="46.49092" lon="6.19139">
        <ele>1233</ele>
        <time>2016-07-15T14:21:11Z</time>
      </trkpt>
      <trkpt lat="46.49096" lon="6.19114">
        <ele>1231</ele>
        <time>2016-07-15T14:21:16Z</time>
      </trkpt>
      <trkpt lat="46.49104" lon="6.19111">
        <ele>1232</ele>
        <time>2016-07-15T14:21:23Z</time>
      </trkpt>
      <trkpt lat="46.49112" lon="6.19115">
        <ele>1233</ele>
        <time>2016-07-15T14:21:27Z</time>
      </trkpt>
      <trkpt lat="46.49119" lon="6.19108">
        <ele>1234</ele>
        <time>2016-07-15T14:21:35Z</time>
      </trkpt>
      <trkpt lat="46.49126" lon="6.19099">
        <ele>1234</ele>
        <time>2016-07-15T14:21:40Z</time>
      </trkpt>
      <trkpt lat="46.49132" lon="6.19088">
        <ele>1235</ele>
        <time>2016-07-15T14:21:44Z</time>
      </trkpt>
      <trkpt lat="46.49137" lon="6.19067">
        <ele>1230</ele>
        <time>2016-07-15T14:21:49Z</time>
      </trkpt>
      <trkpt lat="46.49138" lon="6.19047">
        <ele>1228</ele>
        <time>2016-07-15T14:21:53Z</time>
      </trkpt>
      <trkpt lat="46.49138" lon="6.19028">
        <ele>1228</ele>
        <time>2016-07-15T14:21:58Z</time>
      </trkpt>
      <trkpt lat="46.49142" lon="6.19005">
        <ele>1228</ele>
        <time>2016-07-15T14:22:03Z</time>
      </trkpt>
      <trkpt lat="46.49149" lon="6.18992">
        <ele>1226</ele>
        <time>2016-07-15T14:22:07Z</time>
      </trkpt>
      <trkpt lat="46.49159" lon="6.18987">
        <ele>1227</ele>
        <time>2016-07-15T14:22:12Z</time>
      </trkpt>
      <trkpt lat="46.49167" lon="6.18975">
        <ele>1225</ele>
        <time>2016-07-15T14:22:16Z</time>
      </trkpt>
      <trkpt lat="46.49177" lon="6.18954">
        <ele>1239</ele>
        <time>2016-07-15T14:22:21Z</time>
      </trkpt>
      <trkpt lat="46.49185" lon="6.18931">
        <ele>1237</ele>
        <time>2016-07-15T14:22:26Z</time>
      </trkpt>
      <trkpt lat="46.49186" lon="6.18917">
        <ele>1236</ele>
        <time>2016-07-15T14:22:29Z</time>
      </trkpt>
      <trkpt lat="46.49184" lon="6.18902">
        <ele>1235</ele>
        <time>2016-07-15T14:22:32Z</time>
      </trkpt>
      <trkpt lat="46.49179" lon="6.18884">
        <ele>1236</ele>
        <time>2016-07-15T14:22:36Z</time>
      </trkpt>
      <trkpt lat="46.49172" lon="6.18861">
        <ele>1235</ele>
        <time>2016-07-15T14:22:41Z</time>
      </trkpt>
      <trkpt lat="46.49171" lon="6.18846">
        <ele>1232</ele>
        <time>2016-07-15T14:22:44Z</time>
      </trkpt>
      <trkpt lat="46.49172" lon="6.1882">
        <ele>1234</ele>
        <time>2016-07-15T14:22:48Z</time>
      </trkpt>
      <trkpt lat="46.4917" lon="6.1879">
        <ele>1239</ele>
        <time>2016-07-15T14:22:53Z</time>
      </trkpt>
      <trkpt lat="46.49165" lon="6.18767">
        <ele>1229</ele>
        <time>2016-07-15T14:22:57Z</time>
      </trkpt>
      <trkpt lat="46.49145" lon="6.18749">
        <ele>1235</ele>
        <time>2016-07-15T14:23:01Z</time>
      </trkpt>
      <trkpt lat="46.49119" lon="6.18739">
        <ele>1232</ele>
        <time>2016-07-15T14:23:06Z</time>
      </trkpt>
      <trkpt lat="46.49104" lon="6.18729">
        <ele>1231</ele>
        <time>2016-07-15T14:23:10Z</time>
      </trkpt>
      <trkpt lat="46.49085" lon="6.18714">
        <ele>1232</ele>
        <time>2016-07-15T14:23:15Z</time>
      </trkpt>
      <trkpt lat="46.49075" lon="6.18697">
        <ele>1221</ele>
        <time>2016-07-15T14:23:19Z</time>
      </trkpt>
      <trkpt lat="46.49067" lon="6.18676">
        <ele>1224</ele>
        <time>2016-07-15T14:23:23Z</time>
      </trkpt>
      <trkpt lat="46.49059" lon="6.18657">
        <ele>1228</ele>
        <time>2016-07-15T14:23:28Z</time>
      </trkpt>
      <trkpt lat="46.49054" lon="6.18625">
        <ele>1227</ele>
        <time>2016-07-15T14:23:33Z</time>
      </trkpt>
      <trkpt lat="46.49055" lon="6.18599">
        <ele>1229</ele>
        <time>2016-07-15T14:23:37Z</time>
      </trkpt>
      <trkpt lat="46.49052" lon="6.18573">
        <ele>1234</ele>
        <time>2016-07-15T14:23:41Z</time>
      </trkpt>
      <trkpt lat="46.49052" lon="6.1855">
        <ele>1234</ele>
        <time>2016-07-15T14:23:45Z</time>
      </trkpt>
      <trkpt lat="46.49045" lon="6.18518">
        <ele>1235</ele>
        <time>2016-07-15T14:23:50Z</time>
      </trkpt>
      <trkpt lat="46.49026" lon="6.18492">
        <ele>1240</ele>
        <time>2016-07-15T14:23:54Z</time>
      </trkpt>
      <trkpt lat="46.49016" lon="6.18481">
        <ele>1239</ele>
        <time>2016-07-15T14:23:58Z</time>
      </trkpt>
      <trkpt lat="46.48999" lon="6.1845">
        <ele>1231</ele>
        <time>2016-07-15T14:24:02Z</time>
      </trkpt>
      <trkpt lat="46.48984" lon="6.18434">
        <ele>1233</ele>
        <time>2016-07-15T14:24:07Z</time>
      </trkpt>
      <trkpt lat="46.4897" lon="6.18414">
        <ele>1242</ele>
        <time>2016-07-15T14:24:11Z</time>
      </trkpt>
      <trkpt lat="46.48958" lon="6.18399">
        <ele>1241</ele>
        <time>2016-07-15T14:24:14Z</time>
      </trkpt>
      <trkpt lat="46.48938" lon="6.18367">
        <ele>1242</ele>
        <time>2016-07-15T14:24:19Z</time>
      </trkpt>
      <trkpt lat="46.4893" lon="6.1835">
        <ele>1242</ele>
        <time>2016-07-15T14:24:22Z</time>
      </trkpt>
      <trkpt lat="46.48915" lon="6.18329">
        <ele>1240</ele>
        <time>2016-07-15T14:24:26Z</time>
      </trkpt>
      <trkpt lat="46.48903" lon="6.18308">
        <ele>1239</ele>
        <time>2016-07-15T14:24:31Z</time>
      </trkpt>
      <trkpt lat="46.48895" lon="6.18293">
        <ele>1239</ele>
        <time>2016-07-15T14:24:35Z</time>
      </trkpt>
      <trkpt lat="46.48876" lon="6.18275">
        <ele>1239</ele>
        <time>2016-07-15T14:24:39Z</time>
      </trkpt>
      <trkpt lat="46.48864" lon="6.18245">
        <ele>1246</ele>
        <time>2016-07-15T14:24:44Z</time>
      </trkpt>
      <trkpt lat="46.48855" lon="6.18225">
        <ele>1246</ele>
        <time>2016-07-15T14:24:48Z</time>
      </trkpt>
      <trkpt lat="46.48845" lon="6.18205">
        <ele>1247</ele>
        <time>2016-07-15T14:24:52Z</time>
      </trkpt>
      <trkpt lat="46.48825" lon="6.1818">
        <ele>1238</ele>
        <time>2016-07-15T14:24:57Z</time>
      </trkpt>
      <trkpt lat="46.48799" lon="6.18162">
        <ele>1240</ele>
        <time>2016-07-15T14:25:02Z</time>
      </trkpt>
      <trkpt lat="46.48781" lon="6.18152">
        <ele>1238</ele>
        <time>2016-07-15T14:25:07Z</time>
      </trkpt>
      <trkpt lat="46.4877" lon="6.18141">
        <ele>1237</ele>
        <time>2016-07-15T14:25:11Z</time>
      </trkpt>
      <trkpt lat="46.48759" lon="6.18128">
        <ele>1237</ele>
        <time>2016-07-15T14:25:15Z</time>
      </trkpt>
      <trkpt lat="46.48746" lon="6.18111">
        <ele>1228</ele>
        <time>2016-07-15T14:25:20Z</time>
      </trkpt>
      <trkpt lat="46.48738" lon="6.18097">
        <ele>1230</ele>
        <time>2016-07-15T14:25:24Z</time>
      </trkpt>
      <trkpt lat="46.48726" lon="6.18083">
        <ele>1235</ele>
        <time>2016-07-15T14:25:28Z</time>
      </trkpt>
      <trkpt lat="46.48715" lon="6.18067">
        <ele>1235</ele>
        <time>2016-07-15T14:25:32Z</time>
      </trkpt>
      <trkpt lat="46.48705" lon="6.18043">
        <ele>1236</ele>
        <time>2016-07-15T14:25:37Z</time>
      </trkpt>
      <trkpt lat="46.48706" lon="6.18021">
        <ele>1238</ele>
        <time>2016-07-15T14:25:41Z</time>
      </trkpt>
      <trkpt lat="46.48713" lon="6.18004">
        <ele>1239</ele>
        <time>2016-07-15T14:25:45Z</time>
      </trkpt>
      <trkpt lat="46.48727" lon="6.17997">
        <ele>1244</ele>
        <time>2016-07-15T14:25:49Z</time>
      </trkpt>
      <trkpt lat="46.48742" lon="6.17996">
        <ele>1244</ele>
        <time>2016-07-15T14:25:54Z</time>
      </trkpt>
      <trkpt lat="46.4875" lon="6.17994">
        <ele>1244</ele>
        <time>2016-07-15T14:25:57Z</time>
      </trkpt>
      <trkpt lat="46.48764" lon="6.17989">
        <ele>1246</ele>
        <time>2016-07-15T14:26:01Z</time>
      </trkpt>
      <trkpt lat="46.48774" lon="6.17983">
        <ele>1248</ele>
        <time>2016-07-15T14:26:06Z</time>
      </trkpt>
      <trkpt lat="46.48785" lon="6.1798">
        <ele>1248</ele>
        <time>2016-07-15T14:26:10Z</time>
      </trkpt>
      <trkpt lat="46.48795" lon="6.17977">
        <ele>1249</ele>
        <time>2016-07-15T14:26:14Z</time>
      </trkpt>
      <trkpt lat="46.48807" lon="6.17971">
        <ele>1249</ele>
        <time>2016-07-15T14:26:19Z</time>
      </trkpt>
      <trkpt lat="46.48816" lon="6.17965">
        <ele>1250</ele>
        <time>2016-07-15T14:26:23Z</time>
      </trkpt>
      <trkpt lat="46.48824" lon="6.17953">
        <ele>1250</ele>
        <time>2016-07-15T14:26:27Z</time>
      </trkpt>
      <trkpt lat="46.48829" lon="6.17931">
        <ele>1250</ele>
        <time>2016-07-15T14:26:32Z</time>
      </trkpt>
      <trkpt lat="46.48833" lon="6.17918">
        <ele>1250</ele>
        <time>2016-07-15T14:26:36Z</time>
      </trkpt>
      <trkpt lat="46.48826" lon="6.17909">
        <ele>1250</ele>
        <time>2016-07-15T14:26:41Z</time>
      </trkpt>
      <trkpt lat="46.4882" lon="6.17899">
        <ele>1250</ele>
        <time>2016-07-15T14:26:46Z</time>
      </trkpt>
      <trkpt lat="46.48822" lon="6.17889">
        <ele>1250</ele>
        <time>2016-07-15T14:27:07Z</time>
      </trkpt>
      <trkpt lat="46.48817" lon="6.17872">
        <ele>1250</ele>
        <time>2016-07-15T14:27:12Z</time>
      </trkpt>
      <trkpt lat="46.48815" lon="6.17862">
        <ele>1250</ele>
        <time>2016-07-15T14:27:23Z</time>
      </trkpt>
      <trkpt lat="46.48812" lon="6.1785">
        <ele>1250</ele>
        <time>2016-07-15T14:27:42Z</time>
      </trkpt>
      <trkpt lat="46.48809" lon="6.1784">
        <ele>1249</ele>
        <time>2016-07-15T14:33:52Z</time>
      </trkpt>
      <trkpt lat="46.48806" lon="6.17826">
        <ele>1251</ele>
        <time>2016-07-15T14:33:56Z</time>
      </trkpt>
      <trkpt lat="46.48804" lon="6.17804">
        <ele>1252</ele>
        <time>2016-07-15T14:34:00Z</time>
      </trkpt>
      <trkpt lat="46.48807" lon="6.17778">
        <ele>1253</ele>
        <time>2016-07-15T14:34:05Z</time>
      </trkpt>
      <trkpt lat="46.48817" lon="6.1776">
        <ele>1252</ele>
        <time>2016-07-15T14:34:09Z</time>
      </trkpt>
      <trkpt lat="46.48834" lon="6.17745">
        <ele>1253</ele>
        <time>2016-07-15T14:34:14Z</time>
      </trkpt>
      <trkpt lat="46.48844" lon="6.17736">
        <ele>1255</ele>
        <time>2016-07-15T14:34:18Z</time>
      </trkpt>
      <trkpt lat="46.48853" lon="6.17725">
        <ele>1256</ele>
        <time>2016-07-15T14:34:23Z</time>
      </trkpt>
      <trkpt lat="46.48864" lon="6.17714">
        <ele>1257</ele>
        <time>2016-07-15T14:34:28Z</time>
      </trkpt>
      <trkpt lat="46.48875" lon="6.17707">
        <ele>1257</ele>
        <time>2016-07-15T14:34:32Z</time>
      </trkpt>
      <trkpt lat="46.48887" lon="6.177">
        <ele>1258</ele>
        <time>2016-07-15T14:34:36Z</time>
      </trkpt>
      <trkpt lat="46.48899" lon="6.17688">
        <ele>1258</ele>
        <time>2016-07-15T14:34:41Z</time>
      </trkpt>
      <trkpt lat="46.48904" lon="6.17684">
        <ele>1259</ele>
        <time>2016-07-15T14:34:46Z</time>
      </trkpt>
      <trkpt lat="46.48915" lon="6.17669">
        <ele>1261</ele>
        <time>2016-07-15T14:34:50Z</time>
      </trkpt>
      <trkpt lat="46.48923" lon="6.17658">
        <ele>1261</ele>
        <time>2016-07-15T14:34:53Z</time>
      </trkpt>
      <trkpt lat="46.48931" lon="6.17649">
        <ele>1262</ele>
        <time>2016-07-15T14:34:57Z</time>
      </trkpt>
      <trkpt lat="46.48941" lon="6.17641">
        <ele>1262</ele>
        <time>2016-07-15T14:35:00Z</time>
      </trkpt>
      <trkpt lat="46.48948" lon="6.1763">
        <ele>1262</ele>
        <time>2016-07-15T14:35:05Z</time>
      </trkpt>
      <trkpt lat="46.48953" lon="6.17612">
        <ele>1263</ele>
        <time>2016-07-15T14:35:09Z</time>
      </trkpt>
      <trkpt lat="46.48958" lon="6.17593">
        <ele>1263</ele>
        <time>2016-07-15T14:35:13Z</time>
      </trkpt>
      <trkpt lat="46.4897" lon="6.17572">
        <ele>1271</ele>
        <time>2016-07-15T14:35:18Z</time>
      </trkpt>
      <trkpt lat="46.4898" lon="6.17559">
        <ele>1271</ele>
        <time>2016-07-15T14:35:22Z</time>
      </trkpt>
      <trkpt lat="46.48991" lon="6.17541">
        <ele>1273</ele>
        <time>2016-07-15T14:35:26Z</time>
      </trkpt>
      <trkpt lat="46.49008" lon="6.17519">
        <ele>1270</ele>
        <time>2016-07-15T14:35:31Z</time>
      </trkpt>
      <trkpt lat="46.49014" lon="6.17502">
        <ele>1272</ele>
        <time>2016-07-15T14:35:35Z</time>
      </trkpt>
      <trkpt lat="46.49021" lon="6.17505">
        <ele>1270</ele>
        <time>2016-07-15T14:36:02Z</time>
      </trkpt>
      <trkpt lat="46.49032" lon="6.17503">
        <ele>1268</ele>
        <time>2016-07-15T14:36:07Z</time>
      </trkpt>
      <trkpt lat="46.4905" lon="6.17493">
        <ele>1271</ele>
        <time>2016-07-15T14:36:12Z</time>
      </trkpt>
      <trkpt lat="46.49063" lon="6.17486">
        <ele>1270</ele>
        <time>2016-07-15T14:36:15Z</time>
      </trkpt>
      <trkpt lat="46.49083" lon="6.17454">
        <ele>1270</ele>
        <time>2016-07-15T14:36:20Z</time>
      </trkpt>
      <trkpt lat="46.49085" lon="6.17425">
        <ele>1266</ele>
        <time>2016-07-15T14:36:24Z</time>
      </trkpt>
      <trkpt lat="46.49084" lon="6.17389">
        <ele>1263</ele>
        <time>2016-07-15T14:36:28Z</time>
      </trkpt>
      <trkpt lat="46.49085" lon="6.17355">
        <ele>1262</ele>
        <time>2016-07-15T14:36:32Z</time>
      </trkpt>
      <trkpt lat="46.49083" lon="6.17321">
        <ele>1265</ele>
        <time>2016-07-15T14:36:37Z</time>
      </trkpt>
      <trkpt lat="46.49081" lon="6.17297">
        <ele>1267</ele>
        <time>2016-07-15T14:36:41Z</time>
      </trkpt>
      <trkpt lat="46.49076" lon="6.17267">
        <ele>1265</ele>
        <time>2016-07-15T14:36:46Z</time>
      </trkpt>
      <trkpt lat="46.4907" lon="6.1724">
        <ele>1263</ele>
        <time>2016-07-15T14:36:50Z</time>
      </trkpt>
      <trkpt lat="46.49065" lon="6.17218">
        <ele>1264</ele>
        <time>2016-07-15T14:36:55Z</time>
      </trkpt>
      <trkpt lat="46.49054" lon="6.17192">
        <ele>1264</ele>
        <time>2016-07-15T14:37:00Z</time>
      </trkpt>
      <trkpt lat="46.49045" lon="6.17172">
        <ele>1265</ele>
        <time>2016-07-15T14:37:05Z</time>
      </trkpt>
      <trkpt lat="46.49034" lon="6.17145">
        <ele>1268</ele>
        <time>2016-07-15T14:37:09Z</time>
      </trkpt>
      <trkpt lat="46.49027" lon="6.17116">
        <ele>1270</ele>
        <time>2016-07-15T14:37:14Z</time>
      </trkpt>
      <trkpt lat="46.49026" lon="6.1711">
        <ele>1270</ele>
        <time>2016-07-15T14:37:15Z</time>
      </trkpt>
      <trkpt lat="46.49028" lon="6.17086">
        <ele>1271</ele>
        <time>2016-07-15T14:37:19Z</time>
      </trkpt>
      <trkpt lat="46.49029" lon="6.17061">
        <ele>1276</ele>
        <time>2016-07-15T14:37:23Z</time>
      </trkpt>
      <trkpt lat="46.49027" lon="6.17049">
        <ele>1276</ele>
        <time>2016-07-15T14:37:29Z</time>
      </trkpt>
      <trkpt lat="46.49026" lon="6.17038">
        <ele>1277</ele>
        <time>2016-07-15T14:37:34Z</time>
      </trkpt>
      <trkpt lat="46.49021" lon="6.17025">
        <ele>1277</ele>
        <time>2016-07-15T14:37:39Z</time>
      </trkpt>
      <trkpt lat="46.49019" lon="6.17013">
        <ele>1278</ele>
        <time>2016-07-15T14:37:44Z</time>
      </trkpt>
      <trkpt lat="46.49014" lon="6.17002">
        <ele>1279</ele>
        <time>2016-07-15T14:37:49Z</time>
      </trkpt>
      <trkpt lat="46.49007" lon="6.16993">
        <ele>1282</ele>
        <time>2016-07-15T14:37:54Z</time>
      </trkpt>
      <trkpt lat="46.48999" lon="6.16989">
        <ele>1283</ele>
        <time>2016-07-15T14:37:59Z</time>
      </trkpt>
      <trkpt lat="46.48994" lon="6.16979">
        <ele>1285</ele>
        <time>2016-07-15T14:38:07Z</time>
      </trkpt>
      <trkpt lat="46.4899" lon="6.16968">
        <ele>1286</ele>
        <time>2016-07-15T14:38:13Z</time>
      </trkpt>
      <trkpt lat="46.48984" lon="6.16959">
        <ele>1287</ele>
        <time>2016-07-15T14:38:19Z</time>
      </trkpt>
      <trkpt lat="46.48979" lon="6.16951">
        <ele>1288</ele>
        <time>2016-07-15T14:38:24Z</time>
      </trkpt>
      <trkpt lat="46.48975" lon="6.1694">
        <ele>1288</ele>
        <time>2016-07-15T14:38:29Z</time>
      </trkpt>
      <trkpt lat="46.48971" lon="6.16931">
        <ele>1289</ele>
        <time>2016-07-15T14:38:34Z</time>
      </trkpt>
      <trkpt lat="46.48971" lon="6.16919">
        <ele>1289</ele>
        <time>2016-07-15T14:38:40Z</time>
      </trkpt>
      <trkpt lat="46.48977" lon="6.16911">
        <ele>1292</ele>
        <time>2016-07-15T14:39:04Z</time>
      </trkpt>
      <trkpt lat="46.4898" lon="6.16901">
        <ele>1293</ele>
        <time>2016-07-15T14:39:13Z</time>
      </trkpt>
      <trkpt lat="46.48984" lon="6.1689">
        <ele>1293</ele>
        <time>2016-07-15T14:39:17Z</time>
      </trkpt>
      <trkpt lat="46.48989" lon="6.16881">
        <ele>1294</ele>
        <time>2016-07-15T14:39:21Z</time>
      </trkpt>
      <trkpt lat="46.48996" lon="6.16875">
        <ele>1294</ele>
        <time>2016-07-15T14:39:26Z</time>
      </trkpt>
      <trkpt lat="46.49002" lon="6.16861">
        <ele>1296</ele>
        <time>2016-07-15T14:39:31Z</time>
      </trkpt>
      <trkpt lat="46.49004" lon="6.16848">
        <ele>1297</ele>
        <time>2016-07-15T14:39:35Z</time>
      </trkpt>
      <trkpt lat="46.49007" lon="6.16838">
        <ele>1298</ele>
        <time>2016-07-15T14:39:40Z</time>
      </trkpt>
      <trkpt lat="46.49014" lon="6.16819">
        <ele>1301</ele>
        <time>2016-07-15T14:39:44Z</time>
      </trkpt>
      <trkpt lat="46.49011" lon="6.16803">
        <ele>1302</ele>
        <time>2016-07-15T14:39:49Z</time>
      </trkpt>
      <trkpt lat="46.49003" lon="6.16804">
        <ele>1301</ele>
        <time>2016-07-15T14:42:47Z</time>
      </trkpt>
      <trkpt lat="46.48998" lon="6.16796">
        <ele>1299</ele>
        <time>2016-07-15T14:42:52Z</time>
      </trkpt>
      <trkpt lat="46.48992" lon="6.16788">
        <ele>1299</ele>
        <time>2016-07-15T14:42:57Z</time>
      </trkpt>
      <trkpt lat="46.48985" lon="6.1678">
        <ele>1299</ele>
        <time>2016-07-15T14:43:03Z</time>
      </trkpt>
      <trkpt lat="46.48971" lon="6.16768">
        <ele>1299</ele>
        <time>2016-07-15T14:43:08Z</time>
      </trkpt>
      <trkpt lat="46.48958" lon="6.16756">
        <ele>1299</ele>
        <time>2016-07-15T14:43:12Z</time>
      </trkpt>
      <trkpt lat="46.48939" lon="6.16733">
        <ele>1300</ele>
        <time>2016-07-15T14:43:16Z</time>
      </trkpt>
      <trkpt lat="46.48922" lon="6.16714">
        <ele>1300</ele>
        <time>2016-07-15T14:43:21Z</time>
      </trkpt>
      <trkpt lat="46.48911" lon="6.16698">
        <ele>1293</ele>
        <time>2016-07-15T14:43:26Z</time>
      </trkpt>
      <trkpt lat="46.48904" lon="6.16681">
        <ele>1293</ele>
        <time>2016-07-15T14:43:31Z</time>
      </trkpt>
      <trkpt lat="46.48899" lon="6.16663">
        <ele>1295</ele>
        <time>2016-07-15T14:43:35Z</time>
      </trkpt>
      <trkpt lat="46.48895" lon="6.16643">
        <ele>1295</ele>
        <time>2016-07-15T14:43:40Z</time>
      </trkpt>
      <trkpt lat="46.48891" lon="6.16631">
        <ele>1295</ele>
        <time>2016-07-15T14:43:44Z</time>
      </trkpt>
      <trkpt lat="46.48888" lon="6.1662">
        <ele>1296</ele>
        <time>2016-07-15T14:43:48Z</time>
      </trkpt>
      <trkpt lat="46.48881" lon="6.16607">
        <ele>1296</ele>
        <time>2016-07-15T14:43:52Z</time>
      </trkpt>
      <trkpt lat="46.4887" lon="6.16588">
        <ele>1295</ele>
        <time>2016-07-15T14:43:56Z</time>
      </trkpt>
      <trkpt lat="46.48859" lon="6.16563">
        <ele>1297</ele>
        <time>2016-07-15T14:44:01Z</time>
      </trkpt>
      <trkpt lat="46.48852" lon="6.16546">
        <ele>1297</ele>
        <time>2016-07-15T14:44:06Z</time>
      </trkpt>
      <trkpt lat="46.48846" lon="6.16533">
        <ele>1297</ele>
        <time>2016-07-15T14:44:10Z</time>
      </trkpt>
      <trkpt lat="46.48839" lon="6.16517">
        <ele>1297</ele>
        <time>2016-07-15T14:44:14Z</time>
      </trkpt>
      <trkpt lat="46.48836" lon="6.16506">
        <ele>1296</ele>
        <time>2016-07-15T14:44:19Z</time>
      </trkpt>
      <trkpt lat="46.48829" lon="6.16496">
        <ele>1294</ele>
        <time>2016-07-15T14:44:23Z</time>
      </trkpt>
      <trkpt lat="46.48824" lon="6.16487">
        <ele>1294</ele>
        <time>2016-07-15T14:44:28Z</time>
      </trkpt>
      <trkpt lat="46.48817" lon="6.16484">
        <ele>1293</ele>
        <time>2016-07-15T14:44:33Z</time>
      </trkpt>
      <trkpt lat="46.48811" lon="6.16476">
        <ele>1293</ele>
        <time>2016-07-15T14:44:38Z</time>
      </trkpt>
      <trkpt lat="46.48805" lon="6.16466">
        <ele>1293</ele>
        <time>2016-07-15T14:44:44Z</time>
      </trkpt>
      <trkpt lat="46.48799" lon="6.16458">
        <ele>1293</ele>
        <time>2016-07-15T14:44:58Z</time>
      </trkpt>
      <trkpt lat="46.48796" lon="6.16448">
        <ele>1293</ele>
        <time>2016-07-15T14:45:06Z</time>
      </trkpt>
      <trkpt lat="46.48792" lon="6.16439">
        <ele>1293</ele>
        <time>2016-07-15T14:45:14Z</time>
      </trkpt>
      <trkpt lat="46.48788" lon="6.16428">
        <ele>1293</ele>
        <time>2016-07-15T14:45:18Z</time>
      </trkpt>
      <trkpt lat="46.48783" lon="6.16421">
        <ele>1292</ele>
        <time>2016-07-15T14:45:26Z</time>
      </trkpt>
      <trkpt lat="46.4878" lon="6.16411">
        <ele>1293</ele>
        <time>2016-07-15T14:45:34Z</time>
      </trkpt>
      <trkpt lat="46.48778" lon="6.16399">
        <ele>1292</ele>
        <time>2016-07-15T14:45:42Z</time>
      </trkpt>
      <trkpt lat="46.48785" lon="6.16392">
        <ele>1293</ele>
        <time>2016-07-15T14:45:52Z</time>
      </trkpt>
      <trkpt lat="46.48791" lon="6.16383">
        <ele>1293</ele>
        <time>2016-07-15T14:47:37Z</time>
      </trkpt>
      <trkpt lat="46.48795" lon="6.16374">
        <ele>1293</ele>
        <time>2016-07-15T14:47:41Z</time>
      </trkpt>
      <trkpt lat="46.48805" lon="6.16359">
        <ele>1293</ele>
        <time>2016-07-15T14:47:45Z</time>
      </trkpt>
      <trkpt lat="46.48829" lon="6.16346">
        <ele>1293</ele>
        <time>2016-07-15T14:47:49Z</time>
      </trkpt>
      <trkpt lat="46.48852" lon="6.16356">
        <ele>1296</ele>
        <time>2016-07-15T14:47:53Z</time>
      </trkpt>
      <trkpt lat="46.48879" lon="6.16363">
        <ele>1297</ele>
        <time>2016-07-15T14:47:57Z</time>
      </trkpt>
      <trkpt lat="46.48884" lon="6.1632">
        <ele>1293</ele>
        <time>2016-07-15T14:48:02Z</time>
      </trkpt>
      <trkpt lat="46.4888" lon="6.16293">
        <ele>1292</ele>
        <time>2016-07-15T14:48:05Z</time>
      </trkpt>
      <trkpt lat="46.48891" lon="6.16246">
        <ele>1285</ele>
        <time>2016-07-15T14:48:10Z</time>
      </trkpt>
      <trkpt lat="46.48912" lon="6.16223">
        <ele>1285</ele>
        <time>2016-07-15T14:48:14Z</time>
      </trkpt>
      <trkpt lat="46.48937" lon="6.16203">
        <ele>1287</ele>
        <time>2016-07-15T14:48:19Z</time>
      </trkpt>
      <trkpt lat="46.48958" lon="6.1619">
        <ele>1286</ele>
        <time>2016-07-15T14:48:23Z</time>
      </trkpt>
      <trkpt lat="46.48976" lon="6.16172">
        <ele>1285</ele>
        <time>2016-07-15T14:48:27Z</time>
      </trkpt>
      <trkpt lat="46.4899" lon="6.16147">
        <ele>1281</ele>
        <time>2016-07-15T14:48:31Z</time>
      </trkpt>
      <trkpt lat="46.49005" lon="6.1611">
        <ele>1283</ele>
        <time>2016-07-15T14:48:36Z</time>
      </trkpt>
      <trkpt lat="46.49007" lon="6.16094">
        <ele>1283</ele>
        <time>2016-07-15T14:48:40Z</time>
      </trkpt>
      <trkpt lat="46.4901" lon="6.16083">
        <ele>1282</ele>
        <time>2016-07-15T14:48:43Z</time>
      </trkpt>
      <trkpt lat="46.49015" lon="6.16055">
        <ele>1283</ele>
        <time>2016-07-15T14:48:48Z</time>
      </trkpt>
      <trkpt lat="46.49019" lon="6.1603">
        <ele>1283</ele>
        <time>2016-07-15T14:48:53Z</time>
      </trkpt>
      <trkpt lat="46.49022" lon="6.16014">
        <ele>1282</ele>
        <time>2016-07-15T14:48:57Z</time>
      </trkpt>
      <trkpt lat="46.49024" lon="6.15997">
        <ele>1282</ele>
        <time>2016-07-15T14:49:01Z</time>
      </trkpt>
      <trkpt lat="46.49026" lon="6.15984">
        <ele>1283</ele>
        <time>2016-07-15T14:49:04Z</time>
      </trkpt>
      <trkpt lat="46.4903" lon="6.15967">
        <ele>1283</ele>
        <time>2016-07-15T14:49:09Z</time>
      </trkpt>
      <trkpt lat="46.49044" lon="6.15953">
        <ele>1284</ele>
        <time>2016-07-15T14:49:13Z</time>
      </trkpt>
      <trkpt lat="46.49057" lon="6.15944">
        <ele>1285</ele>
        <time>2016-07-15T14:49:17Z</time>
      </trkpt>
      <trkpt lat="46.49069" lon="6.15934">
        <ele>1285</ele>
        <time>2016-07-15T14:49:21Z</time>
      </trkpt>
      <trkpt lat="46.49082" lon="6.15924">
        <ele>1286</ele>
        <time>2016-07-15T14:49:25Z</time>
      </trkpt>
      <trkpt lat="46.49094" lon="6.15914">
        <ele>1288</ele>
        <time>2016-07-15T14:49:29Z</time>
      </trkpt>
      <trkpt lat="46.49111" lon="6.15909">
        <ele>1289</ele>
        <time>2016-07-15T14:49:34Z</time>
      </trkpt>
      <trkpt lat="46.49124" lon="6.15909">
        <ele>1289</ele>
        <time>2016-07-15T14:49:39Z</time>
      </trkpt>
      <trkpt lat="46.4914" lon="6.15914">
        <ele>1289</ele>
        <time>2016-07-15T14:49:43Z</time>
      </trkpt>
      <trkpt lat="46.49156" lon="6.15919">
        <ele>1289</ele>
        <time>2016-07-15T14:49:48Z</time>
      </trkpt>
      <trkpt lat="46.49169" lon="6.15921">
        <ele>1290</ele>
        <time>2016-07-15T14:49:52Z</time>
      </trkpt>
      <trkpt lat="46.49181" lon="6.1592">
        <ele>1291</ele>
        <time>2016-07-15T14:49:55Z</time>
      </trkpt>
      <trkpt lat="46.49191" lon="6.15918">
        <ele>1293</ele>
        <time>2016-07-15T14:50:00Z</time>
      </trkpt>
      <trkpt lat="46.49199" lon="6.15916">
        <ele>1293</ele>
        <time>2016-07-15T14:50:04Z</time>
      </trkpt>
      <trkpt lat="46.49209" lon="6.15918">
        <ele>1294</ele>
        <time>2016-07-15T14:50:08Z</time>
      </trkpt>
      <trkpt lat="46.49217" lon="6.15925">
        <ele>1295</ele>
        <time>2016-07-15T14:50:12Z</time>
      </trkpt>
      <trkpt lat="46.49226" lon="6.15933">
        <ele>1295</ele>
        <time>2016-07-15T14:50:16Z</time>
      </trkpt>
      <trkpt lat="46.49243" lon="6.15939">
        <ele>1296</ele>
        <time>2016-07-15T14:50:21Z</time>
      </trkpt>
      <trkpt lat="46.49255" lon="6.15941">
        <ele>1298</ele>
        <time>2016-07-15T14:50:25Z</time>
      </trkpt>
      <trkpt lat="46.49267" lon="6.15937">
        <ele>1298</ele>
        <time>2016-07-15T14:50:29Z</time>
      </trkpt>
      <trkpt lat="46.49277" lon="6.15927">
        <ele>1298</ele>
        <time>2016-07-15T14:50:33Z</time>
      </trkpt>
      <trkpt lat="46.49285" lon="6.15917">
        <ele>1298</ele>
        <time>2016-07-15T14:50:37Z</time>
      </trkpt>
      <trkpt lat="46.4929" lon="6.1591">
        <ele>1301</ele>
        <time>2016-07-15T14:50:41Z</time>
      </trkpt>
      <trkpt lat="46.49298" lon="6.159">
        <ele>1301</ele>
        <time>2016-07-15T14:50:45Z</time>
      </trkpt>
      <trkpt lat="46.49307" lon="6.15893">
        <ele>1302</ele>
        <time>2016-07-15T14:50:49Z</time>
      </trkpt>
      <trkpt lat="46.49316" lon="6.15886">
        <ele>1302</ele>
        <time>2016-07-15T14:50:53Z</time>
      </trkpt>
      <trkpt lat="46.49323" lon="6.15879">
        <ele>1302</ele>
        <time>2016-07-15T14:50:57Z</time>
      </trkpt>
      <trkpt lat="46.49329" lon="6.15869">
        <ele>1303</ele>
        <time>2016-07-15T14:51:01Z</time>
      </trkpt>
      <trkpt lat="46.49338" lon="6.15856">
        <ele>1303</ele>
        <time>2016-07-15T14:51:06Z</time>
      </trkpt>
      <trkpt lat="46.4935" lon="6.15847">
        <ele>1303</ele>
        <time>2016-07-15T14:51:10Z</time>
      </trkpt>
      <trkpt lat="46.49358" lon="6.15841">
        <ele>1302</ele>
        <time>2016-07-15T14:51:15Z</time>
      </trkpt>
      <trkpt lat="46.49366" lon="6.15839">
        <ele>1302</ele>
        <time>2016-07-15T14:51:21Z</time>
      </trkpt>
      <trkpt lat="46.4938" lon="6.15839">
        <ele>1301</ele>
        <time>2016-07-15T14:51:26Z</time>
      </trkpt>
      <trkpt lat="46.4941" lon="6.15828">
        <ele>1300</ele>
        <time>2016-07-15T14:51:30Z</time>
      </trkpt>
      <trkpt lat="46.4944" lon="6.15856">
        <ele>1298</ele>
        <time>2016-07-15T14:51:35Z</time>
      </trkpt>
      <trkpt lat="46.49457" lon="6.15881">
        <ele>1297</ele>
        <time>2016-07-15T14:51:39Z</time>
      </trkpt>
      <trkpt lat="46.49466" lon="6.15914">
        <ele>1296</ele>
        <time>2016-07-15T14:51:43Z</time>
      </trkpt>
      <trkpt lat="46.49466" lon="6.15931">
        <ele>1293</ele>
        <time>2016-07-15T14:51:48Z</time>
      </trkpt>
      <trkpt lat="46.49469" lon="6.15942">
        <ele>1293</ele>
        <time>2016-07-15T14:52:33Z</time>
      </trkpt>
      <trkpt lat="46.4947" lon="6.15951">
        <ele>1292</ele>
        <time>2016-07-15T14:52:37Z</time>
      </trkpt>
      <trkpt lat="46.49478" lon="6.15982">
        <ele>1291</ele>
        <time>2016-07-15T14:52:42Z</time>
      </trkpt>
      <trkpt lat="46.49482" lon="6.16018">
        <ele>1288</ele>
        <time>2016-07-15T14:52:46Z</time>
      </trkpt>
      <trkpt lat="46.49487" lon="6.16051">
        <ele>1287</ele>
        <time>2016-07-15T14:52:50Z</time>
      </trkpt>
      <trkpt lat="46.4949" lon="6.16086">
        <ele>1283</ele>
        <time>2016-07-15T14:52:54Z</time>
      </trkpt>
      <trkpt lat="46.49497" lon="6.16126">
        <ele>1285</ele>
        <time>2016-07-15T14:52:59Z</time>
      </trkpt>
      <trkpt lat="46.49503" lon="6.16159">
        <ele>1281</ele>
        <time>2016-07-15T14:53:03Z</time>
      </trkpt>
      <trkpt lat="46.4951" lon="6.16195">
        <ele>1281</ele>
        <time>2016-07-15T14:53:07Z</time>
      </trkpt>
      <trkpt lat="46.49516" lon="6.16225">
        <ele>1280</ele>
        <time>2016-07-15T14:53:11Z</time>
      </trkpt>
      <trkpt lat="46.49523" lon="6.16253">
        <ele>1278</ele>
        <time>2016-07-15T14:53:15Z</time>
      </trkpt>
      <trkpt lat="46.49532" lon="6.16282">
        <ele>1280</ele>
        <time>2016-07-15T14:53:20Z</time>
      </trkpt>
      <trkpt lat="46.49535" lon="6.16298">
        <ele>1280</ele>
        <time>2016-07-15T14:53:24Z</time>
      </trkpt>
      <trkpt lat="46.49539" lon="6.16318">
        <ele>1280</ele>
        <time>2016-07-15T14:53:28Z</time>
      </trkpt>
      <trkpt lat="46.49547" lon="6.1634">
        <ele>1282</ele>
        <time>2016-07-15T14:53:33Z</time>
      </trkpt>
      <trkpt lat="46.49553" lon="6.16358">
        <ele>1282</ele>
        <time>2016-07-15T14:53:37Z</time>
      </trkpt>
      <trkpt lat="46.49558" lon="6.16377">
        <ele>1282</ele>
        <time>2016-07-15T14:53:41Z</time>
      </trkpt>
      <trkpt lat="46.49565" lon="6.16401">
        <ele>1281</ele>
        <time>2016-07-15T14:53:46Z</time>
      </trkpt>
      <trkpt lat="46.49569" lon="6.16421">
        <ele>1281</ele>
        <time>2016-07-15T14:53:50Z</time>
      </trkpt>
      <trkpt lat="46.49579" lon="6.16435">
        <ele>1282</ele>
        <time>2016-07-15T14:53:54Z</time>
      </trkpt>
      <trkpt lat="46.49591" lon="6.16446">
        <ele>1278</ele>
        <time>2016-07-15T14:53:58Z</time>
      </trkpt>
      <trkpt lat="46.49603" lon="6.16459">
        <ele>1278</ele>
        <time>2016-07-15T14:54:02Z</time>
      </trkpt>
      <trkpt lat="46.49619" lon="6.16475">
        <ele>1278</ele>
        <time>2016-07-15T14:54:07Z</time>
      </trkpt>
      <trkpt lat="46.49636" lon="6.16493">
        <ele>1278</ele>
        <time>2016-07-15T14:54:12Z</time>
      </trkpt>
      <trkpt lat="46.49648" lon="6.16511">
        <ele>1277</ele>
        <time>2016-07-15T14:54:16Z</time>
      </trkpt>
      <trkpt lat="46.4966" lon="6.16529">
        <ele>1277</ele>
        <time>2016-07-15T14:54:20Z</time>
      </trkpt>
      <trkpt lat="46.49673" lon="6.16546">
        <ele>1277</ele>
        <time>2016-07-15T14:54:24Z</time>
      </trkpt>
      <trkpt lat="46.49695" lon="6.16563">
        <ele>1277</ele>
        <time>2016-07-15T14:54:29Z</time>
      </trkpt>
      <trkpt lat="46.49709" lon="6.16567">
        <ele>1277</ele>
        <time>2016-07-15T14:54:32Z</time>
      </trkpt>
      <trkpt lat="46.49727" lon="6.16589">
        <ele>1274</ele>
        <time>2016-07-15T14:54:37Z</time>
      </trkpt>
      <trkpt lat="46.49732" lon="6.16615">
        <ele>1273</ele>
        <time>2016-07-15T14:54:42Z</time>
      </trkpt>
      <trkpt lat="46.49727" lon="6.16652">
        <ele>1272</ele>
        <time>2016-07-15T14:54:47Z</time>
      </trkpt>
      <trkpt lat="46.49733" lon="6.16687">
        <ele>1268</ele>
        <time>2016-07-15T14:54:51Z</time>
      </trkpt>
      <trkpt lat="46.49741" lon="6.16718">
        <ele>1267</ele>
        <time>2016-07-15T14:54:55Z</time>
      </trkpt>
      <trkpt lat="46.49751" lon="6.16748">
        <ele>1266</ele>
        <time>2016-07-15T14:54:59Z</time>
      </trkpt>
      <trkpt lat="46.49757" lon="6.16774">
        <ele>1267</ele>
        <time>2016-07-15T14:55:04Z</time>
      </trkpt>
      <trkpt lat="46.49764" lon="6.16805">
        <ele>1266</ele>
        <time>2016-07-15T14:55:08Z</time>
      </trkpt>
      <trkpt lat="46.49776" lon="6.16832">
        <ele>1266</ele>
        <time>2016-07-15T14:55:12Z</time>
      </trkpt>
      <trkpt lat="46.49784" lon="6.16853">
        <ele>1264</ele>
        <time>2016-07-15T14:55:17Z</time>
      </trkpt>
      <trkpt lat="46.49787" lon="6.16864">
        <ele>1264</ele>
        <time>2016-07-15T14:55:28Z</time>
      </trkpt>
      <trkpt lat="46.49793" lon="6.16871">
        <ele>1264</ele>
        <time>2016-07-15T14:55:36Z</time>
      </trkpt>
      <trkpt lat="46.49786" lon="6.16863">
        <ele>1264</ele>
        <time>2016-07-15T14:55:57Z</time>
      </trkpt>
      <trkpt lat="46.49791" lon="6.16871">
        <ele>1264</ele>
        <time>2016-07-15T14:56:10Z</time>
      </trkpt>
      <trkpt lat="46.49796" lon="6.16861">
        <ele>1265</ele>
        <time>2016-07-15T14:56:17Z</time>
      </trkpt>
      <trkpt lat="46.49799" lon="6.16871">
        <ele>1264</ele>
        <time>2016-07-15T14:56:31Z</time>
      </trkpt>
      <trkpt lat="46.49797" lon="6.16873">
        <ele>1264</ele>
        <time>2016-07-15T14:57:01Z</time>
      </trkpt>
      <trkpt lat="46.49804" lon="6.16896">
        <ele>1264</ele>
        <time>2016-07-15T14:57:05Z</time>
      </trkpt>
      <trkpt lat="46.49811" lon="6.16913">
        <ele>1263</ele>
        <time>2016-07-15T14:57:10Z</time>
      </trkpt>
      <trkpt lat="46.49819" lon="6.1693">
        <ele>1262</ele>
        <time>2016-07-15T14:57:14Z</time>
      </trkpt>
      <trkpt lat="46.49828" lon="6.1695">
        <ele>1262</ele>
        <time>2016-07-15T14:57:18Z</time>
      </trkpt>
      <trkpt lat="46.49839" lon="6.16974">
        <ele>1264</ele>
        <time>2016-07-15T14:57:22Z</time>
      </trkpt>
      <trkpt lat="46.49848" lon="6.16995">
        <ele>1263</ele>
        <time>2016-07-15T14:57:26Z</time>
      </trkpt>
      <trkpt lat="46.49856" lon="6.17015">
        <ele>1265</ele>
        <time>2016-07-15T14:57:30Z</time>
      </trkpt>
      <trkpt lat="46.49863" lon="6.1704">
        <ele>1266</ele>
        <time>2016-07-15T14:57:35Z</time>
      </trkpt>
      <trkpt lat="46.49868" lon="6.17062">
        <ele>1266</ele>
        <time>2016-07-15T14:57:39Z</time>
      </trkpt>
      <trkpt lat="46.4987" lon="6.17087">
        <ele>1269</ele>
        <time>2016-07-15T14:57:43Z</time>
      </trkpt>
      <trkpt lat="46.49878" lon="6.17101">
        <ele>1269</ele>
        <time>2016-07-15T14:57:47Z</time>
      </trkpt>
      <trkpt lat="46.4989" lon="6.17087">
        <ele>1270</ele>
        <time>2016-07-15T14:57:52Z</time>
      </trkpt>
      <trkpt lat="46.49908" lon="6.17072">
        <ele>1269</ele>
        <time>2016-07-15T14:57:56Z</time>
      </trkpt>
      <trkpt lat="46.49925" lon="6.17065">
        <ele>1273</ele>
        <time>2016-07-15T14:58:00Z</time>
      </trkpt>
      <trkpt lat="46.49942" lon="6.1706">
        <ele>1274</ele>
        <time>2016-07-15T14:58:04Z</time>
      </trkpt>
      <trkpt lat="46.49956" lon="6.17054">
        <ele>1274</ele>
        <time>2016-07-15T14:58:07Z</time>
      </trkpt>
      <trkpt lat="46.49974" lon="6.17049">
        <ele>1275</ele>
        <time>2016-07-15T14:58:11Z</time>
      </trkpt>
      <trkpt lat="46.49986" lon="6.17045">
        <ele>1276</ele>
        <time>2016-07-15T14:58:16Z</time>
      </trkpt>
      <trkpt lat="46.50007" lon="6.17048">
        <ele>1282</ele>
        <time>2016-07-15T14:58:19Z</time>
      </trkpt>
      <trkpt lat="46.50023" lon="6.17052">
        <ele>1282</ele>
        <time>2016-07-15T14:58:23Z</time>
      </trkpt>
      <trkpt lat="46.5004" lon="6.17058">
        <ele>1283</ele>
        <time>2016-07-15T14:58:28Z</time>
      </trkpt>
      <trkpt lat="46.50057" lon="6.17065">
        <ele>1284</ele>
        <time>2016-07-15T14:58:33Z</time>
      </trkpt>
      <trkpt lat="46.50066" lon="6.17071">
        <ele>1285</ele>
        <time>2016-07-15T14:58:37Z</time>
      </trkpt>
      <trkpt lat="46.50077" lon="6.1708">
        <ele>1286</ele>
        <time>2016-07-15T14:58:42Z</time>
      </trkpt>
      <trkpt lat="46.50085" lon="6.1709">
        <ele>1288</ele>
        <time>2016-07-15T14:58:46Z</time>
      </trkpt>
      <trkpt lat="46.50093" lon="6.17109">
        <ele>1291</ele>
        <time>2016-07-15T14:58:51Z</time>
      </trkpt>
      <trkpt lat="46.50095" lon="6.17125">
        <ele>1291</ele>
        <time>2016-07-15T14:58:55Z</time>
      </trkpt>
      <trkpt lat="46.50094" lon="6.17143">
        <ele>1291</ele>
        <time>2016-07-15T14:58:59Z</time>
      </trkpt>
      <trkpt lat="46.50098" lon="6.1716">
        <ele>1291</ele>
        <time>2016-07-15T14:59:04Z</time>
      </trkpt>
      <trkpt lat="46.50102" lon="6.17177">
        <ele>1293</ele>
        <time>2016-07-15T14:59:09Z</time>
      </trkpt>
      <trkpt lat="46.50107" lon="6.1719">
        <ele>1294</ele>
        <time>2016-07-15T14:59:13Z</time>
      </trkpt>
      <trkpt lat="46.50113" lon="6.17201">
        <ele>1294</ele>
        <time>2016-07-15T14:59:17Z</time>
      </trkpt>
      <trkpt lat="46.50119" lon="6.17211">
        <ele>1295</ele>
        <time>2016-07-15T14:59:21Z</time>
      </trkpt>
      <trkpt lat="46.50125" lon="6.17222">
        <ele>1295</ele>
        <time>2016-07-15T14:59:26Z</time>
      </trkpt>
      <trkpt lat="46.50132" lon="6.1723">
        <ele>1295</ele>
        <time>2016-07-15T14:59:30Z</time>
      </trkpt>
      <trkpt lat="46.50138" lon="6.17238">
        <ele>1296</ele>
        <time>2016-07-15T14:59:34Z</time>
      </trkpt>
      <trkpt lat="46.50156" lon="6.17258">
        <ele>1297</ele>
        <time>2016-07-15T14:59:44Z</time>
      </trkpt>
      <trkpt lat="46.50163" lon="6.17272">
        <ele>1297</ele>
        <time>2016-07-15T14:59:49Z</time>
      </trkpt>
      <trkpt lat="46.50168" lon="6.17278">
        <ele>1299</ele>
        <time>2016-07-15T14:59:53Z</time>
      </trkpt>
      <trkpt lat="46.50177" lon="6.17291">
        <ele>1300</ele>
        <time>2016-07-15T14:59:57Z</time>
      </trkpt>
      <trkpt lat="46.50183" lon="6.17297">
        <ele>1300</ele>
        <time>2016-07-15T15:00:00Z</time>
      </trkpt>
      <trkpt lat="46.50195" lon="6.17304">
        <ele>1300</ele>
        <time>2016-07-15T15:00:05Z</time>
      </trkpt>
      <trkpt lat="46.50203" lon="6.17306">
        <ele>1300</ele>
        <time>2016-07-15T15:00:08Z</time>
      </trkpt>
      <trkpt lat="46.50215" lon="6.17303">
        <ele>1300</ele>
        <time>2016-07-15T15:00:13Z</time>
      </trkpt>
      <trkpt lat="46.50229" lon="6.17289">
        <ele>1301</ele>
        <time>2016-07-15T15:00:18Z</time>
      </trkpt>
      <trkpt lat="46.50239" lon="6.17277">
        <ele>1301</ele>
        <time>2016-07-15T15:00:22Z</time>
      </trkpt>
      <trkpt lat="46.50251" lon="6.17265">
        <ele>1302</ele>
        <time>2016-07-15T15:00:27Z</time>
      </trkpt>
      <trkpt lat="46.50264" lon="6.17251">
        <ele>1302</ele>
        <time>2016-07-15T15:00:32Z</time>
      </trkpt>
      <trkpt lat="46.50277" lon="6.1724">
        <ele>1302</ele>
        <time>2016-07-15T15:00:37Z</time>
      </trkpt>
      <trkpt lat="46.50285" lon="6.17233">
        <ele>1302</ele>
        <time>2016-07-15T15:00:43Z</time>
      </trkpt>
      <trkpt lat="46.50304" lon="6.17221">
        <ele>1302</ele>
        <time>2016-07-15T15:00:47Z</time>
      </trkpt>
      <trkpt lat="46.50316" lon="6.17219">
        <ele>1302</ele>
        <time>2016-07-15T15:00:51Z</time>
      </trkpt>
      <trkpt lat="46.50327" lon="6.17221">
        <ele>1302</ele>
        <time>2016-07-15T15:00:55Z</time>
      </trkpt>
      <trkpt lat="46.50338" lon="6.17223">
        <ele>1303</ele>
        <time>2016-07-15T15:00:59Z</time>
      </trkpt>
      <trkpt lat="46.50352" lon="6.17225">
        <ele>1303</ele>
        <time>2016-07-15T15:01:04Z</time>
      </trkpt>
      <trkpt lat="46.50361" lon="6.17226">
        <ele>1303</ele>
        <time>2016-07-15T15:01:09Z</time>
      </trkpt>
      <trkpt lat="46.5038" lon="6.17229">
        <ele>1303</ele>
        <time>2016-07-15T15:01:13Z</time>
      </trkpt>
      <trkpt lat="46.50397" lon="6.17231">
        <ele>1303</ele>
        <time>2016-07-15T15:01:18Z</time>
      </trkpt>
      <trkpt lat="46.50416" lon="6.17235">
        <ele>1302</ele>
        <time>2016-07-15T15:01:23Z</time>
      </trkpt>
      <trkpt lat="46.50434" lon="6.1725">
        <ele>1303</ele>
        <time>2016-07-15T15:01:28Z</time>
      </trkpt>
      <trkpt lat="46.50444" lon="6.1727">
        <ele>1302</ele>
        <time>2016-07-15T15:01:32Z</time>
      </trkpt>
      <trkpt lat="46.5046" lon="6.17291">
        <ele>1303</ele>
        <time>2016-07-15T15:01:37Z</time>
      </trkpt>
      <trkpt lat="46.50472" lon="6.17308">
        <ele>1303</ele>
        <time>2016-07-15T15:01:41Z</time>
      </trkpt>
      <trkpt lat="46.5048" lon="6.17338">
        <ele>1305</ele>
        <time>2016-07-15T15:01:46Z</time>
      </trkpt>
      <trkpt lat="46.50478" lon="6.17361">
        <ele>1304</ele>
        <time>2016-07-15T15:01:50Z</time>
      </trkpt>
      <trkpt lat="46.50473" lon="6.17382">
        <ele>1304</ele>
        <time>2016-07-15T15:01:54Z</time>
      </trkpt>
      <trkpt lat="46.5047" lon="6.17399">
        <ele>1305</ele>
        <time>2016-07-15T15:01:57Z</time>
      </trkpt>
      <trkpt lat="46.50465" lon="6.17428">
        <ele>1306</ele>
        <time>2016-07-15T15:02:01Z</time>
      </trkpt>
      <trkpt lat="46.50459" lon="6.17447">
        <ele>1306</ele>
        <time>2016-07-15T15:02:06Z</time>
      </trkpt>
      <trkpt lat="46.50453" lon="6.17467">
        <ele>1306</ele>
        <time>2016-07-15T15:02:10Z</time>
      </trkpt>
      <trkpt lat="46.50447" lon="6.17499">
        <ele>1306</ele>
        <time>2016-07-15T15:02:15Z</time>
      </trkpt>
      <trkpt lat="46.50448" lon="6.17526">
        <ele>1307</ele>
        <time>2016-07-15T15:02:19Z</time>
      </trkpt>
      <trkpt lat="46.50454" lon="6.17529">
        <ele>1307</ele>
        <time>2016-07-15T15:02:23Z</time>
      </trkpt>
      <trkpt lat="46.5046" lon="6.17523">
        <ele>1307</ele>
        <time>2016-07-15T15:02:28Z</time>
      </trkpt>
      <trkpt lat="46.50467" lon="6.17518">
        <ele>1307</ele>
        <time>2016-07-15T15:02:32Z</time>
      </trkpt>
      <trkpt lat="46.50476" lon="6.17512">
        <ele>1308</ele>
        <time>2016-07-15T15:02:37Z</time>
      </trkpt>
      <trkpt lat="46.50485" lon="6.17511">
        <ele>1308</ele>
        <time>2016-07-15T15:02:42Z</time>
      </trkpt>
      <trkpt lat="46.50494" lon="6.17512">
        <ele>1308</ele>
        <time>2016-07-15T15:02:47Z</time>
      </trkpt>
      <trkpt lat="46.50502" lon="6.17506">
        <ele>1309</ele>
        <time>2016-07-15T15:02:53Z</time>
      </trkpt>
      <trkpt lat="46.50509" lon="6.17502">
        <ele>1309</ele>
        <time>2016-07-15T15:02:59Z</time>
      </trkpt>
      <trkpt lat="46.50516" lon="6.17495">
        <ele>1310</ele>
        <time>2016-07-15T15:03:05Z</time>
      </trkpt>
      <trkpt lat="46.50521" lon="6.1749">
        <ele>1310</ele>
        <time>2016-07-15T15:03:09Z</time>
      </trkpt>
      <trkpt lat="46.50527" lon="6.17485">
        <ele>1311</ele>
        <time>2016-07-15T15:03:13Z</time>
      </trkpt>
      <trkpt lat="46.50534" lon="6.17481">
        <ele>1311</ele>
        <time>2016-07-15T15:03:18Z</time>
      </trkpt>
      <trkpt lat="46.50543" lon="6.17479">
        <ele>1311</ele>
        <time>2016-07-15T15:03:24Z</time>
      </trkpt>
      <trkpt lat="46.5055" lon="6.17472">
        <ele>1312</ele>
        <time>2016-07-15T15:03:28Z</time>
      </trkpt>
      <trkpt lat="46.50557" lon="6.17465">
        <ele>1312</ele>
        <time>2016-07-15T15:03:32Z</time>
      </trkpt>
      <trkpt lat="46.50564" lon="6.17459">
        <ele>1312</ele>
        <time>2016-07-15T15:03:37Z</time>
      </trkpt>
      <trkpt lat="46.5057" lon="6.17451">
        <ele>1313</ele>
        <time>2016-07-15T15:03:41Z</time>
      </trkpt>
      <trkpt lat="46.50582" lon="6.17443">
        <ele>1313</ele>
        <time>2016-07-15T15:03:46Z</time>
      </trkpt>
      <trkpt lat="46.50602" lon="6.17427">
        <ele>1316</ele>
        <time>2016-07-15T15:03:51Z</time>
      </trkpt>
      <trkpt lat="46.50618" lon="6.17421">
        <ele>1317</ele>
        <time>2016-07-15T15:03:55Z</time>
      </trkpt>
      <trkpt lat="46.50622" lon="6.1741">
        <ele>1318</ele>
        <time>2016-07-15T15:04:02Z</time>
      </trkpt>
      <trkpt lat="46.50625" lon="6.174">
        <ele>1318</ele>
        <time>2016-07-15T15:04:06Z</time>
      </trkpt>
      <trkpt lat="46.50628" lon="6.17388">
        <ele>1318</ele>
        <time>2016-07-15T15:04:10Z</time>
      </trkpt>
      <trkpt lat="46.50633" lon="6.17371">
        <ele>1319</ele>
        <time>2016-07-15T15:04:15Z</time>
      </trkpt>
      <trkpt lat="46.50638" lon="6.17353">
        <ele>1319</ele>
        <time>2016-07-15T15:04:20Z</time>
      </trkpt>
      <trkpt lat="46.50639" lon="6.17337">
        <ele>1319</ele>
        <time>2016-07-15T15:04:24Z</time>
      </trkpt>
      <trkpt lat="46.50641" lon="6.17328">
        <ele>1319</ele>
        <time>2016-07-15T15:04:26Z</time>
      </trkpt>
      <trkpt lat="46.50646" lon="6.17312">
        <ele>1319</ele>
        <time>2016-07-15T15:04:30Z</time>
      </trkpt>
      <trkpt lat="46.50654" lon="6.17296">
        <ele>1318</ele>
        <time>2016-07-15T15:04:35Z</time>
      </trkpt>
      <trkpt lat="46.50659" lon="6.17288">
        <ele>1319</ele>
        <time>2016-07-15T15:04:38Z</time>
      </trkpt>
      <trkpt lat="46.50666" lon="6.17278">
        <ele>1319</ele>
        <time>2016-07-15T15:04:43Z</time>
      </trkpt>
      <trkpt lat="46.50671" lon="6.17268">
        <ele>1322</ele>
        <time>2016-07-15T15:04:47Z</time>
      </trkpt>
      <trkpt lat="46.50677" lon="6.17262">
        <ele>1322</ele>
        <time>2016-07-15T15:04:51Z</time>
      </trkpt>
      <trkpt lat="46.50684" lon="6.17255">
        <ele>1323</ele>
        <time>2016-07-15T15:04:55Z</time>
      </trkpt>
      <trkpt lat="46.50689" lon="6.17245">
        <ele>1323</ele>
        <time>2016-07-15T15:04:59Z</time>
      </trkpt>
      <trkpt lat="46.50696" lon="6.17233">
        <ele>1323</ele>
        <time>2016-07-15T15:05:03Z</time>
      </trkpt>
      <trkpt lat="46.50704" lon="6.17217">
        <ele>1324</ele>
        <time>2016-07-15T15:05:08Z</time>
      </trkpt>
      <trkpt lat="46.50712" lon="6.17205">
        <ele>1324</ele>
        <time>2016-07-15T15:05:12Z</time>
      </trkpt>
      <trkpt lat="46.50721" lon="6.17198">
        <ele>1324</ele>
        <time>2016-07-15T15:05:16Z</time>
      </trkpt>
      <trkpt lat="46.50738" lon="6.17201">
        <ele>1324</ele>
        <time>2016-07-15T15:05:21Z</time>
      </trkpt>
      <trkpt lat="46.50756" lon="6.17212">
        <ele>1329</ele>
        <time>2016-07-15T15:05:26Z</time>
      </trkpt>
      <trkpt lat="46.50774" lon="6.17218">
        <ele>1329</ele>
        <time>2016-07-15T15:05:31Z</time>
      </trkpt>
      <trkpt lat="46.50777" lon="6.17219">
        <ele>1329</ele>
        <time>2016-07-15T15:05:32Z</time>
      </trkpt>
      <trkpt lat="46.50799" lon="6.17213">
        <ele>1330</ele>
        <time>2016-07-15T15:05:40Z</time>
      </trkpt>
      <trkpt lat="46.50807" lon="6.17204">
        <ele>1330</ele>
        <time>2016-07-15T15:05:45Z</time>
      </trkpt>
      <trkpt lat="46.50812" lon="6.17193">
        <ele>1330</ele>
        <time>2016-07-15T15:05:50Z</time>
      </trkpt>
      <trkpt lat="46.50817" lon="6.17185">
        <ele>1330</ele>
        <time>2016-07-15T15:05:54Z</time>
      </trkpt>
      <trkpt lat="46.50823" lon="6.1718">
        <ele>1331</ele>
        <time>2016-07-15T15:05:59Z</time>
      </trkpt>
      <trkpt lat="46.50832" lon="6.17185">
        <ele>1331</ele>
        <time>2016-07-15T15:06:03Z</time>
      </trkpt>
      <trkpt lat="46.50841" lon="6.17189">
        <ele>1336</ele>
        <time>2016-07-15T15:06:10Z</time>
      </trkpt>
      <trkpt lat="46.50849" lon="6.17191">
        <ele>1337</ele>
        <time>2016-07-15T15:06:20Z</time>
      </trkpt>
      <trkpt lat="46.50862" lon="6.17193">
        <ele>1338</ele>
        <time>2016-07-15T15:06:25Z</time>
      </trkpt>
      <trkpt lat="46.50869" lon="6.17185">
        <ele>1339</ele>
        <time>2016-07-15T15:06:29Z</time>
      </trkpt>
      <trkpt lat="46.50872" lon="6.17179">
        <ele>1339</ele>
        <time>2016-07-15T15:06:34Z</time>
      </trkpt>
      <trkpt lat="46.50879" lon="6.1717">
        <ele>1340</ele>
        <time>2016-07-15T15:06:39Z</time>
      </trkpt>
      <trkpt lat="46.50887" lon="6.17168">
        <ele>1342</ele>
        <time>2016-07-15T15:06:44Z</time>
      </trkpt>
      <trkpt lat="46.50893" lon="6.17161">
        <ele>1345</ele>
        <time>2016-07-15T15:06:49Z</time>
      </trkpt>
      <trkpt lat="46.50899" lon="6.17153">
        <ele>1346</ele>
        <time>2016-07-15T15:06:54Z</time>
      </trkpt>
      <trkpt lat="46.50905" lon="6.17146">
        <ele>1346</ele>
        <time>2016-07-15T15:06:59Z</time>
      </trkpt>
      <trkpt lat="46.50911" lon="6.17142">
        <ele>1347</ele>
        <time>2016-07-15T15:07:04Z</time>
      </trkpt>
      <trkpt lat="46.5092" lon="6.17143">
        <ele>1358</ele>
        <time>2016-07-15T15:07:11Z</time>
      </trkpt>
      <trkpt lat="46.50929" lon="6.17144">
        <ele>1359</ele>
        <time>2016-07-15T15:07:16Z</time>
      </trkpt>
      <trkpt lat="46.50934" lon="6.1715">
        <ele>1359</ele>
        <time>2016-07-15T15:07:22Z</time>
      </trkpt>
      <trkpt lat="46.50941" lon="6.17155">
        <ele>1360</ele>
        <time>2016-07-15T15:07:27Z</time>
      </trkpt>
      <trkpt lat="46.5095" lon="6.17154">
        <ele>1362</ele>
        <time>2016-07-15T15:07:32Z</time>
      </trkpt>
      <trkpt lat="46.50958" lon="6.17153">
        <ele>1363</ele>
        <time>2016-07-15T15:07:37Z</time>
      </trkpt>
      <trkpt lat="46.50967" lon="6.17147">
        <ele>1365</ele>
        <time>2016-07-15T15:07:42Z</time>
      </trkpt>
      <trkpt lat="46.50973" lon="6.1714">
        <ele>1366</ele>
        <time>2016-07-15T15:07:47Z</time>
      </trkpt>
      <trkpt lat="46.50972" lon="6.17129">
        <ele>1367</ele>
        <time>2016-07-15T15:07:54Z</time>
      </trkpt>
      <trkpt lat="46.50965" lon="6.1712">
        <ele>1367</ele>
        <time>2016-07-15T15:07:58Z</time>
      </trkpt>
      <trkpt lat="46.50961" lon="6.17109">
        <ele>1367</ele>
        <time>2016-07-15T15:08:05Z</time>
      </trkpt>
      <trkpt lat="46.5096" lon="6.17098">
        <ele>1367</ele>
        <time>2016-07-15T15:08:11Z</time>
      </trkpt>
      <trkpt lat="46.5096" lon="6.17086">
        <ele>1368</ele>
        <time>2016-07-15T15:08:15Z</time>
      </trkpt>
      <trkpt lat="46.50954" lon="6.17076">
        <ele>1377</ele>
        <time>2016-07-15T15:08:22Z</time>
      </trkpt>
      <trkpt lat="46.50946" lon="6.17076">
        <ele>1374</ele>
        <time>2016-07-15T15:08:28Z</time>
      </trkpt>
      <trkpt lat="46.50943" lon="6.17065">
        <ele>1375</ele>
        <time>2016-07-15T15:08:36Z</time>
      </trkpt>
      <trkpt lat="46.50937" lon="6.17057">
        <ele>1375</ele>
        <time>2016-07-15T15:08:43Z</time>
      </trkpt>
      <trkpt lat="46.50933" lon="6.17047">
        <ele>1377</ele>
        <time>2016-07-15T15:08:48Z</time>
      </trkpt>
      <trkpt lat="46.50928" lon="6.17039">
        <ele>1378</ele>
        <time>2016-07-15T15:08:52Z</time>
      </trkpt>
      <trkpt lat="46.5092" lon="6.1703">
        <ele>1378</ele>
        <time>2016-07-15T15:08:57Z</time>
      </trkpt>
      <trkpt lat="46.50917" lon="6.17018">
        <ele>1379</ele>
        <time>2016-07-15T15:09:03Z</time>
      </trkpt>
      <trkpt lat="46.50912" lon="6.17009">
        <ele>1371</ele>
        <time>2016-07-15T15:09:11Z</time>
      </trkpt>
      <trkpt lat="46.50904" lon="6.17006">
        <ele>1369</ele>
        <time>2016-07-15T15:09:18Z</time>
      </trkpt>
      <trkpt lat="46.50909" lon="6.16995">
        <ele>1378</ele>
        <time>2016-07-15T15:09:27Z</time>
      </trkpt>
      <trkpt lat="46.50918" lon="6.16993">
        <ele>1384</ele>
        <time>2016-07-15T15:09:38Z</time>
      </trkpt>
      <trkpt lat="46.50924" lon="6.17001">
        <ele>1380</ele>
        <time>2016-07-15T15:09:46Z</time>
      </trkpt>
      <trkpt lat="46.50933" lon="6.17005">
        <ele>1381</ele>
        <time>2016-07-15T15:09:54Z</time>
      </trkpt>
      <trkpt lat="46.5094" lon="6.17012">
        <ele>1381</ele>
        <time>2016-07-15T15:10:02Z</time>
      </trkpt>
      <trkpt lat="46.50945" lon="6.1702">
        <ele>1382</ele>
        <time>2016-07-15T15:10:10Z</time>
      </trkpt>
      <trkpt lat="46.50953" lon="6.17024">
        <ele>1382</ele>
        <time>2016-07-15T15:10:17Z</time>
      </trkpt>
      <trkpt lat="46.50961" lon="6.17017">
        <ele>1384</ele>
        <time>2016-07-15T15:10:21Z</time>
      </trkpt>
      <trkpt lat="46.50969" lon="6.17014">
        <ele>1387</ele>
        <time>2016-07-15T15:10:27Z</time>
      </trkpt>
      <trkpt lat="46.50977" lon="6.17012">
        <ele>1389</ele>
        <time>2016-07-15T15:10:33Z</time>
      </trkpt>
      <trkpt lat="46.50984" lon="6.17007">
        <ele>1392</ele>
        <time>2016-07-15T15:10:40Z</time>
      </trkpt>
      <trkpt lat="46.50989" lon="6.16998">
        <ele>1401</ele>
        <time>2016-07-15T15:10:47Z</time>
      </trkpt>
      <trkpt lat="46.50993" lon="6.16988">
        <ele>1401</ele>
        <time>2016-07-15T15:10:54Z</time>
      </trkpt>
      <trkpt lat="46.51" lon="6.16981">
        <ele>1401</ele>
        <time>2016-07-15T15:11:02Z</time>
      </trkpt>
      <trkpt lat="46.51005" lon="6.16973">
        <ele>1409</ele>
        <time>2016-07-15T15:11:11Z</time>
      </trkpt>
      <trkpt lat="46.51013" lon="6.1697">
        <ele>1409</ele>
        <time>2016-07-15T15:11:19Z</time>
      </trkpt>
      <trkpt lat="46.51021" lon="6.16965">
        <ele>1410</ele>
        <time>2016-07-15T15:11:26Z</time>
      </trkpt>
      <trkpt lat="46.51025" lon="6.16957">
        <ele>1411</ele>
        <time>2016-07-15T15:11:32Z</time>
      </trkpt>
      <trkpt lat="46.51029" lon="6.1695">
        <ele>1411</ele>
        <time>2016-07-15T15:11:39Z</time>
      </trkpt>
      <trkpt lat="46.51035" lon="6.16943">
        <ele>1411</ele>
        <time>2016-07-15T15:11:43Z</time>
      </trkpt>
      <trkpt lat="46.51043" lon="6.16938">
        <ele>1411</ele>
        <time>2016-07-15T15:11:49Z</time>
      </trkpt>
      <trkpt lat="46.51049" lon="6.1693">
        <ele>1412</ele>
        <time>2016-07-15T15:11:56Z</time>
      </trkpt>
      <trkpt lat="46.51054" lon="6.1692">
        <ele>1412</ele>
        <time>2016-07-15T15:12:02Z</time>
      </trkpt>
      <trkpt lat="46.51061" lon="6.16911">
        <ele>1412</ele>
        <time>2016-07-15T15:12:09Z</time>
      </trkpt>
      <trkpt lat="46.51064" lon="6.169">
        <ele>1412</ele>
        <time>2016-07-15T15:20:39Z</time>
      </trkpt>
      <trkpt lat="46.51061" lon="6.16883">
        <ele>1412</ele>
        <time>2016-07-15T15:20:43Z</time>
      </trkpt>
      <trkpt lat="46.51059" lon="6.16869">
        <ele>1412</ele>
        <time>2016-07-15T15:20:48Z</time>
      </trkpt>
      <trkpt lat="46.51057" lon="6.16854">
        <ele>1412</ele>
        <time>2016-07-15T15:20:53Z</time>
      </trkpt>
      <trkpt lat="46.5106" lon="6.16843">
        <ele>1412</ele>
        <time>2016-07-15T15:20:57Z</time>
      </trkpt>
      <trkpt lat="46.51063" lon="6.16831">
        <ele>1414</ele>
        <time>2016-07-15T15:21:01Z</time>
      </trkpt>
      <trkpt lat="46.51068" lon="6.1682">
        <ele>1414</ele>
        <time>2016-07-15T15:21:06Z</time>
      </trkpt>
      <trkpt lat="46.51073" lon="6.16812">
        <ele>1414</ele>
        <time>2016-07-15T15:21:10Z</time>
      </trkpt>
      <trkpt lat="46.51078" lon="6.168">
        <ele>1415</ele>
        <time>2016-07-15T15:21:15Z</time>
      </trkpt>
      <trkpt lat="46.51082" lon="6.16791">
        <ele>1415</ele>
        <time>2016-07-15T15:21:19Z</time>
      </trkpt>
      <trkpt lat="46.51086" lon="6.16782">
        <ele>1417</ele>
        <time>2016-07-15T15:21:23Z</time>
      </trkpt>
      <trkpt lat="46.51093" lon="6.16774">
        <ele>1417</ele>
        <time>2016-07-15T15:21:28Z</time>
      </trkpt>
      <trkpt lat="46.51099" lon="6.16764">
        <ele>1417</ele>
        <time>2016-07-15T15:21:34Z</time>
      </trkpt>
      <trkpt lat="46.51103" lon="6.16754">
        <ele>1417</ele>
        <time>2016-07-15T15:21:40Z</time>
      </trkpt>
      <trkpt lat="46.5111" lon="6.16746">
        <ele>1417</ele>
        <time>2016-07-15T15:21:46Z</time>
      </trkpt>
      <trkpt lat="46.51113" lon="6.16735">
        <ele>1417</ele>
        <time>2016-07-15T15:22:01Z</time>
      </trkpt>
      <trkpt lat="46.51114" lon="6.16732">
        <ele>1417</ele>
        <time>2016-07-15T15:22:02Z</time>
      </trkpt>
      <trkpt lat="46.5112" lon="6.16714">
        <ele>1417</ele>
        <time>2016-07-15T15:22:06Z</time>
      </trkpt>
      <trkpt lat="46.51123" lon="6.16682">
        <ele>1417</ele>
        <time>2016-07-15T15:22:11Z</time>
      </trkpt>
      <trkpt lat="46.51123" lon="6.16662">
        <ele>1417</ele>
        <time>2016-07-15T15:22:15Z</time>
      </trkpt>
      <trkpt lat="46.51122" lon="6.1664">
        <ele>1416</ele>
        <time>2016-07-15T15:22:20Z</time>
      </trkpt>
      <trkpt lat="46.51123" lon="6.16625">
        <ele>1416</ele>
        <time>2016-07-15T15:22:23Z</time>
      </trkpt>
      <trkpt lat="46.51124" lon="6.16617">
        <ele>1416</ele>
        <time>2016-07-15T15:22:28Z</time>
      </trkpt>
      <trkpt lat="46.51125" lon="6.16599">
        <ele>1416</ele>
        <time>2016-07-15T15:22:32Z</time>
      </trkpt>
      <trkpt lat="46.51125" lon="6.16586">
        <ele>1416</ele>
        <time>2016-07-15T15:22:37Z</time>
      </trkpt>
      <trkpt lat="46.51125" lon="6.16573">
        <ele>1414</ele>
        <time>2016-07-15T15:22:41Z</time>
      </trkpt>
      <trkpt lat="46.51123" lon="6.1656">
        <ele>1414</ele>
        <time>2016-07-15T15:22:46Z</time>
      </trkpt>
      <trkpt lat="46.5112" lon="6.16545">
        <ele>1414</ele>
        <time>2016-07-15T15:22:50Z</time>
      </trkpt>
      <trkpt lat="46.51116" lon="6.16534">
        <ele>1414</ele>
        <time>2016-07-15T15:22:54Z</time>
      </trkpt>
      <trkpt lat="46.5111" lon="6.16521">
        <ele>1415</ele>
        <time>2016-07-15T15:22:59Z</time>
      </trkpt>
      <trkpt lat="46.51106" lon="6.16511">
        <ele>1415</ele>
        <time>2016-07-15T15:23:03Z</time>
      </trkpt>
      <trkpt lat="46.51101" lon="6.16502">
        <ele>1415</ele>
        <time>2016-07-15T15:23:07Z</time>
      </trkpt>
      <trkpt lat="46.51095" lon="6.16492">
        <ele>1416</ele>
        <time>2016-07-15T15:23:12Z</time>
      </trkpt>
      <trkpt lat="46.51087" lon="6.16482">
        <ele>1416</ele>
        <time>2016-07-15T15:23:17Z</time>
      </trkpt>
      <trkpt lat="46.51082" lon="6.16474">
        <ele>1421</ele>
        <time>2016-07-15T15:23:21Z</time>
      </trkpt>
      <trkpt lat="46.51076" lon="6.16465">
        <ele>1422</ele>
        <time>2016-07-15T15:23:26Z</time>
      </trkpt>
      <trkpt lat="46.5107" lon="6.16455">
        <ele>1422</ele>
        <time>2016-07-15T15:23:32Z</time>
      </trkpt>
      <trkpt lat="46.51064" lon="6.16446">
        <ele>1422</ele>
        <time>2016-07-15T15:23:40Z</time>
      </trkpt>
      <trkpt lat="46.51057" lon="6.16442">
        <ele>1423</ele>
        <time>2016-07-15T15:23:46Z</time>
      </trkpt>
      <trkpt lat="46.51052" lon="6.16438">
        <ele>1423</ele>
        <time>2016-07-15T15:23:50Z</time>
      </trkpt>
      <trkpt lat="46.51047" lon="6.16432">
        <ele>1424</ele>
        <time>2016-07-15T15:23:56Z</time>
      </trkpt>
      <trkpt lat="46.51039" lon="6.16426">
        <ele>1424</ele>
        <time>2016-07-15T15:24:03Z</time>
      </trkpt>
      <trkpt lat="46.51031" lon="6.16424">
        <ele>1425</ele>
        <time>2016-07-15T15:24:12Z</time>
      </trkpt>
      <trkpt lat="46.51024" lon="6.16418">
        <ele>1426</ele>
        <time>2016-07-15T15:24:19Z</time>
      </trkpt>
      <trkpt lat="46.51019" lon="6.16407">
        <ele>1427</ele>
        <time>2016-07-15T15:24:26Z</time>
      </trkpt>
      <trkpt lat="46.51016" lon="6.16395">
        <ele>1427</ele>
        <time>2016-07-15T15:24:32Z</time>
      </trkpt>
      <trkpt lat="46.51011" lon="6.16385">
        <ele>1428</ele>
        <time>2016-07-15T15:24:38Z</time>
      </trkpt>
      <trkpt lat="46.51004" lon="6.16375">
        <ele>1428</ele>
        <time>2016-07-15T15:24:44Z</time>
      </trkpt>
      <trkpt lat="46.51" lon="6.16368">
        <ele>1428</ele>
        <time>2016-07-15T15:24:50Z</time>
      </trkpt>
      <trkpt lat="46.50993" lon="6.16353">
        <ele>1436</ele>
        <time>2016-07-15T15:24:54Z</time>
      </trkpt>
      <trkpt lat="46.50988" lon="6.16344">
        <ele>1436</ele>
        <time>2016-07-15T15:24:59Z</time>
      </trkpt>
      <trkpt lat="46.50982" lon="6.16334">
        <ele>1437</ele>
        <time>2016-07-15T15:25:06Z</time>
      </trkpt>
      <trkpt lat="46.50979" lon="6.16322">
        <ele>1439</ele>
        <time>2016-07-15T15:25:13Z</time>
      </trkpt>
      <trkpt lat="46.50976" lon="6.16311">
        <ele>1440</ele>
        <time>2016-07-15T15:25:20Z</time>
      </trkpt>
      <trkpt lat="46.50973" lon="6.163">
        <ele>1440</ele>
        <time>2016-07-15T15:25:26Z</time>
      </trkpt>
      <trkpt lat="46.50968" lon="6.16291">
        <ele>1441</ele>
        <time>2016-07-15T15:25:31Z</time>
      </trkpt>
      <trkpt lat="46.50962" lon="6.16285">
        <ele>1441</ele>
        <time>2016-07-15T15:25:36Z</time>
      </trkpt>
      <trkpt lat="46.50958" lon="6.16276">
        <ele>1442</ele>
        <time>2016-07-15T15:25:40Z</time>
      </trkpt>
      <trkpt lat="46.50952" lon="6.16263">
        <ele>1442</ele>
        <time>2016-07-15T15:25:45Z</time>
      </trkpt>
      <trkpt lat="46.50947" lon="6.16253">
        <ele>1442</ele>
        <time>2016-07-15T15:25:49Z</time>
      </trkpt>
      <trkpt lat="46.50943" lon="6.16244">
        <ele>1442</ele>
        <time>2016-07-15T15:25:53Z</time>
      </trkpt>
      <trkpt lat="46.50939" lon="6.16234">
        <ele>1442</ele>
        <time>2016-07-15T15:25:58Z</time>
      </trkpt>
      <trkpt lat="46.50934" lon="6.16225">
        <ele>1442</ele>
        <time>2016-07-15T15:26:02Z</time>
      </trkpt>
      <trkpt lat="46.50929" lon="6.16216">
        <ele>1442</ele>
        <time>2016-07-15T15:26:06Z</time>
      </trkpt>
      <trkpt lat="46.50924" lon="6.16202">
        <ele>1441</ele>
        <time>2016-07-15T15:26:11Z</time>
      </trkpt>
      <trkpt lat="46.50925" lon="6.1619">
        <ele>1441</ele>
        <time>2016-07-15T15:26:16Z</time>
      </trkpt>
      <trkpt lat="46.50923" lon="6.16177">
        <ele>1441</ele>
        <time>2016-07-15T15:26:28Z</time>
      </trkpt>
      <trkpt lat="46.5093" lon="6.16172">
        <ele>1441</ele>
        <time>2016-07-15T15:26:32Z</time>
      </trkpt>
      <trkpt lat="46.50939" lon="6.16167">
        <ele>1441</ele>
        <time>2016-07-15T15:29:02Z</time>
      </trkpt>
      <trkpt lat="46.50948" lon="6.16158">
        <ele>1442</ele>
        <time>2016-07-15T15:29:06Z</time>
      </trkpt>
      <trkpt lat="46.50958" lon="6.16147">
        <ele>1443</ele>
        <time>2016-07-15T15:29:11Z</time>
      </trkpt>
      <trkpt lat="46.50964" lon="6.16141">
        <ele>1443</ele>
        <time>2016-07-15T15:29:14Z</time>
      </trkpt>
      <trkpt lat="46.50974" lon="6.16134">
        <ele>1444</ele>
        <time>2016-07-15T15:29:19Z</time>
      </trkpt>
      <trkpt lat="46.50981" lon="6.16131">
        <ele>1444</ele>
        <time>2016-07-15T15:29:22Z</time>
      </trkpt>
      <trkpt lat="46.50992" lon="6.1613">
        <ele>1444</ele>
        <time>2016-07-15T15:29:27Z</time>
      </trkpt>
      <trkpt lat="46.51001" lon="6.16132">
        <ele>1454</ele>
        <time>2016-07-15T15:29:31Z</time>
      </trkpt>
      <trkpt lat="46.5101" lon="6.16136">
        <ele>1454</ele>
        <time>2016-07-15T15:29:35Z</time>
      </trkpt>
      <trkpt lat="46.5102" lon="6.16146">
        <ele>1454</ele>
        <time>2016-07-15T15:29:40Z</time>
      </trkpt>
      <trkpt lat="46.51026" lon="6.16153">
        <ele>1454</ele>
        <time>2016-07-15T15:29:44Z</time>
      </trkpt>
      <trkpt lat="46.51035" lon="6.16165">
        <ele>1455</ele>
        <time>2016-07-15T15:29:49Z</time>
      </trkpt>
      <trkpt lat="46.51041" lon="6.16173">
        <ele>1450</ele>
        <time>2016-07-15T15:29:53Z</time>
      </trkpt>
      <trkpt lat="46.51048" lon="6.1618">
        <ele>1450</ele>
        <time>2016-07-15T15:29:57Z</time>
      </trkpt>
      <trkpt lat="46.51058" lon="6.16189">
        <ele>1451</ele>
        <time>2016-07-15T15:30:02Z</time>
      </trkpt>
      <trkpt lat="46.51067" lon="6.16196">
        <ele>1451</ele>
        <time>2016-07-15T15:30:07Z</time>
      </trkpt>
      <trkpt lat="46.51075" lon="6.16202">
        <ele>1451</ele>
        <time>2016-07-15T15:30:11Z</time>
      </trkpt>
      <trkpt lat="46.51082" lon="6.16206">
        <ele>1450</ele>
        <time>2016-07-15T15:30:15Z</time>
      </trkpt>
      <trkpt lat="46.5109" lon="6.16211">
        <ele>1461</ele>
        <time>2016-07-15T15:30:19Z</time>
      </trkpt>
      <trkpt lat="46.51098" lon="6.16216">
        <ele>1461</ele>
        <time>2016-07-15T15:30:23Z</time>
      </trkpt>
      <trkpt lat="46.51106" lon="6.16221">
        <ele>1461</ele>
        <time>2016-07-15T15:30:27Z</time>
      </trkpt>
      <trkpt lat="46.51116" lon="6.16228">
        <ele>1462</ele>
        <time>2016-07-15T15:30:32Z</time>
      </trkpt>
      <trkpt lat="46.51124" lon="6.16233">
        <ele>1463</ele>
        <time>2016-07-15T15:30:36Z</time>
      </trkpt>
      <trkpt lat="46.51137" lon="6.1624">
        <ele>1464</ele>
        <time>2016-07-15T15:30:41Z</time>
      </trkpt>
      <trkpt lat="46.5115" lon="6.1625">
        <ele>1455</ele>
        <time>2016-07-15T15:30:46Z</time>
      </trkpt>
      <trkpt lat="46.51158" lon="6.16257">
        <ele>1457</ele>
        <time>2016-07-15T15:30:49Z</time>
      </trkpt>
      <trkpt lat="46.51172" lon="6.16266">
        <ele>1462</ele>
        <time>2016-07-15T15:30:54Z</time>
      </trkpt>
      <trkpt lat="46.51189" lon="6.16274">
        <ele>1462</ele>
        <time>2016-07-15T15:30:59Z</time>
      </trkpt>
      <trkpt lat="46.51206" lon="6.16282">
        <ele>1462</ele>
        <time>2016-07-15T15:31:04Z</time>
      </trkpt>
      <trkpt lat="46.5122" lon="6.16291">
        <ele>1462</ele>
        <time>2016-07-15T15:31:08Z</time>
      </trkpt>
      <trkpt lat="46.51237" lon="6.16303">
        <ele>1461</ele>
        <time>2016-07-15T15:31:13Z</time>
      </trkpt>
      <trkpt lat="46.51248" lon="6.16309">
        <ele>1460</ele>
        <time>2016-07-15T15:31:16Z</time>
      </trkpt>
      <trkpt lat="46.51263" lon="6.16318">
        <ele>1469</ele>
        <time>2016-07-15T15:31:20Z</time>
      </trkpt>
      <trkpt lat="46.51281" lon="6.16328">
        <ele>1473</ele>
        <time>2016-07-15T15:31:25Z</time>
      </trkpt>
      <trkpt lat="46.51294" lon="6.1634">
        <ele>1458</ele>
        <time>2016-07-15T15:31:29Z</time>
      </trkpt>
      <trkpt lat="46.51312" lon="6.16351">
        <ele>1461</ele>
        <time>2016-07-15T15:31:34Z</time>
      </trkpt>
      <trkpt lat="46.51327" lon="6.16364">
        <ele>1460</ele>
        <time>2016-07-15T15:31:38Z</time>
      </trkpt>
      <trkpt lat="46.51339" lon="6.16377">
        <ele>1472</ele>
        <time>2016-07-15T15:31:41Z</time>
      </trkpt>
      <trkpt lat="46.51351" lon="6.16397">
        <ele>1468</ele>
        <time>2016-07-15T15:31:45Z</time>
      </trkpt>
      <trkpt lat="46.51364" lon="6.16414">
        <ele>1469</ele>
        <time>2016-07-15T15:31:49Z</time>
      </trkpt>
      <trkpt lat="46.51379" lon="6.1643">
        <ele>1457</ele>
        <time>2016-07-15T15:31:53Z</time>
      </trkpt>
      <trkpt lat="46.51395" lon="6.16445">
        <ele>1459</ele>
        <time>2016-07-15T15:31:57Z</time>
      </trkpt>
      <trkpt lat="46.51413" lon="6.16463">
        <ele>1457</ele>
        <time>2016-07-15T15:32:02Z</time>
      </trkpt>
      <trkpt lat="46.51426" lon="6.16481">
        <ele>1468</ele>
        <time>2016-07-15T15:32:06Z</time>
      </trkpt>
      <trkpt lat="46.51437" lon="6.16496">
        <ele>1468</ele>
        <time>2016-07-15T15:32:10Z</time>
      </trkpt>
      <trkpt lat="46.51451" lon="6.16513">
        <ele>1459</ele>
        <time>2016-07-15T15:32:15Z</time>
      </trkpt>
      <trkpt lat="46.51461" lon="6.16526">
        <ele>1460</ele>
        <time>2016-07-15T15:32:19Z</time>
      </trkpt>
      <trkpt lat="46.51473" lon="6.16541">
        <ele>1460</ele>
        <time>2016-07-15T15:32:23Z</time>
      </trkpt>
      <trkpt lat="46.5148" lon="6.1655">
        <ele>1460</ele>
        <time>2016-07-15T15:32:28Z</time>
      </trkpt>
      <trkpt lat="46.51487" lon="6.16551">
        <ele>1461</ele>
        <time>2016-07-15T15:32:55Z</time>
      </trkpt>
      <trkpt lat="46.51499" lon="6.16567">
        <ele>1461</ele>
        <time>2016-07-15T15:33:00Z</time>
      </trkpt>
      <trkpt lat="46.51511" lon="6.16582">
        <ele>1468</ele>
        <time>2016-07-15T15:33:04Z</time>
      </trkpt>
      <trkpt lat="46.51529" lon="6.16603">
        <ele>1467</ele>
        <time>2016-07-15T15:33:09Z</time>
      </trkpt>
      <trkpt lat="46.51547" lon="6.16635">
        <ele>1468</ele>
        <time>2016-07-15T15:33:14Z</time>
      </trkpt>
      <trkpt lat="46.51551" lon="6.16658">
        <ele>1469</ele>
        <time>2016-07-15T15:33:18Z</time>
      </trkpt>
      <trkpt lat="46.51552" lon="6.16677">
        <ele>1462</ele>
        <time>2016-07-15T15:33:22Z</time>
      </trkpt>
      <trkpt lat="46.51551" lon="6.16693">
        <ele>1460</ele>
        <time>2016-07-15T15:33:26Z</time>
      </trkpt>
      <trkpt lat="46.51551" lon="6.16703">
        <ele>1459</ele>
        <time>2016-07-15T15:33:28Z</time>
      </trkpt>
      <trkpt lat="46.51556" lon="6.1673">
        <ele>1459</ele>
        <time>2016-07-15T15:33:33Z</time>
      </trkpt>
      <trkpt lat="46.51565" lon="6.16756">
        <ele>1454</ele>
        <time>2016-07-15T15:33:38Z</time>
      </trkpt>
      <trkpt lat="46.51573" lon="6.16769">
        <ele>1453</ele>
        <time>2016-07-15T15:33:41Z</time>
      </trkpt>
      <trkpt lat="46.51581" lon="6.16779">
        <ele>1451</ele>
        <time>2016-07-15T15:33:46Z</time>
      </trkpt>
      <trkpt lat="46.51593" lon="6.16798">
        <ele>1464</ele>
        <time>2016-07-15T15:33:50Z</time>
      </trkpt>
      <trkpt lat="46.5161" lon="6.16825">
        <ele>1463</ele>
        <time>2016-07-15T15:33:55Z</time>
      </trkpt>
      <trkpt lat="46.51625" lon="6.16846">
        <ele>1457</ele>
        <time>2016-07-15T15:33:59Z</time>
      </trkpt>
      <trkpt lat="46.51642" lon="6.16874">
        <ele>1458</ele>
        <time>2016-07-15T15:34:04Z</time>
      </trkpt>
      <trkpt lat="46.51656" lon="6.16893">
        <ele>1458</ele>
        <time>2016-07-15T15:34:08Z</time>
      </trkpt>
      <trkpt lat="46.51674" lon="6.16914">
        <ele>1465</ele>
        <time>2016-07-15T15:34:13Z</time>
      </trkpt>
      <trkpt lat="46.51687" lon="6.16931">
        <ele>1464</ele>
        <time>2016-07-15T15:34:17Z</time>
      </trkpt>
      <trkpt lat="46.51699" lon="6.16948">
        <ele>1465</ele>
        <time>2016-07-15T15:34:21Z</time>
      </trkpt>
      <trkpt lat="46.51714" lon="6.16967">
        <ele>1466</ele>
        <time>2016-07-15T15:34:26Z</time>
      </trkpt>
      <trkpt lat="46.51727" lon="6.16982">
        <ele>1467</ele>
        <time>2016-07-15T15:34:30Z</time>
      </trkpt>
      <trkpt lat="46.51738" lon="6.16997">
        <ele>1469</ele>
        <time>2016-07-15T15:34:34Z</time>
      </trkpt>
      <trkpt lat="46.51749" lon="6.17014">
        <ele>1463</ele>
        <time>2016-07-15T15:34:39Z</time>
      </trkpt>
      <trkpt lat="46.51763" lon="6.17033">
        <ele>1472</ele>
        <time>2016-07-15T15:34:43Z</time>
      </trkpt>
      <trkpt lat="46.51776" lon="6.17051">
        <ele>1471</ele>
        <time>2016-07-15T15:34:48Z</time>
      </trkpt>
      <trkpt lat="46.51789" lon="6.17068">
        <ele>1472</ele>
        <time>2016-07-15T15:34:53Z</time>
      </trkpt>
      <trkpt lat="46.51794" lon="6.17075">
        <ele>1472</ele>
        <time>2016-07-15T15:34:57Z</time>
      </trkpt>
      <trkpt lat="46.51809" lon="6.17096">
        <ele>1463</ele>
        <time>2016-07-15T15:35:00Z</time>
      </trkpt>
      <trkpt lat="46.5182" lon="6.17108">
        <ele>1463</ele>
        <time>2016-07-15T15:35:05Z</time>
      </trkpt>
      <trkpt lat="46.51826" lon="6.17112">
        <ele>1463</ele>
        <time>2016-07-15T15:35:09Z</time>
      </trkpt>
      <trkpt lat="46.51853" lon="6.17119">
        <ele>1474</ele>
        <time>2016-07-15T15:35:14Z</time>
      </trkpt>
      <trkpt lat="46.51873" lon="6.17135">
        <ele>1474</ele>
        <time>2016-07-15T15:35:19Z</time>
      </trkpt>
      <trkpt lat="46.51882" lon="6.17163">
        <ele>1473</ele>
        <time>2016-07-15T15:35:23Z</time>
      </trkpt>
      <trkpt lat="46.51887" lon="6.17186">
        <ele>1463</ele>
        <time>2016-07-15T15:35:27Z</time>
      </trkpt>
      <trkpt lat="46.51898" lon="6.17208">
        <ele>1462</ele>
        <time>2016-07-15T15:35:31Z</time>
      </trkpt>
      <trkpt lat="46.51907" lon="6.17229">
        <ele>1462</ele>
        <time>2016-07-15T15:35:35Z</time>
      </trkpt>
      <trkpt lat="46.51916" lon="6.17245">
        <ele>1463</ele>
        <time>2016-07-15T15:35:40Z</time>
      </trkpt>
      <trkpt lat="46.5192" lon="6.17255">
        <ele>1465</ele>
        <time>2016-07-15T15:35:47Z</time>
      </trkpt>
      <trkpt lat="46.51926" lon="6.17265">
        <ele>1467</ele>
        <time>2016-07-15T15:35:52Z</time>
      </trkpt>
      <trkpt lat="46.51931" lon="6.17275">
        <ele>1468</ele>
        <time>2016-07-15T15:35:57Z</time>
      </trkpt>
      <trkpt lat="46.51937" lon="6.17282">
        <ele>1469</ele>
        <time>2016-07-15T15:36:05Z</time>
      </trkpt>
      <trkpt lat="46.51941" lon="6.1729">
        <ele>1469</ele>
        <time>2016-07-15T15:36:09Z</time>
      </trkpt>
      <trkpt lat="46.51946" lon="6.17305">
        <ele>1469</ele>
        <time>2016-07-15T15:36:13Z</time>
      </trkpt>
      <trkpt lat="46.51955" lon="6.17325">
        <ele>1469</ele>
        <time>2016-07-15T15:36:18Z</time>
      </trkpt>
      <trkpt lat="46.51964" lon="6.1734">
        <ele>1468</ele>
        <time>2016-07-15T15:36:22Z</time>
      </trkpt>
      <trkpt lat="46.51968" lon="6.17353">
        <ele>1468</ele>
        <time>2016-07-15T15:36:27Z</time>
      </trkpt>
      <trkpt lat="46.51967" lon="6.1738">
        <ele>1466</ele>
        <time>2016-07-15T15:36:32Z</time>
      </trkpt>
      <trkpt lat="46.51967" lon="6.17421">
        <ele>1463</ele>
        <time>2016-07-15T15:36:37Z</time>
      </trkpt>
      <trkpt lat="46.51971" lon="6.17459">
        <ele>1463</ele>
        <time>2016-07-15T15:36:41Z</time>
      </trkpt>
      <trkpt lat="46.51979" lon="6.17498">
        <ele>1464</ele>
        <time>2016-07-15T15:36:45Z</time>
      </trkpt>
      <trkpt lat="46.51986" lon="6.17523">
        <ele>1462</ele>
        <time>2016-07-15T15:36:50Z</time>
      </trkpt>
      <trkpt lat="46.52002" lon="6.17545">
        <ele>1473</ele>
        <time>2016-07-15T15:36:55Z</time>
      </trkpt>
      <trkpt lat="46.52015" lon="6.1757">
        <ele>1471</ele>
        <time>2016-07-15T15:37:00Z</time>
      </trkpt>
      <trkpt lat="46.52026" lon="6.17593">
        <ele>1465</ele>
        <time>2016-07-15T15:37:04Z</time>
      </trkpt>
      <trkpt lat="46.52037" lon="6.17618">
        <ele>1465</ele>
        <time>2016-07-15T15:37:08Z</time>
      </trkpt>
      <trkpt lat="46.52047" lon="6.17645">
        <ele>1464</ele>
        <time>2016-07-15T15:37:12Z</time>
      </trkpt>
      <trkpt lat="46.52063" lon="6.17678">
        <ele>1456</ele>
        <time>2016-07-15T15:37:17Z</time>
      </trkpt>
      <trkpt lat="46.52082" lon="6.17695">
        <ele>1455</ele>
        <time>2016-07-15T15:37:21Z</time>
      </trkpt>
      <trkpt lat="46.52094" lon="6.17707">
        <ele>1467</ele>
        <time>2016-07-15T15:37:23Z</time>
      </trkpt>
      <trkpt lat="46.52116" lon="6.17747">
        <ele>1465</ele>
        <time>2016-07-15T15:37:31Z</time>
      </trkpt>
      <trkpt lat="46.52126" lon="6.17774">
        <ele>1455</ele>
        <time>2016-07-15T15:37:35Z</time>
      </trkpt>
      <trkpt lat="46.52141" lon="6.178">
        <ele>1455</ele>
        <time>2016-07-15T15:37:40Z</time>
      </trkpt>
      <trkpt lat="46.52158" lon="6.1782">
        <ele>1454</ele>
        <time>2016-07-15T15:37:44Z</time>
      </trkpt>
      <trkpt lat="46.52177" lon="6.17841">
        <ele>1452</ele>
        <time>2016-07-15T15:37:48Z</time>
      </trkpt>
      <trkpt lat="46.52194" lon="6.17856">
        <ele>1451</ele>
        <time>2016-07-15T15:37:51Z</time>
      </trkpt>
      <trkpt lat="46.52221" lon="6.17884">
        <ele>1449</ele>
        <time>2016-07-15T15:37:56Z</time>
      </trkpt>
      <trkpt lat="46.5225" lon="6.17913">
        <ele>1444</ele>
        <time>2016-07-15T15:38:01Z</time>
      </trkpt>
      <trkpt lat="46.52275" lon="6.17941">
        <ele>1444</ele>
        <time>2016-07-15T15:38:06Z</time>
      </trkpt>
      <trkpt lat="46.52298" lon="6.1797">
        <ele>1443</ele>
        <time>2016-07-15T15:38:11Z</time>
      </trkpt>
      <trkpt lat="46.52308" lon="6.17981">
        <ele>1443</ele>
        <time>2016-07-15T15:38:13Z</time>
      </trkpt>
      <trkpt lat="46.52327" lon="6.18005">
        <ele>1438</ele>
        <time>2016-07-15T15:38:18Z</time>
      </trkpt>
      <trkpt lat="46.52334" lon="6.18014">
        <ele>1440</ele>
        <time>2016-07-15T15:38:22Z</time>
      </trkpt>
      <trkpt lat="46.52341" lon="6.18019">
        <ele>1439</ele>
        <time>2016-07-15T15:38:29Z</time>
      </trkpt>
      <trkpt lat="46.5235" lon="6.18028">
        <ele>1438</ele>
        <time>2016-07-15T15:38:34Z</time>
      </trkpt>
      <trkpt lat="46.52358" lon="6.18037">
        <ele>1436</ele>
        <time>2016-07-15T15:38:38Z</time>
      </trkpt>
      <trkpt lat="46.52367" lon="6.18046">
        <ele>1436</ele>
        <time>2016-07-15T15:38:43Z</time>
      </trkpt>
      <trkpt lat="46.52378" lon="6.18058">
        <ele>1435</ele>
        <time>2016-07-15T15:38:47Z</time>
      </trkpt>
      <trkpt lat="46.52397" lon="6.18081">
        <ele>1433</ele>
        <time>2016-07-15T15:38:51Z</time>
      </trkpt>
      <trkpt lat="46.5242" lon="6.18106">
        <ele>1430</ele>
        <time>2016-07-15T15:38:55Z</time>
      </trkpt>
      <trkpt lat="46.52452" lon="6.18138">
        <ele>1428</ele>
        <time>2016-07-15T15:39:00Z</time>
      </trkpt>
      <trkpt lat="46.52477" lon="6.18171">
        <ele>1420</ele>
        <time>2016-07-15T15:39:04Z</time>
      </trkpt>
      <trkpt lat="46.52497" lon="6.18195">
        <ele>1419</ele>
        <time>2016-07-15T15:39:08Z</time>
      </trkpt>
      <trkpt lat="46.52505" lon="6.18206">
        <ele>1427</ele>
        <time>2016-07-15T15:39:13Z</time>
      </trkpt>
      <trkpt lat="46.5251" lon="6.18213">
        <ele>1426</ele>
        <time>2016-07-15T15:39:22Z</time>
      </trkpt>
      <trkpt lat="46.52521" lon="6.18229">
        <ele>1424</ele>
        <time>2016-07-15T15:39:26Z</time>
      </trkpt>
      <trkpt lat="46.52543" lon="6.18272">
        <ele>1416</ele>
        <time>2016-07-15T15:39:31Z</time>
      </trkpt>
      <trkpt lat="46.5256" lon="6.18305">
        <ele>1415</ele>
        <time>2016-07-15T15:39:35Z</time>
      </trkpt>
      <trkpt lat="46.52579" lon="6.18346">
        <ele>1411</ele>
        <time>2016-07-15T15:39:40Z</time>
      </trkpt>
      <trkpt lat="46.52601" lon="6.18387">
        <ele>1415</ele>
        <time>2016-07-15T15:39:45Z</time>
      </trkpt>
      <trkpt lat="46.52618" lon="6.18405">
        <ele>1416</ele>
        <time>2016-07-15T15:39:49Z</time>
      </trkpt>
      <trkpt lat="46.52633" lon="6.18408">
        <ele>1418</ele>
        <time>2016-07-15T15:39:53Z</time>
      </trkpt>
      <trkpt lat="46.52638" lon="6.18408">
        <ele>1419</ele>
        <time>2016-07-15T15:39:57Z</time>
      </trkpt>
      <trkpt lat="46.52648" lon="6.18413">
        <ele>1419</ele>
        <time>2016-07-15T15:40:02Z</time>
      </trkpt>
      <trkpt lat="46.52649" lon="6.18413">
        <ele>1419</ele>
        <time>2016-07-15T15:40:05Z</time>
      </trkpt>
      <trkpt lat="46.52662" lon="6.18419">
        <ele>1416</ele>
        <time>2016-07-15T15:40:10Z</time>
      </trkpt>
      <trkpt lat="46.52671" lon="6.18424">
        <ele>1419</ele>
        <time>2016-07-15T15:40:14Z</time>
      </trkpt>
      <trkpt lat="46.52682" lon="6.18431">
        <ele>1420</ele>
        <time>2016-07-15T15:40:19Z</time>
      </trkpt>
      <trkpt lat="46.52693" lon="6.18437">
        <ele>1421</ele>
        <time>2016-07-15T15:40:23Z</time>
      </trkpt>
      <trkpt lat="46.52707" lon="6.18444">
        <ele>1422</ele>
        <time>2016-07-15T15:40:28Z</time>
      </trkpt>
      <trkpt lat="46.52717" lon="6.18448">
        <ele>1423</ele>
        <time>2016-07-15T15:40:32Z</time>
      </trkpt>
      <trkpt lat="46.52728" lon="6.1845">
        <ele>1424</ele>
        <time>2016-07-15T15:40:36Z</time>
      </trkpt>
      <trkpt lat="46.52737" lon="6.18454">
        <ele>1425</ele>
        <time>2016-07-15T15:40:40Z</time>
      </trkpt>
      <trkpt lat="46.52737" lon="6.18454">
        <ele>1425</ele>
        <time>2016-07-15T15:42:27Z</time>
      </trkpt>
      <trkpt lat="46.52923" lon="6.1855">
        <ele>1443</ele>
        <time>2016-07-15T15:42:31Z</time>
      </trkpt>
      <trkpt lat="46.52927" lon="6.18544">
        <ele>1443</ele>
        <time>2016-07-15T15:42:36Z</time>
      </trkpt>
      <trkpt lat="46.52934" lon="6.18534">
        <ele>1444</ele>
        <time>2016-07-15T15:42:41Z</time>
      </trkpt>
      <trkpt lat="46.52938" lon="6.18524">
        <ele>1444</ele>
        <time>2016-07-15T15:42:46Z</time>
      </trkpt>
      <trkpt lat="46.52943" lon="6.18513">
        <ele>1444</ele>
        <time>2016-07-15T15:42:50Z</time>
      </trkpt>
      <trkpt lat="46.52947" lon="6.185">
        <ele>1445</ele>
        <time>2016-07-15T15:42:54Z</time>
      </trkpt>
      <trkpt lat="46.52952" lon="6.18486">
        <ele>1448</ele>
        <time>2016-07-15T15:42:59Z</time>
      </trkpt>
      <trkpt lat="46.52956" lon="6.18474">
        <ele>1448</ele>
        <time>2016-07-15T15:43:03Z</time>
      </trkpt>
      <trkpt lat="46.52963" lon="6.18461">
        <ele>1449</ele>
        <time>2016-07-15T15:43:07Z</time>
      </trkpt>
      <trkpt lat="46.52971" lon="6.18446">
        <ele>1450</ele>
        <time>2016-07-15T15:43:12Z</time>
      </trkpt>
      <trkpt lat="46.52979" lon="6.18435">
        <ele>1450</ele>
        <time>2016-07-15T15:43:16Z</time>
      </trkpt>
      <trkpt lat="46.52985" lon="6.18428">
        <ele>1451</ele>
        <time>2016-07-15T15:43:20Z</time>
      </trkpt>
      <trkpt lat="46.52997" lon="6.18419">
        <ele>1452</ele>
        <time>2016-07-15T15:43:24Z</time>
      </trkpt>
      <trkpt lat="46.53006" lon="6.18411">
        <ele>1454</ele>
        <time>2016-07-15T15:43:28Z</time>
      </trkpt>
      <trkpt lat="46.53016" lon="6.18404">
        <ele>1456</ele>
        <time>2016-07-15T15:43:32Z</time>
      </trkpt>
      <trkpt lat="46.53028" lon="6.18393">
        <ele>1458</ele>
        <time>2016-07-15T15:43:36Z</time>
      </trkpt>
      <trkpt lat="46.53036" lon="6.18387">
        <ele>1458</ele>
        <time>2016-07-15T15:43:40Z</time>
      </trkpt>
      <trkpt lat="46.53047" lon="6.18379">
        <ele>1459</ele>
        <time>2016-07-15T15:43:44Z</time>
      </trkpt>
      <trkpt lat="46.53061" lon="6.18369">
        <ele>1459</ele>
        <time>2016-07-15T15:43:49Z</time>
      </trkpt>
      <trkpt lat="46.53075" lon="6.18362">
        <ele>1460</ele>
        <time>2016-07-15T15:43:54Z</time>
      </trkpt>
      <trkpt lat="46.53085" lon="6.18356">
        <ele>1464</ele>
        <time>2016-07-15T15:43:58Z</time>
      </trkpt>
      <trkpt lat="46.53094" lon="6.18347">
        <ele>1463</ele>
        <time>2016-07-15T15:44:02Z</time>
      </trkpt>
      <trkpt lat="46.531" lon="6.18339">
        <ele>1464</ele>
        <time>2016-07-15T15:44:06Z</time>
      </trkpt>
      <trkpt lat="46.53107" lon="6.1833">
        <ele>1465</ele>
        <time>2016-07-15T15:44:11Z</time>
      </trkpt>
      <trkpt lat="46.53112" lon="6.1832">
        <ele>1465</ele>
        <time>2016-07-15T15:44:16Z</time>
      </trkpt>
      <trkpt lat="46.5312" lon="6.18315">
        <ele>1466</ele>
        <time>2016-07-15T15:44:21Z</time>
      </trkpt>
      <trkpt lat="46.53126" lon="6.18309">
        <ele>1467</ele>
        <time>2016-07-15T15:44:26Z</time>
      </trkpt>
      <trkpt lat="46.5313" lon="6.18298">
        <ele>1467</ele>
        <time>2016-07-15T15:44:31Z</time>
      </trkpt>
      <trkpt lat="46.53133" lon="6.18284">
        <ele>1467</ele>
        <time>2016-07-15T15:44:36Z</time>
      </trkpt>
      <trkpt lat="46.53134" lon="6.18267">
        <ele>1467</ele>
        <time>2016-07-15T15:44:41Z</time>
      </trkpt>
      <trkpt lat="46.53135" lon="6.18257">
        <ele>1468</ele>
        <time>2016-07-15T15:44:44Z</time>
      </trkpt>
      <trkpt lat="46.53139" lon="6.18242">
        <ele>1470</ele>
        <time>2016-07-15T15:44:48Z</time>
      </trkpt>
      <trkpt lat="46.53143" lon="6.18226">
        <ele>1470</ele>
        <time>2016-07-15T15:44:53Z</time>
      </trkpt>
      <trkpt lat="46.53145" lon="6.18215">
        <ele>1470</ele>
        <time>2016-07-15T15:44:57Z</time>
      </trkpt>
      <trkpt lat="46.53148" lon="6.18204">
        <ele>1471</ele>
        <time>2016-07-15T15:45:01Z</time>
      </trkpt>
      <trkpt lat="46.53152" lon="6.18191">
        <ele>1471</ele>
        <time>2016-07-15T15:45:06Z</time>
      </trkpt>
      <trkpt lat="46.53157" lon="6.18179">
        <ele>1471</ele>
        <time>2016-07-15T15:45:12Z</time>
      </trkpt>
      <trkpt lat="46.5316" lon="6.18169">
        <ele>1471</ele>
        <time>2016-07-15T15:45:19Z</time>
      </trkpt>
      <trkpt lat="46.53164" lon="6.1816">
        <ele>1472</ele>
        <time>2016-07-15T15:45:24Z</time>
      </trkpt>
      <trkpt lat="46.5317" lon="6.1815">
        <ele>1471</ele>
        <time>2016-07-15T15:45:28Z</time>
      </trkpt>
      <trkpt lat="46.53179" lon="6.18135">
        <ele>1471</ele>
        <time>2016-07-15T15:45:33Z</time>
      </trkpt>
      <trkpt lat="46.53185" lon="6.18121">
        <ele>1471</ele>
        <time>2016-07-15T15:45:38Z</time>
      </trkpt>
      <trkpt lat="46.53189" lon="6.18111">
        <ele>1471</ele>
        <time>2016-07-15T15:45:42Z</time>
      </trkpt>
      <trkpt lat="46.53196" lon="6.18101">
        <ele>1471</ele>
        <time>2016-07-15T15:45:47Z</time>
      </trkpt>
      <trkpt lat="46.53203" lon="6.18097">
        <ele>1471</ele>
        <time>2016-07-15T15:45:52Z</time>
      </trkpt>
      <trkpt lat="46.53212" lon="6.18097">
        <ele>1471</ele>
        <time>2016-07-15T15:45:56Z</time>
      </trkpt>
      <trkpt lat="46.5322" lon="6.18096">
        <ele>1471</ele>
        <time>2016-07-15T15:46:01Z</time>
      </trkpt>
      <trkpt lat="46.53228" lon="6.18099">
        <ele>1470</ele>
        <time>2016-07-15T15:57:04Z</time>
      </trkpt>
      <trkpt lat="46.53228" lon="6.18099">
        <ele>1470</ele>
        <time>2016-07-15T15:57:05Z</time>
      </trkpt>
    </trkseg>
  </trk>
</gpx>